<?xml version='1.0' encoding='UTF-8'?><gpx version="1.1" creator="JPX - https://github.com/jenetics/jpx" xmlns="http://www.topografix.com/GPX/1/1"><trk><trkseg><trkpt lat="44.3719875" lon="10.8341435"><ele>702.0</ele><time>2026-03-22T10:46:02.273Z</time></trkpt><trkpt lat="44.3719259" lon="10.8342069"><ele>702.0</ele><time>2026-03-22T10:46:03.287Z</time></trkpt><trkpt lat="44.3718605" lon="10.834273"><ele>702.0</ele><time>2026-03-22T10:46:04.29Z</time></trkpt><trkpt lat="44.3717884" lon="10.8343497"><ele>702.0</ele><time>2026-03-22T10:46:05.276Z</time></trkpt><trkpt lat="44.3717058" lon="10.8344388"><ele>702.0</ele><time>2026-03-22T10:46:06.289Z</time></trkpt><trkpt lat="44.3716098" lon="10.8345417"><ele>702.75</ele><time>2026-03-22T10:46:07.285Z</time></trkpt><trkpt lat="44.3715034" lon="10.83466"><ele>703.5</ele><time>2026-03-22T10:46:08.294Z</time></trkpt><trkpt lat="44.3713914" lon="10.8347883"><ele>704.25</ele><time>2026-03-22T10:46:09.277Z</time></trkpt><trkpt lat="44.3712699" lon="10.8349187"><ele>705.0</ele><time>2026-03-22T10:46:10.277Z</time></trkpt><trkpt lat="44.3711412" lon="10.8350281"><ele>705.0</ele><time>2026-03-22T10:46:11.283Z</time></trkpt><trkpt lat="44.3710038" lon="10.8350952"><ele>705.0</ele><time>2026-03-22T10:46:12.272Z</time></trkpt><trkpt lat="44.3708549" lon="10.8351318"><ele>705.0</ele><time>2026-03-22T10:46:13.289Z</time></trkpt><trkpt lat="44.370699" lon="10.8351535"><ele>705.0</ele><time>2026-03-22T10:46:14.276Z</time></trkpt><trkpt lat="44.3705362" lon="10.8351702"><ele>705.0</ele><time>2026-03-22T10:46:15.278Z</time></trkpt><trkpt lat="44.3703699" lon="10.8351777"><ele>705.0</ele><time>2026-03-22T10:46:16.273Z</time></trkpt><trkpt lat="44.3702014" lon="10.8351772"><ele>705.0</ele><time>2026-03-22T10:46:17.286Z</time></trkpt><trkpt lat="44.3700347" lon="10.8351703"><ele>705.0</ele><time>2026-03-22T10:46:18.277Z</time></trkpt><trkpt lat="44.3698641" lon="10.8351572"><ele>705.0</ele><time>2026-03-22T10:46:19.307Z</time></trkpt><trkpt lat="44.3696956" lon="10.8351411"><ele>704.6666666666666</ele><time>2026-03-22T10:46:20.274Z</time></trkpt><trkpt lat="44.3695224" lon="10.8351242"><ele>704.3333333333333</ele><time>2026-03-22T10:46:21.268Z</time></trkpt><trkpt lat="44.3693472" lon="10.8351078"><ele>704.0</ele><time>2026-03-22T10:46:22.276Z</time></trkpt><trkpt lat="44.3691719" lon="10.835092"><ele>704.0</ele><time>2026-03-22T10:46:23.285Z</time></trkpt><trkpt lat="44.3689992" lon="10.835076"><ele>704.0</ele><time>2026-03-22T10:46:24.272Z</time></trkpt><trkpt lat="44.3688279" lon="10.8350582"><ele>704.0</ele><time>2026-03-22T10:46:25.292Z</time></trkpt><trkpt lat="44.3686648" lon="10.8350393"><ele>703.75</ele><time>2026-03-22T10:46:26.27Z</time></trkpt><trkpt lat="44.3685075" lon="10.8350187"><ele>703.5</ele><time>2026-03-22T10:46:27.29Z</time></trkpt><trkpt lat="44.3683602" lon="10.8349998"><ele>703.25</ele><time>2026-03-22T10:46:28.291Z</time></trkpt><trkpt lat="44.3682193" lon="10.8349846"><ele>703.0</ele><time>2026-03-22T10:46:29.274Z</time></trkpt><trkpt lat="44.3680837" lon="10.8349724"><ele>703.25</ele><time>2026-03-22T10:46:30.28Z</time></trkpt><trkpt lat="44.3679528" lon="10.8349622"><ele>703.5</ele><time>2026-03-22T10:46:31.276Z</time></trkpt><trkpt lat="44.3678226" lon="10.8349509"><ele>703.75</ele><time>2026-03-22T10:46:32.276Z</time></trkpt><trkpt lat="44.3676929" lon="10.8349392"><ele>704.0</ele><time>2026-03-22T10:46:33.282Z</time></trkpt><trkpt lat="44.3675622" lon="10.8349276"><ele>704.0</ele><time>2026-03-22T10:46:34.287Z</time></trkpt><trkpt lat="44.3674277" lon="10.8349151"><ele>704.0</ele><time>2026-03-22T10:46:35.284Z</time></trkpt><trkpt lat="44.3672912" lon="10.8349007"><ele>704.0</ele><time>2026-03-22T10:46:36.279Z</time></trkpt><trkpt lat="44.367154" lon="10.8348845"><ele>704.0</ele><time>2026-03-22T10:46:37.291Z</time></trkpt><trkpt lat="44.3670185" lon="10.8348685"><ele>704.25</ele><time>2026-03-22T10:46:38.272Z</time></trkpt><trkpt lat="44.3668812" lon="10.8348524"><ele>704.5</ele><time>2026-03-22T10:46:39.291Z</time></trkpt><trkpt lat="44.3667458" lon="10.8348381"><ele>704.75</ele><time>2026-03-22T10:46:40.284Z</time></trkpt><trkpt lat="44.366608" lon="10.8348248"><ele>705.0</ele><time>2026-03-22T10:46:41.287Z</time></trkpt><trkpt lat="44.366468" lon="10.8348134"><ele>706.0</ele><time>2026-03-22T10:46:42.292Z</time></trkpt><trkpt lat="44.3663296" lon="10.8348021"><ele>707.0</ele><time>2026-03-22T10:46:43.29Z</time></trkpt><trkpt lat="44.3661959" lon="10.8347907"><ele>708.0</ele><time>2026-03-22T10:46:44.29Z</time></trkpt><trkpt lat="44.3660697" lon="10.834779"><ele>709.0</ele><time>2026-03-22T10:46:45.284Z</time></trkpt><trkpt lat="44.3659478" lon="10.834767"><ele>709.0</ele><time>2026-03-22T10:46:46.277Z</time></trkpt><trkpt lat="44.3658281" lon="10.8347549"><ele>709.0</ele><time>2026-03-22T10:46:47.274Z</time></trkpt><trkpt lat="44.3657078" lon="10.834741"><ele>709.0</ele><time>2026-03-22T10:46:48.29Z</time></trkpt><trkpt lat="44.3655893" lon="10.8347265"><ele>709.0</ele><time>2026-03-22T10:46:49.274Z</time></trkpt><trkpt lat="44.365471" lon="10.8347135"><ele>709.2</ele><time>2026-03-22T10:46:50.287Z</time></trkpt><trkpt lat="44.3653567" lon="10.8347034"><ele>709.4000000000001</ele><time>2026-03-22T10:46:51.28Z</time></trkpt><trkpt lat="44.3652468" lon="10.8346966"><ele>709.6</ele><time>2026-03-22T10:46:52.279Z</time></trkpt><trkpt lat="44.3651415" lon="10.834694"><ele>709.8</ele><time>2026-03-22T10:46:53.294Z</time></trkpt><trkpt lat="44.3650375" lon="10.8347023"><ele>710.0</ele><time>2026-03-22T10:46:54.28Z</time></trkpt><trkpt lat="44.3649314" lon="10.8347297"><ele>710.0</ele><time>2026-03-22T10:46:55.285Z</time></trkpt><trkpt lat="44.3648261" lon="10.8347794"><ele>710.0</ele><time>2026-03-22T10:46:56.285Z</time></trkpt><trkpt lat="44.3647244" lon="10.8348488"><ele>710.0</ele><time>2026-03-22T10:46:57.269Z</time></trkpt><trkpt lat="44.3646326" lon="10.8349364"><ele>710.0</ele><time>2026-03-22T10:46:58.276Z</time></trkpt><trkpt lat="44.3645544" lon="10.8350459"><ele>710.0</ele><time>2026-03-22T10:46:59.27Z</time></trkpt><trkpt lat="44.3644921" lon="10.8351796"><ele>711.0</ele><time>2026-03-22T10:47:00.281Z</time></trkpt><trkpt lat="44.3644446" lon="10.8353302"><ele>712.0</ele><time>2026-03-22T10:47:01.277Z</time></trkpt><trkpt lat="44.3644046" lon="10.8354907"><ele>713.0</ele><time>2026-03-22T10:47:02.291Z</time></trkpt><trkpt lat="44.3643663" lon="10.8356511"><ele>714.0</ele><time>2026-03-22T10:47:03.283Z</time></trkpt><trkpt lat="44.3643297" lon="10.8358006"><ele>714.0</ele><time>2026-03-22T10:47:04.268Z</time></trkpt><trkpt lat="44.364289" lon="10.8359556"><ele>714.0</ele><time>2026-03-22T10:47:05.271Z</time></trkpt><trkpt lat="44.3642463" lon="10.8361148"><ele>714.0</ele><time>2026-03-22T10:47:06.269Z</time></trkpt><trkpt lat="44.3642018" lon="10.836275"><ele>714.0</ele><time>2026-03-22T10:47:07.272Z</time></trkpt><trkpt lat="44.3641507" lon="10.8364349"><ele>714.75</ele><time>2026-03-22T10:47:08.287Z</time></trkpt><trkpt lat="44.3640928" lon="10.8365928"><ele>715.5</ele><time>2026-03-22T10:47:09.283Z</time></trkpt><trkpt lat="44.3640244" lon="10.8367473"><ele>716.25</ele><time>2026-03-22T10:47:10.272Z</time></trkpt><trkpt lat="44.3639469" lon="10.8368999"><ele>717.0</ele><time>2026-03-22T10:47:11.298Z</time></trkpt><trkpt lat="44.3638658" lon="10.8370476"><ele>717.25</ele><time>2026-03-22T10:47:12.287Z</time></trkpt><trkpt lat="44.3637829" lon="10.8371936"><ele>717.5</ele><time>2026-03-22T10:47:13.279Z</time></trkpt><trkpt lat="44.3637002" lon="10.8373396"><ele>717.75</ele><time>2026-03-22T10:47:14.286Z</time></trkpt><trkpt lat="44.3636165" lon="10.8374841"><ele>718.0</ele><time>2026-03-22T10:47:15.279Z</time></trkpt><trkpt lat="44.3635299" lon="10.8376272"><ele>719.0</ele><time>2026-03-22T10:47:16.278Z</time></trkpt><trkpt lat="44.3634392" lon="10.8377695"><ele>720.0</ele><time>2026-03-22T10:47:17.294Z</time></trkpt><trkpt lat="44.3633467" lon="10.8379104"><ele>721.0</ele><time>2026-03-22T10:47:18.281Z</time></trkpt><trkpt lat="44.3632511" lon="10.8380533"><ele>722.0</ele><time>2026-03-22T10:47:19.29Z</time></trkpt><trkpt lat="44.3631548" lon="10.8381945"><ele>722.0</ele><time>2026-03-22T10:47:20.274Z</time></trkpt><trkpt lat="44.3630563" lon="10.8383362"><ele>722.0</ele><time>2026-03-22T10:47:21.269Z</time></trkpt><trkpt lat="44.362955" lon="10.8384772"><ele>722.0</ele><time>2026-03-22T10:47:22.285Z</time></trkpt><trkpt lat="44.3628515" lon="10.8386155"><ele>722.0</ele><time>2026-03-22T10:47:23.277Z</time></trkpt><trkpt lat="44.3627423" lon="10.8387523"><ele>722.0</ele><time>2026-03-22T10:47:24.281Z</time></trkpt><trkpt lat="44.3626295" lon="10.8388879"><ele>722.0</ele><time>2026-03-22T10:47:25.283Z</time></trkpt><trkpt lat="44.362516" lon="10.8390265"><ele>722.0</ele><time>2026-03-22T10:47:26.29Z</time></trkpt><trkpt lat="44.3624069" lon="10.8391598"><ele>722.0</ele><time>2026-03-22T10:47:27.285Z</time></trkpt><trkpt lat="44.3623071" lon="10.839294"><ele>721.0</ele><time>2026-03-22T10:47:28.279Z</time></trkpt><trkpt lat="44.3622149" lon="10.8394338"><ele>720.0</ele><time>2026-03-22T10:47:29.271Z</time></trkpt><trkpt lat="44.3621376" lon="10.839583"><ele>719.0</ele><time>2026-03-22T10:47:30.279Z</time></trkpt><trkpt lat="44.3620806" lon="10.8397415"><ele>718.0</ele><time>2026-03-22T10:47:31.269Z</time></trkpt><trkpt lat="44.3620384" lon="10.8399083"><ele>720.5</ele><time>2026-03-22T10:47:32.275Z</time></trkpt><trkpt lat="44.3620082" lon="10.8400752"><ele>723.0</ele><time>2026-03-22T10:47:33.265Z</time></trkpt><trkpt lat="44.3619871" lon="10.8402423"><ele>725.5</ele><time>2026-03-22T10:47:34.292Z</time></trkpt><trkpt lat="44.361972" lon="10.8404067"><ele>728.0</ele><time>2026-03-22T10:47:35.283Z</time></trkpt><trkpt lat="44.3619556" lon="10.8405737"><ele>728.25</ele><time>2026-03-22T10:47:36.266Z</time></trkpt><trkpt lat="44.3619349" lon="10.8407439"><ele>728.5</ele><time>2026-03-22T10:47:37.273Z</time></trkpt><trkpt lat="44.3619066" lon="10.8409058"><ele>728.75</ele><time>2026-03-22T10:47:38.284Z</time></trkpt><trkpt lat="44.3618612" lon="10.8410615"><ele>729.0</ele><time>2026-03-22T10:47:39.27Z</time></trkpt><trkpt lat="44.3618024" lon="10.8411974"><ele>729.6</ele><time>2026-03-22T10:47:40.287Z</time></trkpt><trkpt lat="44.3617386" lon="10.8413096"><ele>730.2</ele><time>2026-03-22T10:47:41.28Z</time></trkpt><trkpt lat="44.3616609" lon="10.8414014"><ele>730.8000000000001</ele><time>2026-03-22T10:47:42.27Z</time></trkpt><trkpt lat="44.3615679" lon="10.8414614"><ele>731.4000000000001</ele><time>2026-03-22T10:47:43.269Z</time></trkpt><trkpt lat="44.361462" lon="10.8414827"><ele>732.0</ele><time>2026-03-22T10:47:44.283Z</time></trkpt><trkpt lat="44.3613477" lon="10.841475"><ele>732.5</ele><time>2026-03-22T10:47:45.287Z</time></trkpt><trkpt lat="44.3612273" lon="10.8414562"><ele>733.0</ele><time>2026-03-22T10:47:46.275Z</time></trkpt><trkpt lat="44.3610998" lon="10.841427"><ele>733.5</ele><time>2026-03-22T10:47:47.271Z</time></trkpt><trkpt lat="44.3609635" lon="10.8413889"><ele>734.0</ele><time>2026-03-22T10:47:48.269Z</time></trkpt><trkpt lat="44.3608178" lon="10.841345"><ele>734.0</ele><time>2026-03-22T10:47:49.271Z</time></trkpt><trkpt lat="44.3606631" lon="10.841303"><ele>734.0</ele><time>2026-03-22T10:47:50.28Z</time></trkpt><trkpt lat="44.3605038" lon="10.841262"><ele>734.0</ele><time>2026-03-22T10:47:51.289Z</time></trkpt><trkpt lat="44.3603436" lon="10.8412177"><ele>734.0</ele><time>2026-03-22T10:47:52.284Z</time></trkpt><trkpt lat="44.3601805" lon="10.8411687"><ele>734.0</ele><time>2026-03-22T10:47:53.283Z</time></trkpt><trkpt lat="44.3600147" lon="10.8411163"><ele>734.0</ele><time>2026-03-22T10:47:54.291Z</time></trkpt><trkpt lat="44.359849" lon="10.8410597"><ele>734.3333333333333</ele><time>2026-03-22T10:47:55.281Z</time></trkpt><trkpt lat="44.3596815" lon="10.8409979"><ele>734.6666666666666</ele><time>2026-03-22T10:47:56.288Z</time></trkpt><trkpt lat="44.3595183" lon="10.8409353"><ele>735.0</ele><time>2026-03-22T10:47:57.277Z</time></trkpt><trkpt lat="44.3593597" lon="10.8408749"><ele>730.5</ele><time>2026-03-22T10:47:58.277Z</time></trkpt><trkpt lat="44.3592066" lon="10.8408292"><ele>726.0</ele><time>2026-03-22T10:47:59.273Z</time></trkpt><trkpt lat="44.3590583" lon="10.8408076"><ele>721.5</ele><time>2026-03-22T10:48:00.284Z</time></trkpt><trkpt lat="44.3589172" lon="10.8408182"><ele>717.0</ele><time>2026-03-22T10:48:01.28Z</time></trkpt><trkpt lat="44.3587804" lon="10.8408597"><ele>715.75</ele><time>2026-03-22T10:48:02.293Z</time></trkpt><trkpt lat="44.3586618" lon="10.840938"><ele>714.5</ele><time>2026-03-22T10:48:03.266Z</time></trkpt><trkpt lat="44.3585398" lon="10.841025"><ele>713.25</ele><time>2026-03-22T10:48:04.286Z</time></trkpt><trkpt lat="44.35843" lon="10.8411413"><ele>712.0</ele><time>2026-03-22T10:48:05.269Z</time></trkpt><trkpt lat="44.3583291" lon="10.8412772"><ele>711.75</ele><time>2026-03-22T10:48:06.283Z</time></trkpt><trkpt lat="44.3582324" lon="10.8414187"><ele>711.5</ele><time>2026-03-22T10:48:07.288Z</time></trkpt><trkpt lat="44.3581328" lon="10.8415573"><ele>711.25</ele><time>2026-03-22T10:48:08.277Z</time></trkpt><trkpt lat="44.3580275" lon="10.8416893"><ele>711.0</ele><time>2026-03-22T10:48:09.289Z</time></trkpt><trkpt lat="44.35792" lon="10.8418061"><ele>713.25</ele><time>2026-03-22T10:48:10.281Z</time></trkpt><trkpt lat="44.3578086" lon="10.8419061"><ele>715.5</ele><time>2026-03-22T10:48:11.292Z</time></trkpt><trkpt lat="44.357695" lon="10.8419831"><ele>717.75</ele><time>2026-03-22T10:48:12.277Z</time></trkpt><trkpt lat="44.3575763" lon="10.8420345"><ele>720.0</ele><time>2026-03-22T10:48:13.277Z</time></trkpt><trkpt lat="44.3574531" lon="10.8420509"><ele>720.0</ele><time>2026-03-22T10:48:14.278Z</time></trkpt><trkpt lat="44.3573301" lon="10.8420317"><ele>720.0</ele><time>2026-03-22T10:48:15.269Z</time></trkpt><trkpt lat="44.3572123" lon="10.8419848"><ele>720.0</ele><time>2026-03-22T10:48:16.275Z</time></trkpt><trkpt lat="44.3571031" lon="10.8418994"><ele>720.0</ele><time>2026-03-22T10:48:17.277Z</time></trkpt><trkpt lat="44.3569975" lon="10.8418086"><ele>719.75</ele><time>2026-03-22T10:48:18.281Z</time></trkpt><trkpt lat="44.356892" lon="10.8417168"><ele>719.5</ele><time>2026-03-22T10:48:19.268Z</time></trkpt><trkpt lat="44.3567822" lon="10.8416219"><ele>719.25</ele><time>2026-03-22T10:48:20.292Z</time></trkpt><trkpt lat="44.3566749" lon="10.841523"><ele>719.0</ele><time>2026-03-22T10:48:21.282Z</time></trkpt><trkpt lat="44.3565733" lon="10.8414233"><ele>719.0</ele><time>2026-03-22T10:48:22.273Z</time></trkpt><trkpt lat="44.356479" lon="10.8413245"><ele>719.0</ele><time>2026-03-22T10:48:23.28Z</time></trkpt><trkpt lat="44.3563888" lon="10.8412268"><ele>719.0</ele><time>2026-03-22T10:48:24.278Z</time></trkpt><trkpt lat="44.3562988" lon="10.8411271"><ele>719.0</ele><time>2026-03-22T10:48:25.281Z</time></trkpt><trkpt lat="44.3562054" lon="10.8410263"><ele>717.25</ele><time>2026-03-22T10:48:26.294Z</time></trkpt><trkpt lat="44.356109" lon="10.8409251"><ele>715.5</ele><time>2026-03-22T10:48:27.274Z</time></trkpt><trkpt lat="44.3559963" lon="10.8408299"><ele>713.75</ele><time>2026-03-22T10:48:28.277Z</time></trkpt><trkpt lat="44.3558771" lon="10.8407345"><ele>712.0</ele><time>2026-03-22T10:48:29.274Z</time></trkpt><trkpt lat="44.3557516" lon="10.8406339"><ele>712.0</ele><time>2026-03-22T10:48:30.278Z</time></trkpt><trkpt lat="44.3556166" lon="10.8405353"><ele>712.0</ele><time>2026-03-22T10:48:31.265Z</time></trkpt><trkpt lat="44.3554687" lon="10.8404429"><ele>712.0</ele><time>2026-03-22T10:48:32.29Z</time></trkpt><trkpt lat="44.3553162" lon="10.8403618"><ele>712.3333333333334</ele><time>2026-03-22T10:48:33.281Z</time></trkpt><trkpt lat="44.355165" lon="10.840286"><ele>712.6666666666666</ele><time>2026-03-22T10:48:34.284Z</time></trkpt><trkpt lat="44.355017" lon="10.8402129"><ele>713.0</ele><time>2026-03-22T10:48:35.283Z</time></trkpt><trkpt lat="44.3548707" lon="10.8401418"><ele>711.0</ele><time>2026-03-22T10:48:36.294Z</time></trkpt><trkpt lat="44.3547318" lon="10.8400725"><ele>709.0</ele><time>2026-03-22T10:48:37.272Z</time></trkpt><trkpt lat="44.3545981" lon="10.8399997"><ele>707.0</ele><time>2026-03-22T10:48:38.267Z</time></trkpt><trkpt lat="44.3544699" lon="10.8399185"><ele>705.0</ele><time>2026-03-22T10:48:39.273Z</time></trkpt><trkpt lat="44.3543517" lon="10.8398171"><ele>705.0</ele><time>2026-03-22T10:48:40.286Z</time></trkpt><trkpt lat="44.3542487" lon="10.8396925"><ele>705.0</ele><time>2026-03-22T10:48:41.275Z</time></trkpt><trkpt lat="44.3541623" lon="10.8395446"><ele>705.0</ele><time>2026-03-22T10:48:42.296Z</time></trkpt><trkpt lat="44.3540958" lon="10.8393817"><ele>705.0</ele><time>2026-03-22T10:48:43.28Z</time></trkpt><trkpt lat="44.3540495" lon="10.8392002"><ele>702.75</ele><time>2026-03-22T10:48:44.287Z</time></trkpt><trkpt lat="44.3540226" lon="10.8390142"><ele>700.5</ele><time>2026-03-22T10:48:45.283Z</time></trkpt><trkpt lat="44.3540116" lon="10.8388301"><ele>698.25</ele><time>2026-03-22T10:48:46.269Z</time></trkpt><trkpt lat="44.3540132" lon="10.8386473"><ele>696.0</ele><time>2026-03-22T10:48:47.288Z</time></trkpt><trkpt lat="44.3540193" lon="10.83847"><ele>693.6666666666666</ele><time>2026-03-22T10:48:48.284Z</time></trkpt><trkpt lat="44.3540234" lon="10.8382902"><ele>691.3333333333333</ele><time>2026-03-22T10:48:49.268Z</time></trkpt><trkpt lat="44.3540212" lon="10.8381074"><ele>689.0</ele><time>2026-03-22T10:48:50.264Z</time></trkpt><trkpt lat="44.3540119" lon="10.8375592"><ele>688.75</ele><time>2026-03-22T10:48:53.288Z</time></trkpt><trkpt lat="44.3539588" lon="10.8373991"><ele>688.5</ele><time>2026-03-22T10:48:54.269Z</time></trkpt><trkpt lat="44.353868" lon="10.837238"><ele>688.25</ele><time>2026-03-22T10:48:55.272Z</time></trkpt><trkpt lat="44.3537552" lon="10.837094"><ele>688.0</ele><time>2026-03-22T10:48:56.283Z</time></trkpt><trkpt lat="44.3535928" lon="10.8370195"><ele>688.0</ele><time>2026-03-22T10:48:57.286Z</time></trkpt><trkpt lat="44.3534242" lon="10.8369805"><ele>688.0</ele><time>2026-03-22T10:48:58.283Z</time></trkpt><trkpt lat="44.3532744" lon="10.83693"><ele>688.0</ele><time>2026-03-22T10:48:59.274Z</time></trkpt><trkpt lat="44.3531329" lon="10.8368822"><ele>686.75</ele><time>2026-03-22T10:49:00.293Z</time></trkpt><trkpt lat="44.3530026" lon="10.8368248"><ele>685.5</ele><time>2026-03-22T10:49:01.288Z</time></trkpt><trkpt lat="44.3528731" lon="10.836767"><ele>684.25</ele><time>2026-03-22T10:49:02.288Z</time></trkpt><trkpt lat="44.3527416" lon="10.8367114"><ele>683.0</ele><time>2026-03-22T10:49:03.279Z</time></trkpt><trkpt lat="44.3526062" lon="10.8366625"><ele>680.25</ele><time>2026-03-22T10:49:04.279Z</time></trkpt><trkpt lat="44.3524689" lon="10.8366323"><ele>677.5</ele><time>2026-03-22T10:49:05.262Z</time></trkpt><trkpt lat="44.3523246" lon="10.83661"><ele>674.75</ele><time>2026-03-22T10:49:06.274Z</time></trkpt><trkpt lat="44.352174" lon="10.8365985"><ele>672.0</ele><time>2026-03-22T10:49:07.292Z</time></trkpt><trkpt lat="44.3520224" lon="10.836592"><ele>671.0</ele><time>2026-03-22T10:49:08.286Z</time></trkpt><trkpt lat="44.3518728" lon="10.8365841"><ele>670.0</ele><time>2026-03-22T10:49:09.288Z</time></trkpt><trkpt lat="44.3517275" lon="10.8365723"><ele>669.0</ele><time>2026-03-22T10:49:10.265Z</time></trkpt><trkpt lat="44.3515854" lon="10.8365538"><ele>668.0</ele><time>2026-03-22T10:49:11.275Z</time></trkpt><trkpt lat="44.3514499" lon="10.836529"><ele>667.5</ele><time>2026-03-22T10:49:12.287Z</time></trkpt><trkpt lat="44.3513202" lon="10.8364913"><ele>667.0</ele><time>2026-03-22T10:49:13.291Z</time></trkpt><trkpt lat="44.3511946" lon="10.8364391"><ele>666.5</ele><time>2026-03-22T10:49:14.266Z</time></trkpt><trkpt lat="44.3510737" lon="10.8363786"><ele>666.0</ele><time>2026-03-22T10:49:15.269Z</time></trkpt><trkpt lat="44.3509583" lon="10.8363174"><ele>666.0</ele><time>2026-03-22T10:49:16.292Z</time></trkpt><trkpt lat="44.3508435" lon="10.8362725"><ele>666.0</ele><time>2026-03-22T10:49:17.272Z</time></trkpt><trkpt lat="44.3507259" lon="10.8362549"><ele>666.0</ele><time>2026-03-22T10:49:18.281Z</time></trkpt><trkpt lat="44.3506092" lon="10.8362722"><ele>666.0</ele><time>2026-03-22T10:49:19.277Z</time></trkpt><trkpt lat="44.3504932" lon="10.8363104"><ele>664.75</ele><time>2026-03-22T10:49:20.289Z</time></trkpt><trkpt lat="44.3503808" lon="10.836359"><ele>663.5</ele><time>2026-03-22T10:49:21.275Z</time></trkpt><trkpt lat="44.3502673" lon="10.8364069"><ele>662.25</ele><time>2026-03-22T10:49:22.289Z</time></trkpt><trkpt lat="44.3501503" lon="10.8364391"><ele>661.0</ele><time>2026-03-22T10:49:23.288Z</time></trkpt><trkpt lat="44.3500265" lon="10.8364496"><ele>661.0</ele><time>2026-03-22T10:49:24.279Z</time></trkpt><trkpt lat="44.349899" lon="10.836433"><ele>661.0</ele><time>2026-03-22T10:49:25.28Z</time></trkpt><trkpt lat="44.3497731" lon="10.8363912"><ele>661.0</ele><time>2026-03-22T10:49:26.291Z</time></trkpt><trkpt lat="44.349652" lon="10.8363318"><ele>661.0</ele><time>2026-03-22T10:49:27.28Z</time></trkpt><trkpt lat="44.3495341" lon="10.8362647"><ele>662.5</ele><time>2026-03-22T10:49:28.29Z</time></trkpt><trkpt lat="44.349421" lon="10.8361942"><ele>664.0</ele><time>2026-03-22T10:49:29.288Z</time></trkpt><trkpt lat="44.3493093" lon="10.8361203"><ele>665.5</ele><time>2026-03-22T10:49:30.273Z</time></trkpt><trkpt lat="44.3491966" lon="10.8360452"><ele>667.0</ele><time>2026-03-22T10:49:31.279Z</time></trkpt><trkpt lat="44.349084" lon="10.8359724"><ele>667.25</ele><time>2026-03-22T10:49:32.279Z</time></trkpt><trkpt lat="44.3489675" lon="10.835902"><ele>667.5</ele><time>2026-03-22T10:49:33.292Z</time></trkpt><trkpt lat="44.3488479" lon="10.8358337"><ele>667.75</ele><time>2026-03-22T10:49:34.277Z</time></trkpt><trkpt lat="44.3487234" lon="10.8357645"><ele>668.0</ele><time>2026-03-22T10:49:35.289Z</time></trkpt><trkpt lat="44.3485978" lon="10.8356955"><ele>668.0</ele><time>2026-03-22T10:49:36.274Z</time></trkpt><trkpt lat="44.3484701" lon="10.8356241"><ele>668.0</ele><time>2026-03-22T10:49:37.282Z</time></trkpt><trkpt lat="44.3483423" lon="10.8355527"><ele>668.0</ele><time>2026-03-22T10:49:38.29Z</time></trkpt><trkpt lat="44.3482142" lon="10.8354837"><ele>668.0</ele><time>2026-03-22T10:49:39.281Z</time></trkpt><trkpt lat="44.3480829" lon="10.8354138"><ele>667.5</ele><time>2026-03-22T10:49:40.275Z</time></trkpt><trkpt lat="44.347949" lon="10.8353395"><ele>667.0</ele><time>2026-03-22T10:49:41.286Z</time></trkpt><trkpt lat="44.3478176" lon="10.8352627"><ele>666.5</ele><time>2026-03-22T10:49:42.292Z</time></trkpt><trkpt lat="44.3476899" lon="10.8351801"><ele>666.0</ele><time>2026-03-22T10:49:43.279Z</time></trkpt><trkpt lat="44.3475642" lon="10.8350889"><ele>666.0</ele><time>2026-03-22T10:49:44.29Z</time></trkpt><trkpt lat="44.3474452" lon="10.8349854"><ele>666.0</ele><time>2026-03-22T10:49:45.289Z</time></trkpt><trkpt lat="44.3473366" lon="10.8348668"><ele>666.0</ele><time>2026-03-22T10:49:46.289Z</time></trkpt><trkpt lat="44.3472387" lon="10.8347373"><ele>666.0</ele><time>2026-03-22T10:49:47.279Z</time></trkpt><trkpt lat="44.3471454" lon="10.8346052"><ele>666.75</ele><time>2026-03-22T10:49:48.285Z</time></trkpt><trkpt lat="44.3470513" lon="10.8344766"><ele>667.5</ele><time>2026-03-22T10:49:49.292Z</time></trkpt><trkpt lat="44.3469552" lon="10.8343563"><ele>668.25</ele><time>2026-03-22T10:49:50.271Z</time></trkpt><trkpt lat="44.3468518" lon="10.8342489"><ele>669.0</ele><time>2026-03-22T10:49:51.289Z</time></trkpt><trkpt lat="44.3467413" lon="10.8341603"><ele>669.0</ele><time>2026-03-22T10:49:52.29Z</time></trkpt><trkpt lat="44.3466239" lon="10.8340898"><ele>669.0</ele><time>2026-03-22T10:49:53.276Z</time></trkpt><trkpt lat="44.3464997" lon="10.8340306"><ele>669.0</ele><time>2026-03-22T10:49:54.291Z</time></trkpt><trkpt lat="44.3463739" lon="10.8339744"><ele>669.0</ele><time>2026-03-22T10:49:55.285Z</time></trkpt><trkpt lat="44.3462462" lon="10.8339154"><ele>671.25</ele><time>2026-03-22T10:49:56.28Z</time></trkpt><trkpt lat="44.346116" lon="10.8338568"><ele>673.5</ele><time>2026-03-22T10:49:57.291Z</time></trkpt><trkpt lat="44.3459834" lon="10.8338031"><ele>675.75</ele><time>2026-03-22T10:49:58.287Z</time></trkpt><trkpt lat="44.3458463" lon="10.8337538"><ele>678.0</ele><time>2026-03-22T10:49:59.292Z</time></trkpt><trkpt lat="44.3457061" lon="10.8337077"><ele>678.0</ele><time>2026-03-22T10:50:00.292Z</time></trkpt><trkpt lat="44.3455623" lon="10.833663"><ele>678.0</ele><time>2026-03-22T10:50:01.29Z</time></trkpt><trkpt lat="44.3454152" lon="10.8336198"><ele>678.0</ele><time>2026-03-22T10:50:02.283Z</time></trkpt><trkpt lat="44.345265" lon="10.8335748"><ele>677.3333333333334</ele><time>2026-03-22T10:50:03.28Z</time></trkpt><trkpt lat="44.3451143" lon="10.8335291"><ele>676.6666666666667</ele><time>2026-03-22T10:50:04.275Z</time></trkpt><trkpt lat="44.3449625" lon="10.8334852"><ele>676.0</ele><time>2026-03-22T10:50:05.283Z</time></trkpt><trkpt lat="44.3448108" lon="10.8334383"><ele>679.6666666666667</ele><time>2026-03-22T10:50:06.284Z</time></trkpt><trkpt lat="44.3446591" lon="10.8333873"><ele>683.3333333333334</ele><time>2026-03-22T10:50:07.286Z</time></trkpt><trkpt lat="44.3445065" lon="10.833339"><ele>687.0</ele><time>2026-03-22T10:50:08.292Z</time></trkpt><trkpt lat="44.3443557" lon="10.8332867"><ele>687.0</ele><time>2026-03-22T10:50:09.278Z</time></trkpt><trkpt lat="44.3442025" lon="10.8332352"><ele>687.0</ele><time>2026-03-22T10:50:10.285Z</time></trkpt><trkpt lat="44.3440486" lon="10.8331906"><ele>687.0</ele><time>2026-03-22T10:50:11.274Z</time></trkpt><trkpt lat="44.3438937" lon="10.8331451"><ele>685.3333333333334</ele><time>2026-03-22T10:50:12.288Z</time></trkpt><trkpt lat="44.343743" lon="10.8330997"><ele>683.6666666666667</ele><time>2026-03-22T10:50:13.27Z</time></trkpt><trkpt lat="44.3435907" lon="10.8330539"><ele>682.0</ele><time>2026-03-22T10:50:14.269Z</time></trkpt><trkpt lat="44.3434418" lon="10.833005"><ele>682.0</ele><time>2026-03-22T10:50:15.274Z</time></trkpt><trkpt lat="44.3432966" lon="10.8329657"><ele>682.0</ele><time>2026-03-22T10:50:16.27Z</time></trkpt><trkpt lat="44.3431508" lon="10.8329369"><ele>682.0</ele><time>2026-03-22T10:50:17.267Z</time></trkpt><trkpt lat="44.3430001" lon="10.8329197"><ele>682.0</ele><time>2026-03-22T10:50:18.276Z</time></trkpt><trkpt lat="44.3428514" lon="10.83291"><ele>681.5</ele><time>2026-03-22T10:50:19.283Z</time></trkpt><trkpt lat="44.3427106" lon="10.8329062"><ele>681.0</ele><time>2026-03-22T10:50:20.27Z</time></trkpt><trkpt lat="44.3425712" lon="10.8329083"><ele>680.5</ele><time>2026-03-22T10:50:21.28Z</time></trkpt><trkpt lat="44.3424451" lon="10.832909"><ele>680.0</ele><time>2026-03-22T10:50:22.278Z</time></trkpt><trkpt lat="44.3423263" lon="10.8329139"><ele>679.6</ele><time>2026-03-22T10:50:23.287Z</time></trkpt><trkpt lat="44.342212" lon="10.8329211"><ele>679.2</ele><time>2026-03-22T10:50:24.287Z</time></trkpt><trkpt lat="44.3421035" lon="10.8329263"><ele>678.8</ele><time>2026-03-22T10:50:25.285Z</time></trkpt><trkpt lat="44.3419976" lon="10.8329303"><ele>678.4</ele><time>2026-03-22T10:50:26.278Z</time></trkpt><trkpt lat="44.3418949" lon="10.8329332"><ele>678.0</ele><time>2026-03-22T10:50:27.265Z</time></trkpt><trkpt lat="44.3417934" lon="10.8329438"><ele>678.0</ele><time>2026-03-22T10:50:28.288Z</time></trkpt><trkpt lat="44.3417104" lon="10.8329533"><ele>678.0</ele><time>2026-03-22T10:50:29.276Z</time></trkpt><trkpt lat="44.3416419" lon="10.8329602"><ele>678.0</ele><time>2026-03-22T10:50:30.283Z</time></trkpt><trkpt lat="44.3415284" lon="10.8329588"><ele>678.0</ele><time>2026-03-22T10:50:32.284Z</time></trkpt><trkpt lat="44.341434" lon="10.8329548"><ele>678.0</ele><time>2026-03-22T10:50:34.285Z</time></trkpt><trkpt lat="44.3413446" lon="10.832955"><ele>678.0</ele><time>2026-03-22T10:50:36.273Z</time></trkpt><trkpt lat="44.3412706" lon="10.833037"><ele>677.7142857142857</ele><time>2026-03-22T10:50:38.268Z</time></trkpt><trkpt lat="44.3412505" lon="10.8331291"><ele>677.4285714285714</ele><time>2026-03-22T10:50:39.279Z</time></trkpt><trkpt lat="44.3412392" lon="10.8332276"><ele>677.1428571428571</ele><time>2026-03-22T10:50:40.282Z</time></trkpt><trkpt lat="44.3412222" lon="10.8333134"><ele>676.8571428571429</ele><time>2026-03-22T10:50:41.281Z</time></trkpt><trkpt lat="44.3411935" lon="10.8333934"><ele>676.5714285714286</ele><time>2026-03-22T10:50:42.271Z</time></trkpt><trkpt lat="44.341149" lon="10.8334708"><ele>676.2857142857143</ele><time>2026-03-22T10:50:43.273Z</time></trkpt><trkpt lat="44.3410926" lon="10.8335536"><ele>676.0</ele><time>2026-03-22T10:50:44.282Z</time></trkpt><trkpt lat="44.3410338" lon="10.833637"><ele>677.5</ele><time>2026-03-22T10:50:45.283Z</time></trkpt><trkpt lat="44.340973" lon="10.8337192"><ele>679.0</ele><time>2026-03-22T10:50:46.289Z</time></trkpt><trkpt lat="44.3409128" lon="10.8338059"><ele>680.5</ele><time>2026-03-22T10:50:47.287Z</time></trkpt><trkpt lat="44.3408533" lon="10.8338923"><ele>682.0</ele><time>2026-03-22T10:50:48.273Z</time></trkpt><trkpt lat="44.3408" lon="10.8339786"><ele>683.5</ele><time>2026-03-22T10:50:49.281Z</time></trkpt><trkpt lat="44.3407501" lon="10.8340646"><ele>685.0</ele><time>2026-03-22T10:50:50.291Z</time></trkpt><trkpt lat="44.3407227" lon="10.8341616"><ele>685.0</ele><time>2026-03-22T10:50:51.28Z</time></trkpt><trkpt lat="44.3406998" lon="10.8342536"><ele>685.0</ele><time>2026-03-22T10:50:52.272Z</time></trkpt><trkpt lat="44.340674" lon="10.8343981"><ele>685.0</ele><time>2026-03-22T10:50:54.287Z</time></trkpt><trkpt lat="44.3406208" lon="10.8344577"><ele>685.0</ele><time>2026-03-22T10:50:56.277Z</time></trkpt><trkpt lat="44.3405027" lon="10.8344409"><ele>685.0</ele><time>2026-03-22T10:50:58.277Z</time></trkpt><trkpt lat="44.3403843" lon="10.8344256"><ele>686.2</ele><time>2026-03-22T10:51:00.271Z</time></trkpt><trkpt lat="44.3402714" lon="10.8344062"><ele>687.4</ele><time>2026-03-22T10:51:02.281Z</time></trkpt><trkpt lat="44.3401562" lon="10.8343918"><ele>688.5999999999999</ele><time>2026-03-22T10:51:04.271Z</time></trkpt><trkpt lat="44.3400282" lon="10.8343885"><ele>689.8</ele><time>2026-03-22T10:51:06.278Z</time></trkpt><trkpt lat="44.3399629" lon="10.8343844"><ele>691.0</ele><time>2026-03-22T10:51:07.274Z</time></trkpt><trkpt lat="44.3398508" lon="10.834359"><ele>691.0</ele><time>2026-03-22T10:51:09.285Z</time></trkpt><trkpt lat="44.3397766" lon="10.8343193"><ele>691.0</ele><time>2026-03-22T10:51:11.282Z</time></trkpt><trkpt lat="44.3397682" lon="10.8341836"><ele>691.0</ele><time>2026-03-22T10:51:14.28Z</time></trkpt><trkpt lat="44.33981" lon="10.8340643"><ele>691.0</ele><time>2026-03-22T10:51:16.287Z</time></trkpt><trkpt lat="44.3398793" lon="10.8339586"><ele>691.0</ele><time>2026-03-22T10:51:18.289Z</time></trkpt><trkpt lat="44.339954" lon="10.8338662"><ele>688.75</ele><time>2026-03-22T10:51:20.276Z</time></trkpt><trkpt lat="44.3400056" lon="10.8337483"><ele>686.5</ele><time>2026-03-22T10:51:22.28Z</time></trkpt><trkpt lat="44.3400333" lon="10.8336053"><ele>684.25</ele><time>2026-03-22T10:51:24.266Z</time></trkpt><trkpt lat="44.3400864" lon="10.8334529"><ele>682.0</ele><time>2026-03-22T10:51:26.276Z</time></trkpt><trkpt lat="44.3401395" lon="10.8332961"><ele>680.8</ele><time>2026-03-22T10:51:28.286Z</time></trkpt><trkpt lat="44.3401776" lon="10.8331565"><ele>679.6</ele><time>2026-03-22T10:51:30.288Z</time></trkpt><trkpt lat="44.3401828" lon="10.8330631"><ele>678.4</ele><time>2026-03-22T10:51:32.282Z</time></trkpt><trkpt lat="44.3401164" lon="10.8330065"><ele>677.1999999999999</ele><time>2026-03-22T10:51:38.268Z</time></trkpt><trkpt lat="44.3399926" lon="10.8329813"><ele>676.0</ele><time>2026-03-22T10:51:40.275Z</time></trkpt><trkpt lat="44.3399063" lon="10.8330088"><ele>676.0</ele><time>2026-03-22T10:51:41.298Z</time></trkpt><trkpt lat="44.3398101" lon="10.8330376"><ele>676.0</ele><time>2026-03-22T10:51:42.283Z</time></trkpt><trkpt lat="44.339703" lon="10.8330495"><ele>676.0</ele><time>2026-03-22T10:51:43.282Z</time></trkpt><trkpt lat="44.3395901" lon="10.8330455"><ele>676.0</ele><time>2026-03-22T10:51:44.286Z</time></trkpt><trkpt lat="44.3394681" lon="10.8330327"><ele>676.0</ele><time>2026-03-22T10:51:45.275Z</time></trkpt><trkpt lat="44.3393406" lon="10.8330142"><ele>676.25</ele><time>2026-03-22T10:51:46.285Z</time></trkpt><trkpt lat="44.3392079" lon="10.8329913"><ele>676.5</ele><time>2026-03-22T10:51:47.28Z</time></trkpt><trkpt lat="44.339075" lon="10.8329647"><ele>676.75</ele><time>2026-03-22T10:51:48.286Z</time></trkpt><trkpt lat="44.3389445" lon="10.8329376"><ele>677.0</ele><time>2026-03-22T10:51:49.275Z</time></trkpt><trkpt lat="44.338816" lon="10.8329125"><ele>677.0</ele><time>2026-03-22T10:51:50.275Z</time></trkpt><trkpt lat="44.3386914" lon="10.8328899"><ele>677.0</ele><time>2026-03-22T10:51:51.276Z</time></trkpt><trkpt lat="44.3385749" lon="10.8328693"><ele>677.0</ele><time>2026-03-22T10:51:52.277Z</time></trkpt><trkpt lat="44.3384686" lon="10.8328532"><ele>677.0</ele><time>2026-03-22T10:51:53.279Z</time></trkpt><trkpt lat="44.3383741" lon="10.832842"><ele>677.0</ele><time>2026-03-22T10:51:54.285Z</time></trkpt><trkpt lat="44.3382911" lon="10.8328348"><ele>677.0</ele><time>2026-03-22T10:51:55.284Z</time></trkpt><trkpt lat="44.3382218" lon="10.8328262"><ele>677.0</ele><time>2026-03-22T10:51:56.278Z</time></trkpt><trkpt lat="44.3381374" lon="10.8327595"><ele>677.0</ele><time>2026-03-22T10:51:58.283Z</time></trkpt><trkpt lat="44.3381023" lon="10.832628"><ele>677.0</ele><time>2026-03-22T10:52:00.271Z</time></trkpt><trkpt lat="44.3381135" lon="10.8325239"><ele>677.0</ele><time>2026-03-22T10:52:01.288Z</time></trkpt><trkpt lat="44.3381223" lon="10.8324214"><ele>677.0</ele><time>2026-03-22T10:52:02.296Z</time></trkpt><trkpt lat="44.3381322" lon="10.8323212"><ele>677.0</ele><time>2026-03-22T10:52:03.282Z</time></trkpt><trkpt lat="44.3380974" lon="10.8322288"><ele>677.0</ele><time>2026-03-22T10:52:05.277Z</time></trkpt><trkpt lat="44.3380049" lon="10.8322294"><ele>677.0</ele><time>2026-03-22T10:52:07.293Z</time></trkpt><trkpt lat="44.3379096" lon="10.8321972"><ele>677.0</ele><time>2026-03-22T10:52:09.272Z</time></trkpt><trkpt lat="44.3378707" lon="10.832085"><ele>677.0</ele><time>2026-03-22T10:52:11.271Z</time></trkpt><trkpt lat="44.337877" lon="10.8319179"><ele>677.0</ele><time>2026-03-22T10:52:13.278Z</time></trkpt><trkpt lat="44.3378903" lon="10.8318229"><ele>677.0</ele><time>2026-03-22T10:52:14.281Z</time></trkpt><trkpt lat="44.3379005" lon="10.8317332"><ele>677.0</ele><time>2026-03-22T10:52:15.273Z</time></trkpt><trkpt lat="44.3378976" lon="10.8316042"><ele>677.0</ele><time>2026-03-22T10:52:17.284Z</time></trkpt><trkpt lat="44.3378206" lon="10.8315399"><ele>677.0</ele><time>2026-03-22T10:52:19.275Z</time></trkpt><trkpt lat="44.3377049" lon="10.8315254"><ele>677.0</ele><time>2026-03-22T10:52:21.286Z</time></trkpt><trkpt lat="44.3376307" lon="10.8315281"><ele>678.5</ele><time>2026-03-22T10:52:22.275Z</time></trkpt><trkpt lat="44.3375527" lon="10.8315253"><ele>680.0</ele><time>2026-03-22T10:52:23.283Z</time></trkpt><trkpt lat="44.3374868" lon="10.8315188"><ele>681.5</ele><time>2026-03-22T10:52:24.285Z</time></trkpt><trkpt lat="44.3374075" lon="10.8315222"><ele>683.0</ele><time>2026-03-22T10:52:26.276Z</time></trkpt><trkpt lat="44.3373484" lon="10.8314519"><ele>684.5</ele><time>2026-03-22T10:52:35.275Z</time></trkpt><trkpt lat="44.3373554" lon="10.8312677"><ele>686.0</ele><time>2026-03-22T10:52:37.3Z</time></trkpt><trkpt lat="44.3373509" lon="10.8311608"><ele>686.0</ele><time>2026-03-22T10:52:38.29Z</time></trkpt><trkpt lat="44.337342" lon="10.8310708"><ele>686.0</ele><time>2026-03-22T10:52:39.291Z</time></trkpt><trkpt lat="44.3373358" lon="10.8309518"><ele>686.0</ele><time>2026-03-22T10:52:41.283Z</time></trkpt><trkpt lat="44.3373876" lon="10.830857"><ele>686.0</ele><time>2026-03-22T10:52:50.282Z</time></trkpt><trkpt lat="44.3375097" lon="10.8308019"><ele>686.0</ele><time>2026-03-22T10:52:52.294Z</time></trkpt><trkpt lat="44.3375831" lon="10.8307724"><ele>686.0</ele><time>2026-03-22T10:52:53.281Z</time></trkpt><trkpt lat="44.3376646" lon="10.8307396"><ele>687.0</ele><time>2026-03-22T10:52:54.277Z</time></trkpt><trkpt lat="44.3377576" lon="10.8307044"><ele>688.0</ele><time>2026-03-22T10:52:55.278Z</time></trkpt><trkpt lat="44.3378591" lon="10.830666"><ele>689.0</ele><time>2026-03-22T10:52:56.289Z</time></trkpt><trkpt lat="44.3379643" lon="10.8306268"><ele>690.0</ele><time>2026-03-22T10:52:57.279Z</time></trkpt><trkpt lat="44.3380741" lon="10.8305857"><ele>691.0</ele><time>2026-03-22T10:52:58.27Z</time></trkpt><trkpt lat="44.3381869" lon="10.8305465"><ele>691.0</ele><time>2026-03-22T10:52:59.276Z</time></trkpt><trkpt lat="44.3383015" lon="10.8305084"><ele>691.0</ele><time>2026-03-22T10:53:00.286Z</time></trkpt><trkpt lat="44.3384159" lon="10.8304676"><ele>691.0</ele><time>2026-03-22T10:53:01.284Z</time></trkpt><trkpt lat="44.3385286" lon="10.8304243"><ele>691.0</ele><time>2026-03-22T10:53:02.289Z</time></trkpt><trkpt lat="44.3386426" lon="10.830382"><ele>691.0</ele><time>2026-03-22T10:53:03.275Z</time></trkpt><trkpt lat="44.3387583" lon="10.8303357"><ele>691.0</ele><time>2026-03-22T10:53:04.302Z</time></trkpt><trkpt lat="44.3388753" lon="10.8302891"><ele>691.0</ele><time>2026-03-22T10:53:05.285Z</time></trkpt><trkpt lat="44.3389941" lon="10.8302435"><ele>691.0</ele><time>2026-03-22T10:53:06.27Z</time></trkpt><trkpt lat="44.3391142" lon="10.8301975"><ele>692.5</ele><time>2026-03-22T10:53:07.276Z</time></trkpt><trkpt lat="44.3392311" lon="10.8301518"><ele>694.0</ele><time>2026-03-22T10:53:08.282Z</time></trkpt><trkpt lat="44.3393431" lon="10.8301063"><ele>695.5</ele><time>2026-03-22T10:53:09.273Z</time></trkpt><trkpt lat="44.3394462" lon="10.8300636"><ele>697.0</ele><time>2026-03-22T10:53:10.296Z</time></trkpt><trkpt lat="44.3395486" lon="10.8300134"><ele>698.0</ele><time>2026-03-22T10:53:11.285Z</time></trkpt><trkpt lat="44.3396577" lon="10.8299793"><ele>699.0</ele><time>2026-03-22T10:53:12.267Z</time></trkpt><trkpt lat="44.3397723" lon="10.829949"><ele>700.0</ele><time>2026-03-22T10:53:13.285Z</time></trkpt><trkpt lat="44.3398922" lon="10.8299043"><ele>701.0</ele><time>2026-03-22T10:53:14.279Z</time></trkpt><trkpt lat="44.3400105" lon="10.8298567"><ele>701.0</ele><time>2026-03-22T10:53:15.269Z</time></trkpt><trkpt lat="44.340128" lon="10.8297954"><ele>701.0</ele><time>2026-03-22T10:53:16.277Z</time></trkpt><trkpt lat="44.3402432" lon="10.829723"><ele>701.0</ele><time>2026-03-22T10:53:17.279Z</time></trkpt><trkpt lat="44.3403588" lon="10.8296433"><ele>701.0</ele><time>2026-03-22T10:53:18.291Z</time></trkpt><trkpt lat="44.3404696" lon="10.8295529"><ele>700.75</ele><time>2026-03-22T10:53:19.291Z</time></trkpt><trkpt lat="44.3405807" lon="10.8294535"><ele>700.5</ele><time>2026-03-22T10:53:20.269Z</time></trkpt><trkpt lat="44.3406844" lon="10.8293515"><ele>700.25</ele><time>2026-03-22T10:53:21.275Z</time></trkpt><trkpt lat="44.3407799" lon="10.8292432"><ele>700.0</ele><time>2026-03-22T10:53:22.269Z</time></trkpt><trkpt lat="44.3408714" lon="10.8291383"><ele>702.5</ele><time>2026-03-22T10:53:23.278Z</time></trkpt><trkpt lat="44.3409336" lon="10.8289934"><ele>705.0</ele><time>2026-03-22T10:53:24.277Z</time></trkpt><trkpt lat="44.3409657" lon="10.8288345"><ele>707.5</ele><time>2026-03-22T10:53:25.285Z</time></trkpt><trkpt lat="44.3409683" lon="10.8286721"><ele>710.0</ele><time>2026-03-22T10:53:26.291Z</time></trkpt><trkpt lat="44.3409667" lon="10.8285136"><ele>712.0</ele><time>2026-03-22T10:53:27.276Z</time></trkpt><trkpt lat="44.3409377" lon="10.8283578"><ele>714.0</ele><time>2026-03-22T10:53:28.288Z</time></trkpt><trkpt lat="44.340889" lon="10.8282063"><ele>716.0</ele><time>2026-03-22T10:53:29.281Z</time></trkpt><trkpt lat="44.3408373" lon="10.8280644"><ele>718.0</ele><time>2026-03-22T10:53:30.27Z</time></trkpt><trkpt lat="44.3407594" lon="10.8279409"><ele>718.0</ele><time>2026-03-22T10:53:31.281Z</time></trkpt><trkpt lat="44.3406663" lon="10.827852"><ele>718.0</ele><time>2026-03-22T10:53:32.285Z</time></trkpt><trkpt lat="44.340553" lon="10.8277942"><ele>718.0</ele><time>2026-03-22T10:53:33.269Z</time></trkpt><trkpt lat="44.3404393" lon="10.8277318"><ele>718.0</ele><time>2026-03-22T10:53:34.275Z</time></trkpt><trkpt lat="44.3403215" lon="10.8276679"><ele>718.0</ele><time>2026-03-22T10:53:35.289Z</time></trkpt><trkpt lat="44.340191" lon="10.8275964"><ele>718.0</ele><time>2026-03-22T10:53:36.279Z</time></trkpt><trkpt lat="44.3400568" lon="10.8275174"><ele>718.0</ele><time>2026-03-22T10:53:37.281Z</time></trkpt><trkpt lat="44.3399189" lon="10.8274131"><ele>718.0</ele><time>2026-03-22T10:53:38.28Z</time></trkpt><trkpt lat="44.3397727" lon="10.8273058"><ele>719.0</ele><time>2026-03-22T10:53:39.282Z</time></trkpt><trkpt lat="44.3396304" lon="10.8271783"><ele>720.0</ele><time>2026-03-22T10:53:40.285Z</time></trkpt><trkpt lat="44.3394992" lon="10.827051"><ele>721.0</ele><time>2026-03-22T10:53:41.272Z</time></trkpt><trkpt lat="44.3393744" lon="10.826922"><ele>718.6666666666667</ele><time>2026-03-22T10:53:42.276Z</time></trkpt><trkpt lat="44.3392582" lon="10.8267797"><ele>716.3333333333334</ele><time>2026-03-22T10:53:43.279Z</time></trkpt><trkpt lat="44.3391569" lon="10.8266144"><ele>714.0</ele><time>2026-03-22T10:53:44.268Z</time></trkpt><trkpt lat="44.3390844" lon="10.8264291"><ele>714.0</ele><time>2026-03-22T10:53:45.281Z</time></trkpt><trkpt lat="44.3390437" lon="10.826227"><ele>714.0</ele><time>2026-03-22T10:53:46.281Z</time></trkpt><trkpt lat="44.3390286" lon="10.8260124"><ele>714.0</ele><time>2026-03-22T10:53:47.29Z</time></trkpt><trkpt lat="44.3390338" lon="10.8257926"><ele>712.6666666666666</ele><time>2026-03-22T10:53:48.287Z</time></trkpt><trkpt lat="44.3390438" lon="10.8255689"><ele>711.3333333333333</ele><time>2026-03-22T10:53:49.282Z</time></trkpt><trkpt lat="44.3390541" lon="10.8253435"><ele>710.0</ele><time>2026-03-22T10:53:50.287Z</time></trkpt><trkpt lat="44.3390687" lon="10.8251166"><ele>709.5</ele><time>2026-03-22T10:53:51.282Z</time></trkpt><trkpt lat="44.3390918" lon="10.8248991"><ele>709.0</ele><time>2026-03-22T10:53:52.289Z</time></trkpt><trkpt lat="44.3391247" lon="10.8246958"><ele>708.5</ele><time>2026-03-22T10:53:53.283Z</time></trkpt><trkpt lat="44.3391627" lon="10.8245038"><ele>708.0</ele><time>2026-03-22T10:53:54.274Z</time></trkpt><trkpt lat="44.3391924" lon="10.8243184"><ele>707.25</ele><time>2026-03-22T10:53:55.287Z</time></trkpt><trkpt lat="44.3392021" lon="10.8241306"><ele>706.5</ele><time>2026-03-22T10:53:56.272Z</time></trkpt><trkpt lat="44.3391905" lon="10.823943"><ele>705.75</ele><time>2026-03-22T10:53:57.285Z</time></trkpt><trkpt lat="44.3391738" lon="10.823758"><ele>705.0</ele><time>2026-03-22T10:53:58.276Z</time></trkpt><trkpt lat="44.3391595" lon="10.8235809"><ele>704.5</ele><time>2026-03-22T10:53:59.285Z</time></trkpt><trkpt lat="44.3391671" lon="10.8234128"><ele>704.0</ele><time>2026-03-22T10:54:00.282Z</time></trkpt><trkpt lat="44.3392096" lon="10.8232593"><ele>703.5</ele><time>2026-03-22T10:54:01.281Z</time></trkpt><trkpt lat="44.3392849" lon="10.8231348"><ele>703.0</ele><time>2026-03-22T10:54:02.278Z</time></trkpt><trkpt lat="44.3393841" lon="10.8230322"><ele>703.0</ele><time>2026-03-22T10:54:03.281Z</time></trkpt><trkpt lat="44.33949" lon="10.8229336"><ele>703.0</ele><time>2026-03-22T10:54:04.291Z</time></trkpt><trkpt lat="44.3395904" lon="10.8228195"><ele>703.0</ele><time>2026-03-22T10:54:05.275Z</time></trkpt><trkpt lat="44.3396801" lon="10.8226841"><ele>703.0</ele><time>2026-03-22T10:54:06.29Z</time></trkpt><trkpt lat="44.3397504" lon="10.822524"><ele>700.75</ele><time>2026-03-22T10:54:07.288Z</time></trkpt><trkpt lat="44.3398016" lon="10.8223495"><ele>698.5</ele><time>2026-03-22T10:54:08.279Z</time></trkpt><trkpt lat="44.3398509" lon="10.8221737"><ele>696.25</ele><time>2026-03-22T10:54:09.293Z</time></trkpt><trkpt lat="44.3399157" lon="10.8220133"><ele>694.0</ele><time>2026-03-22T10:54:10.267Z</time></trkpt><trkpt lat="44.3400018" lon="10.8218715"><ele>693.75</ele><time>2026-03-22T10:54:11.282Z</time></trkpt><trkpt lat="44.3401094" lon="10.8217527"><ele>693.5</ele><time>2026-03-22T10:54:12.288Z</time></trkpt><trkpt lat="44.3402338" lon="10.8216605"><ele>693.25</ele><time>2026-03-22T10:54:13.29Z</time></trkpt><trkpt lat="44.3403667" lon="10.8215899"><ele>693.0</ele><time>2026-03-22T10:54:14.286Z</time></trkpt><trkpt lat="44.3404988" lon="10.8215255"><ele>692.25</ele><time>2026-03-22T10:54:15.27Z</time></trkpt><trkpt lat="44.3406273" lon="10.8214595"><ele>691.5</ele><time>2026-03-22T10:54:16.265Z</time></trkpt><trkpt lat="44.3407535" lon="10.8213813"><ele>690.75</ele><time>2026-03-22T10:54:17.263Z</time></trkpt><trkpt lat="44.3408772" lon="10.821284"><ele>690.0</ele><time>2026-03-22T10:54:18.285Z</time></trkpt><trkpt lat="44.3409952" lon="10.8211617"><ele>690.0</ele><time>2026-03-22T10:54:19.287Z</time></trkpt><trkpt lat="44.3411075" lon="10.8210185"><ele>690.0</ele><time>2026-03-22T10:54:20.293Z</time></trkpt><trkpt lat="44.3412193" lon="10.8208661"><ele>690.0</ele><time>2026-03-22T10:54:21.271Z</time></trkpt><trkpt lat="44.3413336" lon="10.8207135"><ele>690.3333333333334</ele><time>2026-03-22T10:54:22.291Z</time></trkpt><trkpt lat="44.3414525" lon="10.8205671"><ele>690.6666666666667</ele><time>2026-03-22T10:54:23.284Z</time></trkpt><trkpt lat="44.3415786" lon="10.8204351"><ele>691.0</ele><time>2026-03-22T10:54:24.272Z</time></trkpt><trkpt lat="44.3417155" lon="10.8203243"><ele>691.0</ele><time>2026-03-22T10:54:25.267Z</time></trkpt><trkpt lat="44.3418569" lon="10.8202252"><ele>691.0</ele><time>2026-03-22T10:54:26.284Z</time></trkpt><trkpt lat="44.3419968" lon="10.8201137"><ele>691.0</ele><time>2026-03-22T10:54:27.269Z</time></trkpt><trkpt lat="44.3421318" lon="10.8199937"><ele>688.0</ele><time>2026-03-22T10:54:28.286Z</time></trkpt><trkpt lat="44.3422479" lon="10.8198568"><ele>685.0</ele><time>2026-03-22T10:54:29.292Z</time></trkpt><trkpt lat="44.342336" lon="10.8196817"><ele>682.0</ele><time>2026-03-22T10:54:30.285Z</time></trkpt><trkpt lat="44.3423981" lon="10.8194882"><ele>683.3333333333334</ele><time>2026-03-22T10:54:31.285Z</time></trkpt><trkpt lat="44.342457" lon="10.8192843"><ele>684.6666666666666</ele><time>2026-03-22T10:54:32.282Z</time></trkpt><trkpt lat="44.3425152" lon="10.8190821"><ele>686.0</ele><time>2026-03-22T10:54:33.279Z</time></trkpt><trkpt lat="44.3425746" lon="10.8188793"><ele>686.0</ele><time>2026-03-22T10:54:34.272Z</time></trkpt><trkpt lat="44.3426343" lon="10.8186792"><ele>686.0</ele><time>2026-03-22T10:54:35.286Z</time></trkpt><trkpt lat="44.3426949" lon="10.8184916"><ele>686.0</ele><time>2026-03-22T10:54:36.285Z</time></trkpt><trkpt lat="44.3427615" lon="10.8183214"><ele>686.0</ele><time>2026-03-22T10:54:37.287Z</time></trkpt><trkpt lat="44.3428434" lon="10.8181729"><ele>687.0</ele><time>2026-03-22T10:54:38.272Z</time></trkpt><trkpt lat="44.3429456" lon="10.8180503"><ele>688.0</ele><time>2026-03-22T10:54:39.273Z</time></trkpt><trkpt lat="44.3430586" lon="10.8179553"><ele>689.0</ele><time>2026-03-22T10:54:40.275Z</time></trkpt><trkpt lat="44.3431725" lon="10.8178741"><ele>690.0</ele><time>2026-03-22T10:54:41.271Z</time></trkpt><trkpt lat="44.3432862" lon="10.8178214"><ele>690.0</ele><time>2026-03-22T10:54:42.29Z</time></trkpt><trkpt lat="44.3434018" lon="10.8177905"><ele>690.0</ele><time>2026-03-22T10:54:43.281Z</time></trkpt><trkpt lat="44.3435188" lon="10.8177971"><ele>690.0</ele><time>2026-03-22T10:54:44.278Z</time></trkpt><trkpt lat="44.3436319" lon="10.8178443"><ele>690.0</ele><time>2026-03-22T10:54:45.278Z</time></trkpt><trkpt lat="44.3437314" lon="10.8179186"><ele>690.0</ele><time>2026-03-22T10:54:46.281Z</time></trkpt><trkpt lat="44.3438192" lon="10.8180485"><ele>690.0</ele><time>2026-03-22T10:54:47.289Z</time></trkpt><trkpt lat="44.343906" lon="10.8181746"><ele>690.0</ele><time>2026-03-22T10:54:48.285Z</time></trkpt><trkpt lat="44.3439965" lon="10.8182944"><ele>690.0</ele><time>2026-03-22T10:54:49.272Z</time></trkpt><trkpt lat="44.3440804" lon="10.8184129"><ele>690.5</ele><time>2026-03-22T10:54:50.275Z</time></trkpt><trkpt lat="44.3441689" lon="10.8185206"><ele>691.0</ele><time>2026-03-22T10:54:51.282Z</time></trkpt><trkpt lat="44.3442722" lon="10.8186223"><ele>691.5</ele><time>2026-03-22T10:54:52.278Z</time></trkpt><trkpt lat="44.3443881" lon="10.8187059"><ele>692.0</ele><time>2026-03-22T10:54:53.285Z</time></trkpt><trkpt lat="44.3445119" lon="10.8187802"><ele>692.0</ele><time>2026-03-22T10:54:54.279Z</time></trkpt><trkpt lat="44.344642" lon="10.8188448"><ele>692.0</ele><time>2026-03-22T10:54:55.289Z</time></trkpt><trkpt lat="44.3447744" lon="10.8189017"><ele>692.0</ele><time>2026-03-22T10:54:56.276Z</time></trkpt><trkpt lat="44.3449066" lon="10.818957"><ele>692.0</ele><time>2026-03-22T10:54:57.28Z</time></trkpt><trkpt lat="44.3450349" lon="10.8190129"><ele>690.0</ele><time>2026-03-22T10:54:58.273Z</time></trkpt><trkpt lat="44.3451599" lon="10.8190615"><ele>688.0</ele><time>2026-03-22T10:54:59.277Z</time></trkpt><trkpt lat="44.3452822" lon="10.8190954"><ele>686.0</ele><time>2026-03-22T10:55:00.278Z</time></trkpt><trkpt lat="44.3454017" lon="10.8191067"><ele>684.0</ele><time>2026-03-22T10:55:01.279Z</time></trkpt><trkpt lat="44.3455219" lon="10.8190858"><ele>682.25</ele><time>2026-03-22T10:55:02.283Z</time></trkpt><trkpt lat="44.3456421" lon="10.8190342"><ele>680.5</ele><time>2026-03-22T10:55:03.28Z</time></trkpt><trkpt lat="44.3457612" lon="10.8189642"><ele>678.75</ele><time>2026-03-22T10:55:04.282Z</time></trkpt><trkpt lat="44.3458752" lon="10.8188617"><ele>677.0</ele><time>2026-03-22T10:55:05.285Z</time></trkpt><trkpt lat="44.3459825" lon="10.8187454"><ele>677.0</ele><time>2026-03-22T10:55:06.283Z</time></trkpt><trkpt lat="44.3460818" lon="10.818629"><ele>677.0</ele><time>2026-03-22T10:55:07.289Z</time></trkpt><trkpt lat="44.3461803" lon="10.818517"><ele>677.0</ele><time>2026-03-22T10:55:08.288Z</time></trkpt><trkpt lat="44.3462818" lon="10.8184195"><ele>677.0</ele><time>2026-03-22T10:55:09.289Z</time></trkpt><trkpt lat="44.3463909" lon="10.8183435"><ele>674.25</ele><time>2026-03-22T10:55:10.272Z</time></trkpt><trkpt lat="44.346506" lon="10.8182744"><ele>671.5</ele><time>2026-03-22T10:55:11.286Z</time></trkpt><trkpt lat="44.3466167" lon="10.8182512"><ele>668.75</ele><time>2026-03-22T10:55:12.274Z</time></trkpt><trkpt lat="44.3467414" lon="10.8182356"><ele>666.0</ele><time>2026-03-22T10:55:13.277Z</time></trkpt><trkpt lat="44.3468636" lon="10.8182192"><ele>666.0</ele><time>2026-03-22T10:55:14.276Z</time></trkpt><trkpt lat="44.3469824" lon="10.8181847"><ele>666.0</ele><time>2026-03-22T10:55:15.285Z</time></trkpt><trkpt lat="44.3471041" lon="10.8181353"><ele>666.0</ele><time>2026-03-22T10:55:16.271Z</time></trkpt><trkpt lat="44.3472195" lon="10.8180564"><ele>666.0</ele><time>2026-03-22T10:55:17.283Z</time></trkpt><trkpt lat="44.3473367" lon="10.8179625"><ele>664.5</ele><time>2026-03-22T10:55:18.283Z</time></trkpt><trkpt lat="44.3474488" lon="10.8178562"><ele>663.0</ele><time>2026-03-22T10:55:19.277Z</time></trkpt><trkpt lat="44.3475627" lon="10.8177436"><ele>661.5</ele><time>2026-03-22T10:55:20.287Z</time></trkpt><trkpt lat="44.3476742" lon="10.8176339"><ele>660.0</ele><time>2026-03-22T10:55:21.285Z</time></trkpt><trkpt lat="44.3477869" lon="10.8175351"><ele>660.0</ele><time>2026-03-22T10:55:22.282Z</time></trkpt><trkpt lat="44.3478971" lon="10.8174483"><ele>660.0</ele><time>2026-03-22T10:55:23.279Z</time></trkpt><trkpt lat="44.3480006" lon="10.817372"><ele>660.0</ele><time>2026-03-22T10:55:24.284Z</time></trkpt><trkpt lat="44.3480965" lon="10.8173085"><ele>660.0</ele><time>2026-03-22T10:55:25.28Z</time></trkpt><trkpt lat="44.3481817" lon="10.8172472"><ele>660.0</ele><time>2026-03-22T10:55:26.283Z</time></trkpt><trkpt lat="44.3482518" lon="10.8171823"><ele>660.0</ele><time>2026-03-22T10:55:27.282Z</time></trkpt><trkpt lat="44.3483044" lon="10.8171143"><ele>660.0</ele><time>2026-03-22T10:55:28.271Z</time></trkpt><trkpt lat="44.3483166" lon="10.8169517"><ele>660.0</ele><time>2026-03-22T10:55:30.274Z</time></trkpt><trkpt lat="44.3481992" lon="10.8168621"><ele>660.0</ele><time>2026-03-22T10:55:32.292Z</time></trkpt><trkpt lat="44.3481123" lon="10.8168602"><ele>660.0</ele><time>2026-03-22T10:55:33.281Z</time></trkpt><trkpt lat="44.3480102" lon="10.8168605"><ele>660.0</ele><time>2026-03-22T10:55:34.283Z</time></trkpt><trkpt lat="44.3478983" lon="10.8168519"><ele>660.0</ele><time>2026-03-22T10:55:35.282Z</time></trkpt><trkpt lat="44.3477729" lon="10.8168329"><ele>660.0</ele><time>2026-03-22T10:55:36.28Z</time></trkpt><trkpt lat="44.3476307" lon="10.8168086"><ele>660.0</ele><time>2026-03-22T10:55:37.288Z</time></trkpt><trkpt lat="44.3474807" lon="10.8167764"><ele>658.6666666666666</ele><time>2026-03-22T10:55:38.287Z</time></trkpt><trkpt lat="44.3473283" lon="10.816735"><ele>657.3333333333333</ele><time>2026-03-22T10:55:39.293Z</time></trkpt><trkpt lat="44.3471857" lon="10.8166637"><ele>656.0</ele><time>2026-03-22T10:55:40.279Z</time></trkpt><trkpt lat="44.3470637" lon="10.8165489"><ele>656.0</ele><time>2026-03-22T10:55:41.281Z</time></trkpt><trkpt lat="44.3469621" lon="10.8164186"><ele>656.0</ele><time>2026-03-22T10:55:42.282Z</time></trkpt><trkpt lat="44.3468658" lon="10.8162973"><ele>656.0</ele><time>2026-03-22T10:55:43.276Z</time></trkpt><trkpt lat="44.3467579" lon="10.8162012"><ele>656.0</ele><time>2026-03-22T10:55:44.284Z</time></trkpt><trkpt lat="44.3466311" lon="10.8161598"><ele>656.0</ele><time>2026-03-22T10:55:45.273Z</time></trkpt><trkpt lat="44.3464931" lon="10.8161687"><ele>656.0</ele><time>2026-03-22T10:55:46.277Z</time></trkpt><trkpt lat="44.3463521" lon="10.8162098"><ele>656.0</ele><time>2026-03-22T10:55:47.269Z</time></trkpt><trkpt lat="44.3462089" lon="10.8162581"><ele>656.0</ele><time>2026-03-22T10:55:48.286Z</time></trkpt><trkpt lat="44.3460674" lon="10.8162975"><ele>656.75</ele><time>2026-03-22T10:55:49.278Z</time></trkpt><trkpt lat="44.34593" lon="10.8163147"><ele>657.5</ele><time>2026-03-22T10:55:50.283Z</time></trkpt><trkpt lat="44.3457926" lon="10.8163116"><ele>658.25</ele><time>2026-03-22T10:55:51.271Z</time></trkpt><trkpt lat="44.3456674" lon="10.8162559"><ele>659.0</ele><time>2026-03-22T10:55:52.276Z</time></trkpt><trkpt lat="44.3455463" lon="10.8161699"><ele>659.25</ele><time>2026-03-22T10:55:53.284Z</time></trkpt><trkpt lat="44.3454413" lon="10.8160491"><ele>659.5</ele><time>2026-03-22T10:55:54.282Z</time></trkpt><trkpt lat="44.3453516" lon="10.8159171"><ele>659.75</ele><time>2026-03-22T10:55:55.288Z</time></trkpt><trkpt lat="44.345267" lon="10.8157791"><ele>660.0</ele><time>2026-03-22T10:55:56.28Z</time></trkpt><trkpt lat="44.345193" lon="10.8156348"><ele>660.0</ele><time>2026-03-22T10:55:57.276Z</time></trkpt><trkpt lat="44.3451406" lon="10.8154809"><ele>660.0</ele><time>2026-03-22T10:55:58.282Z</time></trkpt><trkpt lat="44.3451204" lon="10.8153185"><ele>660.0</ele><time>2026-03-22T10:55:59.273Z</time></trkpt><trkpt lat="44.3451268" lon="10.8151596"><ele>660.0</ele><time>2026-03-22T10:56:00.281Z</time></trkpt><trkpt lat="44.3451529" lon="10.8150066"><ele>658.8</ele><time>2026-03-22T10:56:01.266Z</time></trkpt><trkpt lat="44.3451871" lon="10.8148585"><ele>657.6</ele><time>2026-03-22T10:56:02.272Z</time></trkpt><trkpt lat="44.3452191" lon="10.8147227"><ele>656.4000000000001</ele><time>2026-03-22T10:56:03.284Z</time></trkpt><trkpt lat="44.3452328" lon="10.814594"><ele>655.2</ele><time>2026-03-22T10:56:04.278Z</time></trkpt><trkpt lat="44.345242" lon="10.8144791"><ele>654.0</ele><time>2026-03-22T10:56:05.266Z</time></trkpt><trkpt lat="44.3451927" lon="10.8143615"><ele>653.4000000000001</ele><time>2026-03-22T10:56:06.28Z</time></trkpt><trkpt lat="44.3451105" lon="10.814287"><ele>652.8</ele><time>2026-03-22T10:56:07.277Z</time></trkpt><trkpt lat="44.3450199" lon="10.814225"><ele>652.2</ele><time>2026-03-22T10:56:08.271Z</time></trkpt><trkpt lat="44.3449239" lon="10.8141563"><ele>651.5999999999999</ele><time>2026-03-22T10:56:09.283Z</time></trkpt><trkpt lat="44.3448221" lon="10.8140808"><ele>651.0</ele><time>2026-03-22T10:56:10.27Z</time></trkpt><trkpt lat="44.3447168" lon="10.8140023"><ele>652.25</ele><time>2026-03-22T10:56:11.29Z</time></trkpt><trkpt lat="44.3446041" lon="10.8139237"><ele>653.5</ele><time>2026-03-22T10:56:12.268Z</time></trkpt><trkpt lat="44.3444876" lon="10.8138383"><ele>654.75</ele><time>2026-03-22T10:56:13.29Z</time></trkpt><trkpt lat="44.3443654" lon="10.8137497"><ele>656.0</ele><time>2026-03-22T10:56:14.276Z</time></trkpt><trkpt lat="44.3442386" lon="10.8136708"><ele>656.0</ele><time>2026-03-22T10:56:15.292Z</time></trkpt><trkpt lat="44.3441113" lon="10.8135947"><ele>656.0</ele><time>2026-03-22T10:56:16.283Z</time></trkpt><trkpt lat="44.3439837" lon="10.813514"><ele>656.0</ele><time>2026-03-22T10:56:17.283Z</time></trkpt><trkpt lat="44.3438601" lon="10.8134173"><ele>656.0</ele><time>2026-03-22T10:56:18.279Z</time></trkpt><trkpt lat="44.343756" lon="10.8132932"><ele>654.0</ele><time>2026-03-22T10:56:19.287Z</time></trkpt><trkpt lat="44.3436733" lon="10.8131494"><ele>652.0</ele><time>2026-03-22T10:56:20.268Z</time></trkpt><trkpt lat="44.3435888" lon="10.8130124"><ele>650.0</ele><time>2026-03-22T10:56:21.27Z</time></trkpt><trkpt lat="44.3434857" lon="10.8128985"><ele>648.0</ele><time>2026-03-22T10:56:22.283Z</time></trkpt><trkpt lat="44.3433645" lon="10.8128053"><ele>648.0</ele><time>2026-03-22T10:56:23.284Z</time></trkpt><trkpt lat="44.3432362" lon="10.8127203"><ele>648.0</ele><time>2026-03-22T10:56:24.281Z</time></trkpt><trkpt lat="44.3431121" lon="10.8126311"><ele>648.0</ele><time>2026-03-22T10:56:25.277Z</time></trkpt><trkpt lat="44.3429926" lon="10.8125393"><ele>648.0</ele><time>2026-03-22T10:56:26.262Z</time></trkpt><trkpt lat="44.342874" lon="10.8124604"><ele>645.6</ele><time>2026-03-22T10:56:27.265Z</time></trkpt><trkpt lat="44.3427525" lon="10.8124153"><ele>643.1999999999999</ele><time>2026-03-22T10:56:28.271Z</time></trkpt><trkpt lat="44.3426381" lon="10.8124046"><ele>640.8</ele><time>2026-03-22T10:56:29.287Z</time></trkpt><trkpt lat="44.3425339" lon="10.8123989"><ele>638.4</ele><time>2026-03-22T10:56:30.267Z</time></trkpt><trkpt lat="44.3424429" lon="10.8123688"><ele>636.0</ele><time>2026-03-22T10:56:31.285Z</time></trkpt><trkpt lat="44.3423736" lon="10.8123058"><ele>636.0</ele><time>2026-03-22T10:56:32.269Z</time></trkpt><trkpt lat="44.3423393" lon="10.8122175"><ele>636.0</ele><time>2026-03-22T10:56:33.277Z</time></trkpt><trkpt lat="44.3423479" lon="10.8121244"><ele>636.0</ele><time>2026-03-22T10:56:34.264Z</time></trkpt><trkpt lat="44.3423973" lon="10.8120545"><ele>636.0</ele><time>2026-03-22T10:56:35.281Z</time></trkpt><trkpt lat="44.3424741" lon="10.8120291"><ele>636.0</ele><time>2026-03-22T10:56:36.273Z</time></trkpt><trkpt lat="44.3425634" lon="10.8120212"><ele>636.0</ele><time>2026-03-22T10:56:37.27Z</time></trkpt><trkpt lat="44.3426586" lon="10.8120679"><ele>636.0</ele><time>2026-03-22T10:56:38.287Z</time></trkpt><trkpt lat="44.342757" lon="10.8121281"><ele>636.0</ele><time>2026-03-22T10:56:39.289Z</time></trkpt><trkpt lat="44.3428645" lon="10.8121874"><ele>636.0</ele><time>2026-03-22T10:56:40.288Z</time></trkpt><trkpt lat="44.3429821" lon="10.8122289"><ele>636.0</ele><time>2026-03-22T10:56:41.268Z</time></trkpt><trkpt lat="44.3431053" lon="10.8122483"><ele>635.0</ele><time>2026-03-22T10:56:42.281Z</time></trkpt><trkpt lat="44.3432327" lon="10.8122521"><ele>634.0</ele><time>2026-03-22T10:56:43.273Z</time></trkpt><trkpt lat="44.3433664" lon="10.8122521"><ele>633.0</ele><time>2026-03-22T10:56:44.29Z</time></trkpt><trkpt lat="44.3435041" lon="10.8122495"><ele>632.0</ele><time>2026-03-22T10:56:45.283Z</time></trkpt><trkpt lat="44.3436384" lon="10.8122451"><ele>632.0</ele><time>2026-03-22T10:56:46.283Z</time></trkpt><trkpt lat="44.3437674" lon="10.8122516"><ele>632.0</ele><time>2026-03-22T10:56:47.27Z</time></trkpt><trkpt lat="44.343895" lon="10.8122699"><ele>632.0</ele><time>2026-03-22T10:56:48.279Z</time></trkpt><trkpt lat="44.3440192" lon="10.8122907"><ele>632.0</ele><time>2026-03-22T10:56:49.287Z</time></trkpt><trkpt lat="44.344134" lon="10.8123181"><ele>630.0</ele><time>2026-03-22T10:56:50.276Z</time></trkpt><trkpt lat="44.3442438" lon="10.8122898"><ele>628.0</ele><time>2026-03-22T10:56:51.282Z</time></trkpt><trkpt lat="44.3443373" lon="10.8122369"><ele>626.0</ele><time>2026-03-22T10:56:52.29Z</time></trkpt><trkpt lat="44.3444129" lon="10.8121355"><ele>624.0</ele><time>2026-03-22T10:56:53.28Z</time></trkpt><trkpt lat="44.3444913" lon="10.8120462"><ele>622.0</ele><time>2026-03-22T10:56:54.268Z</time></trkpt><trkpt lat="44.344576" lon="10.8119782"><ele>622.0</ele><time>2026-03-22T10:56:55.287Z</time></trkpt><trkpt lat="44.3446689" lon="10.8119249"><ele>622.0</ele><time>2026-03-22T10:56:56.281Z</time></trkpt><trkpt lat="44.3447697" lon="10.8118814"><ele>622.0</ele><time>2026-03-22T10:56:57.275Z</time></trkpt><trkpt lat="44.344875" lon="10.811847"><ele>622.0</ele><time>2026-03-22T10:56:58.273Z</time></trkpt><trkpt lat="44.3449786" lon="10.8118264"><ele>622.0</ele><time>2026-03-22T10:56:59.29Z</time></trkpt><trkpt lat="44.3450808" lon="10.8118251"><ele>622.0</ele><time>2026-03-22T10:57:00.278Z</time></trkpt><trkpt lat="44.3451773" lon="10.811851"><ele>622.0</ele><time>2026-03-22T10:57:01.286Z</time></trkpt><trkpt lat="44.3452608" lon="10.8118961"><ele>622.0</ele><time>2026-03-22T10:57:02.281Z</time></trkpt><trkpt lat="44.3453275" lon="10.8119444"><ele>622.0</ele><time>2026-03-22T10:57:03.289Z</time></trkpt><trkpt lat="44.3454278" lon="10.8120285"><ele>622.0</ele><time>2026-03-22T10:57:05.294Z</time></trkpt><trkpt lat="44.3455298" lon="10.8120495"><ele>621.2</ele><time>2026-03-22T10:57:07.279Z</time></trkpt><trkpt lat="44.3455876" lon="10.8119512"><ele>620.4000000000001</ele><time>2026-03-22T10:57:09.277Z</time></trkpt><trkpt lat="44.3455373" lon="10.8118133"><ele>619.5999999999999</ele><time>2026-03-22T10:57:11.278Z</time></trkpt><trkpt lat="44.34548" lon="10.8117457"><ele>618.8</ele><time>2026-03-22T10:57:12.288Z</time></trkpt><trkpt lat="44.3454063" lon="10.8116706"><ele>618.0</ele><time>2026-03-22T10:57:13.278Z</time></trkpt><trkpt lat="44.3453196" lon="10.8115899"><ele>615.25</ele><time>2026-03-22T10:57:14.294Z</time></trkpt><trkpt lat="44.3452249" lon="10.8115086"><ele>612.5</ele><time>2026-03-22T10:57:15.267Z</time></trkpt><trkpt lat="44.3451241" lon="10.8114348"><ele>609.75</ele><time>2026-03-22T10:57:16.263Z</time></trkpt><trkpt lat="44.3450202" lon="10.8113676"><ele>607.0</ele><time>2026-03-22T10:57:17.277Z</time></trkpt><trkpt lat="44.3449173" lon="10.8112982"><ele>607.0</ele><time>2026-03-22T10:57:18.289Z</time></trkpt><trkpt lat="44.3448202" lon="10.8112201"><ele>607.0</ele><time>2026-03-22T10:57:19.283Z</time></trkpt><trkpt lat="44.3447285" lon="10.8111456"><ele>607.0</ele><time>2026-03-22T10:57:20.292Z</time></trkpt><trkpt lat="44.3446369" lon="10.8110905"><ele>607.0</ele><time>2026-03-22T10:57:21.276Z</time></trkpt><trkpt lat="44.3445436" lon="10.8110693"><ele>607.0</ele><time>2026-03-22T10:57:22.28Z</time></trkpt><trkpt lat="44.3444572" lon="10.8110911"><ele>607.2</ele><time>2026-03-22T10:57:23.284Z</time></trkpt><trkpt lat="44.3443816" lon="10.8111144"><ele>607.4000000000001</ele><time>2026-03-22T10:57:24.284Z</time></trkpt><trkpt lat="44.3443309" lon="10.8111772"><ele>607.5999999999999</ele><time>2026-03-22T10:57:25.276Z</time></trkpt><trkpt lat="44.3442273" lon="10.8112615"><ele>607.8</ele><time>2026-03-22T10:57:27.28Z</time></trkpt><trkpt lat="44.3441396" lon="10.8112046"><ele>608.0</ele><time>2026-03-22T10:57:29.269Z</time></trkpt><trkpt lat="44.3441368" lon="10.811047"><ele>605.8333333333333</ele><time>2026-03-22T10:57:31.283Z</time></trkpt><trkpt lat="44.3441778" lon="10.8109768"><ele>603.6666666666666</ele><time>2026-03-22T10:57:32.27Z</time></trkpt><trkpt lat="44.3442314" lon="10.8109262"><ele>601.5</ele><time>2026-03-22T10:57:33.28Z</time></trkpt><trkpt lat="44.3442963" lon="10.8108831"><ele>599.3333333333334</ele><time>2026-03-22T10:57:34.284Z</time></trkpt><trkpt lat="44.3443741" lon="10.8108444"><ele>597.1666666666667</ele><time>2026-03-22T10:57:35.286Z</time></trkpt><trkpt lat="44.3444675" lon="10.8108125"><ele>595.0</ele><time>2026-03-22T10:57:36.273Z</time></trkpt><trkpt lat="44.3445831" lon="10.8107922"><ele>593.6666666666667</ele><time>2026-03-22T10:57:37.288Z</time></trkpt><trkpt lat="44.3447235" lon="10.8107855"><ele>592.3333333333334</ele><time>2026-03-22T10:57:38.283Z</time></trkpt><trkpt lat="44.3448745" lon="10.8107814"><ele>591.0</ele><time>2026-03-22T10:57:39.291Z</time></trkpt><trkpt lat="44.3450322" lon="10.810804"><ele>591.0</ele><time>2026-03-22T10:57:40.285Z</time></trkpt><trkpt lat="44.3451834" lon="10.8108269"><ele>591.0</ele><time>2026-03-22T10:57:41.272Z</time></trkpt><trkpt lat="44.3453218" lon="10.810848"><ele>591.0</ele><time>2026-03-22T10:57:42.278Z</time></trkpt><trkpt lat="44.3454436" lon="10.8108647"><ele>591.0</ele><time>2026-03-22T10:57:43.274Z</time></trkpt><trkpt lat="44.3455558" lon="10.8108767"><ele>591.0</ele><time>2026-03-22T10:57:44.284Z</time></trkpt><trkpt lat="44.3456529" lon="10.810869"><ele>591.0</ele><time>2026-03-22T10:57:45.273Z</time></trkpt><trkpt lat="44.3457343" lon="10.8108214"><ele>591.0</ele><time>2026-03-22T10:57:46.287Z</time></trkpt><trkpt lat="44.3457984" lon="10.8107393"><ele>591.0</ele><time>2026-03-22T10:57:47.266Z</time></trkpt><trkpt lat="44.3458508" lon="10.8106505"><ele>591.0</ele><time>2026-03-22T10:57:48.279Z</time></trkpt><trkpt lat="44.3459107" lon="10.8105671"><ele>591.0</ele><time>2026-03-22T10:57:49.289Z</time></trkpt><trkpt lat="44.3459797" lon="10.8104998"><ele>591.0</ele><time>2026-03-22T10:57:50.263Z</time></trkpt><trkpt lat="44.3460555" lon="10.8104499"><ele>591.0</ele><time>2026-03-22T10:57:51.274Z</time></trkpt><trkpt lat="44.346137" lon="10.810413"><ele>591.0</ele><time>2026-03-22T10:57:52.283Z</time></trkpt><trkpt lat="44.3462199" lon="10.8103797"><ele>591.0</ele><time>2026-03-22T10:57:53.279Z</time></trkpt><trkpt lat="44.3462978" lon="10.8103485"><ele>591.0</ele><time>2026-03-22T10:57:54.287Z</time></trkpt><trkpt lat="44.3463703" lon="10.8103154"><ele>591.0</ele><time>2026-03-22T10:57:55.287Z</time></trkpt><trkpt lat="44.3464307" lon="10.8102706"><ele>588.4</ele><time>2026-03-22T10:57:56.275Z</time></trkpt><trkpt lat="44.3464894" lon="10.8101432"><ele>585.8</ele><time>2026-03-22T10:57:58.274Z</time></trkpt><trkpt lat="44.3464672" lon="10.8100159"><ele>583.1999999999999</ele><time>2026-03-22T10:58:00.267Z</time></trkpt><trkpt lat="44.3464221" lon="10.8099543"><ele>580.6</ele><time>2026-03-22T10:58:01.277Z</time></trkpt><trkpt lat="44.3463228" lon="10.809988"><ele>578.0</ele><time>2026-03-22T10:58:02.284Z</time></trkpt><trkpt lat="44.3462059" lon="10.8100528"><ele>578.0</ele><time>2026-03-22T10:58:03.276Z</time></trkpt><trkpt lat="44.3460748" lon="10.8100958"><ele>578.0</ele><time>2026-03-22T10:58:04.286Z</time></trkpt><trkpt lat="44.345934" lon="10.8101096"><ele>578.0</ele><time>2026-03-22T10:58:05.268Z</time></trkpt><trkpt lat="44.3457887" lon="10.8100922"><ele>578.0</ele><time>2026-03-22T10:58:06.269Z</time></trkpt><trkpt lat="44.3456482" lon="10.8100424"><ele>578.5</ele><time>2026-03-22T10:58:07.274Z</time></trkpt><trkpt lat="44.3455205" lon="10.8099595"><ele>579.0</ele><time>2026-03-22T10:58:08.277Z</time></trkpt><trkpt lat="44.345413" lon="10.8098442"><ele>579.5</ele><time>2026-03-22T10:58:09.278Z</time></trkpt><trkpt lat="44.3453387" lon="10.8096984"><ele>580.0</ele><time>2026-03-22T10:58:10.282Z</time></trkpt><trkpt lat="44.3452694" lon="10.8095506"><ele>580.0</ele><time>2026-03-22T10:58:11.27Z</time></trkpt><trkpt lat="44.3452774" lon="10.8093808"><ele>580.0</ele><time>2026-03-22T10:58:12.272Z</time></trkpt><trkpt lat="44.3452884" lon="10.8091979"><ele>580.0</ele><time>2026-03-22T10:58:13.276Z</time></trkpt><trkpt lat="44.3453257" lon="10.8090156"><ele>580.0</ele><time>2026-03-22T10:58:14.289Z</time></trkpt><trkpt lat="44.3453553" lon="10.8088305"><ele>577.75</ele><time>2026-03-22T10:58:15.265Z</time></trkpt><trkpt lat="44.3453836" lon="10.8086421"><ele>575.5</ele><time>2026-03-22T10:58:16.288Z</time></trkpt><trkpt lat="44.3454123" lon="10.8084446"><ele>573.25</ele><time>2026-03-22T10:58:17.277Z</time></trkpt><trkpt lat="44.34544" lon="10.8082453"><ele>571.0</ele><time>2026-03-22T10:58:18.268Z</time></trkpt><trkpt lat="44.3454626" lon="10.8080558"><ele>571.25</ele><time>2026-03-22T10:58:19.281Z</time></trkpt><trkpt lat="44.3454588" lon="10.8078758"><ele>571.5</ele><time>2026-03-22T10:58:20.279Z</time></trkpt><trkpt lat="44.3454509" lon="10.8077006"><ele>571.75</ele><time>2026-03-22T10:58:21.274Z</time></trkpt><trkpt lat="44.3453699" lon="10.8075545"><ele>572.0</ele><time>2026-03-22T10:58:22.284Z</time></trkpt><trkpt lat="44.3452588" lon="10.8074416"><ele>572.0</ele><time>2026-03-22T10:58:23.276Z</time></trkpt><trkpt lat="44.3451203" lon="10.8073641"><ele>572.0</ele><time>2026-03-22T10:58:24.268Z</time></trkpt><trkpt lat="44.3449671" lon="10.8073167"><ele>572.0</ele><time>2026-03-22T10:58:25.288Z</time></trkpt><trkpt lat="44.3448148" lon="10.8072732"><ele>570.75</ele><time>2026-03-22T10:58:26.285Z</time></trkpt><trkpt lat="44.3446698" lon="10.8072504"><ele>569.5</ele><time>2026-03-22T10:58:27.277Z</time></trkpt><trkpt lat="44.3445394" lon="10.807204"><ele>568.25</ele><time>2026-03-22T10:58:28.289Z</time></trkpt><trkpt lat="44.3444236" lon="10.8071252"><ele>567.0</ele><time>2026-03-22T10:58:29.289Z</time></trkpt><trkpt lat="44.3443246" lon="10.8070163"><ele>567.0</ele><time>2026-03-22T10:58:30.29Z</time></trkpt><trkpt lat="44.34422" lon="10.8068942"><ele>567.0</ele><time>2026-03-22T10:58:31.28Z</time></trkpt><trkpt lat="44.3441374" lon="10.806715"><ele>567.0</ele><time>2026-03-22T10:58:32.275Z</time></trkpt><trkpt lat="44.344049" lon="10.8065162"><ele>567.3333333333334</ele><time>2026-03-22T10:58:33.271Z</time></trkpt><trkpt lat="44.3439517" lon="10.8063063"><ele>567.6666666666667</ele><time>2026-03-22T10:58:34.299Z</time></trkpt><trkpt lat="44.343851" lon="10.8060996"><ele>568.0</ele><time>2026-03-22T10:58:35.291Z</time></trkpt><trkpt lat="44.3437549" lon="10.8058999"><ele>568.0</ele><time>2026-03-22T10:58:36.281Z</time></trkpt><trkpt lat="44.3436665" lon="10.8057043"><ele>568.0</ele><time>2026-03-22T10:58:37.288Z</time></trkpt><trkpt lat="44.3435833" lon="10.8055033"><ele>568.0</ele><time>2026-03-22T10:58:38.286Z</time></trkpt><trkpt lat="44.3435153" lon="10.805286"><ele>569.3333333333334</ele><time>2026-03-22T10:58:39.281Z</time></trkpt><trkpt lat="44.3434649" lon="10.8050472"><ele>570.6666666666666</ele><time>2026-03-22T10:58:40.273Z</time></trkpt><trkpt lat="44.3434203" lon="10.8047914"><ele>572.0</ele><time>2026-03-22T10:58:41.288Z</time></trkpt><trkpt lat="44.3433712" lon="10.8045235"><ele>573.3333333333333</ele><time>2026-03-22T10:58:42.285Z</time></trkpt><trkpt lat="44.3433218" lon="10.8042509"><ele>574.6666666666666</ele><time>2026-03-22T10:58:43.284Z</time></trkpt><trkpt lat="44.3432456" lon="10.8039964"><ele>576.0</ele><time>2026-03-22T10:58:44.282Z</time></trkpt><trkpt lat="44.343163" lon="10.8037626"><ele>576.0</ele><time>2026-03-22T10:58:45.285Z</time></trkpt><trkpt lat="44.3430756" lon="10.8035523"><ele>576.0</ele><time>2026-03-22T10:58:46.277Z</time></trkpt><trkpt lat="44.3429806" lon="10.803352"><ele>576.0</ele><time>2026-03-22T10:58:47.271Z</time></trkpt><trkpt lat="44.3428743" lon="10.8031575"><ele>574.6666666666666</ele><time>2026-03-22T10:58:48.283Z</time></trkpt><trkpt lat="44.3427603" lon="10.8029728"><ele>573.3333333333333</ele><time>2026-03-22T10:58:49.283Z</time></trkpt><trkpt lat="44.3426453" lon="10.8028044"><ele>572.0</ele><time>2026-03-22T10:58:50.279Z</time></trkpt><trkpt lat="44.3425381" lon="10.8026427"><ele>572.0</ele><time>2026-03-22T10:58:51.285Z</time></trkpt><trkpt lat="44.3424454" lon="10.8024794"><ele>572.0</ele><time>2026-03-22T10:58:52.29Z</time></trkpt><trkpt lat="44.3423671" lon="10.8023127"><ele>572.0</ele><time>2026-03-22T10:58:53.295Z</time></trkpt><trkpt lat="44.3422975" lon="10.8021378"><ele>572.0</ele><time>2026-03-22T10:58:54.285Z</time></trkpt><trkpt lat="44.3422333" lon="10.801951"><ele>570.0</ele><time>2026-03-22T10:58:55.281Z</time></trkpt><trkpt lat="44.3421706" lon="10.8017548"><ele>568.0</ele><time>2026-03-22T10:58:56.287Z</time></trkpt><trkpt lat="44.3421094" lon="10.8015485"><ele>566.0</ele><time>2026-03-22T10:58:57.29Z</time></trkpt><trkpt lat="44.3420501" lon="10.8013353"><ele>566.0</ele><time>2026-03-22T10:58:58.282Z</time></trkpt><trkpt lat="44.3419971" lon="10.8011176"><ele>566.0</ele><time>2026-03-22T10:58:59.288Z</time></trkpt><trkpt lat="44.3419473" lon="10.8008948"><ele>566.0</ele><time>2026-03-22T10:59:00.288Z</time></trkpt><trkpt lat="44.3418999" lon="10.8006681"><ele>567.3333333333333</ele><time>2026-03-22T10:59:01.293Z</time></trkpt><trkpt lat="44.3418549" lon="10.8004392"><ele>568.6666666666666</ele><time>2026-03-22T10:59:02.277Z</time></trkpt><trkpt lat="44.3418082" lon="10.8002131"><ele>570.0</ele><time>2026-03-22T10:59:03.285Z</time></trkpt><trkpt lat="44.3417578" lon="10.7999974"><ele>570.3333333333334</ele><time>2026-03-22T10:59:04.268Z</time></trkpt><trkpt lat="44.3417072" lon="10.7997882"><ele>570.6666666666667</ele><time>2026-03-22T10:59:05.285Z</time></trkpt><trkpt lat="44.3416717" lon="10.7995864"><ele>571.0</ele><time>2026-03-22T10:59:06.282Z</time></trkpt><trkpt lat="44.3416625" lon="10.7993819"><ele>570.3333333333334</ele><time>2026-03-22T10:59:07.267Z</time></trkpt><trkpt lat="44.3416804" lon="10.7991637"><ele>569.6666666666666</ele><time>2026-03-22T10:59:08.272Z</time></trkpt><trkpt lat="44.3417145" lon="10.7989333"><ele>569.0</ele><time>2026-03-22T10:59:09.272Z</time></trkpt><trkpt lat="44.3417532" lon="10.7986956"><ele>566.6666666666666</ele><time>2026-03-22T10:59:10.286Z</time></trkpt><trkpt lat="44.3417917" lon="10.7984656"><ele>564.3333333333334</ele><time>2026-03-22T10:59:11.274Z</time></trkpt><trkpt lat="44.3418333" lon="10.7982415"><ele>562.0</ele><time>2026-03-22T10:59:12.295Z</time></trkpt><trkpt lat="44.3418788" lon="10.7980262"><ele>562.0</ele><time>2026-03-22T10:59:13.285Z</time></trkpt><trkpt lat="44.341946" lon="10.7978264"><ele>562.0</ele><time>2026-03-22T10:59:14.278Z</time></trkpt><trkpt lat="44.3420297" lon="10.7976311"><ele>562.0</ele><time>2026-03-22T10:59:15.285Z</time></trkpt><trkpt lat="44.3421319" lon="10.797447"><ele>561.3333333333334</ele><time>2026-03-22T10:59:16.286Z</time></trkpt><trkpt lat="44.3422276" lon="10.7972593"><ele>560.6666666666666</ele><time>2026-03-22T10:59:17.282Z</time></trkpt><trkpt lat="44.3423034" lon="10.7970463"><ele>560.0</ele><time>2026-03-22T10:59:18.291Z</time></trkpt><trkpt lat="44.3423593" lon="10.7968139"><ele>560.0</ele><time>2026-03-22T10:59:19.275Z</time></trkpt><trkpt lat="44.3424026" lon="10.7965778"><ele>560.0</ele><time>2026-03-22T10:59:20.29Z</time></trkpt><trkpt lat="44.3424372" lon="10.7963561"><ele>560.0</ele><time>2026-03-22T10:59:21.284Z</time></trkpt><trkpt lat="44.3424622" lon="10.7961421"><ele>557.3333333333333</ele><time>2026-03-22T10:59:22.28Z</time></trkpt><trkpt lat="44.3424643" lon="10.7959314"><ele>554.6666666666666</ele><time>2026-03-22T10:59:23.277Z</time></trkpt><trkpt lat="44.3424435" lon="10.7957194"><ele>552.0</ele><time>2026-03-22T10:59:24.288Z</time></trkpt><trkpt lat="44.3423683" lon="10.7955268"><ele>552.0</ele><time>2026-03-22T10:59:25.28Z</time></trkpt><trkpt lat="44.342271" lon="10.7953562"><ele>552.0</ele><time>2026-03-22T10:59:26.285Z</time></trkpt><trkpt lat="44.3421831" lon="10.7951885"><ele>552.0</ele><time>2026-03-22T10:59:27.284Z</time></trkpt><trkpt lat="44.3421153" lon="10.7950197"><ele>552.0</ele><time>2026-03-22T10:59:28.286Z</time></trkpt><trkpt lat="44.3420725" lon="10.7948566"><ele>552.2</ele><time>2026-03-22T10:59:29.286Z</time></trkpt><trkpt lat="44.342061" lon="10.7947013"><ele>552.4000000000001</ele><time>2026-03-22T10:59:30.29Z</time></trkpt><trkpt lat="44.3420889" lon="10.7945636"><ele>552.5999999999999</ele><time>2026-03-22T10:59:31.288Z</time></trkpt><trkpt lat="44.3421565" lon="10.7944482"><ele>552.8</ele><time>2026-03-22T10:59:32.274Z</time></trkpt><trkpt lat="44.3422371" lon="10.7943392"><ele>553.0</ele><time>2026-03-22T10:59:33.276Z</time></trkpt><trkpt lat="44.3423416" lon="10.7942437"><ele>552.25</ele><time>2026-03-22T10:59:34.28Z</time></trkpt><trkpt lat="44.3424393" lon="10.7941413"><ele>551.5</ele><time>2026-03-22T10:59:35.281Z</time></trkpt><trkpt lat="44.3424976" lon="10.7939944"><ele>550.75</ele><time>2026-03-22T10:59:36.283Z</time></trkpt><trkpt lat="44.3425324" lon="10.79384"><ele>550.0</ele><time>2026-03-22T10:59:37.276Z</time></trkpt><trkpt lat="44.3425177" lon="10.7936757"><ele>550.0</ele><time>2026-03-22T10:59:38.281Z</time></trkpt><trkpt lat="44.3424592" lon="10.7935354"><ele>550.0</ele><time>2026-03-22T10:59:39.28Z</time></trkpt><trkpt lat="44.3423711" lon="10.7934183"><ele>550.0</ele><time>2026-03-22T10:59:40.285Z</time></trkpt><trkpt lat="44.3422527" lon="10.7933426"><ele>550.0</ele><time>2026-03-22T10:59:41.287Z</time></trkpt><trkpt lat="44.3421366" lon="10.7932788"><ele>549.0</ele><time>2026-03-22T10:59:42.293Z</time></trkpt><trkpt lat="44.3420345" lon="10.7932149"><ele>548.0</ele><time>2026-03-22T10:59:43.267Z</time></trkpt><trkpt lat="44.3419507" lon="10.7931408"><ele>547.0</ele><time>2026-03-22T10:59:44.288Z</time></trkpt><trkpt lat="44.3418923" lon="10.7930506"><ele>546.0</ele><time>2026-03-22T10:59:45.279Z</time></trkpt><trkpt lat="44.3418634" lon="10.7929334"><ele>545.0</ele><time>2026-03-22T10:59:46.27Z</time></trkpt><trkpt lat="44.3418683" lon="10.7927957"><ele>547.25</ele><time>2026-03-22T10:59:47.269Z</time></trkpt><trkpt lat="44.3418978" lon="10.7926417"><ele>549.5</ele><time>2026-03-22T10:59:48.275Z</time></trkpt><trkpt lat="44.341977" lon="10.7924887"><ele>551.75</ele><time>2026-03-22T10:59:49.29Z</time></trkpt><trkpt lat="44.3420712" lon="10.7923326"><ele>554.0</ele><time>2026-03-22T10:59:50.274Z</time></trkpt><trkpt lat="44.3421904" lon="10.7921641"><ele>555.3333333333333</ele><time>2026-03-22T10:59:51.273Z</time></trkpt><trkpt lat="44.3423146" lon="10.7919862"><ele>556.6666666666666</ele><time>2026-03-22T10:59:52.271Z</time></trkpt><trkpt lat="44.3424364" lon="10.7918029"><ele>558.0</ele><time>2026-03-22T10:59:53.276Z</time></trkpt><trkpt lat="44.342554" lon="10.7916142"><ele>558.0</ele><time>2026-03-22T10:59:54.28Z</time></trkpt><trkpt lat="44.3426656" lon="10.791427"><ele>558.0</ele><time>2026-03-22T10:59:55.286Z</time></trkpt><trkpt lat="44.342772" lon="10.7912377"><ele>558.0</ele><time>2026-03-22T10:59:56.287Z</time></trkpt><trkpt lat="44.3428752" lon="10.7910626"><ele>559.0</ele><time>2026-03-22T10:59:57.281Z</time></trkpt><trkpt lat="44.3429781" lon="10.7908961"><ele>560.0</ele><time>2026-03-22T10:59:58.283Z</time></trkpt><trkpt lat="44.3431002" lon="10.7907698"><ele>561.0</ele><time>2026-03-22T10:59:59.281Z</time></trkpt><trkpt lat="44.3432433" lon="10.790685"><ele>561.0</ele><time>2026-03-22T11:00:00.28Z</time></trkpt><trkpt lat="44.3433888" lon="10.7906124"><ele>561.0</ele><time>2026-03-22T11:00:01.289Z</time></trkpt><trkpt lat="44.3435383" lon="10.7905484"><ele>561.0</ele><time>2026-03-22T11:00:02.285Z</time></trkpt><trkpt lat="44.3436913" lon="10.7904711"><ele>561.0</ele><time>2026-03-22T11:00:03.282Z</time></trkpt><trkpt lat="44.3438442" lon="10.790371"><ele>561.0</ele><time>2026-03-22T11:00:04.289Z</time></trkpt><trkpt lat="44.3439965" lon="10.7902422"><ele>561.0</ele><time>2026-03-22T11:00:05.286Z</time></trkpt><trkpt lat="44.3441476" lon="10.7900936"><ele>564.3333333333334</ele><time>2026-03-22T11:00:06.282Z</time></trkpt><trkpt lat="44.3442997" lon="10.7899459"><ele>567.6666666666667</ele><time>2026-03-22T11:00:07.273Z</time></trkpt><trkpt lat="44.3444541" lon="10.7898068"><ele>571.0</ele><time>2026-03-22T11:00:08.284Z</time></trkpt><trkpt lat="44.3446046" lon="10.7896629"><ele>572.0</ele><time>2026-03-22T11:00:09.271Z</time></trkpt><trkpt lat="44.3447482" lon="10.7894885"><ele>573.0</ele><time>2026-03-22T11:00:10.279Z</time></trkpt><trkpt lat="44.3448846" lon="10.7892894"><ele>574.0</ele><time>2026-03-22T11:00:11.289Z</time></trkpt><trkpt lat="44.3450174" lon="10.7890717"><ele>574.0</ele><time>2026-03-22T11:00:12.286Z</time></trkpt><trkpt lat="44.3451503" lon="10.7888468"><ele>574.0</ele><time>2026-03-22T11:00:13.283Z</time></trkpt><trkpt lat="44.3452875" lon="10.7886211"><ele>574.0</ele><time>2026-03-22T11:00:14.28Z</time></trkpt><trkpt lat="44.3454253" lon="10.7883988"><ele>573.0</ele><time>2026-03-22T11:00:15.263Z</time></trkpt><trkpt lat="44.345567" lon="10.7881797"><ele>572.0</ele><time>2026-03-22T11:00:16.286Z</time></trkpt><trkpt lat="44.3457087" lon="10.7879767"><ele>571.0</ele><time>2026-03-22T11:00:17.276Z</time></trkpt><trkpt lat="44.345852" lon="10.7877965"><ele>574.3333333333334</ele><time>2026-03-22T11:00:18.277Z</time></trkpt><trkpt lat="44.3459932" lon="10.7876375"><ele>577.6666666666666</ele><time>2026-03-22T11:00:19.283Z</time></trkpt><trkpt lat="44.3461245" lon="10.7874733"><ele>581.0</ele><time>2026-03-22T11:00:20.281Z</time></trkpt><trkpt lat="44.3462363" lon="10.7872775"><ele>581.0</ele><time>2026-03-22T11:00:21.281Z</time></trkpt><trkpt lat="44.3463351" lon="10.7870643"><ele>581.0</ele><time>2026-03-22T11:00:22.279Z</time></trkpt><trkpt lat="44.34642" lon="10.7868403"><ele>581.0</ele><time>2026-03-22T11:00:23.28Z</time></trkpt><trkpt lat="44.3465105" lon="10.7866284"><ele>581.0</ele><time>2026-03-22T11:00:24.277Z</time></trkpt><trkpt lat="44.3466048" lon="10.7864362"><ele>581.0</ele><time>2026-03-22T11:00:25.282Z</time></trkpt><trkpt lat="44.3466912" lon="10.786258"><ele>581.0</ele><time>2026-03-22T11:00:26.292Z</time></trkpt><trkpt lat="44.3467655" lon="10.7860748"><ele>584.3333333333333</ele><time>2026-03-22T11:00:27.281Z</time></trkpt><trkpt lat="44.3468136" lon="10.7858634"><ele>587.6666666666666</ele><time>2026-03-22T11:00:28.287Z</time></trkpt><trkpt lat="44.346845" lon="10.7856391"><ele>591.0</ele><time>2026-03-22T11:00:29.271Z</time></trkpt><trkpt lat="44.3468739" lon="10.7854002"><ele>594.0</ele><time>2026-03-22T11:00:30.28Z</time></trkpt><trkpt lat="44.3469151" lon="10.7851698"><ele>597.0</ele><time>2026-03-22T11:00:31.28Z</time></trkpt><trkpt lat="44.3469787" lon="10.7849502"><ele>600.0</ele><time>2026-03-22T11:00:32.281Z</time></trkpt><trkpt lat="44.3470595" lon="10.7847434"><ele>600.0</ele><time>2026-03-22T11:00:33.264Z</time></trkpt><trkpt lat="44.347145" lon="10.7845381"><ele>600.0</ele><time>2026-03-22T11:00:34.271Z</time></trkpt><trkpt lat="44.3472315" lon="10.7843317"><ele>600.0</ele><time>2026-03-22T11:00:35.282Z</time></trkpt><trkpt lat="44.3473166" lon="10.7841236"><ele>601.6666666666666</ele><time>2026-03-22T11:00:36.276Z</time></trkpt><trkpt lat="44.3474011" lon="10.7839137"><ele>603.3333333333333</ele><time>2026-03-22T11:00:37.272Z</time></trkpt><trkpt lat="44.3474866" lon="10.7837046"><ele>605.0</ele><time>2026-03-22T11:00:38.273Z</time></trkpt><trkpt lat="44.3475711" lon="10.783497"><ele>605.0</ele><time>2026-03-22T11:00:39.284Z</time></trkpt><trkpt lat="44.3476488" lon="10.7832946"><ele>605.0</ele><time>2026-03-22T11:00:40.285Z</time></trkpt><trkpt lat="44.3477096" lon="10.7831011"><ele>605.0</ele><time>2026-03-22T11:00:41.27Z</time></trkpt><trkpt lat="44.3477462" lon="10.7829163"><ele>605.0</ele><time>2026-03-22T11:00:42.285Z</time></trkpt><trkpt lat="44.3477528" lon="10.7827397"><ele>605.0</ele><time>2026-03-22T11:00:43.273Z</time></trkpt><trkpt lat="44.3477221" lon="10.7825627"><ele>605.0</ele><time>2026-03-22T11:00:44.284Z</time></trkpt><trkpt lat="44.3476437" lon="10.7824087"><ele>605.0</ele><time>2026-03-22T11:00:45.268Z</time></trkpt><trkpt lat="44.3475362" lon="10.7822777"><ele>605.75</ele><time>2026-03-22T11:00:46.285Z</time></trkpt><trkpt lat="44.3474204" lon="10.7821569"><ele>606.5</ele><time>2026-03-22T11:00:47.287Z</time></trkpt><trkpt lat="44.3473025" lon="10.7820378"><ele>607.25</ele><time>2026-03-22T11:00:48.279Z</time></trkpt><trkpt lat="44.3471832" lon="10.7819362"><ele>608.0</ele><time>2026-03-22T11:00:49.271Z</time></trkpt><trkpt lat="44.3470526" lon="10.7818677"><ele>609.75</ele><time>2026-03-22T11:00:50.274Z</time></trkpt><trkpt lat="44.3469144" lon="10.7818171"><ele>611.5</ele><time>2026-03-22T11:00:51.292Z</time></trkpt><trkpt lat="44.3467779" lon="10.7817554"><ele>613.25</ele><time>2026-03-22T11:00:52.287Z</time></trkpt><trkpt lat="44.3466508" lon="10.7816623"><ele>615.0</ele><time>2026-03-22T11:00:53.285Z</time></trkpt><trkpt lat="44.3465365" lon="10.7815334"><ele>615.0</ele><time>2026-03-22T11:00:54.272Z</time></trkpt><trkpt lat="44.3464317" lon="10.7813811"><ele>615.0</ele><time>2026-03-22T11:00:55.278Z</time></trkpt><trkpt lat="44.3463302" lon="10.7812198"><ele>615.0</ele><time>2026-03-22T11:00:56.29Z</time></trkpt><trkpt lat="44.3462263" lon="10.7810607"><ele>617.3333333333334</ele><time>2026-03-22T11:00:57.282Z</time></trkpt><trkpt lat="44.3461181" lon="10.7809052"><ele>619.6666666666667</ele><time>2026-03-22T11:00:58.277Z</time></trkpt><trkpt lat="44.3460108" lon="10.7807506"><ele>622.0</ele><time>2026-03-22T11:00:59.269Z</time></trkpt><trkpt lat="44.3459056" lon="10.7805923"><ele>622.0</ele><time>2026-03-22T11:01:00.282Z</time></trkpt><trkpt lat="44.3458059" lon="10.7804293"><ele>622.0</ele><time>2026-03-22T11:01:01.292Z</time></trkpt><trkpt lat="44.3457155" lon="10.7802572"><ele>622.0</ele><time>2026-03-22T11:01:02.273Z</time></trkpt><trkpt lat="44.3456354" lon="10.780067"><ele>620.0</ele><time>2026-03-22T11:01:03.286Z</time></trkpt><trkpt lat="44.3455684" lon="10.7798661"><ele>618.0</ele><time>2026-03-22T11:01:04.282Z</time></trkpt><trkpt lat="44.3455125" lon="10.7796563"><ele>616.0</ele><time>2026-03-22T11:01:05.29Z</time></trkpt><trkpt lat="44.3454686" lon="10.7794454"><ele>620.0</ele><time>2026-03-22T11:01:06.277Z</time></trkpt><trkpt lat="44.3454359" lon="10.7792353"><ele>624.0</ele><time>2026-03-22T11:01:07.272Z</time></trkpt><trkpt lat="44.345417" lon="10.7790317"><ele>628.0</ele><time>2026-03-22T11:01:08.285Z</time></trkpt><trkpt lat="44.3454144" lon="10.7788357"><ele>632.0</ele><time>2026-03-22T11:01:09.273Z</time></trkpt><trkpt lat="44.3454323" lon="10.778642"><ele>633.0</ele><time>2026-03-22T11:01:10.288Z</time></trkpt><trkpt lat="44.3454754" lon="10.7784668"><ele>634.0</ele><time>2026-03-22T11:01:11.281Z</time></trkpt><trkpt lat="44.345545" lon="10.7783153"><ele>635.0</ele><time>2026-03-22T11:01:12.288Z</time></trkpt><trkpt lat="44.3456516" lon="10.7782001"><ele>636.0</ele><time>2026-03-22T11:01:13.27Z</time></trkpt><trkpt lat="44.3457728" lon="10.7781095"><ele>633.75</ele><time>2026-03-22T11:01:14.295Z</time></trkpt><trkpt lat="44.3459026" lon="10.7780417"><ele>631.5</ele><time>2026-03-22T11:01:15.279Z</time></trkpt><trkpt lat="44.3460404" lon="10.7779849"><ele>629.25</ele><time>2026-03-22T11:01:16.273Z</time></trkpt><trkpt lat="44.346183" lon="10.7779302"><ele>627.0</ele><time>2026-03-22T11:01:17.29Z</time></trkpt><trkpt lat="44.3463258" lon="10.7778755"><ele>624.6666666666666</ele><time>2026-03-22T11:01:18.282Z</time></trkpt><trkpt lat="44.3464703" lon="10.7778188"><ele>622.3333333333333</ele><time>2026-03-22T11:01:19.273Z</time></trkpt><trkpt lat="44.3466162" lon="10.7777575"><ele>620.0</ele><time>2026-03-22T11:01:20.283Z</time></trkpt><trkpt lat="44.3467596" lon="10.7776932"><ele>622.5</ele><time>2026-03-22T11:01:21.272Z</time></trkpt><trkpt lat="44.3468999" lon="10.7776284"><ele>625.0</ele><time>2026-03-22T11:01:22.29Z</time></trkpt><trkpt lat="44.3470298" lon="10.7775612"><ele>627.5</ele><time>2026-03-22T11:01:23.291Z</time></trkpt><trkpt lat="44.3471491" lon="10.7775051"><ele>630.0</ele><time>2026-03-22T11:01:24.265Z</time></trkpt><trkpt lat="44.3472637" lon="10.7774532"><ele>630.2</ele><time>2026-03-22T11:01:25.291Z</time></trkpt><trkpt lat="44.3473715" lon="10.7774083"><ele>630.4</ele><time>2026-03-22T11:01:26.282Z</time></trkpt><trkpt lat="44.3474724" lon="10.777365"><ele>630.6</ele><time>2026-03-22T11:01:27.292Z</time></trkpt><trkpt lat="44.3475667" lon="10.7773221"><ele>630.8</ele><time>2026-03-22T11:01:28.275Z</time></trkpt><trkpt lat="44.3476519" lon="10.7772781"><ele>631.0</ele><time>2026-03-22T11:01:29.289Z</time></trkpt><trkpt lat="44.3477332" lon="10.7772373"><ele>631.0</ele><time>2026-03-22T11:01:30.285Z</time></trkpt><trkpt lat="44.3478108" lon="10.7771996"><ele>631.0</ele><time>2026-03-22T11:01:31.287Z</time></trkpt><trkpt lat="44.3478828" lon="10.7771534"><ele>631.0</ele><time>2026-03-22T11:01:32.276Z</time></trkpt><trkpt lat="44.3479494" lon="10.7770852"><ele>631.0</ele><time>2026-03-22T11:01:33.274Z</time></trkpt><trkpt lat="44.3480082" lon="10.7769848"><ele>631.0</ele><time>2026-03-22T11:01:34.291Z</time></trkpt><trkpt lat="44.3480641" lon="10.7768643"><ele>631.0</ele><time>2026-03-22T11:01:35.281Z</time></trkpt><trkpt lat="44.3481084" lon="10.7767114"><ele>628.5</ele><time>2026-03-22T11:01:36.296Z</time></trkpt><trkpt lat="44.3481477" lon="10.7765497"><ele>626.0</ele><time>2026-03-22T11:01:37.269Z</time></trkpt><trkpt lat="44.3481871" lon="10.7763907"><ele>623.5</ele><time>2026-03-22T11:01:38.288Z</time></trkpt><trkpt lat="44.3482115" lon="10.7762233"><ele>621.0</ele><time>2026-03-22T11:01:39.273Z</time></trkpt><trkpt lat="44.348218" lon="10.7760418"><ele>621.75</ele><time>2026-03-22T11:01:40.288Z</time></trkpt><trkpt lat="44.3482206" lon="10.7758547"><ele>622.5</ele><time>2026-03-22T11:01:41.285Z</time></trkpt><trkpt lat="44.348234" lon="10.7756656"><ele>623.25</ele><time>2026-03-22T11:01:42.276Z</time></trkpt><trkpt lat="44.348265" lon="10.7754726"><ele>624.0</ele><time>2026-03-22T11:01:43.286Z</time></trkpt><trkpt lat="44.3483175" lon="10.7752788"><ele>626.6666666666666</ele><time>2026-03-22T11:01:44.287Z</time></trkpt><trkpt lat="44.3483777" lon="10.7750867"><ele>629.3333333333333</ele><time>2026-03-22T11:01:45.288Z</time></trkpt><trkpt lat="44.3484409" lon="10.7748945"><ele>632.0</ele><time>2026-03-22T11:01:46.278Z</time></trkpt><trkpt lat="44.3485022" lon="10.7746961"><ele>632.0</ele><time>2026-03-22T11:01:47.279Z</time></trkpt><trkpt lat="44.3485724" lon="10.7744947"><ele>632.0</ele><time>2026-03-22T11:01:48.28Z</time></trkpt><trkpt lat="44.3486529" lon="10.7743027"><ele>632.0</ele><time>2026-03-22T11:01:49.289Z</time></trkpt><trkpt lat="44.3487481" lon="10.7741228"><ele>634.3333333333333</ele><time>2026-03-22T11:01:50.291Z</time></trkpt><trkpt lat="44.3488516" lon="10.7739527"><ele>636.6666666666666</ele><time>2026-03-22T11:01:51.268Z</time></trkpt><trkpt lat="44.348957" lon="10.7737797"><ele>639.0</ele><time>2026-03-22T11:01:52.276Z</time></trkpt><trkpt lat="44.3490608" lon="10.7736108"><ele>638.0</ele><time>2026-03-22T11:01:53.281Z</time></trkpt><trkpt lat="44.3491618" lon="10.7734504"><ele>637.0</ele><time>2026-03-22T11:01:54.288Z</time></trkpt><trkpt lat="44.3492636" lon="10.7733039"><ele>636.0</ele><time>2026-03-22T11:01:55.277Z</time></trkpt><trkpt lat="44.3493816" lon="10.7731876"><ele>635.0</ele><time>2026-03-22T11:01:56.281Z</time></trkpt><trkpt lat="44.3495104" lon="10.7731077"><ele>635.0</ele><time>2026-03-22T11:01:57.279Z</time></trkpt><trkpt lat="44.3496499" lon="10.77307"><ele>635.0</ele><time>2026-03-22T11:01:58.291Z</time></trkpt><trkpt lat="44.349791" lon="10.7730585"><ele>635.0</ele><time>2026-03-22T11:01:59.286Z</time></trkpt><trkpt lat="44.3499275" lon="10.7730551"><ele>635.0</ele><time>2026-03-22T11:02:00.286Z</time></trkpt><trkpt lat="44.3500589" lon="10.7730505"><ele>634.5</ele><time>2026-03-22T11:02:01.273Z</time></trkpt><trkpt lat="44.3501867" lon="10.7730422"><ele>634.0</ele><time>2026-03-22T11:02:02.276Z</time></trkpt><trkpt lat="44.3503021" lon="10.7730201"><ele>633.5</ele><time>2026-03-22T11:02:03.287Z</time></trkpt><trkpt lat="44.3504118" lon="10.772988"><ele>633.0</ele><time>2026-03-22T11:02:04.284Z</time></trkpt><trkpt lat="44.3505119" lon="10.7729214"><ele>633.0</ele><time>2026-03-22T11:02:05.287Z</time></trkpt><trkpt lat="44.3506034" lon="10.7728259"><ele>633.0</ele><time>2026-03-22T11:02:06.29Z</time></trkpt><trkpt lat="44.3506711" lon="10.7726905"><ele>633.0</ele><time>2026-03-22T11:02:07.287Z</time></trkpt><trkpt lat="44.350709" lon="10.7725244"><ele>633.0</ele><time>2026-03-22T11:02:08.285Z</time></trkpt><trkpt lat="44.3507084" lon="10.772342"><ele>633.0</ele><time>2026-03-22T11:02:09.279Z</time></trkpt><trkpt lat="44.3506781" lon="10.7721517"><ele>633.0</ele><time>2026-03-22T11:02:10.281Z</time></trkpt><trkpt lat="44.3506238" lon="10.7719621"><ele>633.0</ele><time>2026-03-22T11:02:11.28Z</time></trkpt><trkpt lat="44.3505564" lon="10.7717738"><ele>633.0</ele><time>2026-03-22T11:02:12.296Z</time></trkpt><trkpt lat="44.3504852" lon="10.7715891"><ele>640.3333333333334</ele><time>2026-03-22T11:02:13.281Z</time></trkpt><trkpt lat="44.3504246" lon="10.7713969"><ele>647.6666666666667</ele><time>2026-03-22T11:02:14.274Z</time></trkpt><trkpt lat="44.350387" lon="10.771193"><ele>655.0</ele><time>2026-03-22T11:02:15.273Z</time></trkpt><trkpt lat="44.350374" lon="10.7709768"><ele>655.3333333333334</ele><time>2026-03-22T11:02:16.29Z</time></trkpt><trkpt lat="44.3503854" lon="10.7707563"><ele>655.6666666666666</ele><time>2026-03-22T11:02:17.275Z</time></trkpt><trkpt lat="44.3504113" lon="10.770528"><ele>656.0</ele><time>2026-03-22T11:02:18.291Z</time></trkpt><trkpt lat="44.3504432" lon="10.7703054"><ele>655.3333333333333</ele><time>2026-03-22T11:02:19.269Z</time></trkpt><trkpt lat="44.3504823" lon="10.7700825"><ele>654.6666666666666</ele><time>2026-03-22T11:02:20.285Z</time></trkpt><trkpt lat="44.3505488" lon="10.7698789"><ele>654.0</ele><time>2026-03-22T11:02:21.271Z</time></trkpt><trkpt lat="44.3506309" lon="10.769686"><ele>653.6666666666666</ele><time>2026-03-22T11:02:22.287Z</time></trkpt><trkpt lat="44.3507441" lon="10.7695225"><ele>653.3333333333333</ele><time>2026-03-22T11:02:23.288Z</time></trkpt><trkpt lat="44.3508655" lon="10.769371"><ele>653.0</ele><time>2026-03-22T11:02:24.291Z</time></trkpt><trkpt lat="44.3509826" lon="10.7692324"><ele>653.0</ele><time>2026-03-22T11:02:25.275Z</time></trkpt><trkpt lat="44.351094" lon="10.7691207"><ele>653.0</ele><time>2026-03-22T11:02:26.284Z</time></trkpt><trkpt lat="44.3512018" lon="10.7690402"><ele>653.0</ele><time>2026-03-22T11:02:27.273Z</time></trkpt><trkpt lat="44.351314" lon="10.7690368"><ele>653.0</ele><time>2026-03-22T11:02:28.276Z</time></trkpt><trkpt lat="44.3514208" lon="10.7690803"><ele>650.8</ele><time>2026-03-22T11:02:29.288Z</time></trkpt><trkpt lat="44.3515215" lon="10.7691423"><ele>648.5999999999999</ele><time>2026-03-22T11:02:30.267Z</time></trkpt><trkpt lat="44.3516229" lon="10.7691919"><ele>646.4000000000001</ele><time>2026-03-22T11:02:31.28Z</time></trkpt><trkpt lat="44.3517278" lon="10.7691806"><ele>644.2</ele><time>2026-03-22T11:02:32.287Z</time></trkpt><trkpt lat="44.3518299" lon="10.769113"><ele>642.0</ele><time>2026-03-22T11:02:33.275Z</time></trkpt><trkpt lat="44.3519209" lon="10.7689997"><ele>642.0</ele><time>2026-03-22T11:02:34.282Z</time></trkpt><trkpt lat="44.3519903" lon="10.7688426"><ele>642.0</ele><time>2026-03-22T11:02:35.29Z</time></trkpt><trkpt lat="44.3520464" lon="10.7686628"><ele>642.0</ele><time>2026-03-22T11:02:36.276Z</time></trkpt><trkpt lat="44.3521006" lon="10.768482"><ele>642.0</ele><time>2026-03-22T11:02:37.278Z</time></trkpt><trkpt lat="44.352143" lon="10.7683074"><ele>642.0</ele><time>2026-03-22T11:02:38.277Z</time></trkpt><trkpt lat="44.3521616" lon="10.7681364"><ele>642.0</ele><time>2026-03-22T11:02:39.282Z</time></trkpt><trkpt lat="44.3521431" lon="10.767968"><ele>642.0</ele><time>2026-03-22T11:02:40.277Z</time></trkpt><trkpt lat="44.3520833" lon="10.7677943"><ele>642.0</ele><time>2026-03-22T11:02:41.29Z</time></trkpt><trkpt lat="44.3520048" lon="10.7676203"><ele>642.0</ele><time>2026-03-22T11:02:42.282Z</time></trkpt><trkpt lat="44.3519419" lon="10.7674307"><ele>642.0</ele><time>2026-03-22T11:02:43.285Z</time></trkpt><trkpt lat="44.3518965" lon="10.7672238"><ele>642.0</ele><time>2026-03-22T11:02:44.274Z</time></trkpt><trkpt lat="44.3518631" lon="10.7670064"><ele>641.25</ele><time>2026-03-22T11:02:45.278Z</time></trkpt><trkpt lat="44.3518388" lon="10.7667956"><ele>640.5</ele><time>2026-03-22T11:02:46.29Z</time></trkpt><trkpt lat="44.3518207" lon="10.7666016"><ele>639.75</ele><time>2026-03-22T11:02:47.267Z</time></trkpt><trkpt lat="44.3518168" lon="10.7664115"><ele>639.0</ele><time>2026-03-22T11:02:48.287Z</time></trkpt><trkpt lat="44.3518386" lon="10.7662366"><ele>639.0</ele><time>2026-03-22T11:02:49.275Z</time></trkpt><trkpt lat="44.3518899" lon="10.7660785"><ele>639.0</ele><time>2026-03-22T11:02:50.273Z</time></trkpt><trkpt lat="44.3519797" lon="10.7659371"><ele>639.0</ele><time>2026-03-22T11:02:51.283Z</time></trkpt><trkpt lat="44.352084" lon="10.7658105"><ele>639.0</ele><time>2026-03-22T11:02:52.287Z</time></trkpt><trkpt lat="44.3521985" lon="10.7656957"><ele>638.25</ele><time>2026-03-22T11:02:53.285Z</time></trkpt><trkpt lat="44.352309" lon="10.765585"><ele>637.5</ele><time>2026-03-22T11:02:54.281Z</time></trkpt><trkpt lat="44.3524105" lon="10.765467"><ele>636.75</ele><time>2026-03-22T11:02:55.272Z</time></trkpt><trkpt lat="44.3524948" lon="10.7653264"><ele>636.0</ele><time>2026-03-22T11:02:56.272Z</time></trkpt><trkpt lat="44.3525492" lon="10.7651641"><ele>636.0</ele><time>2026-03-22T11:02:57.287Z</time></trkpt><trkpt lat="44.3525812" lon="10.764993"><ele>636.0</ele><time>2026-03-22T11:02:58.29Z</time></trkpt><trkpt lat="44.3525617" lon="10.7648279"><ele>636.0</ele><time>2026-03-22T11:02:59.282Z</time></trkpt><trkpt lat="44.3525109" lon="10.7646802"><ele>636.0</ele><time>2026-03-22T11:03:00.285Z</time></trkpt><trkpt lat="44.3524183" lon="10.7645449"><ele>636.0</ele><time>2026-03-22T11:03:01.277Z</time></trkpt><trkpt lat="44.3523042" lon="10.7644259"><ele>636.0</ele><time>2026-03-22T11:03:02.279Z</time></trkpt><trkpt lat="44.3522047" lon="10.7642936"><ele>636.0</ele><time>2026-03-22T11:03:03.278Z</time></trkpt><trkpt lat="44.3521333" lon="10.7641397"><ele>636.0</ele><time>2026-03-22T11:03:04.286Z</time></trkpt><trkpt lat="44.3521018" lon="10.7639695"><ele>633.75</ele><time>2026-03-22T11:03:05.273Z</time></trkpt><trkpt lat="44.3521054" lon="10.7637933"><ele>631.5</ele><time>2026-03-22T11:03:06.276Z</time></trkpt><trkpt lat="44.3521419" lon="10.7636252"><ele>629.25</ele><time>2026-03-22T11:03:07.281Z</time></trkpt><trkpt lat="44.3522072" lon="10.7634878"><ele>627.0</ele><time>2026-03-22T11:03:08.285Z</time></trkpt><trkpt lat="44.3523065" lon="10.7633871"><ele>627.0</ele><time>2026-03-22T11:03:09.289Z</time></trkpt><trkpt lat="44.3524307" lon="10.7633291"><ele>627.0</ele><time>2026-03-22T11:03:10.272Z</time></trkpt><trkpt lat="44.3525468" lon="10.7632662"><ele>627.0</ele><time>2026-03-22T11:03:11.277Z</time></trkpt><trkpt lat="44.3526434" lon="10.763186"><ele>627.0</ele><time>2026-03-22T11:03:12.275Z</time></trkpt><trkpt lat="44.3527196" lon="10.7630828"><ele>627.0</ele><time>2026-03-22T11:03:13.266Z</time></trkpt><trkpt lat="44.3527535" lon="10.7629455"><ele>627.0</ele><time>2026-03-22T11:03:14.283Z</time></trkpt><trkpt lat="44.352746" lon="10.7628044"><ele>627.0</ele><time>2026-03-22T11:03:15.28Z</time></trkpt><trkpt lat="44.3526844" lon="10.7626686"><ele>627.0</ele><time>2026-03-22T11:03:16.288Z</time></trkpt><trkpt lat="44.3525781" lon="10.7625581"><ele>626.0</ele><time>2026-03-22T11:03:17.288Z</time></trkpt><trkpt lat="44.3524513" lon="10.7624607"><ele>625.0</ele><time>2026-03-22T11:03:18.266Z</time></trkpt><trkpt lat="44.3523196" lon="10.7623535"><ele>624.0</ele><time>2026-03-22T11:03:19.277Z</time></trkpt><trkpt lat="44.3521925" lon="10.7622405"><ele>623.0</ele><time>2026-03-22T11:03:20.285Z</time></trkpt><trkpt lat="44.3520712" lon="10.7621318"><ele>625.0</ele><time>2026-03-22T11:03:21.287Z</time></trkpt><trkpt lat="44.3519523" lon="10.7620424"><ele>627.0</ele><time>2026-03-22T11:03:22.278Z</time></trkpt><trkpt lat="44.3518315" lon="10.7619711"><ele>629.0</ele><time>2026-03-22T11:03:23.281Z</time></trkpt><trkpt lat="44.3516997" lon="10.7619526"><ele>631.0</ele><time>2026-03-22T11:03:24.283Z</time></trkpt><trkpt lat="44.3515597" lon="10.7619766"><ele>631.0</ele><time>2026-03-22T11:03:25.285Z</time></trkpt><trkpt lat="44.3514197" lon="10.7620233"><ele>631.0</ele><time>2026-03-22T11:03:26.287Z</time></trkpt><trkpt lat="44.3512834" lon="10.7620631"><ele>631.0</ele><time>2026-03-22T11:03:27.269Z</time></trkpt><trkpt lat="44.3511662" lon="10.7620573"><ele>631.0</ele><time>2026-03-22T11:03:28.271Z</time></trkpt><trkpt lat="44.3510625" lon="10.7620122"><ele>630.25</ele><time>2026-03-22T11:03:29.271Z</time></trkpt><trkpt lat="44.3509703" lon="10.7619202"><ele>629.5</ele><time>2026-03-22T11:03:30.274Z</time></trkpt><trkpt lat="44.3509044" lon="10.7617746"><ele>628.75</ele><time>2026-03-22T11:03:31.283Z</time></trkpt><trkpt lat="44.3508537" lon="10.7616128"><ele>628.0</ele><time>2026-03-22T11:03:32.273Z</time></trkpt><trkpt lat="44.3508079" lon="10.7614462"><ele>626.0</ele><time>2026-03-22T11:03:33.275Z</time></trkpt><trkpt lat="44.3507646" lon="10.7612931"><ele>624.0</ele><time>2026-03-22T11:03:34.284Z</time></trkpt><trkpt lat="44.3507164" lon="10.7611647"><ele>622.0</ele><time>2026-03-22T11:03:35.279Z</time></trkpt><trkpt lat="44.3506528" lon="10.7610785"><ele>620.0</ele><time>2026-03-22T11:03:36.27Z</time></trkpt><trkpt lat="44.3505718" lon="10.7610588"><ele>618.0</ele><time>2026-03-22T11:03:37.287Z</time></trkpt><trkpt lat="44.3504914" lon="10.761123"><ele>615.75</ele><time>2026-03-22T11:03:38.263Z</time></trkpt><trkpt lat="44.3504386" lon="10.7612565"><ele>613.5</ele><time>2026-03-22T11:03:39.282Z</time></trkpt><trkpt lat="44.3504166" lon="10.7614354"><ele>611.25</ele><time>2026-03-22T11:03:40.287Z</time></trkpt><trkpt lat="44.3503986" lon="10.7616302"><ele>609.0</ele><time>2026-03-22T11:03:41.275Z</time></trkpt><trkpt lat="44.3503724" lon="10.76183"><ele>611.75</ele><time>2026-03-22T11:03:42.274Z</time></trkpt><trkpt lat="44.3503291" lon="10.7620102"><ele>614.5</ele><time>2026-03-22T11:03:43.272Z</time></trkpt><trkpt lat="44.35026" lon="10.7621609"><ele>617.25</ele><time>2026-03-22T11:03:44.27Z</time></trkpt><trkpt lat="44.3501617" lon="10.7622729"><ele>620.0</ele><time>2026-03-22T11:03:45.275Z</time></trkpt><trkpt lat="44.3500374" lon="10.762353"><ele>620.0</ele><time>2026-03-22T11:03:46.274Z</time></trkpt><trkpt lat="44.3499005" lon="10.7624121"><ele>620.0</ele><time>2026-03-22T11:03:47.267Z</time></trkpt><trkpt lat="44.3497542" lon="10.7624507"><ele>620.0</ele><time>2026-03-22T11:03:48.268Z</time></trkpt><trkpt lat="44.3495999" lon="10.7624532"><ele>620.0</ele><time>2026-03-22T11:03:49.285Z</time></trkpt><trkpt lat="44.3494437" lon="10.7624254"><ele>618.6666666666666</ele><time>2026-03-22T11:03:50.281Z</time></trkpt><trkpt lat="44.3492899" lon="10.762379"><ele>617.3333333333334</ele><time>2026-03-22T11:03:51.288Z</time></trkpt><trkpt lat="44.349144" lon="10.7623224"><ele>616.0</ele><time>2026-03-22T11:03:52.282Z</time></trkpt><trkpt lat="44.349008" lon="10.7622499"><ele>616.0</ele><time>2026-03-22T11:03:53.27Z</time></trkpt><trkpt lat="44.3488832" lon="10.762157"><ele>616.0</ele><time>2026-03-22T11:03:54.281Z</time></trkpt><trkpt lat="44.3487841" lon="10.7620311"><ele>616.0</ele><time>2026-03-22T11:03:55.289Z</time></trkpt><trkpt lat="44.3487041" lon="10.7618851"><ele>616.0</ele><time>2026-03-22T11:03:56.287Z</time></trkpt><trkpt lat="44.3486326" lon="10.7617335"><ele>615.0</ele><time>2026-03-22T11:03:57.274Z</time></trkpt><trkpt lat="44.3485523" lon="10.761597"><ele>614.0</ele><time>2026-03-22T11:03:58.272Z</time></trkpt><trkpt lat="44.3484552" lon="10.7614915"><ele>613.0</ele><time>2026-03-22T11:03:59.276Z</time></trkpt><trkpt lat="44.3483365" lon="10.7614341"><ele>612.0</ele><time>2026-03-22T11:04:00.282Z</time></trkpt><trkpt lat="44.3482041" lon="10.7614073"><ele>612.0</ele><time>2026-03-22T11:04:01.269Z</time></trkpt><trkpt lat="44.3480538" lon="10.7614247"><ele>612.0</ele><time>2026-03-22T11:04:02.287Z</time></trkpt><trkpt lat="44.3478979" lon="10.7614409"><ele>612.0</ele><time>2026-03-22T11:04:03.278Z</time></trkpt><trkpt lat="44.3477349" lon="10.7614395"><ele>611.6666666666666</ele><time>2026-03-22T11:04:04.267Z</time></trkpt><trkpt lat="44.3475664" lon="10.7614162"><ele>611.3333333333333</ele><time>2026-03-22T11:04:05.279Z</time></trkpt><trkpt lat="44.3473993" lon="10.7613713"><ele>611.0</ele><time>2026-03-22T11:04:06.278Z</time></trkpt><trkpt lat="44.3472296" lon="10.7613104"><ele>613.0</ele><time>2026-03-22T11:04:07.287Z</time></trkpt><trkpt lat="44.3470542" lon="10.761248"><ele>615.0</ele><time>2026-03-22T11:04:08.281Z</time></trkpt><trkpt lat="44.346869" lon="10.7611858"><ele>617.0</ele><time>2026-03-22T11:04:09.288Z</time></trkpt><trkpt lat="44.3466807" lon="10.7611225"><ele>617.0</ele><time>2026-03-22T11:04:10.27Z</time></trkpt><trkpt lat="44.3464872" lon="10.7610545"><ele>617.0</ele><time>2026-03-22T11:04:11.269Z</time></trkpt><trkpt lat="44.3462896" lon="10.7609856"><ele>617.0</ele><time>2026-03-22T11:04:12.288Z</time></trkpt><trkpt lat="44.3461016" lon="10.7609178"><ele>613.0</ele><time>2026-03-22T11:04:13.285Z</time></trkpt><trkpt lat="44.3459255" lon="10.7608503"><ele>609.0</ele><time>2026-03-22T11:04:14.273Z</time></trkpt><trkpt lat="44.3457568" lon="10.7607886"><ele>605.0</ele><time>2026-03-22T11:04:15.284Z</time></trkpt><trkpt lat="44.3456013" lon="10.7607389"><ele>606.25</ele><time>2026-03-22T11:04:16.279Z</time></trkpt><trkpt lat="44.3454553" lon="10.7606995"><ele>607.5</ele><time>2026-03-22T11:04:17.29Z</time></trkpt><trkpt lat="44.3453222" lon="10.7606679"><ele>608.75</ele><time>2026-03-22T11:04:18.272Z</time></trkpt><trkpt lat="44.3451958" lon="10.7606296"><ele>610.0</ele><time>2026-03-22T11:04:19.286Z</time></trkpt><trkpt lat="44.3450914" lon="10.7605631"><ele>610.0</ele><time>2026-03-22T11:04:20.268Z</time></trkpt><trkpt lat="44.3450025" lon="10.7604744"><ele>610.0</ele><time>2026-03-22T11:04:21.269Z</time></trkpt><trkpt lat="44.3449344" lon="10.7603524"><ele>610.0</ele><time>2026-03-22T11:04:22.279Z</time></trkpt><trkpt lat="44.3448689" lon="10.7602189"><ele>610.0</ele><time>2026-03-22T11:04:23.282Z</time></trkpt><trkpt lat="44.3448088" lon="10.7600798"><ele>607.75</ele><time>2026-03-22T11:04:24.272Z</time></trkpt><trkpt lat="44.3447673" lon="10.7599317"><ele>605.5</ele><time>2026-03-22T11:04:25.282Z</time></trkpt><trkpt lat="44.3447587" lon="10.7597789"><ele>603.25</ele><time>2026-03-22T11:04:26.268Z</time></trkpt><trkpt lat="44.3447732" lon="10.759626"><ele>601.0</ele><time>2026-03-22T11:04:27.272Z</time></trkpt><trkpt lat="44.3448417" lon="10.759494"><ele>601.0</ele><time>2026-03-22T11:04:28.289Z</time></trkpt><trkpt lat="44.3449438" lon="10.7593875"><ele>601.0</ele><time>2026-03-22T11:04:29.274Z</time></trkpt><trkpt lat="44.3450496" lon="10.7592753"><ele>601.0</ele><time>2026-03-22T11:04:30.279Z</time></trkpt><trkpt lat="44.3451532" lon="10.7591403"><ele>601.0</ele><time>2026-03-22T11:04:31.271Z</time></trkpt><trkpt lat="44.3452412" lon="10.7589689"><ele>603.3333333333334</ele><time>2026-03-22T11:04:32.289Z</time></trkpt><trkpt lat="44.3453096" lon="10.7587667"><ele>605.6666666666666</ele><time>2026-03-22T11:04:33.281Z</time></trkpt><trkpt lat="44.3453683" lon="10.7585477"><ele>608.0</ele><time>2026-03-22T11:04:34.285Z</time></trkpt><trkpt lat="44.3454263" lon="10.7583417"><ele>609.75</ele><time>2026-03-22T11:04:35.282Z</time></trkpt><trkpt lat="44.3454942" lon="10.7581637"><ele>611.5</ele><time>2026-03-22T11:04:36.275Z</time></trkpt><trkpt lat="44.345574" lon="10.7580108"><ele>613.25</ele><time>2026-03-22T11:04:37.279Z</time></trkpt><trkpt lat="44.345658" lon="10.7578783"><ele>615.0</ele><time>2026-03-22T11:04:38.281Z</time></trkpt><trkpt lat="44.3457358" lon="10.7577515"><ele>610.6</ele><time>2026-03-22T11:04:39.285Z</time></trkpt><trkpt lat="44.3457871" lon="10.7576193"><ele>606.2</ele><time>2026-03-22T11:04:40.273Z</time></trkpt><trkpt lat="44.345804" lon="10.7574813"><ele>601.8</ele><time>2026-03-22T11:04:41.28Z</time></trkpt><trkpt lat="44.3457959" lon="10.7573465"><ele>597.4</ele><time>2026-03-22T11:04:42.272Z</time></trkpt><trkpt lat="44.3457428" lon="10.757233"><ele>593.0</ele><time>2026-03-22T11:04:43.286Z</time></trkpt><trkpt lat="44.345657" lon="10.7571417"><ele>593.0</ele><time>2026-03-22T11:04:44.288Z</time></trkpt><trkpt lat="44.3455546" lon="10.7570469"><ele>593.0</ele><time>2026-03-22T11:04:45.271Z</time></trkpt><trkpt lat="44.3454717" lon="10.7569192"><ele>593.0</ele><time>2026-03-22T11:04:46.269Z</time></trkpt><trkpt lat="44.3454098" lon="10.7567617"><ele>593.0</ele><time>2026-03-22T11:04:47.284Z</time></trkpt><trkpt lat="44.3454061" lon="10.7565668"><ele>595.0</ele><time>2026-03-22T11:04:48.282Z</time></trkpt><trkpt lat="44.3454171" lon="10.7563625"><ele>597.0</ele><time>2026-03-22T11:04:49.269Z</time></trkpt><trkpt lat="44.3454328" lon="10.7561463"><ele>599.0</ele><time>2026-03-22T11:04:50.29Z</time></trkpt><trkpt lat="44.3454388" lon="10.7559473"><ele>601.0</ele><time>2026-03-22T11:04:51.283Z</time></trkpt><trkpt lat="44.3454295" lon="10.7557683"><ele>601.0</ele><time>2026-03-22T11:04:52.286Z</time></trkpt><trkpt lat="44.345423" lon="10.7555903"><ele>601.0</ele><time>2026-03-22T11:04:53.289Z</time></trkpt><trkpt lat="44.3454178" lon="10.7553974"><ele>601.0</ele><time>2026-03-22T11:04:54.266Z</time></trkpt><trkpt lat="44.345413" lon="10.7551855"><ele>601.0</ele><time>2026-03-22T11:04:55.286Z</time></trkpt><trkpt lat="44.3454139" lon="10.7549732"><ele>600.5</ele><time>2026-03-22T11:04:56.27Z</time></trkpt><trkpt lat="44.345434" lon="10.7547636"><ele>600.0</ele><time>2026-03-22T11:04:57.278Z</time></trkpt><trkpt lat="44.345468" lon="10.7545663"><ele>599.5</ele><time>2026-03-22T11:04:58.273Z</time></trkpt><trkpt lat="44.3455386" lon="10.7543936"><ele>599.0</ele><time>2026-03-22T11:04:59.282Z</time></trkpt><trkpt lat="44.3456109" lon="10.7542262"><ele>595.5</ele><time>2026-03-22T11:05:00.289Z</time></trkpt><trkpt lat="44.3456711" lon="10.7540578"><ele>592.0</ele><time>2026-03-22T11:05:01.27Z</time></trkpt><trkpt lat="44.3457028" lon="10.7538751"><ele>588.5</ele><time>2026-03-22T11:05:02.283Z</time></trkpt><trkpt lat="44.3457083" lon="10.753693"><ele>585.0</ele><time>2026-03-22T11:05:03.266Z</time></trkpt><trkpt lat="44.3456751" lon="10.7535286"><ele>584.0</ele><time>2026-03-22T11:05:04.267Z</time></trkpt><trkpt lat="44.3456273" lon="10.753385"><ele>583.0</ele><time>2026-03-22T11:05:05.277Z</time></trkpt><trkpt lat="44.3455399" lon="10.7532932"><ele>582.0</ele><time>2026-03-22T11:05:06.271Z</time></trkpt><trkpt lat="44.3454202" lon="10.7532508"><ele>581.0</ele><time>2026-03-22T11:05:07.274Z</time></trkpt><trkpt lat="44.3452869" lon="10.7532351"><ele>583.0</ele><time>2026-03-22T11:05:08.28Z</time></trkpt><trkpt lat="44.3451461" lon="10.7532209"><ele>585.0</ele><time>2026-03-22T11:05:09.27Z</time></trkpt><trkpt lat="44.3449978" lon="10.7532035"><ele>587.0</ele><time>2026-03-22T11:05:10.289Z</time></trkpt><trkpt lat="44.3448538" lon="10.7531787"><ele>589.0</ele><time>2026-03-22T11:05:11.274Z</time></trkpt><trkpt lat="44.3447196" lon="10.7531414"><ele>591.0</ele><time>2026-03-22T11:05:12.271Z</time></trkpt><trkpt lat="44.3445926" lon="10.7530925"><ele>593.0</ele><time>2026-03-22T11:05:13.281Z</time></trkpt><trkpt lat="44.3444946" lon="10.7530006"><ele>595.0</ele><time>2026-03-22T11:05:14.28Z</time></trkpt><trkpt lat="44.3444147" lon="10.7528757"><ele>597.0</ele><time>2026-03-22T11:05:15.277Z</time></trkpt><trkpt lat="44.3443567" lon="10.7527087"><ele>592.0</ele><time>2026-03-22T11:05:16.289Z</time></trkpt><trkpt lat="44.344314" lon="10.7525145"><ele>587.0</ele><time>2026-03-22T11:05:17.283Z</time></trkpt><trkpt lat="44.3442743" lon="10.7523082"><ele>582.0</ele><time>2026-03-22T11:05:18.289Z</time></trkpt><trkpt lat="44.3442347" lon="10.7520987"><ele>582.0</ele><time>2026-03-22T11:05:19.287Z</time></trkpt><trkpt lat="44.3441986" lon="10.7518992"><ele>582.0</ele><time>2026-03-22T11:05:20.276Z</time></trkpt><trkpt lat="44.3441662" lon="10.7517132"><ele>582.0</ele><time>2026-03-22T11:05:21.284Z</time></trkpt><trkpt lat="44.3441362" lon="10.75154"><ele>582.0</ele><time>2026-03-22T11:05:22.28Z</time></trkpt><trkpt lat="44.3440965" lon="10.7513803"><ele>581.75</ele><time>2026-03-22T11:05:23.272Z</time></trkpt><trkpt lat="44.3440364" lon="10.7512336"><ele>581.5</ele><time>2026-03-22T11:05:24.286Z</time></trkpt><trkpt lat="44.3439565" lon="10.7511009"><ele>581.25</ele><time>2026-03-22T11:05:25.287Z</time></trkpt><trkpt lat="44.3438662" lon="10.7509737"><ele>581.0</ele><time>2026-03-22T11:05:26.277Z</time></trkpt><trkpt lat="44.3437728" lon="10.7508433"><ele>583.5</ele><time>2026-03-22T11:05:27.288Z</time></trkpt><trkpt lat="44.3436795" lon="10.7507009"><ele>586.0</ele><time>2026-03-22T11:05:28.276Z</time></trkpt><trkpt lat="44.3435864" lon="10.7505563"><ele>588.5</ele><time>2026-03-22T11:05:29.285Z</time></trkpt><trkpt lat="44.3434957" lon="10.7504171"><ele>591.0</ele><time>2026-03-22T11:05:30.273Z</time></trkpt><trkpt lat="44.3433969" lon="10.7502811"><ele>590.3333333333334</ele><time>2026-03-22T11:05:31.283Z</time></trkpt><trkpt lat="44.3432836" lon="10.7501571"><ele>589.6666666666667</ele><time>2026-03-22T11:05:32.277Z</time></trkpt><trkpt lat="44.3431528" lon="10.7500428"><ele>589.0</ele><time>2026-03-22T11:05:33.282Z</time></trkpt><trkpt lat="44.3430119" lon="10.7499339"><ele>589.0</ele><time>2026-03-22T11:05:34.271Z</time></trkpt><trkpt lat="44.3428658" lon="10.7498205"><ele>589.0</ele><time>2026-03-22T11:05:35.292Z</time></trkpt><trkpt lat="44.3427226" lon="10.7497094"><ele>589.0</ele><time>2026-03-22T11:05:36.286Z</time></trkpt><trkpt lat="44.3425881" lon="10.7496017"><ele>589.0</ele><time>2026-03-22T11:05:37.267Z</time></trkpt><trkpt lat="44.342455" lon="10.7495068"><ele>589.0</ele><time>2026-03-22T11:05:38.287Z</time></trkpt><trkpt lat="44.3423165" lon="10.7494416"><ele>589.0</ele><time>2026-03-22T11:05:39.273Z</time></trkpt><trkpt lat="44.3421671" lon="10.749393"><ele>589.0</ele><time>2026-03-22T11:05:40.286Z</time></trkpt><trkpt lat="44.3420062" lon="10.7493808"><ele>584.3333333333334</ele><time>2026-03-22T11:05:41.289Z</time></trkpt><trkpt lat="44.3418451" lon="10.7493669"><ele>579.6666666666666</ele><time>2026-03-22T11:05:42.282Z</time></trkpt><trkpt lat="44.3416827" lon="10.7493479"><ele>575.0</ele><time>2026-03-22T11:05:43.278Z</time></trkpt><trkpt lat="44.3415233" lon="10.7493189"><ele>576.5</ele><time>2026-03-22T11:05:44.286Z</time></trkpt><trkpt lat="44.3413769" lon="10.74929"><ele>578.0</ele><time>2026-03-22T11:05:45.28Z</time></trkpt><trkpt lat="44.3412412" lon="10.7492491"><ele>579.5</ele><time>2026-03-22T11:05:46.269Z</time></trkpt><trkpt lat="44.3411077" lon="10.7491835"><ele>581.0</ele><time>2026-03-22T11:05:47.282Z</time></trkpt><trkpt lat="44.3409772" lon="10.7490841"><ele>581.0</ele><time>2026-03-22T11:05:48.287Z</time></trkpt><trkpt lat="44.3408498" lon="10.7489723"><ele>581.0</ele><time>2026-03-22T11:05:49.293Z</time></trkpt><trkpt lat="44.3407293" lon="10.7488632"><ele>581.0</ele><time>2026-03-22T11:05:50.27Z</time></trkpt><trkpt lat="44.3406249" lon="10.7487491"><ele>581.0</ele><time>2026-03-22T11:05:51.294Z</time></trkpt><trkpt lat="44.3405419" lon="10.7486257"><ele>584.5</ele><time>2026-03-22T11:05:52.283Z</time></trkpt><trkpt lat="44.3404852" lon="10.748479"><ele>588.0</ele><time>2026-03-22T11:05:53.278Z</time></trkpt><trkpt lat="44.3404651" lon="10.7483145"><ele>591.5</ele><time>2026-03-22T11:05:54.286Z</time></trkpt><trkpt lat="44.3404723" lon="10.7481513"><ele>595.0</ele><time>2026-03-22T11:05:55.288Z</time></trkpt><trkpt lat="44.3405362" lon="10.7479929"><ele>590.75</ele><time>2026-03-22T11:05:56.29Z</time></trkpt><trkpt lat="44.3406106" lon="10.7478391"><ele>586.5</ele><time>2026-03-22T11:05:57.285Z</time></trkpt><trkpt lat="44.3406939" lon="10.7476766"><ele>582.25</ele><time>2026-03-22T11:05:58.291Z</time></trkpt><trkpt lat="44.3407528" lon="10.7474941"><ele>578.0</ele><time>2026-03-22T11:05:59.287Z</time></trkpt><trkpt lat="44.3407801" lon="10.7473016"><ele>578.0</ele><time>2026-03-22T11:06:00.276Z</time></trkpt><trkpt lat="44.3407782" lon="10.7471043"><ele>578.0</ele><time>2026-03-22T11:06:01.276Z</time></trkpt><trkpt lat="44.3407572" lon="10.7469022"><ele>578.0</ele><time>2026-03-22T11:06:02.282Z</time></trkpt><trkpt lat="44.3407318" lon="10.7466945"><ele>578.0</ele><time>2026-03-22T11:06:03.287Z</time></trkpt><trkpt lat="44.3407117" lon="10.7464966"><ele>577.25</ele><time>2026-03-22T11:06:04.286Z</time></trkpt><trkpt lat="44.3406778" lon="10.746317"><ele>576.5</ele><time>2026-03-22T11:06:05.265Z</time></trkpt><trkpt lat="44.3406177" lon="10.7461567"><ele>575.75</ele><time>2026-03-22T11:06:06.286Z</time></trkpt><trkpt lat="44.3405301" lon="10.7460298"><ele>575.0</ele><time>2026-03-22T11:06:07.292Z</time></trkpt><trkpt lat="44.3404254" lon="10.7459193"><ele>575.0</ele><time>2026-03-22T11:06:08.284Z</time></trkpt><trkpt lat="44.3402864" lon="10.7458377"><ele>575.0</ele><time>2026-03-22T11:06:09.285Z</time></trkpt><trkpt lat="44.3401365" lon="10.7457585"><ele>575.0</ele><time>2026-03-22T11:06:10.269Z</time></trkpt><trkpt lat="44.3399833" lon="10.7456672"><ele>575.0</ele><time>2026-03-22T11:06:11.276Z</time></trkpt><trkpt lat="44.3398302" lon="10.745575"><ele>575.0</ele><time>2026-03-22T11:06:12.282Z</time></trkpt><trkpt lat="44.3396832" lon="10.7454904"><ele>575.0</ele><time>2026-03-22T11:06:13.274Z</time></trkpt><trkpt lat="44.339545" lon="10.7454049"><ele>574.25</ele><time>2026-03-22T11:06:14.288Z</time></trkpt><trkpt lat="44.3394216" lon="10.745307"><ele>573.5</ele><time>2026-03-22T11:06:15.282Z</time></trkpt><trkpt lat="44.3393168" lon="10.7451889"><ele>572.75</ele><time>2026-03-22T11:06:16.28Z</time></trkpt><trkpt lat="44.3392232" lon="10.7450603"><ele>572.0</ele><time>2026-03-22T11:06:17.288Z</time></trkpt><trkpt lat="44.3391518" lon="10.7449055"><ele>572.0</ele><time>2026-03-22T11:06:18.284Z</time></trkpt><trkpt lat="44.3391115" lon="10.7447176"><ele>572.0</ele><time>2026-03-22T11:06:19.295Z</time></trkpt><trkpt lat="44.3390797" lon="10.7445312"><ele>572.0</ele><time>2026-03-22T11:06:20.282Z</time></trkpt><trkpt lat="44.3390451" lon="10.7443463"><ele>572.0</ele><time>2026-03-22T11:06:21.276Z</time></trkpt><trkpt lat="44.338985" lon="10.7441726"><ele>568.6666666666666</ele><time>2026-03-22T11:06:22.291Z</time></trkpt><trkpt lat="44.3388927" lon="10.7440195"><ele>565.3333333333334</ele><time>2026-03-22T11:06:23.281Z</time></trkpt><trkpt lat="44.3387752" lon="10.7438738"><ele>562.0</ele><time>2026-03-22T11:06:24.283Z</time></trkpt><trkpt lat="44.3386755" lon="10.7437014"><ele>566.3333333333334</ele><time>2026-03-22T11:06:25.279Z</time></trkpt><trkpt lat="44.3386006" lon="10.7435008"><ele>570.6666666666666</ele><time>2026-03-22T11:06:26.279Z</time></trkpt><trkpt lat="44.3385334" lon="10.7432912"><ele>575.0</ele><time>2026-03-22T11:06:27.279Z</time></trkpt><trkpt lat="44.3384469" lon="10.7430875"><ele>575.0</ele><time>2026-03-22T11:06:28.275Z</time></trkpt><trkpt lat="44.3383447" lon="10.7428943"><ele>575.0</ele><time>2026-03-22T11:06:29.288Z</time></trkpt><trkpt lat="44.3382423" lon="10.7427068"><ele>575.0</ele><time>2026-03-22T11:06:30.274Z</time></trkpt><trkpt lat="44.3381449" lon="10.7425215"><ele>575.3333333333333</ele><time>2026-03-22T11:06:31.285Z</time></trkpt><trkpt lat="44.3380467" lon="10.7423551"><ele>575.6666666666666</ele><time>2026-03-22T11:06:32.278Z</time></trkpt><trkpt lat="44.3379376" lon="10.7422119"><ele>576.0</ele><time>2026-03-22T11:06:33.282Z</time></trkpt><trkpt lat="44.3378182" lon="10.7420932"><ele>576.0</ele><time>2026-03-22T11:06:34.28Z</time></trkpt><trkpt lat="44.3377009" lon="10.7419761"><ele>576.0</ele><time>2026-03-22T11:06:35.265Z</time></trkpt><trkpt lat="44.3375786" lon="10.7418453"><ele>576.0</ele><time>2026-03-22T11:06:36.275Z</time></trkpt><trkpt lat="44.3374558" lon="10.7417031"><ele>574.6666666666666</ele><time>2026-03-22T11:06:37.282Z</time></trkpt><trkpt lat="44.337333" lon="10.7415505"><ele>573.3333333333333</ele><time>2026-03-22T11:06:38.28Z</time></trkpt><trkpt lat="44.3372145" lon="10.7413903"><ele>572.0</ele><time>2026-03-22T11:06:39.288Z</time></trkpt><trkpt lat="44.3371011" lon="10.74123"><ele>572.0</ele><time>2026-03-22T11:06:40.287Z</time></trkpt><trkpt lat="44.3369915" lon="10.7410758"><ele>572.0</ele><time>2026-03-22T11:06:41.281Z</time></trkpt><trkpt lat="44.3368887" lon="10.7409213"><ele>572.0</ele><time>2026-03-22T11:06:42.296Z</time></trkpt><trkpt lat="44.3368002" lon="10.7407664"><ele>572.0</ele><time>2026-03-22T11:06:43.279Z</time></trkpt><trkpt lat="44.336728" lon="10.7406001"><ele>569.0</ele><time>2026-03-22T11:06:44.284Z</time></trkpt><trkpt lat="44.3366768" lon="10.7404293"><ele>566.0</ele><time>2026-03-22T11:06:45.278Z</time></trkpt><trkpt lat="44.3366488" lon="10.7402616"><ele>563.0</ele><time>2026-03-22T11:06:46.292Z</time></trkpt><trkpt lat="44.336642" lon="10.7401055"><ele>560.0</ele><time>2026-03-22T11:06:47.289Z</time></trkpt><trkpt lat="44.3366615" lon="10.7399602"><ele>557.5</ele><time>2026-03-22T11:06:48.295Z</time></trkpt><trkpt lat="44.3366997" lon="10.7398211"><ele>555.0</ele><time>2026-03-22T11:06:49.279Z</time></trkpt><trkpt lat="44.3367703" lon="10.7396861"><ele>552.5</ele><time>2026-03-22T11:06:50.284Z</time></trkpt><trkpt lat="44.3368473" lon="10.7395506"><ele>550.0</ele><time>2026-03-22T11:06:51.278Z</time></trkpt><trkpt lat="44.3369307" lon="10.7394182"><ele>549.4</ele><time>2026-03-22T11:06:52.287Z</time></trkpt><trkpt lat="44.3370048" lon="10.7392963"><ele>548.8</ele><time>2026-03-22T11:06:53.272Z</time></trkpt><trkpt lat="44.3370701" lon="10.7391888"><ele>548.2</ele><time>2026-03-22T11:06:54.29Z</time></trkpt><trkpt lat="44.3371352" lon="10.7391082"><ele>547.6</ele><time>2026-03-22T11:06:55.278Z</time></trkpt><trkpt lat="44.3372111" lon="10.7390684"><ele>547.0</ele><time>2026-03-22T11:06:56.276Z</time></trkpt><trkpt lat="44.3372964" lon="10.7390857"><ele>546.4</ele><time>2026-03-22T11:06:57.277Z</time></trkpt><trkpt lat="44.337382" lon="10.7391479"><ele>545.8000000000001</ele><time>2026-03-22T11:06:58.28Z</time></trkpt><trkpt lat="44.3374642" lon="10.7392414"><ele>545.2</ele><time>2026-03-22T11:06:59.277Z</time></trkpt><trkpt lat="44.337548" lon="10.7393523"><ele>544.6</ele><time>2026-03-22T11:07:00.285Z</time></trkpt><trkpt lat="44.3376363" lon="10.7394607"><ele>544.0</ele><time>2026-03-22T11:07:01.276Z</time></trkpt><trkpt lat="44.3377268" lon="10.7395645"><ele>544.0</ele><time>2026-03-22T11:07:02.286Z</time></trkpt><trkpt lat="44.3378123" lon="10.7396691"><ele>544.0</ele><time>2026-03-22T11:07:03.28Z</time></trkpt><trkpt lat="44.3379035" lon="10.7397688"><ele>544.0</ele><time>2026-03-22T11:07:04.286Z</time></trkpt><trkpt lat="44.3379892" lon="10.7398754"><ele>544.0</ele><time>2026-03-22T11:07:05.287Z</time></trkpt><trkpt lat="44.3380936" lon="10.7399664"><ele>546.0</ele><time>2026-03-22T11:07:06.288Z</time></trkpt><trkpt lat="44.3382132" lon="10.7400262"><ele>548.0</ele><time>2026-03-22T11:07:07.287Z</time></trkpt><trkpt lat="44.3383427" lon="10.7400536"><ele>550.0</ele><time>2026-03-22T11:07:08.282Z</time></trkpt><trkpt lat="44.338477" lon="10.7400626"><ele>552.0</ele><time>2026-03-22T11:07:09.29Z</time></trkpt><trkpt lat="44.3386169" lon="10.7400646"><ele>552.0</ele><time>2026-03-22T11:07:10.269Z</time></trkpt><trkpt lat="44.3387576" lon="10.7400963"><ele>552.0</ele><time>2026-03-22T11:07:11.267Z</time></trkpt><trkpt lat="44.3388922" lon="10.7401629"><ele>552.0</ele><time>2026-03-22T11:07:12.282Z</time></trkpt><trkpt lat="44.3390158" lon="10.740256"><ele>552.0</ele><time>2026-03-22T11:07:13.269Z</time></trkpt><trkpt lat="44.3391346" lon="10.7403622"><ele>552.5</ele><time>2026-03-22T11:07:14.278Z</time></trkpt><trkpt lat="44.3392646" lon="10.7404314"><ele>553.0</ele><time>2026-03-22T11:07:15.276Z</time></trkpt><trkpt lat="44.33941" lon="10.7404648"><ele>553.5</ele><time>2026-03-22T11:07:16.293Z</time></trkpt><trkpt lat="44.3395642" lon="10.7404842"><ele>554.0</ele><time>2026-03-22T11:07:17.288Z</time></trkpt><trkpt lat="44.3397229" lon="10.7405103"><ele>554.0</ele><time>2026-03-22T11:07:18.279Z</time></trkpt><trkpt lat="44.3398848" lon="10.7405443"><ele>554.0</ele><time>2026-03-22T11:07:19.283Z</time></trkpt><trkpt lat="44.3400448" lon="10.7405798"><ele>554.0</ele><time>2026-03-22T11:07:20.274Z</time></trkpt><trkpt lat="44.3402056" lon="10.740624"><ele>554.0</ele><time>2026-03-22T11:07:21.289Z</time></trkpt><trkpt lat="44.3403599" lon="10.7406792"><ele>554.0</ele><time>2026-03-22T11:07:22.286Z</time></trkpt><trkpt lat="44.3405042" lon="10.7407448"><ele>554.0</ele><time>2026-03-22T11:07:23.292Z</time></trkpt><trkpt lat="44.3406431" lon="10.7407939"><ele>557.0</ele><time>2026-03-22T11:07:24.286Z</time></trkpt><trkpt lat="44.3407852" lon="10.7408118"><ele>560.0</ele><time>2026-03-22T11:07:25.29Z</time></trkpt><trkpt lat="44.3409284" lon="10.7408063"><ele>563.0</ele><time>2026-03-22T11:07:26.291Z</time></trkpt><trkpt lat="44.341072" lon="10.7407757"><ele>566.0</ele><time>2026-03-22T11:07:27.279Z</time></trkpt><trkpt lat="44.3412166" lon="10.7407645"><ele>566.0</ele><time>2026-03-22T11:07:28.287Z</time></trkpt><trkpt lat="44.3413554" lon="10.7408013"><ele>566.0</ele><time>2026-03-22T11:07:29.268Z</time></trkpt><trkpt lat="44.3414886" lon="10.7408588"><ele>566.0</ele><time>2026-03-22T11:07:30.292Z</time></trkpt><trkpt lat="44.3415985" lon="10.740978"><ele>566.0</ele><time>2026-03-22T11:07:31.291Z</time></trkpt><trkpt lat="44.3417066" lon="10.7410933"><ele>566.75</ele><time>2026-03-22T11:07:32.284Z</time></trkpt><trkpt lat="44.3418278" lon="10.7411736"><ele>567.5</ele><time>2026-03-22T11:07:33.292Z</time></trkpt><trkpt lat="44.3419545" lon="10.7412101"><ele>568.25</ele><time>2026-03-22T11:07:34.269Z</time></trkpt><trkpt lat="44.3421005" lon="10.7411924"><ele>569.0</ele><time>2026-03-22T11:07:35.286Z</time></trkpt><trkpt lat="44.3422465" lon="10.7411645"><ele>569.0</ele><time>2026-03-22T11:07:36.273Z</time></trkpt><trkpt lat="44.3423958" lon="10.7411343"><ele>569.0</ele><time>2026-03-22T11:07:37.284Z</time></trkpt><trkpt lat="44.3425352" lon="10.7411052"><ele>569.0</ele><time>2026-03-22T11:07:38.272Z</time></trkpt><trkpt lat="44.3426623" lon="10.7410842"><ele>569.0</ele><time>2026-03-22T11:07:39.282Z</time></trkpt><trkpt lat="44.3427822" lon="10.7410899"><ele>569.0</ele><time>2026-03-22T11:07:40.287Z</time></trkpt><trkpt lat="44.3428949" lon="10.7411166"><ele>569.0</ele><time>2026-03-22T11:07:41.288Z</time></trkpt><trkpt lat="44.3429902" lon="10.7412109"><ele>569.0</ele><time>2026-03-22T11:07:42.29Z</time></trkpt><trkpt lat="44.3430594" lon="10.7413545"><ele>569.0</ele><time>2026-03-22T11:07:43.267Z</time></trkpt><trkpt lat="44.3431038" lon="10.7415435"><ele>571.25</ele><time>2026-03-22T11:07:44.288Z</time></trkpt><trkpt lat="44.3431431" lon="10.7417324"><ele>573.5</ele><time>2026-03-22T11:07:45.276Z</time></trkpt><trkpt lat="44.3431851" lon="10.7419244"><ele>575.75</ele><time>2026-03-22T11:07:46.275Z</time></trkpt><trkpt lat="44.3432388" lon="10.7421022"><ele>578.0</ele><time>2026-03-22T11:07:47.276Z</time></trkpt><trkpt lat="44.3433082" lon="10.7422611"><ele>578.0</ele><time>2026-03-22T11:07:48.287Z</time></trkpt><trkpt lat="44.3434028" lon="10.7423836"><ele>578.0</ele><time>2026-03-22T11:07:49.288Z</time></trkpt><trkpt lat="44.3435192" lon="10.7424673"><ele>578.0</ele><time>2026-03-22T11:07:50.281Z</time></trkpt><trkpt lat="44.3436475" lon="10.7425211"><ele>578.0</ele><time>2026-03-22T11:07:51.273Z</time></trkpt><trkpt lat="44.3437871" lon="10.7425545"><ele>581.75</ele><time>2026-03-22T11:07:52.286Z</time></trkpt><trkpt lat="44.343928" lon="10.742589"><ele>585.5</ele><time>2026-03-22T11:07:53.293Z</time></trkpt><trkpt lat="44.3440659" lon="10.7426327"><ele>589.25</ele><time>2026-03-22T11:07:54.274Z</time></trkpt><trkpt lat="44.3442025" lon="10.7426714"><ele>593.0</ele><time>2026-03-22T11:07:55.269Z</time></trkpt><trkpt lat="44.3443477" lon="10.7426741"><ele>593.0</ele><time>2026-03-22T11:07:56.289Z</time></trkpt><trkpt lat="44.3444917" lon="10.7426573"><ele>593.0</ele><time>2026-03-22T11:07:57.283Z</time></trkpt><trkpt lat="44.34464" lon="10.7426363"><ele>593.0</ele><time>2026-03-22T11:07:58.292Z</time></trkpt><trkpt lat="44.3447861" lon="10.7426365"><ele>593.0</ele><time>2026-03-22T11:07:59.271Z</time></trkpt><trkpt lat="44.3449244" lon="10.742672"><ele>590.1999999999999</ele><time>2026-03-22T11:08:00.264Z</time></trkpt><trkpt lat="44.3450445" lon="10.7427515"><ele>587.4</ele><time>2026-03-22T11:08:01.283Z</time></trkpt><trkpt lat="44.3451474" lon="10.7428397"><ele>584.5999999999999</ele><time>2026-03-22T11:08:02.283Z</time></trkpt><trkpt lat="44.3452423" lon="10.7428996"><ele>581.8</ele><time>2026-03-22T11:08:03.281Z</time></trkpt><trkpt lat="44.3453303" lon="10.7429022"><ele>579.0</ele><time>2026-03-22T11:08:04.276Z</time></trkpt><trkpt lat="44.3453956" lon="10.7428458"><ele>579.0</ele><time>2026-03-22T11:08:05.285Z</time></trkpt><trkpt lat="44.345424" lon="10.7427341"><ele>579.0</ele><time>2026-03-22T11:08:06.272Z</time></trkpt><trkpt lat="44.3454101" lon="10.7426243"><ele>579.0</ele><time>2026-03-22T11:08:07.273Z</time></trkpt><trkpt lat="44.3453493" lon="10.7425348"><ele>579.0</ele><time>2026-03-22T11:08:08.281Z</time></trkpt><trkpt lat="44.3452552" lon="10.7424592"><ele>579.0</ele><time>2026-03-22T11:08:09.281Z</time></trkpt><trkpt lat="44.3451469" lon="10.7423757"><ele>582.5</ele><time>2026-03-22T11:08:10.289Z</time></trkpt><trkpt lat="44.3450313" lon="10.7422832"><ele>586.0</ele><time>2026-03-22T11:08:11.278Z</time></trkpt><trkpt lat="44.3449038" lon="10.7421869"><ele>589.5</ele><time>2026-03-22T11:08:12.276Z</time></trkpt><trkpt lat="44.3447658" lon="10.7420879"><ele>593.0</ele><time>2026-03-22T11:08:13.294Z</time></trkpt><trkpt lat="44.3446285" lon="10.7419881"><ele>593.0</ele><time>2026-03-22T11:08:14.277Z</time></trkpt><trkpt lat="44.3444972" lon="10.7418923"><ele>593.0</ele><time>2026-03-22T11:08:15.282Z</time></trkpt><trkpt lat="44.3443773" lon="10.7418118"><ele>593.0</ele><time>2026-03-22T11:08:16.271Z</time></trkpt><trkpt lat="44.3442657" lon="10.7417454"><ele>593.0</ele><time>2026-03-22T11:08:17.284Z</time></trkpt><trkpt lat="44.3441729" lon="10.7416788"><ele>594.8</ele><time>2026-03-22T11:08:18.279Z</time></trkpt><trkpt lat="44.34411" lon="10.7415841"><ele>596.5999999999999</ele><time>2026-03-22T11:08:19.288Z</time></trkpt><trkpt lat="44.3440804" lon="10.7414532"><ele>598.4000000000001</ele><time>2026-03-22T11:08:20.276Z</time></trkpt><trkpt lat="44.3440836" lon="10.741296"><ele>600.2</ele><time>2026-03-22T11:08:21.277Z</time></trkpt><trkpt lat="44.3441038" lon="10.741121"><ele>602.0</ele><time>2026-03-22T11:08:22.272Z</time></trkpt><trkpt lat="44.3441232" lon="10.7409268"><ele>603.6666666666666</ele><time>2026-03-22T11:08:23.272Z</time></trkpt><trkpt lat="44.3441297" lon="10.7407126"><ele>605.3333333333334</ele><time>2026-03-22T11:08:24.291Z</time></trkpt><trkpt lat="44.3441244" lon="10.7404858"><ele>607.0</ele><time>2026-03-22T11:08:25.288Z</time></trkpt><trkpt lat="44.344117" lon="10.7402485"><ele>609.3333333333334</ele><time>2026-03-22T11:08:26.292Z</time></trkpt><trkpt lat="44.3441123" lon="10.740014"><ele>611.6666666666666</ele><time>2026-03-22T11:08:27.274Z</time></trkpt><trkpt lat="44.3441086" lon="10.7397783"><ele>614.0</ele><time>2026-03-22T11:08:28.268Z</time></trkpt><trkpt lat="44.3441076" lon="10.7395515"><ele>615.5</ele><time>2026-03-22T11:08:29.289Z</time></trkpt><trkpt lat="44.3441007" lon="10.7393412"><ele>617.0</ele><time>2026-03-22T11:08:30.28Z</time></trkpt><trkpt lat="44.3440842" lon="10.7391391"><ele>618.5</ele><time>2026-03-22T11:08:31.279Z</time></trkpt><trkpt lat="44.3440366" lon="10.7389572"><ele>620.0</ele><time>2026-03-22T11:08:32.281Z</time></trkpt><trkpt lat="44.3439828" lon="10.7387931"><ele>620.0</ele><time>2026-03-22T11:08:33.27Z</time></trkpt><trkpt lat="44.3439299" lon="10.7386486"><ele>620.0</ele><time>2026-03-22T11:08:34.28Z</time></trkpt><trkpt lat="44.3438816" lon="10.7385237"><ele>620.0</ele><time>2026-03-22T11:08:35.272Z</time></trkpt><trkpt lat="44.3438172" lon="10.7384368"><ele>620.0</ele><time>2026-03-22T11:08:36.29Z</time></trkpt><trkpt lat="44.3437371" lon="10.7383952"><ele>620.0</ele><time>2026-03-22T11:08:37.276Z</time></trkpt><trkpt lat="44.3436491" lon="10.7384129"><ele>619.8</ele><time>2026-03-22T11:08:38.273Z</time></trkpt><trkpt lat="44.3435786" lon="10.7385048"><ele>619.6</ele><time>2026-03-22T11:08:39.283Z</time></trkpt><trkpt lat="44.3435119" lon="10.7386133"><ele>619.4</ele><time>2026-03-22T11:08:40.283Z</time></trkpt><trkpt lat="44.3434294" lon="10.738712"><ele>619.2</ele><time>2026-03-22T11:08:41.276Z</time></trkpt><trkpt lat="44.3433392" lon="10.7387996"><ele>619.0</ele><time>2026-03-22T11:08:42.279Z</time></trkpt><trkpt lat="44.3432145" lon="10.7388309"><ele>619.0</ele><time>2026-03-22T11:08:43.271Z</time></trkpt><trkpt lat="44.343078" lon="10.7388263"><ele>619.0</ele><time>2026-03-22T11:08:44.297Z</time></trkpt><trkpt lat="44.3429346" lon="10.7387895"><ele>619.0</ele><time>2026-03-22T11:08:45.277Z</time></trkpt><trkpt lat="44.3427945" lon="10.738707"><ele>619.0</ele><time>2026-03-22T11:08:46.284Z</time></trkpt><trkpt lat="44.342658" lon="10.7385984"><ele>623.6666666666667</ele><time>2026-03-22T11:08:47.292Z</time></trkpt><trkpt lat="44.3425192" lon="10.7384826"><ele>628.3333333333334</ele><time>2026-03-22T11:08:48.291Z</time></trkpt><trkpt lat="44.3423765" lon="10.7383814"><ele>633.0</ele><time>2026-03-22T11:08:49.283Z</time></trkpt><trkpt lat="44.3422347" lon="10.7383132"><ele>632.25</ele><time>2026-03-22T11:08:50.289Z</time></trkpt><trkpt lat="44.3421086" lon="10.7382571"><ele>631.5</ele><time>2026-03-22T11:08:51.285Z</time></trkpt><trkpt lat="44.3420014" lon="10.7381843"><ele>630.75</ele><time>2026-03-22T11:08:52.286Z</time></trkpt><trkpt lat="44.3419116" lon="10.7380842"><ele>630.0</ele><time>2026-03-22T11:08:53.265Z</time></trkpt><trkpt lat="44.3418334" lon="10.7379578"><ele>630.0</ele><time>2026-03-22T11:08:54.276Z</time></trkpt><trkpt lat="44.3417536" lon="10.7378336"><ele>630.0</ele><time>2026-03-22T11:08:55.286Z</time></trkpt><trkpt lat="44.3416614" lon="10.7377368"><ele>630.0</ele><time>2026-03-22T11:08:56.286Z</time></trkpt><trkpt lat="44.3415446" lon="10.7376927"><ele>630.0</ele><time>2026-03-22T11:08:57.286Z</time></trkpt><trkpt lat="44.3414157" lon="10.7376905"><ele>630.25</ele><time>2026-03-22T11:08:58.28Z</time></trkpt><trkpt lat="44.3412806" lon="10.7377052"><ele>630.5</ele><time>2026-03-22T11:08:59.282Z</time></trkpt><trkpt lat="44.3411419" lon="10.7377197"><ele>630.75</ele><time>2026-03-22T11:09:00.278Z</time></trkpt><trkpt lat="44.3410008" lon="10.7377336"><ele>631.0</ele><time>2026-03-22T11:09:01.268Z</time></trkpt><trkpt lat="44.3408594" lon="10.7377419"><ele>631.0</ele><time>2026-03-22T11:09:02.281Z</time></trkpt><trkpt lat="44.3407255" lon="10.7377477"><ele>631.0</ele><time>2026-03-22T11:09:03.281Z</time></trkpt><trkpt lat="44.3405987" lon="10.7377505"><ele>631.0</ele><time>2026-03-22T11:09:04.275Z</time></trkpt><trkpt lat="44.340479" lon="10.7377483"><ele>631.0</ele><time>2026-03-22T11:09:05.286Z</time></trkpt><trkpt lat="44.340372" lon="10.7377286"><ele>632.8</ele><time>2026-03-22T11:09:06.286Z</time></trkpt><trkpt lat="44.3402588" lon="10.7377017"><ele>634.6</ele><time>2026-03-22T11:09:07.29Z</time></trkpt><trkpt lat="44.3401827" lon="10.7376018"><ele>636.4</ele><time>2026-03-22T11:09:08.279Z</time></trkpt><trkpt lat="44.3401372" lon="10.7374763"><ele>638.2</ele><time>2026-03-22T11:09:09.282Z</time></trkpt><trkpt lat="44.3401213" lon="10.7373335"><ele>640.0</ele><time>2026-03-22T11:09:10.268Z</time></trkpt><trkpt lat="44.340137" lon="10.7371786"><ele>640.0</ele><time>2026-03-22T11:09:11.291Z</time></trkpt><trkpt lat="44.340177" lon="10.7370208"><ele>640.0</ele><time>2026-03-22T11:09:12.272Z</time></trkpt><trkpt lat="44.3402178" lon="10.7368543"><ele>640.0</ele><time>2026-03-22T11:09:13.277Z</time></trkpt><trkpt lat="44.3402402" lon="10.7366694"><ele>640.0</ele><time>2026-03-22T11:09:14.285Z</time></trkpt><trkpt lat="44.3402297" lon="10.7364676"><ele>642.3333333333334</ele><time>2026-03-22T11:09:15.287Z</time></trkpt><trkpt lat="44.3401962" lon="10.7362543"><ele>644.6666666666666</ele><time>2026-03-22T11:09:16.282Z</time></trkpt><trkpt lat="44.3401277" lon="10.7360343"><ele>647.0</ele><time>2026-03-22T11:09:17.278Z</time></trkpt><trkpt lat="44.3400657" lon="10.7358156"><ele>649.3333333333333</ele><time>2026-03-22T11:09:18.273Z</time></trkpt><trkpt lat="44.3400077" lon="10.7355984"><ele>651.6666666666666</ele><time>2026-03-22T11:09:19.283Z</time></trkpt><trkpt lat="44.3399567" lon="10.7353954"><ele>654.0</ele><time>2026-03-22T11:09:20.294Z</time></trkpt><trkpt lat="44.3399232" lon="10.7352048"><ele>655.25</ele><time>2026-03-22T11:09:21.293Z</time></trkpt><trkpt lat="44.339917" lon="10.7350284"><ele>656.5</ele><time>2026-03-22T11:09:22.267Z</time></trkpt><trkpt lat="44.3399275" lon="10.7348588"><ele>657.75</ele><time>2026-03-22T11:09:23.287Z</time></trkpt><trkpt lat="44.339994" lon="10.7347094"><ele>659.0</ele><time>2026-03-22T11:09:24.279Z</time></trkpt><trkpt lat="44.3400745" lon="10.7345672"><ele>659.0</ele><time>2026-03-22T11:09:25.279Z</time></trkpt><trkpt lat="44.340158" lon="10.7344236"><ele>659.0</ele><time>2026-03-22T11:09:26.287Z</time></trkpt><trkpt lat="44.3402274" lon="10.734268"><ele>659.0</ele><time>2026-03-22T11:09:27.287Z</time></trkpt><trkpt lat="44.3402658" lon="10.7341011"><ele>659.0</ele><time>2026-03-22T11:09:28.281Z</time></trkpt><trkpt lat="44.3402646" lon="10.7339314"><ele>659.5</ele><time>2026-03-22T11:09:29.286Z</time></trkpt><trkpt lat="44.3402182" lon="10.7337721"><ele>660.0</ele><time>2026-03-22T11:09:30.287Z</time></trkpt><trkpt lat="44.3401463" lon="10.7336343"><ele>660.5</ele><time>2026-03-22T11:09:31.271Z</time></trkpt><trkpt lat="44.3400466" lon="10.7335328"><ele>661.0</ele><time>2026-03-22T11:09:32.283Z</time></trkpt><trkpt lat="44.3399471" lon="10.733428"><ele>662.8</ele><time>2026-03-22T11:09:33.275Z</time></trkpt><trkpt lat="44.3398646" lon="10.7333148"><ele>664.5999999999999</ele><time>2026-03-22T11:09:34.287Z</time></trkpt><trkpt lat="44.3398071" lon="10.7331959"><ele>666.4</ele><time>2026-03-22T11:09:35.296Z</time></trkpt><trkpt lat="44.3397814" lon="10.7330631"><ele>668.2</ele><time>2026-03-22T11:09:36.277Z</time></trkpt><trkpt lat="44.3397675" lon="10.7329249"><ele>670.0</ele><time>2026-03-22T11:09:37.284Z</time></trkpt><trkpt lat="44.3398232" lon="10.7327908"><ele>671.0</ele><time>2026-03-22T11:09:38.278Z</time></trkpt><trkpt lat="44.3398885" lon="10.7326583"><ele>672.0</ele><time>2026-03-22T11:09:39.271Z</time></trkpt><trkpt lat="44.3399648" lon="10.7325234"><ele>673.0</ele><time>2026-03-22T11:09:40.276Z</time></trkpt><trkpt lat="44.3400354" lon="10.7323784"><ele>674.0</ele><time>2026-03-22T11:09:41.285Z</time></trkpt><trkpt lat="44.340099" lon="10.7322228"><ele>674.0</ele><time>2026-03-22T11:09:42.272Z</time></trkpt><trkpt lat="44.3401515" lon="10.7320653"><ele>674.0</ele><time>2026-03-22T11:09:43.274Z</time></trkpt><trkpt lat="44.3401949" lon="10.7319222"><ele>674.0</ele><time>2026-03-22T11:09:44.292Z</time></trkpt><trkpt lat="44.3402303" lon="10.7317941"><ele>674.0</ele><time>2026-03-22T11:09:45.284Z</time></trkpt><trkpt lat="44.3402667" lon="10.7316771"><ele>674.0</ele><time>2026-03-22T11:09:46.268Z</time></trkpt><trkpt lat="44.3403238" lon="10.7316067"><ele>674.0</ele><time>2026-03-22T11:09:47.289Z</time></trkpt><trkpt lat="44.3403863" lon="10.7315747"><ele>674.0</ele><time>2026-03-22T11:09:48.275Z</time></trkpt><trkpt lat="44.3404584" lon="10.7315838"><ele>674.0</ele><time>2026-03-22T11:09:49.291Z</time></trkpt><trkpt lat="44.3405138" lon="10.7316709"><ele>674.0</ele><time>2026-03-22T11:09:50.288Z</time></trkpt><trkpt lat="44.3405243" lon="10.7317816"><ele>674.0</ele><time>2026-03-22T11:09:51.276Z</time></trkpt><trkpt lat="44.340489" lon="10.7319039"><ele>674.0</ele><time>2026-03-22T11:09:52.284Z</time></trkpt><trkpt lat="44.3404475" lon="10.7320277"><ele>674.0</ele><time>2026-03-22T11:09:53.282Z</time></trkpt><trkpt lat="44.3404092" lon="10.7321864"><ele>674.0</ele><time>2026-03-22T11:09:54.281Z</time></trkpt><trkpt lat="44.3403824" lon="10.7323612"><ele>674.0</ele><time>2026-03-22T11:09:55.268Z</time></trkpt><trkpt lat="44.3403828" lon="10.7325598"><ele>674.0</ele><time>2026-03-22T11:09:56.268Z</time></trkpt><trkpt lat="44.3404089" lon="10.7327582"><ele>672.6666666666666</ele><time>2026-03-22T11:09:57.279Z</time></trkpt><trkpt lat="44.3404714" lon="10.7329495"><ele>671.3333333333334</ele><time>2026-03-22T11:09:58.272Z</time></trkpt><trkpt lat="44.3405769" lon="10.7331271"><ele>670.0</ele><time>2026-03-22T11:09:59.27Z</time></trkpt><trkpt lat="44.3406973" lon="10.73329"><ele>675.0</ele><time>2026-03-22T11:10:00.279Z</time></trkpt><trkpt lat="44.3408302" lon="10.7334444"><ele>680.0</ele><time>2026-03-22T11:10:01.284Z</time></trkpt><trkpt lat="44.3409662" lon="10.733596"><ele>685.0</ele><time>2026-03-22T11:10:02.282Z</time></trkpt><trkpt lat="44.3410946" lon="10.7337404"><ele>685.0</ele><time>2026-03-22T11:10:03.278Z</time></trkpt><trkpt lat="44.3412176" lon="10.7338742"><ele>685.0</ele><time>2026-03-22T11:10:04.282Z</time></trkpt><trkpt lat="44.3413465" lon="10.7339775"><ele>685.0</ele><time>2026-03-22T11:10:05.291Z</time></trkpt><trkpt lat="44.3414848" lon="10.7340304"><ele>685.0</ele><time>2026-03-22T11:10:06.289Z</time></trkpt><trkpt lat="44.3416189" lon="10.7340685"><ele>687.0</ele><time>2026-03-22T11:10:07.283Z</time></trkpt><trkpt lat="44.3417324" lon="10.7341207"><ele>689.0</ele><time>2026-03-22T11:10:08.291Z</time></trkpt><trkpt lat="44.3418055" lon="10.7342224"><ele>691.0</ele><time>2026-03-22T11:10:09.295Z</time></trkpt><trkpt lat="44.3418385" lon="10.7343642"><ele>693.0</ele><time>2026-03-22T11:10:10.285Z</time></trkpt><trkpt lat="44.3418598" lon="10.7345138"><ele>695.0</ele><time>2026-03-22T11:10:11.28Z</time></trkpt><trkpt lat="44.3418845" lon="10.7346747"><ele>695.0</ele><time>2026-03-22T11:10:12.275Z</time></trkpt><trkpt lat="44.341939" lon="10.7348405"><ele>695.0</ele><time>2026-03-22T11:10:13.279Z</time></trkpt><trkpt lat="44.3420222" lon="10.7349992"><ele>695.0</ele><time>2026-03-22T11:10:14.268Z</time></trkpt><trkpt lat="44.3421124" lon="10.735148"><ele>695.0</ele><time>2026-03-22T11:10:15.283Z</time></trkpt><trkpt lat="44.3421874" lon="10.7352747"><ele>694.3333333333333</ele><time>2026-03-22T11:10:16.284Z</time></trkpt><trkpt lat="44.3422602" lon="10.7353574"><ele>693.6666666666666</ele><time>2026-03-22T11:10:17.298Z</time></trkpt><trkpt lat="44.3423402" lon="10.735387"><ele>693.0</ele><time>2026-03-22T11:10:18.292Z</time></trkpt><trkpt lat="44.342414" lon="10.7353623"><ele>692.3333333333334</ele><time>2026-03-22T11:10:19.278Z</time></trkpt><trkpt lat="44.3424626" lon="10.7352653"><ele>691.6666666666667</ele><time>2026-03-22T11:10:20.29Z</time></trkpt><trkpt lat="44.3424702" lon="10.7351412"><ele>691.0</ele><time>2026-03-22T11:10:21.267Z</time></trkpt><trkpt lat="44.3424271" lon="10.7350043"><ele>696.25</ele><time>2026-03-22T11:10:22.293Z</time></trkpt><trkpt lat="44.3423712" lon="10.7348684"><ele>701.5</ele><time>2026-03-22T11:10:23.276Z</time></trkpt><trkpt lat="44.3423291" lon="10.7347136"><ele>706.75</ele><time>2026-03-22T11:10:24.271Z</time></trkpt><trkpt lat="44.3423166" lon="10.7345306"><ele>712.0</ele><time>2026-03-22T11:10:25.284Z</time></trkpt><trkpt lat="44.3423354" lon="10.7343325"><ele>714.0</ele><time>2026-03-22T11:10:26.28Z</time></trkpt><trkpt lat="44.342364" lon="10.7341337"><ele>716.0</ele><time>2026-03-22T11:10:27.299Z</time></trkpt><trkpt lat="44.3423788" lon="10.7339298"><ele>718.0</ele><time>2026-03-22T11:10:28.284Z</time></trkpt><trkpt lat="44.3423656" lon="10.7337175"><ele>720.0</ele><time>2026-03-22T11:10:29.276Z</time></trkpt><trkpt lat="44.3423306" lon="10.7334963"><ele>722.3333333333334</ele><time>2026-03-22T11:10:30.284Z</time></trkpt><trkpt lat="44.3422894" lon="10.7332742"><ele>724.6666666666667</ele><time>2026-03-22T11:10:31.273Z</time></trkpt><trkpt lat="44.3422505" lon="10.7330562"><ele>727.0</ele><time>2026-03-22T11:10:32.28Z</time></trkpt><trkpt lat="44.3422173" lon="10.7328529"><ele>728.25</ele><time>2026-03-22T11:10:33.271Z</time></trkpt><trkpt lat="44.3421977" lon="10.7326663"><ele>729.5</ele><time>2026-03-22T11:10:34.29Z</time></trkpt><trkpt lat="44.342204" lon="10.732495"><ele>730.75</ele><time>2026-03-22T11:10:35.298Z</time></trkpt><trkpt lat="44.3422334" lon="10.7323278"><ele>732.0</ele><time>2026-03-22T11:10:36.278Z</time></trkpt><trkpt lat="44.3422919" lon="10.7321578"><ele>732.0</ele><time>2026-03-22T11:10:37.285Z</time></trkpt><trkpt lat="44.3423699" lon="10.7320074"><ele>732.0</ele><time>2026-03-22T11:10:38.27Z</time></trkpt><trkpt lat="44.3424606" lon="10.7318559"><ele>732.0</ele><time>2026-03-22T11:10:39.274Z</time></trkpt><trkpt lat="44.342545" lon="10.7316925"><ele>732.0</ele><time>2026-03-22T11:10:40.276Z</time></trkpt><trkpt lat="44.3426226" lon="10.7315086"><ele>732.3333333333334</ele><time>2026-03-22T11:10:41.277Z</time></trkpt><trkpt lat="44.3426868" lon="10.7312977"><ele>732.6666666666667</ele><time>2026-03-22T11:10:42.277Z</time></trkpt><trkpt lat="44.3427499" lon="10.7310802"><ele>733.0</ele><time>2026-03-22T11:10:43.267Z</time></trkpt><trkpt lat="44.3428172" lon="10.7308569"><ele>732.0</ele><time>2026-03-22T11:10:44.283Z</time></trkpt><trkpt lat="44.3428821" lon="10.7306421"><ele>731.0</ele><time>2026-03-22T11:10:45.282Z</time></trkpt><trkpt lat="44.3429478" lon="10.7304313"><ele>730.0</ele><time>2026-03-22T11:10:46.294Z</time></trkpt><trkpt lat="44.34301" lon="10.7302291"><ele>734.5</ele><time>2026-03-22T11:10:47.282Z</time></trkpt><trkpt lat="44.3430697" lon="10.7300301"><ele>739.0</ele><time>2026-03-22T11:10:48.279Z</time></trkpt><trkpt lat="44.3431144" lon="10.7298378"><ele>743.5</ele><time>2026-03-22T11:10:49.28Z</time></trkpt><trkpt lat="44.3431516" lon="10.7296464"><ele>748.0</ele><time>2026-03-22T11:10:50.278Z</time></trkpt><trkpt lat="44.3431828" lon="10.7294584"><ele>749.25</ele><time>2026-03-22T11:10:51.288Z</time></trkpt><trkpt lat="44.3432055" lon="10.7292724"><ele>750.5</ele><time>2026-03-22T11:10:52.29Z</time></trkpt><trkpt lat="44.3432206" lon="10.7290837"><ele>751.75</ele><time>2026-03-22T11:10:53.292Z</time></trkpt><trkpt lat="44.3432315" lon="10.7288963"><ele>753.0</ele><time>2026-03-22T11:10:54.289Z</time></trkpt><trkpt lat="44.3432398" lon="10.7287115"><ele>754.5</ele><time>2026-03-22T11:10:55.283Z</time></trkpt><trkpt lat="44.3432479" lon="10.7285266"><ele>756.0</ele><time>2026-03-22T11:10:56.275Z</time></trkpt><trkpt lat="44.3432365" lon="10.7283457"><ele>757.5</ele><time>2026-03-22T11:10:57.283Z</time></trkpt><trkpt lat="44.3432008" lon="10.7281763"><ele>759.0</ele><time>2026-03-22T11:10:58.277Z</time></trkpt><trkpt lat="44.3431147" lon="10.7280297"><ele>757.5</ele><time>2026-03-22T11:10:59.285Z</time></trkpt><trkpt lat="44.3430093" lon="10.7278925"><ele>756.0</ele><time>2026-03-22T11:11:00.289Z</time></trkpt><trkpt lat="44.3428975" lon="10.7277587"><ele>754.5</ele><time>2026-03-22T11:11:01.291Z</time></trkpt><trkpt lat="44.3427934" lon="10.727622"><ele>753.0</ele><time>2026-03-22T11:11:02.276Z</time></trkpt><trkpt lat="44.3427102" lon="10.7274579"><ele>753.0</ele><time>2026-03-22T11:11:03.286Z</time></trkpt><trkpt lat="44.3426415" lon="10.727287"><ele>753.0</ele><time>2026-03-22T11:11:04.289Z</time></trkpt><trkpt lat="44.3425817" lon="10.7271268"><ele>753.0</ele><time>2026-03-22T11:11:05.281Z</time></trkpt><trkpt lat="44.3425319" lon="10.7269801"><ele>753.0</ele><time>2026-03-22T11:11:06.294Z</time></trkpt><trkpt lat="44.3424958" lon="10.7268386"><ele>754.8</ele><time>2026-03-22T11:11:07.27Z</time></trkpt><trkpt lat="44.3424776" lon="10.7266909"><ele>756.5999999999999</ele><time>2026-03-22T11:11:08.287Z</time></trkpt><trkpt lat="44.3424841" lon="10.7265444"><ele>758.4000000000001</ele><time>2026-03-22T11:11:09.283Z</time></trkpt><trkpt lat="44.3425155" lon="10.7263963"><ele>760.2</ele><time>2026-03-22T11:11:10.281Z</time></trkpt><trkpt lat="44.3425691" lon="10.7262493"><ele>762.0</ele><time>2026-03-22T11:11:11.277Z</time></trkpt><trkpt lat="44.3426401" lon="10.7261066"><ele>761.6</ele><time>2026-03-22T11:11:12.28Z</time></trkpt><trkpt lat="44.3427171" lon="10.7259755"><ele>761.2</ele><time>2026-03-22T11:11:13.28Z</time></trkpt><trkpt lat="44.3427906" lon="10.7258645"><ele>760.8</ele><time>2026-03-22T11:11:14.291Z</time></trkpt><trkpt lat="44.342866" lon="10.7257845"><ele>760.4</ele><time>2026-03-22T11:11:15.279Z</time></trkpt><trkpt lat="44.3429482" lon="10.7257406"><ele>760.0</ele><time>2026-03-22T11:11:16.274Z</time></trkpt><trkpt lat="44.3430307" lon="10.7257485"><ele>761.8</ele><time>2026-03-22T11:11:17.286Z</time></trkpt><trkpt lat="44.3431108" lon="10.7257913"><ele>763.6</ele><time>2026-03-22T11:11:18.289Z</time></trkpt><trkpt lat="44.3431673" lon="10.7259024"><ele>765.4000000000001</ele><time>2026-03-22T11:11:19.291Z</time></trkpt><trkpt lat="44.3432197" lon="10.7260295"><ele>767.2</ele><time>2026-03-22T11:11:20.275Z</time></trkpt><trkpt lat="44.3432743" lon="10.7261747"><ele>769.0</ele><time>2026-03-22T11:11:21.284Z</time></trkpt><trkpt lat="44.3433368" lon="10.7263172"><ele>769.0</ele><time>2026-03-22T11:11:22.285Z</time></trkpt><trkpt lat="44.3434102" lon="10.7264491"><ele>769.0</ele><time>2026-03-22T11:11:23.275Z</time></trkpt><trkpt lat="44.3434855" lon="10.7265782"><ele>769.0</ele><time>2026-03-22T11:11:24.271Z</time></trkpt><trkpt lat="44.3435626" lon="10.726697"><ele>769.0</ele><time>2026-03-22T11:11:25.286Z</time></trkpt><trkpt lat="44.3436373" lon="10.7268056"><ele>769.4999999999999</ele><time>2026-03-22T11:11:26.288Z</time></trkpt><trkpt lat="44.3437109" lon="10.7269008"><ele>770.0</ele><time>2026-03-22T11:11:27.26Z</time></trkpt><trkpt lat="44.3437869" lon="10.7269879"><ele>770.5</ele><time>2026-03-22T11:11:28.284Z</time></trkpt><trkpt lat="44.3438551" lon="10.7270733"><ele>771.0</ele><time>2026-03-22T11:11:29.29Z</time></trkpt><trkpt lat="44.3439219" lon="10.7271427"><ele>771.4999999999999</ele><time>2026-03-22T11:11:30.281Z</time></trkpt><trkpt lat="44.3439898" lon="10.7271881"><ele>772.0</ele><time>2026-03-22T11:11:31.28Z</time></trkpt><trkpt lat="44.3440671" lon="10.7272078"><ele>771.9999999999999</ele><time>2026-03-22T11:11:32.289Z</time></trkpt><trkpt lat="44.3441476" lon="10.7271923"><ele>772.0</ele><time>2026-03-22T11:11:33.283Z</time></trkpt><trkpt lat="44.3442226" lon="10.7271496"><ele>772.0</ele><time>2026-03-22T11:11:34.29Z</time></trkpt><trkpt lat="44.344289" lon="10.7270802"><ele>772.0</ele><time>2026-03-22T11:11:35.279Z</time></trkpt><trkpt lat="44.3443398" lon="10.7269931"><ele>771.9999999999999</ele><time>2026-03-22T11:11:36.279Z</time></trkpt><trkpt lat="44.3443653" lon="10.7268936"><ele>772.0</ele><time>2026-03-22T11:11:37.285Z</time></trkpt><trkpt lat="44.3443711" lon="10.7267813"><ele>772.9999999999999</ele><time>2026-03-22T11:11:38.288Z</time></trkpt><trkpt lat="44.3443185" lon="10.7266895"><ele>774.0</ele><time>2026-03-22T11:11:39.279Z</time></trkpt><trkpt lat="44.3442395" lon="10.7266294"><ele>775.0</ele><time>2026-03-22T11:11:40.28Z</time></trkpt><trkpt lat="44.3441513" lon="10.7265962"><ele>776.0</ele><time>2026-03-22T11:11:41.281Z</time></trkpt><trkpt lat="44.3440619" lon="10.72657"><ele>776.9999999999999</ele><time>2026-03-22T11:11:42.27Z</time></trkpt><trkpt lat="44.3439744" lon="10.7265378"><ele>778.0</ele><time>2026-03-22T11:11:43.288Z</time></trkpt><trkpt lat="44.343891" lon="10.7264915"><ele>777.2</ele><time>2026-03-22T11:11:44.275Z</time></trkpt><trkpt lat="44.3438134" lon="10.7264183"><ele>776.4</ele><time>2026-03-22T11:11:45.278Z</time></trkpt><trkpt lat="44.3437456" lon="10.7263174"><ele>775.6</ele><time>2026-03-22T11:11:46.285Z</time></trkpt><trkpt lat="44.343683" lon="10.7262014"><ele>774.8000000000001</ele><time>2026-03-22T11:11:47.293Z</time></trkpt><trkpt lat="44.3436385" lon="10.726062"><ele>774.0</ele><time>2026-03-22T11:11:48.286Z</time></trkpt><trkpt lat="44.3436061" lon="10.7259126"><ele>774.0</ele><time>2026-03-22T11:11:49.27Z</time></trkpt><trkpt lat="44.3435903" lon="10.7257516"><ele>774.0</ele><time>2026-03-22T11:11:50.265Z</time></trkpt><trkpt lat="44.3435892" lon="10.7255857"><ele>774.0</ele><time>2026-03-22T11:11:51.278Z</time></trkpt><trkpt lat="44.3435929" lon="10.725418"><ele>774.0</ele><time>2026-03-22T11:11:52.299Z</time></trkpt><trkpt lat="44.3435974" lon="10.7252526"><ele>774.5</ele><time>2026-03-22T11:11:53.265Z</time></trkpt><trkpt lat="44.3436032" lon="10.7250786"><ele>775.0</ele><time>2026-03-22T11:11:54.285Z</time></trkpt><trkpt lat="44.3436085" lon="10.7249036"><ele>775.5</ele><time>2026-03-22T11:11:55.288Z</time></trkpt><trkpt lat="44.3436155" lon="10.7247255"><ele>776.0</ele><time>2026-03-22T11:11:56.278Z</time></trkpt><trkpt lat="44.3436257" lon="10.7245431"><ele>776.25</ele><time>2026-03-22T11:11:57.288Z</time></trkpt><trkpt lat="44.3436345" lon="10.7243625"><ele>776.5</ele><time>2026-03-22T11:11:58.282Z</time></trkpt><trkpt lat="44.3436394" lon="10.7241813"><ele>776.75</ele><time>2026-03-22T11:11:59.282Z</time></trkpt><trkpt lat="44.3436421" lon="10.7240048"><ele>777.0</ele><time>2026-03-22T11:12:00.289Z</time></trkpt><trkpt lat="44.3436477" lon="10.7238316"><ele>777.0</ele><time>2026-03-22T11:12:01.28Z</time></trkpt><trkpt lat="44.3436515" lon="10.7236596"><ele>777.0</ele><time>2026-03-22T11:12:02.294Z</time></trkpt><trkpt lat="44.3436564" lon="10.7234911"><ele>777.0</ele><time>2026-03-22T11:12:03.272Z</time></trkpt><trkpt lat="44.343665" lon="10.723325"><ele>777.0</ele><time>2026-03-22T11:12:04.29Z</time></trkpt><trkpt lat="44.3436814" lon="10.7231642"><ele>776.75</ele><time>2026-03-22T11:12:05.278Z</time></trkpt><trkpt lat="44.3437042" lon="10.7230012"><ele>776.5</ele><time>2026-03-22T11:12:06.277Z</time></trkpt><trkpt lat="44.3437315" lon="10.7228358"><ele>776.25</ele><time>2026-03-22T11:12:07.28Z</time></trkpt><trkpt lat="44.3437645" lon="10.7226672"><ele>776.0</ele><time>2026-03-22T11:12:08.277Z</time></trkpt><trkpt lat="44.3437988" lon="10.7224959"><ele>776.0</ele><time>2026-03-22T11:12:09.281Z</time></trkpt><trkpt lat="44.3438387" lon="10.7223232"><ele>776.0</ele><time>2026-03-22T11:12:10.263Z</time></trkpt><trkpt lat="44.3438778" lon="10.7221415"><ele>776.0</ele><time>2026-03-22T11:12:11.284Z</time></trkpt><trkpt lat="44.3439157" lon="10.7219636"><ele>776.0</ele><time>2026-03-22T11:12:12.279Z</time></trkpt><trkpt lat="44.3439552" lon="10.7217712"><ele>781.5</ele><time>2026-03-22T11:12:13.28Z</time></trkpt><trkpt lat="44.3439929" lon="10.7215838"><ele>787.0</ele><time>2026-03-22T11:12:14.274Z</time></trkpt><trkpt lat="44.3440395" lon="10.7214085"><ele>792.5</ele><time>2026-03-22T11:12:15.291Z</time></trkpt><trkpt lat="44.3440808" lon="10.7212342"><ele>798.0</ele><time>2026-03-22T11:12:16.277Z</time></trkpt><trkpt lat="44.3441118" lon="10.7210599"><ele>798.25</ele><time>2026-03-22T11:12:17.286Z</time></trkpt><trkpt lat="44.3441292" lon="10.7208906"><ele>798.5</ele><time>2026-03-22T11:12:18.282Z</time></trkpt><trkpt lat="44.344125" lon="10.7207273"><ele>798.75</ele><time>2026-03-22T11:12:19.277Z</time></trkpt><trkpt lat="44.3441024" lon="10.720559"><ele>799.0</ele><time>2026-03-22T11:12:20.286Z</time></trkpt><trkpt lat="44.3440653" lon="10.7203957"><ele>799.0</ele><time>2026-03-22T11:12:21.283Z</time></trkpt><trkpt lat="44.3440199" lon="10.720242"><ele>799.0</ele><time>2026-03-22T11:12:22.273Z</time></trkpt><trkpt lat="44.3439702" lon="10.7200917"><ele>799.0</ele><time>2026-03-22T11:12:23.285Z</time></trkpt><trkpt lat="44.3439267" lon="10.7199471"><ele>799.0</ele><time>2026-03-22T11:12:24.289Z</time></trkpt><trkpt lat="44.3438954" lon="10.7198152"><ele>799.0</ele><time>2026-03-22T11:12:25.282Z</time></trkpt><trkpt lat="44.3438844" lon="10.7196944"><ele>798.9999999999999</ele><time>2026-03-22T11:12:26.291Z</time></trkpt><trkpt lat="44.3438829" lon="10.7195842"><ele>799.0</ele><time>2026-03-22T11:12:27.289Z</time></trkpt><trkpt lat="44.343908" lon="10.7195027"><ele>799.0</ele><time>2026-03-22T11:12:28.271Z</time></trkpt><trkpt lat="44.3439375" lon="10.7193558"><ele>799.0</ele><time>2026-03-22T11:12:30.28Z</time></trkpt><trkpt lat="44.343908" lon="10.7192664"><ele>798.9999999999999</ele><time>2026-03-22T11:12:31.284Z</time></trkpt><trkpt lat="44.3438637" lon="10.7191718"><ele>799.0</ele><time>2026-03-22T11:12:32.283Z</time></trkpt><trkpt lat="44.3437832" lon="10.7190884"><ele>796.25</ele><time>2026-03-22T11:12:33.275Z</time></trkpt><trkpt lat="44.3436954" lon="10.7190012"><ele>793.5</ele><time>2026-03-22T11:12:34.274Z</time></trkpt><trkpt lat="44.3436087" lon="10.7189029"><ele>790.75</ele><time>2026-03-22T11:12:35.286Z</time></trkpt><trkpt lat="44.3435332" lon="10.7187833"><ele>788.0</ele><time>2026-03-22T11:12:36.293Z</time></trkpt><trkpt lat="44.3434732" lon="10.7186356"><ele>789.25</ele><time>2026-03-22T11:12:37.281Z</time></trkpt><trkpt lat="44.3434298" lon="10.718464"><ele>790.5</ele><time>2026-03-22T11:12:38.294Z</time></trkpt><trkpt lat="44.3434061" lon="10.7182871"><ele>791.75</ele><time>2026-03-22T11:12:39.272Z</time></trkpt><trkpt lat="44.3433933" lon="10.7181204"><ele>793.0</ele><time>2026-03-22T11:12:40.27Z</time></trkpt><trkpt lat="44.343409" lon="10.717977"><ele>793.0</ele><time>2026-03-22T11:12:41.271Z</time></trkpt><trkpt lat="44.3434343" lon="10.7178467"><ele>793.0</ele><time>2026-03-22T11:12:42.289Z</time></trkpt><trkpt lat="44.3435026" lon="10.7177542"><ele>793.0</ele><time>2026-03-22T11:12:43.279Z</time></trkpt><trkpt lat="44.3435963" lon="10.7176876"><ele>793.0</ele><time>2026-03-22T11:12:44.287Z</time></trkpt><trkpt lat="44.343701" lon="10.7176268"><ele>793.0</ele><time>2026-03-22T11:12:45.277Z</time></trkpt><trkpt lat="44.3438203" lon="10.717561"><ele>796.5</ele><time>2026-03-22T11:12:46.291Z</time></trkpt><trkpt lat="44.3439354" lon="10.7174675"><ele>800.0</ele><time>2026-03-22T11:12:47.277Z</time></trkpt><trkpt lat="44.3440465" lon="10.7173422"><ele>803.5</ele><time>2026-03-22T11:12:48.285Z</time></trkpt><trkpt lat="44.3441443" lon="10.7172035"><ele>807.0</ele><time>2026-03-22T11:12:49.292Z</time></trkpt><trkpt lat="44.3442356" lon="10.7170773"><ele>807.0</ele><time>2026-03-22T11:12:50.279Z</time></trkpt><trkpt lat="44.3443295" lon="10.7169513"><ele>807.0</ele><time>2026-03-22T11:12:51.294Z</time></trkpt><trkpt lat="44.3444429" lon="10.7168577"><ele>807.0</ele><time>2026-03-22T11:12:52.282Z</time></trkpt><trkpt lat="44.3445673" lon="10.7167764"><ele>807.0</ele><time>2026-03-22T11:12:53.287Z</time></trkpt><trkpt lat="44.3446887" lon="10.7166856"><ele>807.0</ele><time>2026-03-22T11:12:54.277Z</time></trkpt><trkpt lat="44.3448072" lon="10.7165897"><ele>807.0</ele><time>2026-03-22T11:12:55.282Z</time></trkpt><trkpt lat="44.3449185" lon="10.716495"><ele>807.0</ele><time>2026-03-22T11:12:56.269Z</time></trkpt><trkpt lat="44.3450296" lon="10.7163996"><ele>807.0</ele><time>2026-03-22T11:12:57.292Z</time></trkpt><trkpt lat="44.3451378" lon="10.7163067"><ele>807.0</ele><time>2026-03-22T11:12:58.28Z</time></trkpt><trkpt lat="44.3452469" lon="10.7162095"><ele>807.0</ele><time>2026-03-22T11:12:59.282Z</time></trkpt><trkpt lat="44.3453441" lon="10.716099"><ele>807.0</ele><time>2026-03-22T11:13:00.28Z</time></trkpt><trkpt lat="44.3454403" lon="10.7159824"><ele>807.0</ele><time>2026-03-22T11:13:01.284Z</time></trkpt><trkpt lat="44.3455242" lon="10.7158531"><ele>805.5</ele><time>2026-03-22T11:13:02.265Z</time></trkpt><trkpt lat="44.345606" lon="10.7157135"><ele>804.0</ele><time>2026-03-22T11:13:03.291Z</time></trkpt><trkpt lat="44.3456848" lon="10.7155743"><ele>802.5</ele><time>2026-03-22T11:13:04.294Z</time></trkpt><trkpt lat="44.3457601" lon="10.7154354"><ele>801.0</ele><time>2026-03-22T11:13:05.289Z</time></trkpt><trkpt lat="44.3458377" lon="10.7152991"><ele>797.25</ele><time>2026-03-22T11:13:06.29Z</time></trkpt><trkpt lat="44.3459143" lon="10.7151663"><ele>793.5</ele><time>2026-03-22T11:13:07.294Z</time></trkpt><trkpt lat="44.3459752" lon="10.7150242"><ele>789.75</ele><time>2026-03-22T11:13:08.295Z</time></trkpt><trkpt lat="44.3460143" lon="10.7148732"><ele>786.0</ele><time>2026-03-22T11:13:09.271Z</time></trkpt><trkpt lat="44.3460259" lon="10.7147184"><ele>786.0</ele><time>2026-03-22T11:13:10.297Z</time></trkpt><trkpt lat="44.3460072" lon="10.714577"><ele>786.0</ele><time>2026-03-22T11:13:11.291Z</time></trkpt><trkpt lat="44.345954" lon="10.7144416"><ele>786.0</ele><time>2026-03-22T11:13:12.273Z</time></trkpt><trkpt lat="44.3458673" lon="10.714335"><ele>786.0</ele><time>2026-03-22T11:13:13.271Z</time></trkpt><trkpt lat="44.3457486" lon="10.71427"><ele>789.5</ele><time>2026-03-22T11:13:14.278Z</time></trkpt><trkpt lat="44.3456162" lon="10.7142285"><ele>793.0</ele><time>2026-03-22T11:13:15.286Z</time></trkpt><trkpt lat="44.3454685" lon="10.7142421"><ele>796.5</ele><time>2026-03-22T11:13:16.278Z</time></trkpt><trkpt lat="44.3453134" lon="10.7142804"><ele>800.0</ele><time>2026-03-22T11:13:17.289Z</time></trkpt><trkpt lat="44.3451526" lon="10.7143246"><ele>800.0</ele><time>2026-03-22T11:13:18.286Z</time></trkpt><trkpt lat="44.3449855" lon="10.7143641"><ele>800.0</ele><time>2026-03-22T11:13:19.291Z</time></trkpt><trkpt lat="44.3448174" lon="10.7143982"><ele>800.0</ele><time>2026-03-22T11:13:20.281Z</time></trkpt><trkpt lat="44.344647" lon="10.7144379"><ele>788.6666666666667</ele><time>2026-03-22T11:13:21.282Z</time></trkpt><trkpt lat="44.3444783" lon="10.7144727"><ele>777.3333333333334</ele><time>2026-03-22T11:13:22.271Z</time></trkpt><trkpt lat="44.3443142" lon="10.714502"><ele>766.0</ele><time>2026-03-22T11:13:23.276Z</time></trkpt><trkpt lat="44.3441541" lon="10.7145162"><ele>766.0</ele><time>2026-03-22T11:13:24.284Z</time></trkpt><trkpt lat="44.3439982" lon="10.714508"><ele>766.0</ele><time>2026-03-22T11:13:25.286Z</time></trkpt><trkpt lat="44.3438511" lon="10.7144864"><ele>766.0</ele><time>2026-03-22T11:13:26.288Z</time></trkpt><trkpt lat="44.3437117" lon="10.714463"><ele>766.0</ele><time>2026-03-22T11:13:27.282Z</time></trkpt><trkpt lat="44.3435951" lon="10.7144086"><ele>768.25</ele><time>2026-03-22T11:13:28.295Z</time></trkpt><trkpt lat="44.343499" lon="10.7143187"><ele>770.5</ele><time>2026-03-22T11:13:29.29Z</time></trkpt><trkpt lat="44.3434241" lon="10.7141832"><ele>772.75</ele><time>2026-03-22T11:13:30.282Z</time></trkpt><trkpt lat="44.3433649" lon="10.7140095"><ele>775.0</ele><time>2026-03-22T11:13:31.294Z</time></trkpt><trkpt lat="44.3433201" lon="10.71381"><ele>775.0</ele><time>2026-03-22T11:13:32.294Z</time></trkpt><trkpt lat="44.3432926" lon="10.7135943"><ele>775.0</ele><time>2026-03-22T11:13:33.272Z</time></trkpt><trkpt lat="44.3432884" lon="10.7133583"><ele>775.0</ele><time>2026-03-22T11:13:34.29Z</time></trkpt><trkpt lat="44.3432978" lon="10.7131153"><ele>779.0</ele><time>2026-03-22T11:13:35.281Z</time></trkpt><trkpt lat="44.3433092" lon="10.7128634"><ele>783.0</ele><time>2026-03-22T11:13:36.284Z</time></trkpt><trkpt lat="44.3433193" lon="10.7126048"><ele>787.0</ele><time>2026-03-22T11:13:37.29Z</time></trkpt><trkpt lat="44.3433312" lon="10.712343"><ele>787.0</ele><time>2026-03-22T11:13:38.27Z</time></trkpt><trkpt lat="44.3433429" lon="10.7120779"><ele>787.0</ele><time>2026-03-22T11:13:39.277Z</time></trkpt><trkpt lat="44.3433454" lon="10.7118206"><ele>787.0</ele><time>2026-03-22T11:13:40.298Z</time></trkpt><trkpt lat="44.3433326" lon="10.7115808"><ele>785.25</ele><time>2026-03-22T11:13:41.286Z</time></trkpt><trkpt lat="44.343296" lon="10.7113718"><ele>783.5</ele><time>2026-03-22T11:13:42.281Z</time></trkpt><trkpt lat="44.34326" lon="10.7111891"><ele>781.75</ele><time>2026-03-22T11:13:43.273Z</time></trkpt><trkpt lat="44.3432542" lon="10.7110141"><ele>780.0</ele><time>2026-03-22T11:13:44.269Z</time></trkpt><trkpt lat="44.3432772" lon="10.7108425"><ele>779.25</ele><time>2026-03-22T11:13:45.278Z</time></trkpt><trkpt lat="44.3433352" lon="10.7106837"><ele>778.5</ele><time>2026-03-22T11:13:46.278Z</time></trkpt><trkpt lat="44.3434198" lon="10.7105282"><ele>777.75</ele><time>2026-03-22T11:13:47.274Z</time></trkpt><trkpt lat="44.3435144" lon="10.7103602"><ele>777.0</ele><time>2026-03-22T11:13:48.272Z</time></trkpt><trkpt lat="44.3436164" lon="10.7101738"><ele>779.6666666666667</ele><time>2026-03-22T11:13:49.275Z</time></trkpt><trkpt lat="44.3437208" lon="10.7099734"><ele>782.3333333333334</ele><time>2026-03-22T11:13:50.28Z</time></trkpt><trkpt lat="44.3438266" lon="10.7097637"><ele>785.0</ele><time>2026-03-22T11:13:51.276Z</time></trkpt><trkpt lat="44.3439314" lon="10.7095615"><ele>780.6666666666667</ele><time>2026-03-22T11:13:52.272Z</time></trkpt><trkpt lat="44.344028" lon="10.7093616"><ele>776.3333333333333</ele><time>2026-03-22T11:13:53.288Z</time></trkpt><trkpt lat="44.3441005" lon="10.7091549"><ele>772.0</ele><time>2026-03-22T11:13:54.295Z</time></trkpt><trkpt lat="44.3441361" lon="10.7089289"><ele>772.0</ele><time>2026-03-22T11:13:55.273Z</time></trkpt><trkpt lat="44.3441837" lon="10.7087099"><ele>772.0</ele><time>2026-03-22T11:13:56.28Z</time></trkpt><trkpt lat="44.3442566" lon="10.7084962"><ele>772.0</ele><time>2026-03-22T11:13:57.285Z</time></trkpt><trkpt lat="44.3443577" lon="10.7082958"><ele>768.3333333333333</ele><time>2026-03-22T11:13:58.275Z</time></trkpt><trkpt lat="44.3444689" lon="10.7080896"><ele>764.6666666666666</ele><time>2026-03-22T11:13:59.278Z</time></trkpt><trkpt lat="44.3445762" lon="10.7078806"><ele>761.0</ele><time>2026-03-22T11:14:00.277Z</time></trkpt><trkpt lat="44.3446796" lon="10.7076775"><ele>763.0</ele><time>2026-03-22T11:14:01.281Z</time></trkpt><trkpt lat="44.344783" lon="10.7074862"><ele>765.0</ele><time>2026-03-22T11:14:02.282Z</time></trkpt><trkpt lat="44.3448799" lon="10.7073046"><ele>767.0</ele><time>2026-03-22T11:14:03.277Z</time></trkpt><trkpt lat="44.3449668" lon="10.7071329"><ele>767.0</ele><time>2026-03-22T11:14:04.284Z</time></trkpt><trkpt lat="44.3450251" lon="10.7069696"><ele>767.0</ele><time>2026-03-22T11:14:05.286Z</time></trkpt><trkpt lat="44.3450569" lon="10.7068035"><ele>767.0</ele><time>2026-03-22T11:14:06.286Z</time></trkpt><trkpt lat="44.3450533" lon="10.706636"><ele>767.0</ele><time>2026-03-22T11:14:07.285Z</time></trkpt><trkpt lat="44.3449904" lon="10.7064822"><ele>765.75</ele><time>2026-03-22T11:14:08.288Z</time></trkpt><trkpt lat="44.344898" lon="10.7063438"><ele>764.5</ele><time>2026-03-22T11:14:09.275Z</time></trkpt><trkpt lat="44.3447873" lon="10.7062477"><ele>763.25</ele><time>2026-03-22T11:14:10.278Z</time></trkpt><trkpt lat="44.3446631" lon="10.7061876"><ele>762.0</ele><time>2026-03-22T11:14:11.283Z</time></trkpt><trkpt lat="44.3445304" lon="10.7061624"><ele>762.75</ele><time>2026-03-22T11:14:12.283Z</time></trkpt><trkpt lat="44.3443939" lon="10.7061417"><ele>763.5</ele><time>2026-03-22T11:14:13.281Z</time></trkpt><trkpt lat="44.3442493" lon="10.7061021"><ele>764.25</ele><time>2026-03-22T11:14:14.286Z</time></trkpt><trkpt lat="44.3440971" lon="10.706038"><ele>765.0</ele><time>2026-03-22T11:14:15.27Z</time></trkpt><trkpt lat="44.3439346" lon="10.7059524"><ele>763.3333333333334</ele><time>2026-03-22T11:14:16.291Z</time></trkpt><trkpt lat="44.34377" lon="10.705857"><ele>761.6666666666667</ele><time>2026-03-22T11:14:17.291Z</time></trkpt><trkpt lat="44.3436095" lon="10.7057615"><ele>760.0</ele><time>2026-03-22T11:14:18.271Z</time></trkpt><trkpt lat="44.3434559" lon="10.7056806"><ele>760.0</ele><time>2026-03-22T11:14:19.27Z</time></trkpt><trkpt lat="44.3433111" lon="10.705625"><ele>760.0</ele><time>2026-03-22T11:14:20.293Z</time></trkpt><trkpt lat="44.3431788" lon="10.7055998"><ele>760.0</ele><time>2026-03-22T11:14:21.273Z</time></trkpt><trkpt lat="44.3430579" lon="10.7056007"><ele>760.0</ele><time>2026-03-22T11:14:22.283Z</time></trkpt><trkpt lat="44.3429522" lon="10.7056076"><ele>758.2</ele><time>2026-03-22T11:14:23.276Z</time></trkpt><trkpt lat="44.3428718" lon="10.7056184"><ele>756.4</ele><time>2026-03-22T11:14:24.278Z</time></trkpt><trkpt lat="44.3427668" lon="10.705604"><ele>754.5999999999999</ele><time>2026-03-22T11:14:26.284Z</time></trkpt><trkpt lat="44.3426963" lon="10.7055473"><ele>752.8</ele><time>2026-03-22T11:14:28.289Z</time></trkpt><trkpt lat="44.3426053" lon="10.7054238"><ele>751.0</ele><time>2026-03-22T11:14:30.271Z</time></trkpt><trkpt lat="44.3425477" lon="10.7053254"><ele>752.5999999999999</ele><time>2026-03-22T11:14:31.277Z</time></trkpt><trkpt lat="44.342491" lon="10.7052166"><ele>754.2</ele><time>2026-03-22T11:14:32.281Z</time></trkpt><trkpt lat="44.3424455" lon="10.7050952"><ele>755.8</ele><time>2026-03-22T11:14:33.281Z</time></trkpt><trkpt lat="44.342425" lon="10.7049545"><ele>757.4000000000001</ele><time>2026-03-22T11:14:34.272Z</time></trkpt><trkpt lat="44.3424427" lon="10.7047945"><ele>759.0</ele><time>2026-03-22T11:14:35.264Z</time></trkpt><trkpt lat="44.3424738" lon="10.7046227"><ele>759.0</ele><time>2026-03-22T11:14:36.284Z</time></trkpt><trkpt lat="44.342542" lon="10.7044437"><ele>759.0</ele><time>2026-03-22T11:14:37.287Z</time></trkpt><trkpt lat="44.3426151" lon="10.7042531"><ele>759.0</ele><time>2026-03-22T11:14:38.274Z</time></trkpt><trkpt lat="44.3426848" lon="10.7040501"><ele>759.0</ele><time>2026-03-22T11:14:39.3Z</time></trkpt><trkpt lat="44.3427421" lon="10.7038451"><ele>759.0</ele><time>2026-03-22T11:14:40.272Z</time></trkpt><trkpt lat="44.3427803" lon="10.7036333"><ele>759.0</ele><time>2026-03-22T11:14:41.266Z</time></trkpt><trkpt lat="44.3428094" lon="10.7034274"><ele>759.0</ele><time>2026-03-22T11:14:42.274Z</time></trkpt><trkpt lat="44.3428317" lon="10.7032274"><ele>759.0</ele><time>2026-03-22T11:14:43.284Z</time></trkpt><trkpt lat="44.3428495" lon="10.7030365"><ele>759.0</ele><time>2026-03-22T11:14:44.274Z</time></trkpt><trkpt lat="44.3428643" lon="10.7028611"><ele>759.0</ele><time>2026-03-22T11:14:45.273Z</time></trkpt><trkpt lat="44.3428898" lon="10.7026902"><ele>758.75</ele><time>2026-03-22T11:14:46.283Z</time></trkpt><trkpt lat="44.342924" lon="10.7025189"><ele>758.5</ele><time>2026-03-22T11:14:47.3Z</time></trkpt><trkpt lat="44.3429627" lon="10.7023472"><ele>758.25</ele><time>2026-03-22T11:14:48.27Z</time></trkpt><trkpt lat="44.3430113" lon="10.702176"><ele>758.0</ele><time>2026-03-22T11:14:49.296Z</time></trkpt><trkpt lat="44.3430543" lon="10.7020146"><ele>757.25</ele><time>2026-03-22T11:14:50.292Z</time></trkpt><trkpt lat="44.3430486" lon="10.7018466"><ele>756.5</ele><time>2026-03-22T11:14:51.282Z</time></trkpt><trkpt lat="44.3430145" lon="10.7016556"><ele>755.75</ele><time>2026-03-22T11:14:52.271Z</time></trkpt><trkpt lat="44.3429525" lon="10.7014651"><ele>755.0</ele><time>2026-03-22T11:14:53.27Z</time></trkpt><trkpt lat="44.3428895" lon="10.701263"><ele>756.0</ele><time>2026-03-22T11:14:54.28Z</time></trkpt><trkpt lat="44.342837" lon="10.7010411"><ele>757.0</ele><time>2026-03-22T11:14:55.273Z</time></trkpt><trkpt lat="44.3427967" lon="10.7008014"><ele>758.0</ele><time>2026-03-22T11:14:56.295Z</time></trkpt><trkpt lat="44.3427594" lon="10.7005548"><ele>758.0</ele><time>2026-03-22T11:14:57.277Z</time></trkpt><trkpt lat="44.3427228" lon="10.7003039"><ele>758.0</ele><time>2026-03-22T11:14:58.282Z</time></trkpt><trkpt lat="44.3426851" lon="10.7000549"><ele>758.0</ele><time>2026-03-22T11:14:59.292Z</time></trkpt><trkpt lat="44.3426353" lon="10.6998129"><ele>759.3333333333333</ele><time>2026-03-22T11:15:00.281Z</time></trkpt><trkpt lat="44.3425563" lon="10.6995767"><ele>760.6666666666666</ele><time>2026-03-22T11:15:01.278Z</time></trkpt><trkpt lat="44.3424606" lon="10.6993566"><ele>762.0</ele><time>2026-03-22T11:15:02.281Z</time></trkpt><trkpt lat="44.3423632" lon="10.6991569"><ele>760.3333333333334</ele><time>2026-03-22T11:15:03.28Z</time></trkpt><trkpt lat="44.3422806" lon="10.6989635"><ele>758.6666666666667</ele><time>2026-03-22T11:15:04.283Z</time></trkpt><trkpt lat="44.3422159" lon="10.6987684"><ele>757.0</ele><time>2026-03-22T11:15:05.27Z</time></trkpt><trkpt lat="44.3421607" lon="10.6985627"><ele>757.0</ele><time>2026-03-22T11:15:06.281Z</time></trkpt><trkpt lat="44.3421087" lon="10.6983546"><ele>757.0</ele><time>2026-03-22T11:15:07.287Z</time></trkpt><trkpt lat="44.3420483" lon="10.6981493"><ele>757.0</ele><time>2026-03-22T11:15:08.276Z</time></trkpt><trkpt lat="44.3419831" lon="10.6979458"><ele>761.6666666666667</ele><time>2026-03-22T11:15:09.279Z</time></trkpt><trkpt lat="44.3419037" lon="10.6977483"><ele>766.3333333333334</ele><time>2026-03-22T11:15:10.281Z</time></trkpt><trkpt lat="44.3418198" lon="10.6975537"><ele>771.0</ele><time>2026-03-22T11:15:11.274Z</time></trkpt><trkpt lat="44.3417323" lon="10.6973644"><ele>771.0</ele><time>2026-03-22T11:15:12.267Z</time></trkpt><trkpt lat="44.3416458" lon="10.6971822"><ele>771.0</ele><time>2026-03-22T11:15:13.278Z</time></trkpt><trkpt lat="44.3415689" lon="10.6970074"><ele>771.0</ele><time>2026-03-22T11:15:14.297Z</time></trkpt><trkpt lat="44.3414995" lon="10.6968361"><ele>771.0</ele><time>2026-03-22T11:15:15.276Z</time></trkpt><trkpt lat="44.3414337" lon="10.696655"><ele>773.0</ele><time>2026-03-22T11:15:16.28Z</time></trkpt><trkpt lat="44.3413829" lon="10.6964596"><ele>775.0</ele><time>2026-03-22T11:15:17.277Z</time></trkpt><trkpt lat="44.3413483" lon="10.6962449"><ele>777.0</ele><time>2026-03-22T11:15:18.286Z</time></trkpt><trkpt lat="44.3413262" lon="10.696014"><ele>768.0</ele><time>2026-03-22T11:15:19.29Z</time></trkpt><trkpt lat="44.341308" lon="10.6957763"><ele>759.0</ele><time>2026-03-22T11:15:20.281Z</time></trkpt><trkpt lat="44.3413019" lon="10.6955238"><ele>750.0</ele><time>2026-03-22T11:15:21.284Z</time></trkpt><trkpt lat="44.3413014" lon="10.6952728"><ele>749.0</ele><time>2026-03-22T11:15:22.286Z</time></trkpt><trkpt lat="44.3413012" lon="10.6950276"><ele>748.0</ele><time>2026-03-22T11:15:23.297Z</time></trkpt><trkpt lat="44.3413016" lon="10.6947915"><ele>747.0</ele><time>2026-03-22T11:15:24.283Z</time></trkpt><trkpt lat="44.3413045" lon="10.6945632"><ele>746.25</ele><time>2026-03-22T11:15:25.291Z</time></trkpt><trkpt lat="44.341312" lon="10.6943476"><ele>745.5</ele><time>2026-03-22T11:15:26.291Z</time></trkpt><trkpt lat="44.3413281" lon="10.6941441"><ele>744.75</ele><time>2026-03-22T11:15:27.285Z</time></trkpt><trkpt lat="44.3413689" lon="10.6939538"><ele>744.0</ele><time>2026-03-22T11:15:28.29Z</time></trkpt><trkpt lat="44.3414278" lon="10.6937856"><ele>746.5</ele><time>2026-03-22T11:15:29.289Z</time></trkpt><trkpt lat="44.3415126" lon="10.6936385"><ele>749.0</ele><time>2026-03-22T11:15:30.286Z</time></trkpt><trkpt lat="44.3416154" lon="10.6935165"><ele>751.5</ele><time>2026-03-22T11:15:31.281Z</time></trkpt><trkpt lat="44.3417263" lon="10.6934117"><ele>754.0</ele><time>2026-03-22T11:15:32.272Z</time></trkpt><trkpt lat="44.3418237" lon="10.6932973"><ele>754.0</ele><time>2026-03-22T11:15:33.272Z</time></trkpt><trkpt lat="44.3418975" lon="10.6931429"><ele>754.0</ele><time>2026-03-22T11:15:34.282Z</time></trkpt><trkpt lat="44.3419551" lon="10.6929736"><ele>754.0</ele><time>2026-03-22T11:15:35.273Z</time></trkpt><trkpt lat="44.3419966" lon="10.6927967"><ele>754.0</ele><time>2026-03-22T11:15:36.281Z</time></trkpt><trkpt lat="44.3420124" lon="10.6926223"><ele>754.75</ele><time>2026-03-22T11:15:37.282Z</time></trkpt><trkpt lat="44.3420036" lon="10.6924623"><ele>755.5</ele><time>2026-03-22T11:15:38.29Z</time></trkpt><trkpt lat="44.3419415" lon="10.6923389"><ele>756.25</ele><time>2026-03-22T11:15:39.282Z</time></trkpt><trkpt lat="44.3418391" lon="10.6922516"><ele>757.0</ele><time>2026-03-22T11:15:40.266Z</time></trkpt><trkpt lat="44.3417203" lon="10.6921946"><ele>757.0</ele><time>2026-03-22T11:15:41.289Z</time></trkpt><trkpt lat="44.3416033" lon="10.6921342"><ele>757.0</ele><time>2026-03-22T11:15:42.287Z</time></trkpt><trkpt lat="44.3414961" lon="10.6920472"><ele>757.0</ele><time>2026-03-22T11:15:43.288Z</time></trkpt><trkpt lat="44.3414093" lon="10.6919171"><ele>757.0</ele><time>2026-03-22T11:15:44.287Z</time></trkpt><trkpt lat="44.3413437" lon="10.6917502"><ele>751.3333333333334</ele><time>2026-03-22T11:15:45.283Z</time></trkpt><trkpt lat="44.3412909" lon="10.6915628"><ele>745.6666666666666</ele><time>2026-03-22T11:15:46.281Z</time></trkpt><trkpt lat="44.3412313" lon="10.6913698"><ele>740.0</ele><time>2026-03-22T11:15:47.294Z</time></trkpt><trkpt lat="44.341151" lon="10.6911821"><ele>746.0</ele><time>2026-03-22T11:15:48.283Z</time></trkpt><trkpt lat="44.3410486" lon="10.6910103"><ele>752.0</ele><time>2026-03-22T11:15:49.28Z</time></trkpt><trkpt lat="44.3409233" lon="10.6908561"><ele>758.0</ele><time>2026-03-22T11:15:50.275Z</time></trkpt><trkpt lat="44.3408034" lon="10.6906973"><ele>758.0</ele><time>2026-03-22T11:15:51.287Z</time></trkpt><trkpt lat="44.3406954" lon="10.6905205"><ele>758.0</ele><time>2026-03-22T11:15:52.289Z</time></trkpt><trkpt lat="44.340599" lon="10.6903272"><ele>758.0</ele><time>2026-03-22T11:15:53.28Z</time></trkpt><trkpt lat="44.3405122" lon="10.6901176"><ele>752.3333333333333</ele><time>2026-03-22T11:15:54.265Z</time></trkpt><trkpt lat="44.340435" lon="10.6898939"><ele>746.6666666666666</ele><time>2026-03-22T11:15:55.277Z</time></trkpt><trkpt lat="44.3403641" lon="10.6896687"><ele>741.0</ele><time>2026-03-22T11:15:56.268Z</time></trkpt><trkpt lat="44.3402992" lon="10.6894423"><ele>743.3333333333334</ele><time>2026-03-22T11:15:57.274Z</time></trkpt><trkpt lat="44.3402319" lon="10.6892186"><ele>745.6666666666667</ele><time>2026-03-22T11:15:58.283Z</time></trkpt><trkpt lat="44.3401647" lon="10.6890024"><ele>748.0</ele><time>2026-03-22T11:15:59.278Z</time></trkpt><trkpt lat="44.3401061" lon="10.688787"><ele>750.0</ele><time>2026-03-22T11:16:00.282Z</time></trkpt><trkpt lat="44.3400589" lon="10.6885782"><ele>752.0</ele><time>2026-03-22T11:16:01.275Z</time></trkpt><trkpt lat="44.3400347" lon="10.6883757"><ele>754.0</ele><time>2026-03-22T11:16:02.289Z</time></trkpt><trkpt lat="44.3400266" lon="10.6881873"><ele>756.0</ele><time>2026-03-22T11:16:03.278Z</time></trkpt><trkpt lat="44.3400221" lon="10.6880033"><ele>756.0</ele><time>2026-03-22T11:16:04.283Z</time></trkpt><trkpt lat="44.3399964" lon="10.6878347"><ele>756.0</ele><time>2026-03-22T11:16:05.276Z</time></trkpt><trkpt lat="44.3399312" lon="10.6876812"><ele>756.0</ele><time>2026-03-22T11:16:06.288Z</time></trkpt><trkpt lat="44.3398425" lon="10.6875572"><ele>756.0</ele><time>2026-03-22T11:16:07.286Z</time></trkpt><trkpt lat="44.3397313" lon="10.6874592"><ele>755.25</ele><time>2026-03-22T11:16:08.29Z</time></trkpt><trkpt lat="44.3396127" lon="10.6873715"><ele>754.5</ele><time>2026-03-22T11:16:09.273Z</time></trkpt><trkpt lat="44.3394858" lon="10.6872961"><ele>753.75</ele><time>2026-03-22T11:16:10.28Z</time></trkpt><trkpt lat="44.3393646" lon="10.6872023"><ele>753.0</ele><time>2026-03-22T11:16:11.271Z</time></trkpt><trkpt lat="44.3392433" lon="10.6870856"><ele>753.0</ele><time>2026-03-22T11:16:12.283Z</time></trkpt><trkpt lat="44.3391246" lon="10.6869512"><ele>753.0</ele><time>2026-03-22T11:16:13.273Z</time></trkpt><trkpt lat="44.3390113" lon="10.6868135"><ele>753.0</ele><time>2026-03-22T11:16:14.275Z</time></trkpt><trkpt lat="44.3389059" lon="10.6866833"><ele>753.0</ele><time>2026-03-22T11:16:15.283Z</time></trkpt><trkpt lat="44.338799" lon="10.6865695"><ele>752.75</ele><time>2026-03-22T11:16:16.278Z</time></trkpt><trkpt lat="44.3386776" lon="10.6864864"><ele>752.5</ele><time>2026-03-22T11:16:17.286Z</time></trkpt><trkpt lat="44.3385472" lon="10.6864278"><ele>752.25</ele><time>2026-03-22T11:16:18.289Z</time></trkpt><trkpt lat="44.338409" lon="10.6864084"><ele>752.0</ele><time>2026-03-22T11:16:19.282Z</time></trkpt><trkpt lat="44.33827" lon="10.6863851"><ele>752.0</ele><time>2026-03-22T11:16:20.275Z</time></trkpt><trkpt lat="44.3381331" lon="10.6863454"><ele>752.0</ele><time>2026-03-22T11:16:21.294Z</time></trkpt><trkpt lat="44.3380024" lon="10.6862806"><ele>752.0</ele><time>2026-03-22T11:16:22.276Z</time></trkpt><trkpt lat="44.3378799" lon="10.6861946"><ele>752.0</ele><time>2026-03-22T11:16:23.281Z</time></trkpt><trkpt lat="44.3377697" lon="10.6860955"><ele>752.0</ele><time>2026-03-22T11:16:24.294Z</time></trkpt><trkpt lat="44.3376638" lon="10.6860042"><ele>752.0</ele><time>2026-03-22T11:16:25.288Z</time></trkpt><trkpt lat="44.3375491" lon="10.6859516"><ele>752.0</ele><time>2026-03-22T11:16:26.284Z</time></trkpt><trkpt lat="44.337431" lon="10.6859419"><ele>752.0</ele><time>2026-03-22T11:16:27.29Z</time></trkpt><trkpt lat="44.3373067" lon="10.6859898"><ele>752.0</ele><time>2026-03-22T11:16:28.278Z</time></trkpt><trkpt lat="44.337181" lon="10.68604"><ele>752.0</ele><time>2026-03-22T11:16:29.279Z</time></trkpt><trkpt lat="44.3370584" lon="10.6860563"><ele>752.0</ele><time>2026-03-22T11:16:30.288Z</time></trkpt><trkpt lat="44.3369489" lon="10.6860486"><ele>752.0</ele><time>2026-03-22T11:16:31.271Z</time></trkpt><trkpt lat="44.3368522" lon="10.6860524"><ele>753.4000000000001</ele><time>2026-03-22T11:16:32.294Z</time></trkpt><trkpt lat="44.3367731" lon="10.6860983"><ele>754.8000000000001</ele><time>2026-03-22T11:16:33.283Z</time></trkpt><trkpt lat="44.3367188" lon="10.6861898"><ele>756.2</ele><time>2026-03-22T11:16:34.273Z</time></trkpt><trkpt lat="44.3366984" lon="10.686316"><ele>757.6</ele><time>2026-03-22T11:16:35.285Z</time></trkpt><trkpt lat="44.3367114" lon="10.6864605"><ele>759.0</ele><time>2026-03-22T11:16:36.284Z</time></trkpt><trkpt lat="44.336755" lon="10.6866126"><ele>759.0</ele><time>2026-03-22T11:16:37.286Z</time></trkpt><trkpt lat="44.3368094" lon="10.6867694"><ele>759.0</ele><time>2026-03-22T11:16:38.289Z</time></trkpt><trkpt lat="44.3368692" lon="10.6869374"><ele>759.0</ele><time>2026-03-22T11:16:39.265Z</time></trkpt><trkpt lat="44.3369241" lon="10.6871243"><ele>759.0</ele><time>2026-03-22T11:16:40.27Z</time></trkpt><trkpt lat="44.3369472" lon="10.6873438"><ele>762.6666666666667</ele><time>2026-03-22T11:16:41.279Z</time></trkpt><trkpt lat="44.3369429" lon="10.6875859"><ele>766.3333333333334</ele><time>2026-03-22T11:16:42.278Z</time></trkpt><trkpt lat="44.3369304" lon="10.6878275"><ele>770.0</ele><time>2026-03-22T11:16:43.279Z</time></trkpt><trkpt lat="44.3369259" lon="10.6880716"><ele>771.3333333333334</ele><time>2026-03-22T11:16:44.286Z</time></trkpt><trkpt lat="44.3369453" lon="10.6883115"><ele>772.6666666666667</ele><time>2026-03-22T11:16:45.289Z</time></trkpt><trkpt lat="44.3369763" lon="10.6885369"><ele>774.0</ele><time>2026-03-22T11:16:46.283Z</time></trkpt><trkpt lat="44.3370145" lon="10.6887555"><ele>775.3333333333333</ele><time>2026-03-22T11:16:47.288Z</time></trkpt><trkpt lat="44.3370534" lon="10.6889674"><ele>776.6666666666666</ele><time>2026-03-22T11:16:48.282Z</time></trkpt><trkpt lat="44.3370948" lon="10.6891718"><ele>778.0</ele><time>2026-03-22T11:16:49.282Z</time></trkpt><trkpt lat="44.3371434" lon="10.6893654"><ele>777.25</ele><time>2026-03-22T11:16:50.279Z</time></trkpt><trkpt lat="44.337213" lon="10.6895406"><ele>776.5</ele><time>2026-03-22T11:16:51.279Z</time></trkpt><trkpt lat="44.3372901" lon="10.6897047"><ele>775.75</ele><time>2026-03-22T11:16:52.286Z</time></trkpt><trkpt lat="44.3373768" lon="10.6898502"><ele>775.0</ele><time>2026-03-22T11:16:53.288Z</time></trkpt><trkpt lat="44.3374632" lon="10.6899909"><ele>775.0</ele><time>2026-03-22T11:16:54.294Z</time></trkpt><trkpt lat="44.3375468" lon="10.6901285"><ele>775.0</ele><time>2026-03-22T11:16:55.278Z</time></trkpt><trkpt lat="44.3376298" lon="10.6902606"><ele>775.0</ele><time>2026-03-22T11:16:56.289Z</time></trkpt><trkpt lat="44.3377025" lon="10.6903825"><ele>775.0</ele><time>2026-03-22T11:16:57.289Z</time></trkpt><trkpt lat="44.3377626" lon="10.6905018"><ele>775.8</ele><time>2026-03-22T11:16:58.269Z</time></trkpt><trkpt lat="44.3378023" lon="10.6906339"><ele>776.6</ele><time>2026-03-22T11:16:59.291Z</time></trkpt><trkpt lat="44.3378182" lon="10.6907807"><ele>777.4000000000001</ele><time>2026-03-22T11:17:00.272Z</time></trkpt><trkpt lat="44.3378135" lon="10.6909304"><ele>778.2</ele><time>2026-03-22T11:17:01.283Z</time></trkpt><trkpt lat="44.3377897" lon="10.6910687"><ele>779.0</ele><time>2026-03-22T11:17:02.276Z</time></trkpt><trkpt lat="44.3377465" lon="10.6911814"><ele>779.0</ele><time>2026-03-22T11:17:03.272Z</time></trkpt><trkpt lat="44.3376733" lon="10.6912544"><ele>779.0</ele><time>2026-03-22T11:17:04.284Z</time></trkpt><trkpt lat="44.33758" lon="10.6912762"><ele>779.0</ele><time>2026-03-22T11:17:05.275Z</time></trkpt><trkpt lat="44.337472" lon="10.6912653"><ele>779.0</ele><time>2026-03-22T11:17:06.268Z</time></trkpt><trkpt lat="44.3373565" lon="10.6912422"><ele>779.0</ele><time>2026-03-22T11:17:07.27Z</time></trkpt><trkpt lat="44.3372363" lon="10.6912364"><ele>781.0</ele><time>2026-03-22T11:17:08.272Z</time></trkpt><trkpt lat="44.3371159" lon="10.6912554"><ele>783.0</ele><time>2026-03-22T11:17:09.263Z</time></trkpt><trkpt lat="44.3369915" lon="10.6913153"><ele>785.0</ele><time>2026-03-22T11:17:10.285Z</time></trkpt><trkpt lat="44.3368684" lon="10.6913951"><ele>787.0</ele><time>2026-03-22T11:17:11.274Z</time></trkpt><trkpt lat="44.3367423" lon="10.6914904"><ele>787.0</ele><time>2026-03-22T11:17:12.279Z</time></trkpt><trkpt lat="44.3366122" lon="10.6915908"><ele>787.0</ele><time>2026-03-22T11:17:13.286Z</time></trkpt><trkpt lat="44.336482" lon="10.6916948"><ele>787.0</ele><time>2026-03-22T11:17:14.285Z</time></trkpt><trkpt lat="44.3363511" lon="10.6918026"><ele>788.6666666666666</ele><time>2026-03-22T11:17:15.268Z</time></trkpt><trkpt lat="44.3362174" lon="10.6919092"><ele>790.3333333333333</ele><time>2026-03-22T11:17:16.274Z</time></trkpt><trkpt lat="44.336083" lon="10.6920154"><ele>792.0</ele><time>2026-03-22T11:17:17.288Z</time></trkpt><trkpt lat="44.3359566" lon="10.692131"><ele>792.75</ele><time>2026-03-22T11:17:18.282Z</time></trkpt><trkpt lat="44.3358438" lon="10.6922695"><ele>793.5</ele><time>2026-03-22T11:17:19.292Z</time></trkpt><trkpt lat="44.3357549" lon="10.6924365"><ele>794.25</ele><time>2026-03-22T11:17:20.286Z</time></trkpt><trkpt lat="44.3356988" lon="10.6926304"><ele>795.0</ele><time>2026-03-22T11:17:21.282Z</time></trkpt><trkpt lat="44.3356769" lon="10.6928404"><ele>796.0</ele><time>2026-03-22T11:17:22.286Z</time></trkpt><trkpt lat="44.3356853" lon="10.6930551"><ele>797.0</ele><time>2026-03-22T11:17:23.283Z</time></trkpt><trkpt lat="44.3357183" lon="10.6932713"><ele>798.0</ele><time>2026-03-22T11:17:24.288Z</time></trkpt><trkpt lat="44.3357525" lon="10.6934819"><ele>798.25</ele><time>2026-03-22T11:17:25.278Z</time></trkpt><trkpt lat="44.3357793" lon="10.6936854"><ele>798.5</ele><time>2026-03-22T11:17:26.279Z</time></trkpt><trkpt lat="44.3357928" lon="10.6938712"><ele>798.75</ele><time>2026-03-22T11:17:27.29Z</time></trkpt><trkpt lat="44.3357737" lon="10.6940284"><ele>799.0</ele><time>2026-03-22T11:17:28.272Z</time></trkpt><trkpt lat="44.335726" lon="10.6941677"><ele>799.0</ele><time>2026-03-22T11:17:29.265Z</time></trkpt><trkpt lat="44.3356385" lon="10.6942805"><ele>799.0</ele><time>2026-03-22T11:17:30.274Z</time></trkpt><trkpt lat="44.3355256" lon="10.6943715"><ele>799.0</ele><time>2026-03-22T11:17:31.285Z</time></trkpt><trkpt lat="44.3353847" lon="10.6944377"><ele>799.0</ele><time>2026-03-22T11:17:32.291Z</time></trkpt><trkpt lat="44.3352507" lon="10.6945342"><ele>804.6666666666666</ele><time>2026-03-22T11:17:33.278Z</time></trkpt><trkpt lat="44.3351235" lon="10.6946782"><ele>810.3333333333333</ele><time>2026-03-22T11:17:34.284Z</time></trkpt><trkpt lat="44.3350175" lon="10.6948672"><ele>816.0</ele><time>2026-03-22T11:17:35.283Z</time></trkpt><trkpt lat="44.3349377" lon="10.6950783"><ele>816.5</ele><time>2026-03-22T11:17:36.285Z</time></trkpt><trkpt lat="44.3348789" lon="10.6952803"><ele>817.0</ele><time>2026-03-22T11:17:37.285Z</time></trkpt><trkpt lat="44.3348213" lon="10.6954517"><ele>817.5</ele><time>2026-03-22T11:17:38.275Z</time></trkpt><trkpt lat="44.3347563" lon="10.6955868"><ele>818.0</ele><time>2026-03-22T11:17:39.282Z</time></trkpt><trkpt lat="44.3346538" lon="10.6956666"><ele>818.0</ele><time>2026-03-22T11:17:40.278Z</time></trkpt><trkpt lat="44.3345167" lon="10.6956989"><ele>818.0</ele><time>2026-03-22T11:17:41.292Z</time></trkpt><trkpt lat="44.3343704" lon="10.6956907"><ele>818.0</ele><time>2026-03-22T11:17:42.273Z</time></trkpt><trkpt lat="44.3342174" lon="10.6956817"><ele>818.0</ele><time>2026-03-22T11:17:43.279Z</time></trkpt><trkpt lat="44.334061" lon="10.6957063"><ele>818.0</ele><time>2026-03-22T11:17:44.283Z</time></trkpt><trkpt lat="44.3339033" lon="10.6957637"><ele>818.0</ele><time>2026-03-22T11:17:45.286Z</time></trkpt><trkpt lat="44.3337519" lon="10.6958876"><ele>818.0</ele><time>2026-03-22T11:17:46.293Z</time></trkpt><trkpt lat="44.3336063" lon="10.6960399"><ele>820.0</ele><time>2026-03-22T11:17:47.296Z</time></trkpt><trkpt lat="44.3334662" lon="10.6962035"><ele>822.0</ele><time>2026-03-22T11:17:48.269Z</time></trkpt><trkpt lat="44.3333202" lon="10.6963601"><ele>824.0</ele><time>2026-03-22T11:17:49.281Z</time></trkpt><trkpt lat="44.3331672" lon="10.6964946"><ele>826.6666666666667</ele><time>2026-03-22T11:17:50.286Z</time></trkpt><trkpt lat="44.3330088" lon="10.69661"><ele>829.3333333333333</ele><time>2026-03-22T11:17:51.268Z</time></trkpt><trkpt lat="44.3328394" lon="10.6966981"><ele>832.0</ele><time>2026-03-22T11:17:52.3Z</time></trkpt><trkpt lat="44.3326779" lon="10.696779"><ele>832.0</ele><time>2026-03-22T11:17:53.287Z</time></trkpt><trkpt lat="44.3325183" lon="10.6968603"><ele>832.0</ele><time>2026-03-22T11:17:54.291Z</time></trkpt><trkpt lat="44.3323694" lon="10.6969412"><ele>832.0</ele><time>2026-03-22T11:17:55.268Z</time></trkpt><trkpt lat="44.3322271" lon="10.6970171"><ele>833.0</ele><time>2026-03-22T11:17:56.273Z</time></trkpt><trkpt lat="44.3320978" lon="10.6970864"><ele>834.0</ele><time>2026-03-22T11:17:57.29Z</time></trkpt><trkpt lat="44.3319827" lon="10.697151"><ele>835.0</ele><time>2026-03-22T11:17:58.282Z</time></trkpt><trkpt lat="44.3318774" lon="10.697213"><ele>836.0</ele><time>2026-03-22T11:17:59.28Z</time></trkpt><trkpt lat="44.3317804" lon="10.6972614"><ele>836.0000000000001</ele><time>2026-03-22T11:18:00.267Z</time></trkpt><trkpt lat="44.3316924" lon="10.6972611"><ele>836.0</ele><time>2026-03-22T11:18:01.276Z</time></trkpt><trkpt lat="44.3316119" lon="10.697231"><ele>836.0</ele><time>2026-03-22T11:18:02.275Z</time></trkpt><trkpt lat="44.3315732" lon="10.6971299"><ele>836.0</ele><time>2026-03-22T11:18:03.284Z</time></trkpt><trkpt lat="44.3315705" lon="10.6970025"><ele>836.0000000000001</ele><time>2026-03-22T11:18:04.288Z</time></trkpt><trkpt lat="44.3316154" lon="10.6968739"><ele>836.0</ele><time>2026-03-22T11:18:05.272Z</time></trkpt><trkpt lat="44.3316907" lon="10.6967512"><ele>837.3333333333334</ele><time>2026-03-22T11:18:06.277Z</time></trkpt><trkpt lat="44.3317939" lon="10.696627"><ele>838.6666666666667</ele><time>2026-03-22T11:18:07.28Z</time></trkpt><trkpt lat="44.3319248" lon="10.6964954"><ele>840.0</ele><time>2026-03-22T11:18:08.276Z</time></trkpt><trkpt lat="44.3320659" lon="10.6963556"><ele>840.0</ele><time>2026-03-22T11:18:09.277Z</time></trkpt><trkpt lat="44.3322213" lon="10.696199"><ele>840.0</ele><time>2026-03-22T11:18:10.287Z</time></trkpt><trkpt lat="44.3323752" lon="10.6960395"><ele>840.0</ele><time>2026-03-22T11:18:11.279Z</time></trkpt><trkpt lat="44.3325293" lon="10.695881"><ele>840.3333333333333</ele><time>2026-03-22T11:18:12.278Z</time></trkpt><trkpt lat="44.3326794" lon="10.6957301"><ele>840.6666666666666</ele><time>2026-03-22T11:18:13.287Z</time></trkpt><trkpt lat="44.3328233" lon="10.6955843"><ele>841.0</ele><time>2026-03-22T11:18:14.29Z</time></trkpt><trkpt lat="44.3329645" lon="10.6954523"><ele>839.0</ele><time>2026-03-22T11:18:15.269Z</time></trkpt><trkpt lat="44.3331143" lon="10.6953471"><ele>837.0</ele><time>2026-03-22T11:18:16.279Z</time></trkpt><trkpt lat="44.3332703" lon="10.6952795"><ele>835.0</ele><time>2026-03-22T11:18:17.28Z</time></trkpt><trkpt lat="44.333427" lon="10.695231"><ele>839.6666666666666</ele><time>2026-03-22T11:18:18.278Z</time></trkpt><trkpt lat="44.3335755" lon="10.6951799"><ele>844.3333333333333</ele><time>2026-03-22T11:18:19.268Z</time></trkpt><trkpt lat="44.333716" lon="10.6951017"><ele>849.0</ele><time>2026-03-22T11:18:20.281Z</time></trkpt><trkpt lat="44.3338448" lon="10.6949994"><ele>846.25</ele><time>2026-03-22T11:18:21.288Z</time></trkpt><trkpt lat="44.3339596" lon="10.6948981"><ele>843.5</ele><time>2026-03-22T11:18:22.274Z</time></trkpt><trkpt lat="44.3340721" lon="10.6948104"><ele>840.75</ele><time>2026-03-22T11:18:23.291Z</time></trkpt><trkpt lat="44.3341774" lon="10.6947276"><ele>838.0</ele><time>2026-03-22T11:18:24.268Z</time></trkpt><trkpt lat="44.3342621" lon="10.694632"><ele>838.0</ele><time>2026-03-22T11:18:25.273Z</time></trkpt><trkpt lat="44.33431" lon="10.6945136"><ele>838.0</ele><time>2026-03-22T11:18:26.278Z</time></trkpt><trkpt lat="44.3343328" lon="10.6943804"><ele>838.0</ele><time>2026-03-22T11:18:27.281Z</time></trkpt><trkpt lat="44.3343213" lon="10.6942517"><ele>838.0</ele><time>2026-03-22T11:18:28.274Z</time></trkpt><trkpt lat="44.3342654" lon="10.6941389"><ele>838.0</ele><time>2026-03-22T11:18:29.275Z</time></trkpt><trkpt lat="44.3341538" lon="10.6940408"><ele>839.25</ele><time>2026-03-22T11:18:30.295Z</time></trkpt><trkpt lat="44.3340502" lon="10.6939357"><ele>840.5</ele><time>2026-03-22T11:18:31.276Z</time></trkpt><trkpt lat="44.3339576" lon="10.6937868"><ele>841.75</ele><time>2026-03-22T11:18:32.278Z</time></trkpt><trkpt lat="44.3338958" lon="10.6936013"><ele>843.0</ele><time>2026-03-22T11:18:33.282Z</time></trkpt><trkpt lat="44.3338432" lon="10.6933964"><ele>844.6666666666667</ele><time>2026-03-22T11:18:34.287Z</time></trkpt><trkpt lat="44.3337827" lon="10.6931858"><ele>846.3333333333334</ele><time>2026-03-22T11:18:35.272Z</time></trkpt><trkpt lat="44.3337125" lon="10.6929719"><ele>848.0</ele><time>2026-03-22T11:18:36.279Z</time></trkpt><trkpt lat="44.3336398" lon="10.6927664"><ele>848.3333333333334</ele><time>2026-03-22T11:18:37.289Z</time></trkpt><trkpt lat="44.3335751" lon="10.6925684"><ele>848.6666666666667</ele><time>2026-03-22T11:18:38.29Z</time></trkpt><trkpt lat="44.3335428" lon="10.692369"><ele>849.0</ele><time>2026-03-22T11:18:39.274Z</time></trkpt><trkpt lat="44.3335381" lon="10.6921616"><ele>849.0</ele><time>2026-03-22T11:18:40.292Z</time></trkpt><trkpt lat="44.3335451" lon="10.6919505"><ele>849.0</ele><time>2026-03-22T11:18:41.283Z</time></trkpt><trkpt lat="44.3335549" lon="10.691734"><ele>849.0</ele><time>2026-03-22T11:18:42.293Z</time></trkpt><trkpt lat="44.3335632" lon="10.6915209"><ele>850.75</ele><time>2026-03-22T11:18:43.288Z</time></trkpt><trkpt lat="44.3335781" lon="10.6913266"><ele>852.5</ele><time>2026-03-22T11:18:44.279Z</time></trkpt><trkpt lat="44.3336138" lon="10.6911536"><ele>854.25</ele><time>2026-03-22T11:18:45.288Z</time></trkpt><trkpt lat="44.3336559" lon="10.6909929"><ele>856.0</ele><time>2026-03-22T11:18:46.287Z</time></trkpt><trkpt lat="44.3336945" lon="10.6908451"><ele>856.0</ele><time>2026-03-22T11:18:47.276Z</time></trkpt><trkpt lat="44.3336937" lon="10.690701"><ele>856.0</ele><time>2026-03-22T11:18:48.291Z</time></trkpt><trkpt lat="44.3336496" lon="10.6905532"><ele>856.0</ele><time>2026-03-22T11:18:49.277Z</time></trkpt><trkpt lat="44.3335713" lon="10.690393"><ele>856.0</ele><time>2026-03-22T11:18:50.273Z</time></trkpt><trkpt lat="44.3334934" lon="10.6902124"><ele>856.0</ele><time>2026-03-22T11:18:51.286Z</time></trkpt><trkpt lat="44.3334327" lon="10.6900171"><ele>856.0</ele><time>2026-03-22T11:18:52.27Z</time></trkpt><trkpt lat="44.3334094" lon="10.6897961"><ele>856.0</ele><time>2026-03-22T11:18:53.277Z</time></trkpt><trkpt lat="44.3334051" lon="10.6895706"><ele>854.0</ele><time>2026-03-22T11:18:54.289Z</time></trkpt><trkpt lat="44.3334116" lon="10.689343"><ele>852.0</ele><time>2026-03-22T11:18:55.283Z</time></trkpt><trkpt lat="44.3334107" lon="10.6891136"><ele>850.0</ele><time>2026-03-22T11:18:56.295Z</time></trkpt><trkpt lat="44.3334031" lon="10.6888993"><ele>850.0</ele><time>2026-03-22T11:18:57.292Z</time></trkpt><trkpt lat="44.3333953" lon="10.6886989"><ele>850.0</ele><time>2026-03-22T11:18:58.269Z</time></trkpt><trkpt lat="44.333399" lon="10.6885025"><ele>850.0</ele><time>2026-03-22T11:18:59.282Z</time></trkpt><trkpt lat="44.3334128" lon="10.6883138"><ele>850.0</ele><time>2026-03-22T11:19:00.271Z</time></trkpt><trkpt lat="44.333445" lon="10.6881226"><ele>849.5</ele><time>2026-03-22T11:19:01.28Z</time></trkpt><trkpt lat="44.3334966" lon="10.6879381"><ele>849.0</ele><time>2026-03-22T11:19:02.285Z</time></trkpt><trkpt lat="44.333567" lon="10.6877655"><ele>848.5</ele><time>2026-03-22T11:19:03.277Z</time></trkpt><trkpt lat="44.3336677" lon="10.6876164"><ele>848.0</ele><time>2026-03-22T11:19:04.276Z</time></trkpt><trkpt lat="44.3337711" lon="10.6874884"><ele>849.5</ele><time>2026-03-22T11:19:05.286Z</time></trkpt><trkpt lat="44.3338811" lon="10.6873997"><ele>851.0</ele><time>2026-03-22T11:19:06.288Z</time></trkpt><trkpt lat="44.3339704" lon="10.6872944"><ele>852.5</ele><time>2026-03-22T11:19:07.285Z</time></trkpt><trkpt lat="44.3340261" lon="10.6871572"><ele>854.0</ele><time>2026-03-22T11:19:08.274Z</time></trkpt><trkpt lat="44.3340489" lon="10.6870004"><ele>853.75</ele><time>2026-03-22T11:19:09.29Z</time></trkpt><trkpt lat="44.3340462" lon="10.6868463"><ele>853.5</ele><time>2026-03-22T11:19:10.282Z</time></trkpt><trkpt lat="44.3339802" lon="10.6867138"><ele>853.25</ele><time>2026-03-22T11:19:11.278Z</time></trkpt><trkpt lat="44.3338719" lon="10.6866185"><ele>853.0</ele><time>2026-03-22T11:19:12.292Z</time></trkpt><trkpt lat="44.3337414" lon="10.6865574"><ele>853.0</ele><time>2026-03-22T11:19:13.273Z</time></trkpt><trkpt lat="44.3336005" lon="10.6865202"><ele>853.0</ele><time>2026-03-22T11:19:14.288Z</time></trkpt><trkpt lat="44.3334602" lon="10.6864996"><ele>853.0</ele><time>2026-03-22T11:19:15.286Z</time></trkpt><trkpt lat="44.3333278" lon="10.686468"><ele>853.0</ele><time>2026-03-22T11:19:16.289Z</time></trkpt><trkpt lat="44.3332203" lon="10.686392"><ele>853.0</ele><time>2026-03-22T11:19:17.288Z</time></trkpt><trkpt lat="44.3331388" lon="10.6862859"><ele>853.0</ele><time>2026-03-22T11:19:18.28Z</time></trkpt><trkpt lat="44.3330878" lon="10.6861473"><ele>853.0</ele><time>2026-03-22T11:19:19.279Z</time></trkpt><trkpt lat="44.3330453" lon="10.6859783"><ele>853.0</ele><time>2026-03-22T11:19:20.27Z</time></trkpt><trkpt lat="44.3330285" lon="10.6857809"><ele>861.0</ele><time>2026-03-22T11:19:21.287Z</time></trkpt><trkpt lat="44.3330133" lon="10.6855783"><ele>869.0</ele><time>2026-03-22T11:19:22.285Z</time></trkpt><trkpt lat="44.3329809" lon="10.6853692"><ele>877.0</ele><time>2026-03-22T11:19:23.276Z</time></trkpt><trkpt lat="44.3329349" lon="10.6851515"><ele>877.0</ele><time>2026-03-22T11:19:24.285Z</time></trkpt><trkpt lat="44.3328872" lon="10.6849333"><ele>877.0</ele><time>2026-03-22T11:19:25.28Z</time></trkpt><trkpt lat="44.3328714" lon="10.6847168"><ele>877.0</ele><time>2026-03-22T11:19:26.291Z</time></trkpt><trkpt lat="44.3328686" lon="10.6845101"><ele>873.75</ele><time>2026-03-22T11:19:27.288Z</time></trkpt><trkpt lat="44.3328734" lon="10.684311"><ele>870.5</ele><time>2026-03-22T11:19:28.29Z</time></trkpt><trkpt lat="44.3328588" lon="10.6841422"><ele>867.25</ele><time>2026-03-22T11:19:29.282Z</time></trkpt><trkpt lat="44.332812" lon="10.6839991"><ele>864.0</ele><time>2026-03-22T11:19:30.287Z</time></trkpt><trkpt lat="44.3327277" lon="10.6838868"><ele>864.0</ele><time>2026-03-22T11:19:31.282Z</time></trkpt><trkpt lat="44.3325919" lon="10.6838293"><ele>864.0</ele><time>2026-03-22T11:19:32.275Z</time></trkpt><trkpt lat="44.3324673" lon="10.6837538"><ele>864.0</ele><time>2026-03-22T11:19:33.267Z</time></trkpt><trkpt lat="44.3323468" lon="10.6836383"><ele>864.0</ele><time>2026-03-22T11:19:34.28Z</time></trkpt><trkpt lat="44.3322532" lon="10.6834945"><ele>863.75</ele><time>2026-03-22T11:19:35.277Z</time></trkpt><trkpt lat="44.3321652" lon="10.6833499"><ele>863.5</ele><time>2026-03-22T11:19:36.269Z</time></trkpt><trkpt lat="44.3321081" lon="10.6831878"><ele>863.25</ele><time>2026-03-22T11:19:37.286Z</time></trkpt><trkpt lat="44.3320173" lon="10.6830431"><ele>863.0</ele><time>2026-03-22T11:19:38.28Z</time></trkpt><trkpt lat="44.3319198" lon="10.6829108"><ele>863.0</ele><time>2026-03-22T11:19:39.283Z</time></trkpt><trkpt lat="44.3317779" lon="10.682822"><ele>863.0</ele><time>2026-03-22T11:19:40.279Z</time></trkpt><trkpt lat="44.3316452" lon="10.6827385"><ele>863.0</ele><time>2026-03-22T11:19:41.274Z</time></trkpt><trkpt lat="44.3315281" lon="10.6826491"><ele>863.0</ele><time>2026-03-22T11:19:42.282Z</time></trkpt><trkpt lat="44.3314192" lon="10.6825443"><ele>864.0</ele><time>2026-03-22T11:19:43.287Z</time></trkpt><trkpt lat="44.3313321" lon="10.6824063"><ele>865.0</ele><time>2026-03-22T11:19:44.269Z</time></trkpt><trkpt lat="44.3312703" lon="10.6822412"><ele>866.0</ele><time>2026-03-22T11:19:45.286Z</time></trkpt><trkpt lat="44.3312172" lon="10.6820722"><ele>867.0</ele><time>2026-03-22T11:19:46.284Z</time></trkpt><trkpt lat="44.3311511" lon="10.681916"><ele>864.0</ele><time>2026-03-22T11:19:47.287Z</time></trkpt><trkpt lat="44.3310607" lon="10.6817846"><ele>861.0</ele><time>2026-03-22T11:19:48.286Z</time></trkpt><trkpt lat="44.3309647" lon="10.6816569"><ele>858.0</ele><time>2026-03-22T11:19:49.287Z</time></trkpt><trkpt lat="44.3308456" lon="10.6815866"><ele>855.0</ele><time>2026-03-22T11:19:50.285Z</time></trkpt><trkpt lat="44.3307294" lon="10.6815437"><ele>855.0</ele><time>2026-03-22T11:19:51.277Z</time></trkpt><trkpt lat="44.3306435" lon="10.6814707"><ele>855.0</ele><time>2026-03-22T11:19:52.281Z</time></trkpt><trkpt lat="44.3305907" lon="10.681365"><ele>855.0</ele><time>2026-03-22T11:19:53.284Z</time></trkpt><trkpt lat="44.3305435" lon="10.6812508"><ele>855.0</ele><time>2026-03-22T11:19:54.28Z</time></trkpt><trkpt lat="44.330551" lon="10.6811004"><ele>855.0</ele><time>2026-03-22T11:19:55.28Z</time></trkpt><trkpt lat="44.3305621" lon="10.6809498"><ele>853.25</ele><time>2026-03-22T11:19:56.283Z</time></trkpt><trkpt lat="44.3305695" lon="10.680788"><ele>851.5</ele><time>2026-03-22T11:19:57.29Z</time></trkpt><trkpt lat="44.330578" lon="10.6806286"><ele>849.75</ele><time>2026-03-22T11:19:58.27Z</time></trkpt><trkpt lat="44.3305808" lon="10.6804603"><ele>848.0</ele><time>2026-03-22T11:19:59.275Z</time></trkpt><trkpt lat="44.3305848" lon="10.6802933"><ele>847.0</ele><time>2026-03-22T11:20:00.269Z</time></trkpt><trkpt lat="44.3305725" lon="10.6801304"><ele>846.0</ele><time>2026-03-22T11:20:01.275Z</time></trkpt><trkpt lat="44.3305441" lon="10.6799841"><ele>845.0</ele><time>2026-03-22T11:20:02.287Z</time></trkpt><trkpt lat="44.3304994" lon="10.6798518"><ele>844.0</ele><time>2026-03-22T11:20:03.272Z</time></trkpt><trkpt lat="44.3304216" lon="10.6797348"><ele>843.0</ele><time>2026-03-22T11:20:04.277Z</time></trkpt><trkpt lat="44.3303257" lon="10.6796239"><ele>845.0</ele><time>2026-03-22T11:20:05.271Z</time></trkpt><trkpt lat="44.3302156" lon="10.6795202"><ele>847.0</ele><time>2026-03-22T11:20:06.288Z</time></trkpt><trkpt lat="44.3301031" lon="10.6794083"><ele>849.0</ele><time>2026-03-22T11:20:07.272Z</time></trkpt><trkpt lat="44.3299923" lon="10.6792898"><ele>851.0</ele><time>2026-03-22T11:20:08.272Z</time></trkpt><trkpt lat="44.3298807" lon="10.6791683"><ele>851.0</ele><time>2026-03-22T11:20:09.283Z</time></trkpt><trkpt lat="44.3297705" lon="10.6790442"><ele>851.0</ele><time>2026-03-22T11:20:10.287Z</time></trkpt><trkpt lat="44.3296576" lon="10.6789149"><ele>851.0</ele><time>2026-03-22T11:20:11.286Z</time></trkpt><trkpt lat="44.329552" lon="10.6787735"><ele>851.0</ele><time>2026-03-22T11:20:12.281Z</time></trkpt><trkpt lat="44.3294484" lon="10.6786218"><ele>852.0</ele><time>2026-03-22T11:20:13.274Z</time></trkpt><trkpt lat="44.3293653" lon="10.678442"><ele>853.0</ele><time>2026-03-22T11:20:14.28Z</time></trkpt><trkpt lat="44.3292817" lon="10.6782644"><ele>854.0</ele><time>2026-03-22T11:20:15.273Z</time></trkpt><trkpt lat="44.3291869" lon="10.6781028"><ele>854.0</ele><time>2026-03-22T11:20:16.282Z</time></trkpt><trkpt lat="44.3290806" lon="10.6779713"><ele>854.0</ele><time>2026-03-22T11:20:17.271Z</time></trkpt><trkpt lat="44.3289702" lon="10.6778684"><ele>854.0</ele><time>2026-03-22T11:20:18.286Z</time></trkpt><trkpt lat="44.328864" lon="10.6777756"><ele>854.0</ele><time>2026-03-22T11:20:19.279Z</time></trkpt><trkpt lat="44.3287744" lon="10.6776702"><ele>856.0</ele><time>2026-03-22T11:20:20.285Z</time></trkpt><trkpt lat="44.3287056" lon="10.6775446"><ele>858.0000000000001</ele><time>2026-03-22T11:20:21.283Z</time></trkpt><trkpt lat="44.3286639" lon="10.6774055"><ele>860.0000000000001</ele><time>2026-03-22T11:20:22.288Z</time></trkpt><trkpt lat="44.3286225" lon="10.6772669"><ele>862.0</ele><time>2026-03-22T11:20:23.284Z</time></trkpt><trkpt lat="44.3285909" lon="10.6771272"><ele>864.0</ele><time>2026-03-22T11:20:24.274Z</time></trkpt><trkpt lat="44.3285645" lon="10.6769933"><ele>862.0</ele><time>2026-03-22T11:20:25.28Z</time></trkpt><trkpt lat="44.3285259" lon="10.6768641"><ele>860.0000000000001</ele><time>2026-03-22T11:20:26.268Z</time></trkpt><trkpt lat="44.3284802" lon="10.6767355"><ele>858.0000000000001</ele><time>2026-03-22T11:20:27.274Z</time></trkpt><trkpt lat="44.3284329" lon="10.676605"><ele>856.0</ele><time>2026-03-22T11:20:28.275Z</time></trkpt><trkpt lat="44.328394" lon="10.6764675"><ele>854.0</ele><time>2026-03-22T11:20:29.285Z</time></trkpt><trkpt lat="44.3283742" lon="10.676316"><ele>854.0</ele><time>2026-03-22T11:20:30.296Z</time></trkpt><trkpt lat="44.3283465" lon="10.6761793"><ele>854.0000000000001</ele><time>2026-03-22T11:20:31.286Z</time></trkpt><trkpt lat="44.3283271" lon="10.6760512"><ele>854.0000000000001</ele><time>2026-03-22T11:20:32.27Z</time></trkpt><trkpt lat="44.3282652" lon="10.6759599"><ele>854.0</ele><time>2026-03-22T11:20:33.277Z</time></trkpt><trkpt lat="44.3281825" lon="10.675881"><ele>854.0</ele><time>2026-03-22T11:20:34.284Z</time></trkpt><trkpt lat="44.3280778" lon="10.6757989"><ele>856.25</ele><time>2026-03-22T11:20:35.275Z</time></trkpt><trkpt lat="44.3279695" lon="10.6757107"><ele>858.5</ele><time>2026-03-22T11:20:36.281Z</time></trkpt><trkpt lat="44.3278559" lon="10.6756189"><ele>860.75</ele><time>2026-03-22T11:20:37.274Z</time></trkpt><trkpt lat="44.3277388" lon="10.6755275"><ele>863.0</ele><time>2026-03-22T11:20:38.265Z</time></trkpt><trkpt lat="44.3276275" lon="10.675441"><ele>863.0</ele><time>2026-03-22T11:20:39.273Z</time></trkpt><trkpt lat="44.3275225" lon="10.6753482"><ele>863.0</ele><time>2026-03-22T11:20:40.281Z</time></trkpt><trkpt lat="44.3274241" lon="10.6752574"><ele>863.0</ele><time>2026-03-22T11:20:41.292Z</time></trkpt><trkpt lat="44.3273378" lon="10.6751585"><ele>863.0</ele><time>2026-03-22T11:20:42.275Z</time></trkpt><trkpt lat="44.3272704" lon="10.6750554"><ele>862.6666666666667</ele><time>2026-03-22T11:20:43.284Z</time></trkpt><trkpt lat="44.3272248" lon="10.6749419"><ele>862.3333333333334</ele><time>2026-03-22T11:20:44.283Z</time></trkpt><trkpt lat="44.3271829" lon="10.6748353"><ele>862.0</ele><time>2026-03-22T11:20:45.286Z</time></trkpt><trkpt lat="44.3271532" lon="10.6747379"><ele>861.6666666666667</ele><time>2026-03-22T11:20:46.272Z</time></trkpt><trkpt lat="44.3271454" lon="10.6746403"><ele>861.3333333333334</ele><time>2026-03-22T11:20:47.272Z</time></trkpt><trkpt lat="44.3271391" lon="10.6745348"><ele>861.0</ele><time>2026-03-22T11:20:48.288Z</time></trkpt><trkpt lat="44.3272065" lon="10.6744496"><ele>858.0</ele><time>2026-03-22T11:20:49.288Z</time></trkpt><trkpt lat="44.3273076" lon="10.6743775"><ele>855.0</ele><time>2026-03-22T11:20:50.269Z</time></trkpt><trkpt lat="44.3274332" lon="10.6743191"><ele>852.0</ele><time>2026-03-22T11:20:51.286Z</time></trkpt><trkpt lat="44.3275693" lon="10.6742615"><ele>849.0</ele><time>2026-03-22T11:20:52.285Z</time></trkpt><trkpt lat="44.3277254" lon="10.6742451"><ele>849.0</ele><time>2026-03-22T11:20:53.268Z</time></trkpt><trkpt lat="44.3278873" lon="10.6742461"><ele>849.0</ele><time>2026-03-22T11:20:54.272Z</time></trkpt><trkpt lat="44.328059" lon="10.6743035"><ele>849.0</ele><time>2026-03-22T11:20:55.281Z</time></trkpt><trkpt lat="44.3282093" lon="10.6743561"><ele>851.0</ele><time>2026-03-22T11:20:56.278Z</time></trkpt><trkpt lat="44.3283439" lon="10.6744042"><ele>853.0</ele><time>2026-03-22T11:20:57.278Z</time></trkpt><trkpt lat="44.3284662" lon="10.674443"><ele>855.0</ele><time>2026-03-22T11:20:58.273Z</time></trkpt><trkpt lat="44.3285752" lon="10.6744725"><ele>857.0</ele><time>2026-03-22T11:20:59.285Z</time></trkpt><trkpt lat="44.3286651" lon="10.6744689"><ele>857.0000000000001</ele><time>2026-03-22T11:21:00.275Z</time></trkpt><trkpt lat="44.3287242" lon="10.6744011"><ele>857.0</ele><time>2026-03-22T11:21:01.288Z</time></trkpt><trkpt lat="44.3287467" lon="10.6743032"><ele>857.0</ele><time>2026-03-22T11:21:02.284Z</time></trkpt><trkpt lat="44.3287113" lon="10.6742036"><ele>857.0</ele><time>2026-03-22T11:21:03.284Z</time></trkpt><trkpt lat="44.3286403" lon="10.6741368"><ele>857.0000000000001</ele><time>2026-03-22T11:21:04.288Z</time></trkpt><trkpt lat="44.328545" lon="10.6740857"><ele>857.0</ele><time>2026-03-22T11:21:05.268Z</time></trkpt><trkpt lat="44.3284263" lon="10.6740341"><ele>857.0</ele><time>2026-03-22T11:21:06.285Z</time></trkpt><trkpt lat="44.3282924" lon="10.673975"><ele>857.0</ele><time>2026-03-22T11:21:07.288Z</time></trkpt><trkpt lat="44.3281424" lon="10.67391"><ele>857.0</ele><time>2026-03-22T11:21:08.275Z</time></trkpt><trkpt lat="44.3279794" lon="10.6738381"><ele>854.3333333333334</ele><time>2026-03-22T11:21:09.276Z</time></trkpt><trkpt lat="44.3278058" lon="10.6737599"><ele>851.6666666666667</ele><time>2026-03-22T11:21:10.271Z</time></trkpt><trkpt lat="44.3276272" lon="10.6736788"><ele>849.0</ele><time>2026-03-22T11:21:11.275Z</time></trkpt><trkpt lat="44.3274478" lon="10.6736049"><ele>854.6666666666667</ele><time>2026-03-22T11:21:12.278Z</time></trkpt><trkpt lat="44.3272797" lon="10.6735387"><ele>860.3333333333334</ele><time>2026-03-22T11:21:13.285Z</time></trkpt><trkpt lat="44.3271187" lon="10.6735298"><ele>866.0</ele><time>2026-03-22T11:21:14.283Z</time></trkpt><trkpt lat="44.3269751" lon="10.6735289"><ele>866.0</ele><time>2026-03-22T11:21:15.278Z</time></trkpt><trkpt lat="44.3268335" lon="10.6735006"><ele>866.0</ele><time>2026-03-22T11:21:16.28Z</time></trkpt><trkpt lat="44.3266979" lon="10.6734277"><ele>866.0</ele><time>2026-03-22T11:21:17.28Z</time></trkpt><trkpt lat="44.3265639" lon="10.6733424"><ele>866.0</ele><time>2026-03-22T11:21:18.295Z</time></trkpt><trkpt lat="44.326423" lon="10.6732902"><ele>866.25</ele><time>2026-03-22T11:21:19.277Z</time></trkpt><trkpt lat="44.3262733" lon="10.6732886"><ele>866.5</ele><time>2026-03-22T11:21:20.272Z</time></trkpt><trkpt lat="44.3261287" lon="10.6732952"><ele>866.75</ele><time>2026-03-22T11:21:21.27Z</time></trkpt><trkpt lat="44.3259804" lon="10.6733117"><ele>867.0</ele><time>2026-03-22T11:21:22.274Z</time></trkpt><trkpt lat="44.3258285" lon="10.6733023"><ele>867.0</ele><time>2026-03-22T11:21:23.281Z</time></trkpt><trkpt lat="44.3256835" lon="10.6732859"><ele>867.0</ele><time>2026-03-22T11:21:24.286Z</time></trkpt><trkpt lat="44.3255505" lon="10.6732532"><ele>867.0</ele><time>2026-03-22T11:21:25.286Z</time></trkpt><trkpt lat="44.3254263" lon="10.6731914"><ele>867.0</ele><time>2026-03-22T11:21:26.281Z</time></trkpt><trkpt lat="44.3253029" lon="10.6731164"><ele>866.0</ele><time>2026-03-22T11:21:27.276Z</time></trkpt><trkpt lat="44.3252061" lon="10.67297"><ele>865.0</ele><time>2026-03-22T11:21:28.275Z</time></trkpt><trkpt lat="44.3251075" lon="10.6728285"><ele>864.0</ele><time>2026-03-22T11:21:29.28Z</time></trkpt><trkpt lat="44.3249928" lon="10.6727311"><ele>863.0</ele><time>2026-03-22T11:21:30.286Z</time></trkpt><trkpt lat="44.3248806" lon="10.6726567"><ele>863.5</ele><time>2026-03-22T11:21:31.281Z</time></trkpt><trkpt lat="44.3247874" lon="10.6725655"><ele>864.0</ele><time>2026-03-22T11:21:32.279Z</time></trkpt><trkpt lat="44.3247139" lon="10.6724431"><ele>864.5</ele><time>2026-03-22T11:21:33.283Z</time></trkpt><trkpt lat="44.3246697" lon="10.6722878"><ele>865.0</ele><time>2026-03-22T11:21:34.287Z</time></trkpt><trkpt lat="44.3246204" lon="10.672119"><ele>867.25</ele><time>2026-03-22T11:21:35.274Z</time></trkpt><trkpt lat="44.3245984" lon="10.6719195"><ele>869.5</ele><time>2026-03-22T11:21:36.284Z</time></trkpt><trkpt lat="44.324568" lon="10.6717121"><ele>871.75</ele><time>2026-03-22T11:21:37.272Z</time></trkpt><trkpt lat="44.3245319" lon="10.6715096"><ele>874.0</ele><time>2026-03-22T11:21:38.272Z</time></trkpt><trkpt lat="44.324457" lon="10.6713254"><ele>874.0</ele><time>2026-03-22T11:21:39.273Z</time></trkpt><trkpt lat="44.3243389" lon="10.6711777"><ele>874.0</ele><time>2026-03-22T11:21:40.28Z</time></trkpt><trkpt lat="44.324213" lon="10.6710413"><ele>874.0</ele><time>2026-03-22T11:21:41.271Z</time></trkpt><trkpt lat="44.3240604" lon="10.6709456"><ele>874.6666666666666</ele><time>2026-03-22T11:21:42.286Z</time></trkpt><trkpt lat="44.3239138" lon="10.6708356"><ele>875.3333333333333</ele><time>2026-03-22T11:21:43.292Z</time></trkpt><trkpt lat="44.3237749" lon="10.6707106"><ele>876.0</ele><time>2026-03-22T11:21:44.295Z</time></trkpt><trkpt lat="44.3236482" lon="10.6705655"><ele>876.0</ele><time>2026-03-22T11:21:45.272Z</time></trkpt><trkpt lat="44.3235298" lon="10.6704012"><ele>876.0</ele><time>2026-03-22T11:21:46.289Z</time></trkpt><trkpt lat="44.3234145" lon="10.6702281"><ele>876.0</ele><time>2026-03-22T11:21:47.271Z</time></trkpt><trkpt lat="44.3233018" lon="10.670052"><ele>876.0</ele><time>2026-03-22T11:21:48.276Z</time></trkpt><trkpt lat="44.3231951" lon="10.6698723"><ele>876.0</ele><time>2026-03-22T11:21:49.286Z</time></trkpt><trkpt lat="44.3230941" lon="10.6696929"><ele>876.0</ele><time>2026-03-22T11:21:50.274Z</time></trkpt><trkpt lat="44.3229974" lon="10.669511"><ele>878.6666666666667</ele><time>2026-03-22T11:21:51.289Z</time></trkpt><trkpt lat="44.3229115" lon="10.6693238"><ele>881.3333333333334</ele><time>2026-03-22T11:21:52.268Z</time></trkpt><trkpt lat="44.3228385" lon="10.6691265"><ele>884.0</ele><time>2026-03-22T11:21:53.287Z</time></trkpt><trkpt lat="44.3227764" lon="10.6689209"><ele>884.0</ele><time>2026-03-22T11:21:54.283Z</time></trkpt><trkpt lat="44.3227094" lon="10.6687186"><ele>884.0</ele><time>2026-03-22T11:21:55.284Z</time></trkpt><trkpt lat="44.3226272" lon="10.6685198"><ele>884.0</ele><time>2026-03-22T11:21:56.288Z</time></trkpt><trkpt lat="44.3225251" lon="10.6683316"><ele>883.3333333333334</ele><time>2026-03-22T11:21:57.283Z</time></trkpt><trkpt lat="44.3224086" lon="10.6681501"><ele>882.6666666666667</ele><time>2026-03-22T11:21:58.273Z</time></trkpt><trkpt lat="44.3222877" lon="10.6679724"><ele>882.0</ele><time>2026-03-22T11:21:59.287Z</time></trkpt><trkpt lat="44.322166" lon="10.6678101"><ele>887.3333333333333</ele><time>2026-03-22T11:22:00.286Z</time></trkpt><trkpt lat="44.3220339" lon="10.6676728"><ele>892.6666666666666</ele><time>2026-03-22T11:22:01.274Z</time></trkpt><trkpt lat="44.3218866" lon="10.6675769"><ele>898.0</ele><time>2026-03-22T11:22:02.284Z</time></trkpt><trkpt lat="44.3217308" lon="10.667513"><ele>898.0</ele><time>2026-03-22T11:22:03.282Z</time></trkpt><trkpt lat="44.3215803" lon="10.6674351"><ele>898.0</ele><time>2026-03-22T11:22:04.273Z</time></trkpt><trkpt lat="44.3214416" lon="10.6673213"><ele>898.0</ele><time>2026-03-22T11:22:05.276Z</time></trkpt><trkpt lat="44.3213043" lon="10.6671932"><ele>895.3333333333333</ele><time>2026-03-22T11:22:06.27Z</time></trkpt><trkpt lat="44.3211627" lon="10.6670672"><ele>892.6666666666667</ele><time>2026-03-22T11:22:07.279Z</time></trkpt><trkpt lat="44.3210226" lon="10.6669398"><ele>890.0</ele><time>2026-03-22T11:22:08.275Z</time></trkpt><trkpt lat="44.3208879" lon="10.6668165"><ele>892.0</ele><time>2026-03-22T11:22:09.283Z</time></trkpt><trkpt lat="44.3207486" lon="10.6667195"><ele>894.0</ele><time>2026-03-22T11:22:10.273Z</time></trkpt><trkpt lat="44.3206165" lon="10.6666426"><ele>896.0</ele><time>2026-03-22T11:22:11.287Z</time></trkpt><trkpt lat="44.3204981" lon="10.6665628"><ele>898.0</ele><time>2026-03-22T11:22:12.271Z</time></trkpt><trkpt lat="44.3203977" lon="10.666454"><ele>898.0</ele><time>2026-03-22T11:22:13.287Z</time></trkpt><trkpt lat="44.3203159" lon="10.6663066"><ele>898.0</ele><time>2026-03-22T11:22:14.276Z</time></trkpt><trkpt lat="44.3202474" lon="10.6661306"><ele>898.0</ele><time>2026-03-22T11:22:15.268Z</time></trkpt><trkpt lat="44.320186" lon="10.6659344"><ele>898.0</ele><time>2026-03-22T11:22:16.28Z</time></trkpt><trkpt lat="44.3201258" lon="10.6657273"><ele>899.3333333333333</ele><time>2026-03-22T11:22:17.282Z</time></trkpt><trkpt lat="44.320061" lon="10.6655137"><ele>900.6666666666667</ele><time>2026-03-22T11:22:18.273Z</time></trkpt><trkpt lat="44.3200005" lon="10.6652994"><ele>902.0</ele><time>2026-03-22T11:22:19.287Z</time></trkpt><trkpt lat="44.3199452" lon="10.6650981"><ele>901.6666666666667</ele><time>2026-03-22T11:22:20.287Z</time></trkpt><trkpt lat="44.3198821" lon="10.6649129"><ele>901.3333333333333</ele><time>2026-03-22T11:22:21.274Z</time></trkpt><trkpt lat="44.3197747" lon="10.664748"><ele>901.0</ele><time>2026-03-22T11:22:22.277Z</time></trkpt><trkpt lat="44.3196502" lon="10.6646057"><ele>901.0</ele><time>2026-03-22T11:22:23.285Z</time></trkpt><trkpt lat="44.3195268" lon="10.6644644"><ele>901.0</ele><time>2026-03-22T11:22:24.274Z</time></trkpt><trkpt lat="44.3194105" lon="10.6643023"><ele>901.0</ele><time>2026-03-22T11:22:25.29Z</time></trkpt><trkpt lat="44.319316" lon="10.6641214"><ele>907.0</ele><time>2026-03-22T11:22:26.265Z</time></trkpt><trkpt lat="44.3192218" lon="10.6639391"><ele>913.0</ele><time>2026-03-22T11:22:27.287Z</time></trkpt><trkpt lat="44.3191091" lon="10.663783"><ele>919.0</ele><time>2026-03-22T11:22:28.271Z</time></trkpt><trkpt lat="44.3189805" lon="10.6636607"><ele>922.5</ele><time>2026-03-22T11:22:29.27Z</time></trkpt><trkpt lat="44.3188374" lon="10.6635897"><ele>926.0</ele><time>2026-03-22T11:22:30.278Z</time></trkpt><trkpt lat="44.3186918" lon="10.6635596"><ele>929.5</ele><time>2026-03-22T11:22:31.268Z</time></trkpt><trkpt lat="44.3185458" lon="10.6635381"><ele>933.0</ele><time>2026-03-22T11:22:32.289Z</time></trkpt><trkpt lat="44.3184068" lon="10.6634964"><ele>933.0</ele><time>2026-03-22T11:22:33.27Z</time></trkpt><trkpt lat="44.3182651" lon="10.6634294"><ele>933.0</ele><time>2026-03-22T11:22:34.276Z</time></trkpt><trkpt lat="44.3181244" lon="10.6633286"><ele>933.0</ele><time>2026-03-22T11:22:35.28Z</time></trkpt><trkpt lat="44.3179804" lon="10.6632283"><ele>929.25</ele><time>2026-03-22T11:22:36.287Z</time></trkpt><trkpt lat="44.317841" lon="10.6631391"><ele>925.5</ele><time>2026-03-22T11:22:37.284Z</time></trkpt><trkpt lat="44.3177131" lon="10.6630598"><ele>921.75</ele><time>2026-03-22T11:22:38.293Z</time></trkpt><trkpt lat="44.3176011" lon="10.6629809"><ele>918.0</ele><time>2026-03-22T11:22:39.281Z</time></trkpt><trkpt lat="44.3175036" lon="10.6628946"><ele>922.75</ele><time>2026-03-22T11:22:40.283Z</time></trkpt><trkpt lat="44.3174401" lon="10.6627768"><ele>927.5</ele><time>2026-03-22T11:22:41.28Z</time></trkpt><trkpt lat="44.3173991" lon="10.6626242"><ele>932.25</ele><time>2026-03-22T11:22:42.274Z</time></trkpt><trkpt lat="44.3173696" lon="10.6624433"><ele>937.0</ele><time>2026-03-22T11:22:43.285Z</time></trkpt><trkpt lat="44.3173422" lon="10.6622495"><ele>937.0</ele><time>2026-03-22T11:22:44.278Z</time></trkpt><trkpt lat="44.3172996" lon="10.6620586"><ele>937.0</ele><time>2026-03-22T11:22:45.29Z</time></trkpt><trkpt lat="44.317241" lon="10.6618796"><ele>937.0</ele><time>2026-03-22T11:22:46.282Z</time></trkpt><trkpt lat="44.3171674" lon="10.6617152"><ele>937.0</ele><time>2026-03-22T11:22:47.274Z</time></trkpt><trkpt lat="44.3170787" lon="10.661573"><ele>934.25</ele><time>2026-03-22T11:22:48.285Z</time></trkpt><trkpt lat="44.316978" lon="10.6614581"><ele>931.5</ele><time>2026-03-22T11:22:49.283Z</time></trkpt><trkpt lat="44.3168701" lon="10.6613627"><ele>928.75</ele><time>2026-03-22T11:22:50.288Z</time></trkpt><trkpt lat="44.3167669" lon="10.6612723"><ele>926.0</ele><time>2026-03-22T11:22:51.276Z</time></trkpt><trkpt lat="44.3166716" lon="10.6611719"><ele>927.75</ele><time>2026-03-22T11:22:52.276Z</time></trkpt><trkpt lat="44.3165865" lon="10.6610607"><ele>929.5</ele><time>2026-03-22T11:22:53.288Z</time></trkpt><trkpt lat="44.3165063" lon="10.6609476"><ele>931.25</ele><time>2026-03-22T11:22:54.291Z</time></trkpt><trkpt lat="44.3164202" lon="10.6608386"><ele>933.0</ele><time>2026-03-22T11:22:55.281Z</time></trkpt><trkpt lat="44.3163263" lon="10.6607354"><ele>934.5</ele><time>2026-03-22T11:22:56.286Z</time></trkpt><trkpt lat="44.3162119" lon="10.6606412"><ele>936.0</ele><time>2026-03-22T11:22:57.285Z</time></trkpt><trkpt lat="44.3160908" lon="10.6605456"><ele>937.5</ele><time>2026-03-22T11:22:58.286Z</time></trkpt><trkpt lat="44.3159723" lon="10.6604515"><ele>939.0</ele><time>2026-03-22T11:22:59.285Z</time></trkpt><trkpt lat="44.3158564" lon="10.6603628"><ele>935.75</ele><time>2026-03-22T11:23:00.277Z</time></trkpt><trkpt lat="44.3157491" lon="10.6602618"><ele>932.5</ele><time>2026-03-22T11:23:01.287Z</time></trkpt><trkpt lat="44.3156609" lon="10.660139"><ele>929.25</ele><time>2026-03-22T11:23:02.291Z</time></trkpt><trkpt lat="44.3155962" lon="10.6599925"><ele>926.0</ele><time>2026-03-22T11:23:03.282Z</time></trkpt><trkpt lat="44.3155535" lon="10.6598298"><ele>933.5</ele><time>2026-03-22T11:23:04.286Z</time></trkpt><trkpt lat="44.3155381" lon="10.6596451"><ele>941.0</ele><time>2026-03-22T11:23:05.286Z</time></trkpt><trkpt lat="44.3155411" lon="10.6594408"><ele>948.5</ele><time>2026-03-22T11:23:06.265Z</time></trkpt><trkpt lat="44.3155464" lon="10.6592292"><ele>956.0</ele><time>2026-03-22T11:23:07.281Z</time></trkpt><trkpt lat="44.3155611" lon="10.6590226"><ele>956.0</ele><time>2026-03-22T11:23:08.282Z</time></trkpt><trkpt lat="44.3155663" lon="10.6588229"><ele>956.0</ele><time>2026-03-22T11:23:09.268Z</time></trkpt><trkpt lat="44.3155654" lon="10.6586263"><ele>956.0</ele><time>2026-03-22T11:23:10.273Z</time></trkpt><trkpt lat="44.3155611" lon="10.6584308"><ele>956.0</ele><time>2026-03-22T11:23:11.292Z</time></trkpt><trkpt lat="44.3155489" lon="10.6582426"><ele>956.0</ele><time>2026-03-22T11:23:12.286Z</time></trkpt><trkpt lat="44.3155193" lon="10.6580456"><ele>956.0</ele><time>2026-03-22T11:23:13.292Z</time></trkpt><trkpt lat="44.3154966" lon="10.6578523"><ele>956.0</ele><time>2026-03-22T11:23:14.281Z</time></trkpt><trkpt lat="44.3154886" lon="10.657656"><ele>956.0</ele><time>2026-03-22T11:23:15.276Z</time></trkpt><trkpt lat="44.3154927" lon="10.6574448"><ele>956.0</ele><time>2026-03-22T11:23:16.274Z</time></trkpt><trkpt lat="44.3155342" lon="10.6572169"><ele>956.0</ele><time>2026-03-22T11:23:17.273Z</time></trkpt><trkpt lat="44.315584" lon="10.6569711"><ele>956.0</ele><time>2026-03-22T11:23:18.282Z</time></trkpt><trkpt lat="44.3156408" lon="10.656716"><ele>945.0</ele><time>2026-03-22T11:23:19.279Z</time></trkpt><trkpt lat="44.3157008" lon="10.6564563"><ele>934.0</ele><time>2026-03-22T11:23:20.278Z</time></trkpt><trkpt lat="44.3157567" lon="10.6562053"><ele>923.0</ele><time>2026-03-22T11:23:21.278Z</time></trkpt><trkpt lat="44.3158022" lon="10.6559649"><ele>923.0</ele><time>2026-03-22T11:23:22.274Z</time></trkpt><trkpt lat="44.3158457" lon="10.655732"><ele>923.0</ele><time>2026-03-22T11:23:23.283Z</time></trkpt><trkpt lat="44.3158834" lon="10.6555152"><ele>923.0</ele><time>2026-03-22T11:23:24.279Z</time></trkpt><trkpt lat="44.3159103" lon="10.6553094"><ele>924.0</ele><time>2026-03-22T11:23:25.266Z</time></trkpt><trkpt lat="44.3159383" lon="10.6551096"><ele>925.0</ele><time>2026-03-22T11:23:26.28Z</time></trkpt><trkpt lat="44.3159697" lon="10.6549209"><ele>926.0</ele><time>2026-03-22T11:23:27.274Z</time></trkpt><trkpt lat="44.316017" lon="10.6547281"><ele>927.0</ele><time>2026-03-22T11:23:28.286Z</time></trkpt><trkpt lat="44.3160708" lon="10.6545407"><ele>928.5</ele><time>2026-03-22T11:23:29.282Z</time></trkpt><trkpt lat="44.3161253" lon="10.6543627"><ele>930.0</ele><time>2026-03-22T11:23:30.271Z</time></trkpt><trkpt lat="44.316206" lon="10.6542022"><ele>931.5</ele><time>2026-03-22T11:23:31.278Z</time></trkpt><trkpt lat="44.3162994" lon="10.6540571"><ele>933.0</ele><time>2026-03-22T11:23:32.282Z</time></trkpt><trkpt lat="44.3163987" lon="10.6539181"><ele>925.0</ele><time>2026-03-22T11:23:33.27Z</time></trkpt><trkpt lat="44.3164926" lon="10.6537701"><ele>917.0</ele><time>2026-03-22T11:23:34.278Z</time></trkpt><trkpt lat="44.316575" lon="10.6536252"><ele>909.0</ele><time>2026-03-22T11:23:35.287Z</time></trkpt><trkpt lat="44.3166362" lon="10.6534814"><ele>901.0</ele><time>2026-03-22T11:23:36.282Z</time></trkpt><trkpt lat="44.3166516" lon="10.6533387"><ele>901.0</ele><time>2026-03-22T11:23:37.284Z</time></trkpt><trkpt lat="44.3166293" lon="10.6532021"><ele>901.0</ele><time>2026-03-22T11:23:38.282Z</time></trkpt><trkpt lat="44.3165612" lon="10.6530808"><ele>901.0</ele><time>2026-03-22T11:23:39.286Z</time></trkpt><trkpt lat="44.316461" lon="10.652978"><ele>901.0</ele><time>2026-03-22T11:23:40.288Z</time></trkpt><trkpt lat="44.316345" lon="10.6529178"><ele>900.75</ele><time>2026-03-22T11:23:41.269Z</time></trkpt><trkpt lat="44.3162216" lon="10.6528717"><ele>900.5</ele><time>2026-03-22T11:23:42.278Z</time></trkpt><trkpt lat="44.316087" lon="10.6528318"><ele>900.25</ele><time>2026-03-22T11:23:43.279Z</time></trkpt><trkpt lat="44.3159471" lon="10.6527872"><ele>900.0</ele><time>2026-03-22T11:23:44.282Z</time></trkpt><trkpt lat="44.3158035" lon="10.6527367"><ele>900.0</ele><time>2026-03-22T11:23:45.285Z</time></trkpt><trkpt lat="44.3156623" lon="10.6526782"><ele>900.0</ele><time>2026-03-22T11:23:46.278Z</time></trkpt><trkpt lat="44.3155225" lon="10.6526369"><ele>900.0</ele><time>2026-03-22T11:23:47.285Z</time></trkpt><trkpt lat="44.315393" lon="10.6526163"><ele>900.0</ele><time>2026-03-22T11:23:48.274Z</time></trkpt><trkpt lat="44.3152668" lon="10.6526336"><ele>900.75</ele><time>2026-03-22T11:23:49.274Z</time></trkpt><trkpt lat="44.3151456" lon="10.6526835"><ele>901.5</ele><time>2026-03-22T11:23:50.274Z</time></trkpt><trkpt lat="44.31503" lon="10.652728"><ele>902.25</ele><time>2026-03-22T11:23:51.278Z</time></trkpt><trkpt lat="44.3149216" lon="10.6527392"><ele>903.0</ele><time>2026-03-22T11:23:52.29Z</time></trkpt><trkpt lat="44.314824" lon="10.6527064"><ele>903.0</ele><time>2026-03-22T11:23:53.272Z</time></trkpt><trkpt lat="44.3147458" lon="10.6526095"><ele>903.0</ele><time>2026-03-22T11:23:54.289Z</time></trkpt><trkpt lat="44.3146794" lon="10.6524747"><ele>903.0</ele><time>2026-03-22T11:23:55.281Z</time></trkpt><trkpt lat="44.3146374" lon="10.6523105"><ele>903.0</ele><time>2026-03-22T11:23:56.288Z</time></trkpt><trkpt lat="44.3145854" lon="10.6521443"><ele>902.5</ele><time>2026-03-22T11:23:57.283Z</time></trkpt><trkpt lat="44.3145138" lon="10.6519829"><ele>902.0</ele><time>2026-03-22T11:23:58.278Z</time></trkpt><trkpt lat="44.314423" lon="10.6518263"><ele>901.5</ele><time>2026-03-22T11:23:59.278Z</time></trkpt><trkpt lat="44.3143242" lon="10.6516749"><ele>901.0</ele><time>2026-03-22T11:24:00.274Z</time></trkpt><trkpt lat="44.3142301" lon="10.6515287"><ele>901.0</ele><time>2026-03-22T11:24:01.283Z</time></trkpt><trkpt lat="44.314151" lon="10.6513838"><ele>901.0</ele><time>2026-03-22T11:24:02.269Z</time></trkpt><trkpt lat="44.3140911" lon="10.6512194"><ele>901.0</ele><time>2026-03-22T11:24:03.28Z</time></trkpt><trkpt lat="44.3140684" lon="10.6510275"><ele>901.0</ele><time>2026-03-22T11:24:04.287Z</time></trkpt><trkpt lat="44.314061" lon="10.65082"><ele>898.3333333333333</ele><time>2026-03-22T11:24:05.267Z</time></trkpt><trkpt lat="44.3140768" lon="10.6505915"><ele>895.6666666666667</ele><time>2026-03-22T11:24:06.29Z</time></trkpt><trkpt lat="44.3140933" lon="10.650363"><ele>893.0</ele><time>2026-03-22T11:24:07.278Z</time></trkpt><trkpt lat="44.3141094" lon="10.6501267"><ele>892.3333333333334</ele><time>2026-03-22T11:24:08.287Z</time></trkpt><trkpt lat="44.314119" lon="10.6498962"><ele>891.6666666666667</ele><time>2026-03-22T11:24:09.288Z</time></trkpt><trkpt lat="44.3141303" lon="10.6496764"><ele>891.0</ele><time>2026-03-22T11:24:10.283Z</time></trkpt><trkpt lat="44.3141589" lon="10.6494731"><ele>890.5999999999999</ele><time>2026-03-22T11:24:11.271Z</time></trkpt><trkpt lat="44.3141934" lon="10.6492856"><ele>890.1999999999999</ele><time>2026-03-22T11:24:12.266Z</time></trkpt><trkpt lat="44.3142105" lon="10.6491248"><ele>889.8000000000001</ele><time>2026-03-22T11:24:13.284Z</time></trkpt><trkpt lat="44.3142071" lon="10.6489918"><ele>889.4000000000001</ele><time>2026-03-22T11:24:14.282Z</time></trkpt><trkpt lat="44.3141767" lon="10.6488787"><ele>889.0</ele><time>2026-03-22T11:24:15.287Z</time></trkpt><trkpt lat="44.3140879" lon="10.6488004"><ele>889.0</ele><time>2026-03-22T11:24:16.267Z</time></trkpt><trkpt lat="44.3139622" lon="10.6487585"><ele>889.0</ele><time>2026-03-22T11:24:17.287Z</time></trkpt><trkpt lat="44.3138378" lon="10.6487179"><ele>889.0</ele><time>2026-03-22T11:24:18.282Z</time></trkpt><trkpt lat="44.3137221" lon="10.6486491"><ele>889.0</ele><time>2026-03-22T11:24:19.264Z</time></trkpt><trkpt lat="44.3136253" lon="10.6485403"><ele>888.5</ele><time>2026-03-22T11:24:20.285Z</time></trkpt><trkpt lat="44.3135437" lon="10.6484259"><ele>888.0</ele><time>2026-03-22T11:24:21.276Z</time></trkpt><trkpt lat="44.3134567" lon="10.6483285"><ele>887.5</ele><time>2026-03-22T11:24:22.274Z</time></trkpt><trkpt lat="44.3133496" lon="10.6482623"><ele>887.0</ele><time>2026-03-22T11:24:23.285Z</time></trkpt><trkpt lat="44.3132221" lon="10.6482393"><ele>887.0</ele><time>2026-03-22T11:24:24.278Z</time></trkpt><trkpt lat="44.3130911" lon="10.6482091"><ele>887.0</ele><time>2026-03-22T11:24:25.288Z</time></trkpt><trkpt lat="44.3129549" lon="10.6481537"><ele>887.0</ele><time>2026-03-22T11:24:26.288Z</time></trkpt><trkpt lat="44.312822" lon="10.6480685"><ele>887.0</ele><time>2026-03-22T11:24:27.295Z</time></trkpt><trkpt lat="44.3127186" lon="10.6479502"><ele>886.5</ele><time>2026-03-22T11:24:28.284Z</time></trkpt><trkpt lat="44.3126451" lon="10.647811"><ele>886.0</ele><time>2026-03-22T11:24:29.288Z</time></trkpt><trkpt lat="44.3125982" lon="10.6476434"><ele>885.5</ele><time>2026-03-22T11:24:30.274Z</time></trkpt><trkpt lat="44.3125769" lon="10.6474644"><ele>885.0</ele><time>2026-03-22T11:24:31.29Z</time></trkpt><trkpt lat="44.312547" lon="10.6472973"><ele>885.0</ele><time>2026-03-22T11:24:32.274Z</time></trkpt><trkpt lat="44.3124957" lon="10.6471561"><ele>885.0</ele><time>2026-03-22T11:24:33.276Z</time></trkpt><trkpt lat="44.312424" lon="10.6470323"><ele>885.0</ele><time>2026-03-22T11:24:34.294Z</time></trkpt><trkpt lat="44.3123166" lon="10.6469542"><ele>885.0</ele><time>2026-03-22T11:24:35.272Z</time></trkpt><trkpt lat="44.3122037" lon="10.6468822"><ele>885.25</ele><time>2026-03-22T11:24:36.28Z</time></trkpt><trkpt lat="44.3120982" lon="10.6468037"><ele>885.5</ele><time>2026-03-22T11:24:37.286Z</time></trkpt><trkpt lat="44.3120098" lon="10.6467012"><ele>885.75</ele><time>2026-03-22T11:24:38.277Z</time></trkpt><trkpt lat="44.3119345" lon="10.6465713"><ele>886.0</ele><time>2026-03-22T11:24:39.29Z</time></trkpt><trkpt lat="44.3118659" lon="10.6464234"><ele>886.0</ele><time>2026-03-22T11:24:40.273Z</time></trkpt><trkpt lat="44.3117952" lon="10.646265"><ele>886.0</ele><time>2026-03-22T11:24:41.29Z</time></trkpt><trkpt lat="44.3117217" lon="10.6461036"><ele>886.0</ele><time>2026-03-22T11:24:42.286Z</time></trkpt><trkpt lat="44.3116448" lon="10.6459364"><ele>886.0</ele><time>2026-03-22T11:24:43.283Z</time></trkpt><trkpt lat="44.3115662" lon="10.6457653"><ele>885.75</ele><time>2026-03-22T11:24:44.279Z</time></trkpt><trkpt lat="44.3114877" lon="10.6455954"><ele>885.5</ele><time>2026-03-22T11:24:45.27Z</time></trkpt><trkpt lat="44.3114074" lon="10.6454339"><ele>885.25</ele><time>2026-03-22T11:24:46.27Z</time></trkpt><trkpt lat="44.3113274" lon="10.6452831"><ele>885.0</ele><time>2026-03-22T11:24:47.301Z</time></trkpt><trkpt lat="44.311242" lon="10.6451447"><ele>885.0</ele><time>2026-03-22T11:24:48.289Z</time></trkpt><trkpt lat="44.3111461" lon="10.6450094"><ele>885.0</ele><time>2026-03-22T11:24:49.291Z</time></trkpt><trkpt lat="44.3110359" lon="10.64488"><ele>885.0</ele><time>2026-03-22T11:24:50.274Z</time></trkpt><trkpt lat="44.3109166" lon="10.6447488"><ele>885.0</ele><time>2026-03-22T11:24:51.288Z</time></trkpt><trkpt lat="44.3108024" lon="10.6446131"><ele>885.0</ele><time>2026-03-22T11:24:52.291Z</time></trkpt><trkpt lat="44.3106999" lon="10.6444776"><ele>885.0</ele><time>2026-03-22T11:24:53.274Z</time></trkpt><trkpt lat="44.3106093" lon="10.6443447"><ele>885.0</ele><time>2026-03-22T11:24:54.29Z</time></trkpt><trkpt lat="44.3105276" lon="10.6442162"><ele>885.0</ele><time>2026-03-22T11:24:55.284Z</time></trkpt><trkpt lat="44.3104488" lon="10.6440879"><ele>884.0</ele><time>2026-03-22T11:24:56.292Z</time></trkpt><trkpt lat="44.3103697" lon="10.6439598"><ele>883.0</ele><time>2026-03-22T11:24:57.29Z</time></trkpt><trkpt lat="44.310293" lon="10.6438258"><ele>882.0</ele><time>2026-03-22T11:24:58.277Z</time></trkpt><trkpt lat="44.3102219" lon="10.6436811"><ele>881.0</ele><time>2026-03-22T11:24:59.278Z</time></trkpt><trkpt lat="44.3101608" lon="10.6435277"><ele>879.25</ele><time>2026-03-22T11:25:00.274Z</time></trkpt><trkpt lat="44.3101121" lon="10.6433676"><ele>877.5</ele><time>2026-03-22T11:25:01.285Z</time></trkpt><trkpt lat="44.3100722" lon="10.6432086"><ele>875.75</ele><time>2026-03-22T11:25:02.276Z</time></trkpt><trkpt lat="44.3100539" lon="10.6430389"><ele>874.0</ele><time>2026-03-22T11:25:03.276Z</time></trkpt><trkpt lat="44.3100462" lon="10.6428736"><ele>873.25</ele><time>2026-03-22T11:25:04.277Z</time></trkpt><trkpt lat="44.3100502" lon="10.6427096"><ele>872.5</ele><time>2026-03-22T11:25:05.287Z</time></trkpt><trkpt lat="44.3100492" lon="10.6425452"><ele>871.75</ele><time>2026-03-22T11:25:06.29Z</time></trkpt><trkpt lat="44.3100448" lon="10.642382"><ele>871.0</ele><time>2026-03-22T11:25:07.285Z</time></trkpt><trkpt lat="44.3100417" lon="10.6422281"><ele>871.0</ele><time>2026-03-22T11:25:08.282Z</time></trkpt><trkpt lat="44.3100377" lon="10.6420759"><ele>870.9999999999999</ele><time>2026-03-22T11:25:09.271Z</time></trkpt><trkpt lat="44.3100307" lon="10.6419198"><ele>870.9999999999999</ele><time>2026-03-22T11:25:10.287Z</time></trkpt><trkpt lat="44.3100203" lon="10.6417659"><ele>871.0</ele><time>2026-03-22T11:25:11.274Z</time></trkpt><trkpt lat="44.3100047" lon="10.6416146"><ele>871.0</ele><time>2026-03-22T11:25:12.291Z</time></trkpt><trkpt lat="44.309988" lon="10.6414706"><ele>870.5999999999999</ele><time>2026-03-22T11:25:13.28Z</time></trkpt><trkpt lat="44.309972" lon="10.6413299"><ele>870.1999999999999</ele><time>2026-03-22T11:25:14.288Z</time></trkpt><trkpt lat="44.30996" lon="10.6411917"><ele>869.8000000000001</ele><time>2026-03-22T11:25:15.264Z</time></trkpt><trkpt lat="44.3099561" lon="10.6410434"><ele>869.4000000000001</ele><time>2026-03-22T11:25:16.289Z</time></trkpt><trkpt lat="44.3099634" lon="10.6408936"><ele>869.0</ele><time>2026-03-22T11:25:17.275Z</time></trkpt><trkpt lat="44.3099844" lon="10.6407442"><ele>868.75</ele><time>2026-03-22T11:25:18.271Z</time></trkpt><trkpt lat="44.3100222" lon="10.6405986"><ele>868.5</ele><time>2026-03-22T11:25:19.287Z</time></trkpt><trkpt lat="44.3100713" lon="10.6404583"><ele>868.25</ele><time>2026-03-22T11:25:20.287Z</time></trkpt><trkpt lat="44.310122" lon="10.640315"><ele>868.0</ele><time>2026-03-22T11:25:21.269Z</time></trkpt><trkpt lat="44.3101585" lon="10.6401548"><ele>867.75</ele><time>2026-03-22T11:25:22.274Z</time></trkpt><trkpt lat="44.3101714" lon="10.6399824"><ele>867.5</ele><time>2026-03-22T11:25:23.276Z</time></trkpt><trkpt lat="44.3101738" lon="10.6398111"><ele>867.25</ele><time>2026-03-22T11:25:24.283Z</time></trkpt><trkpt lat="44.3101614" lon="10.6396384"><ele>867.0</ele><time>2026-03-22T11:25:25.276Z</time></trkpt><trkpt lat="44.3101429" lon="10.6394594"><ele>866.75</ele><time>2026-03-22T11:25:26.287Z</time></trkpt><trkpt lat="44.3101266" lon="10.63928"><ele>866.5</ele><time>2026-03-22T11:25:27.286Z</time></trkpt><trkpt lat="44.310115" lon="10.639095"><ele>866.25</ele><time>2026-03-22T11:25:28.286Z</time></trkpt><trkpt lat="44.3101074" lon="10.6389102"><ele>866.0</ele><time>2026-03-22T11:25:29.274Z</time></trkpt><trkpt lat="44.3101146" lon="10.6387328"><ele>865.5</ele><time>2026-03-22T11:25:30.28Z</time></trkpt><trkpt lat="44.3101384" lon="10.6385619"><ele>865.0</ele><time>2026-03-22T11:25:31.287Z</time></trkpt><trkpt lat="44.3101752" lon="10.6384039"><ele>864.5</ele><time>2026-03-22T11:25:32.281Z</time></trkpt><trkpt lat="44.3102144" lon="10.6382491"><ele>864.0</ele><time>2026-03-22T11:25:33.268Z</time></trkpt><trkpt lat="44.3102545" lon="10.6380945"><ele>864.0</ele><time>2026-03-22T11:25:34.285Z</time></trkpt><trkpt lat="44.3102885" lon="10.6379454"><ele>864.0</ele><time>2026-03-22T11:25:35.276Z</time></trkpt><trkpt lat="44.3103042" lon="10.6377897"><ele>864.0</ele><time>2026-03-22T11:25:36.291Z</time></trkpt><trkpt lat="44.3103093" lon="10.6376308"><ele>864.0</ele><time>2026-03-22T11:25:37.29Z</time></trkpt><trkpt lat="44.3102953" lon="10.6374679"><ele>862.75</ele><time>2026-03-22T11:25:38.283Z</time></trkpt><trkpt lat="44.3102569" lon="10.6373028"><ele>861.5</ele><time>2026-03-22T11:25:39.288Z</time></trkpt><trkpt lat="44.3102143" lon="10.6371332"><ele>860.25</ele><time>2026-03-22T11:25:40.276Z</time></trkpt><trkpt lat="44.3101692" lon="10.636957"><ele>859.0</ele><time>2026-03-22T11:25:41.288Z</time></trkpt><trkpt lat="44.3101262" lon="10.6367852"><ele>857.0</ele><time>2026-03-22T11:25:42.276Z</time></trkpt><trkpt lat="44.310085" lon="10.6366185"><ele>855.0</ele><time>2026-03-22T11:25:43.29Z</time></trkpt><trkpt lat="44.3100473" lon="10.6364587"><ele>853.0</ele><time>2026-03-22T11:25:44.294Z</time></trkpt><trkpt lat="44.3100071" lon="10.6363066"><ele>851.0</ele><time>2026-03-22T11:25:45.285Z</time></trkpt><trkpt lat="44.3099661" lon="10.6361638"><ele>849.5000000000001</ele><time>2026-03-22T11:25:46.271Z</time></trkpt><trkpt lat="44.3099294" lon="10.6360296"><ele>848.0</ele><time>2026-03-22T11:25:47.283Z</time></trkpt><trkpt lat="44.3098996" lon="10.6359047"><ele>846.5</ele><time>2026-03-22T11:25:48.286Z</time></trkpt><trkpt lat="44.3098745" lon="10.6357873"><ele>845.0</ele><time>2026-03-22T11:25:49.276Z</time></trkpt><trkpt lat="44.3098815" lon="10.6356741"><ele>843.5000000000001</ele><time>2026-03-22T11:25:50.279Z</time></trkpt><trkpt lat="44.3099162" lon="10.635577"><ele>842.0</ele><time>2026-03-22T11:25:51.285Z</time></trkpt><trkpt lat="44.3099856" lon="10.6355334"><ele>842.0</ele><time>2026-03-22T11:25:52.288Z</time></trkpt><trkpt lat="44.3100708" lon="10.6355563"><ele>842.0</ele><time>2026-03-22T11:25:53.282Z</time></trkpt><trkpt lat="44.3101642" lon="10.6356053"><ele>842.0</ele><time>2026-03-22T11:25:54.276Z</time></trkpt><trkpt lat="44.3102328" lon="10.6357237"><ele>842.0</ele><time>2026-03-22T11:25:55.289Z</time></trkpt><trkpt lat="44.310296" lon="10.6358593"><ele>842.0</ele><time>2026-03-22T11:25:56.286Z</time></trkpt><trkpt lat="44.3103428" lon="10.6360225"><ele>844.25</ele><time>2026-03-22T11:25:57.274Z</time></trkpt><trkpt lat="44.3103823" lon="10.6361951"><ele>846.5</ele><time>2026-03-22T11:25:58.288Z</time></trkpt><trkpt lat="44.3104131" lon="10.6363729"><ele>848.75</ele><time>2026-03-22T11:25:59.287Z</time></trkpt><trkpt lat="44.3104396" lon="10.6365523"><ele>851.0</ele><time>2026-03-22T11:26:00.278Z</time></trkpt><trkpt lat="44.3104659" lon="10.636733"><ele>851.0</ele><time>2026-03-22T11:26:01.286Z</time></trkpt><trkpt lat="44.3104976" lon="10.6369164"><ele>851.0</ele><time>2026-03-22T11:26:02.289Z</time></trkpt><trkpt lat="44.3105577" lon="10.6370962"><ele>851.0</ele><time>2026-03-22T11:26:03.291Z</time></trkpt><trkpt lat="44.310624" lon="10.6372765"><ele>851.0</ele><time>2026-03-22T11:26:04.292Z</time></trkpt><trkpt lat="44.3106884" lon="10.6374554"><ele>846.75</ele><time>2026-03-22T11:26:05.271Z</time></trkpt><trkpt lat="44.3107326" lon="10.6376428"><ele>842.5</ele><time>2026-03-22T11:26:06.282Z</time></trkpt><trkpt lat="44.310768" lon="10.6378243"><ele>838.25</ele><time>2026-03-22T11:26:07.282Z</time></trkpt><trkpt lat="44.3107731" lon="10.6380088"><ele>834.0</ele><time>2026-03-22T11:26:08.29Z</time></trkpt><trkpt lat="44.310776" lon="10.6381941"><ele>834.0</ele><time>2026-03-22T11:26:09.278Z</time></trkpt><trkpt lat="44.3108003" lon="10.6383698"><ele>834.0</ele><time>2026-03-22T11:26:10.275Z</time></trkpt><trkpt lat="44.3108528" lon="10.6385315"><ele>834.0</ele><time>2026-03-22T11:26:11.281Z</time></trkpt><trkpt lat="44.3109307" lon="10.6386848"><ele>834.0</ele><time>2026-03-22T11:26:12.271Z</time></trkpt><trkpt lat="44.3110306" lon="10.6388372"><ele>835.0</ele><time>2026-03-22T11:26:13.266Z</time></trkpt><trkpt lat="44.311137" lon="10.6389923"><ele>836.0</ele><time>2026-03-22T11:26:14.276Z</time></trkpt><trkpt lat="44.311243" lon="10.63913"><ele>837.0</ele><time>2026-03-22T11:26:15.276Z</time></trkpt><trkpt lat="44.3113515" lon="10.6392313"><ele>838.0</ele><time>2026-03-22T11:26:16.29Z</time></trkpt><trkpt lat="44.311465" lon="10.6392883"><ele>837.0</ele><time>2026-03-22T11:26:17.3Z</time></trkpt><trkpt lat="44.3115805" lon="10.6392977"><ele>836.0</ele><time>2026-03-22T11:26:18.282Z</time></trkpt><trkpt lat="44.3116897" lon="10.639306"><ele>835.0</ele><time>2026-03-22T11:26:19.285Z</time></trkpt><trkpt lat="44.3117887" lon="10.6393662"><ele>834.0</ele><time>2026-03-22T11:26:20.279Z</time></trkpt><trkpt lat="44.3118832" lon="10.6394702"><ele>834.0</ele><time>2026-03-22T11:26:21.288Z</time></trkpt><trkpt lat="44.3119656" lon="10.6396131"><ele>834.0</ele><time>2026-03-22T11:26:22.29Z</time></trkpt><trkpt lat="44.3120314" lon="10.6397786"><ele>834.0</ele><time>2026-03-22T11:26:23.29Z</time></trkpt><trkpt lat="44.3120878" lon="10.6399501"><ele>834.0</ele><time>2026-03-22T11:26:24.269Z</time></trkpt><trkpt lat="44.3121173" lon="10.6401463"><ele>836.25</ele><time>2026-03-22T11:26:25.275Z</time></trkpt><trkpt lat="44.3121416" lon="10.6403446"><ele>838.5</ele><time>2026-03-22T11:26:26.277Z</time></trkpt><trkpt lat="44.3121717" lon="10.6405494"><ele>840.75</ele><time>2026-03-22T11:26:27.289Z</time></trkpt><trkpt lat="44.3122039" lon="10.6407461"><ele>843.0</ele><time>2026-03-22T11:26:28.28Z</time></trkpt><trkpt lat="44.3122486" lon="10.6409409"><ele>836.0</ele><time>2026-03-22T11:26:29.284Z</time></trkpt><trkpt lat="44.3122972" lon="10.6411336"><ele>829.0</ele><time>2026-03-22T11:26:30.273Z</time></trkpt><trkpt lat="44.3123559" lon="10.6413195"><ele>822.0</ele><time>2026-03-22T11:26:31.287Z</time></trkpt><trkpt lat="44.3124371" lon="10.6414929"><ele>815.0</ele><time>2026-03-22T11:26:32.273Z</time></trkpt><trkpt lat="44.3125323" lon="10.6416634"><ele>815.0</ele><time>2026-03-22T11:26:33.284Z</time></trkpt><trkpt lat="44.3126284" lon="10.6418269"><ele>815.0</ele><time>2026-03-22T11:26:34.291Z</time></trkpt><trkpt lat="44.3127207" lon="10.641984"><ele>815.0</ele><time>2026-03-22T11:26:35.283Z</time></trkpt><trkpt lat="44.312808" lon="10.6421351"><ele>815.0</ele><time>2026-03-22T11:26:36.287Z</time></trkpt><trkpt lat="44.3128881" lon="10.6422682"><ele>813.6</ele><time>2026-03-22T11:26:37.285Z</time></trkpt><trkpt lat="44.3129674" lon="10.6423689"><ele>812.2</ele><time>2026-03-22T11:26:38.282Z</time></trkpt><trkpt lat="44.3130534" lon="10.6424234"><ele>810.8</ele><time>2026-03-22T11:26:39.287Z</time></trkpt><trkpt lat="44.3131465" lon="10.6424068"><ele>809.4</ele><time>2026-03-22T11:26:40.287Z</time></trkpt><trkpt lat="44.3132246" lon="10.6423357"><ele>808.0</ele><time>2026-03-22T11:26:41.273Z</time></trkpt><trkpt lat="44.3132707" lon="10.6421946"><ele>808.0</ele><time>2026-03-22T11:26:42.27Z</time></trkpt><trkpt lat="44.3132969" lon="10.6420485"><ele>808.0</ele><time>2026-03-22T11:26:43.272Z</time></trkpt><trkpt lat="44.3132745" lon="10.6418894"><ele>808.0</ele><time>2026-03-22T11:26:44.29Z</time></trkpt><trkpt lat="44.3132235" lon="10.6417204"><ele>808.0</ele><time>2026-03-22T11:26:45.29Z</time></trkpt><trkpt lat="44.3131844" lon="10.6415544"><ele>805.5</ele><time>2026-03-22T11:26:46.274Z</time></trkpt><trkpt lat="44.3131732" lon="10.6413889"><ele>803.0</ele><time>2026-03-22T11:26:47.287Z</time></trkpt><trkpt lat="44.3132015" lon="10.6412393"><ele>800.5</ele><time>2026-03-22T11:26:48.289Z</time></trkpt><trkpt lat="44.3132743" lon="10.641121"><ele>798.0</ele><time>2026-03-22T11:26:49.279Z</time></trkpt><trkpt lat="44.3133812" lon="10.6410403"><ele>796.5</ele><time>2026-03-22T11:26:50.272Z</time></trkpt><trkpt lat="44.3135104" lon="10.6409838"><ele>795.0</ele><time>2026-03-22T11:26:51.277Z</time></trkpt><trkpt lat="44.3136443" lon="10.6409158"><ele>793.5</ele><time>2026-03-22T11:26:52.273Z</time></trkpt><trkpt lat="44.3137693" lon="10.6407904"><ele>792.0</ele><time>2026-03-22T11:26:53.272Z</time></trkpt><trkpt lat="44.3138815" lon="10.6406342"><ele>792.0</ele><time>2026-03-22T11:26:54.297Z</time></trkpt><trkpt lat="44.3139865" lon="10.640469"><ele>792.0</ele><time>2026-03-22T11:26:55.289Z</time></trkpt><trkpt lat="44.3140814" lon="10.6403029"><ele>792.0</ele><time>2026-03-22T11:26:56.282Z</time></trkpt><trkpt lat="44.3141719" lon="10.6401295"><ele>791.0</ele><time>2026-03-22T11:26:57.286Z</time></trkpt><trkpt lat="44.3142326" lon="10.6399147"><ele>790.0</ele><time>2026-03-22T11:26:58.289Z</time></trkpt><trkpt lat="44.314279" lon="10.6396906"><ele>789.0</ele><time>2026-03-22T11:26:59.287Z</time></trkpt><trkpt lat="44.3142962" lon="10.6394671"><ele>787.75</ele><time>2026-03-22T11:27:00.27Z</time></trkpt><trkpt lat="44.3143172" lon="10.6392713"><ele>786.5</ele><time>2026-03-22T11:27:01.285Z</time></trkpt><trkpt lat="44.3143645" lon="10.6391059"><ele>785.25</ele><time>2026-03-22T11:27:02.285Z</time></trkpt><trkpt lat="44.3144411" lon="10.6389711"><ele>784.0</ele><time>2026-03-22T11:27:03.275Z</time></trkpt><trkpt lat="44.3145246" lon="10.6388573"><ele>784.0</ele><time>2026-03-22T11:27:04.271Z</time></trkpt><trkpt lat="44.314625" lon="10.6387904"><ele>784.0</ele><time>2026-03-22T11:27:05.276Z</time></trkpt><trkpt lat="44.314737" lon="10.6387754"><ele>784.0</ele><time>2026-03-22T11:27:06.282Z</time></trkpt><trkpt lat="44.3148541" lon="10.6387919"><ele>784.0</ele><time>2026-03-22T11:27:07.275Z</time></trkpt><trkpt lat="44.3149765" lon="10.6388575"><ele>782.0</ele><time>2026-03-22T11:27:08.289Z</time></trkpt><trkpt lat="44.3150971" lon="10.6389675"><ele>780.0</ele><time>2026-03-22T11:27:09.27Z</time></trkpt><trkpt lat="44.3152099" lon="10.6390987"><ele>778.0</ele><time>2026-03-22T11:27:10.287Z</time></trkpt><trkpt lat="44.3153207" lon="10.639223"><ele>776.0</ele><time>2026-03-22T11:27:11.274Z</time></trkpt><trkpt lat="44.315442" lon="10.639314"><ele>776.0</ele><time>2026-03-22T11:27:12.284Z</time></trkpt><trkpt lat="44.3155648" lon="10.6393748"><ele>776.0</ele><time>2026-03-22T11:27:13.29Z</time></trkpt><trkpt lat="44.3156886" lon="10.6394066"><ele>776.0</ele><time>2026-03-22T11:27:14.272Z</time></trkpt><trkpt lat="44.3158028" lon="10.6394491"><ele>776.0</ele><time>2026-03-22T11:27:15.288Z</time></trkpt><trkpt lat="44.3158832" lon="10.6395315"><ele>774.4</ele><time>2026-03-22T11:27:16.29Z</time></trkpt><trkpt lat="44.3159324" lon="10.6396273"><ele>772.8</ele><time>2026-03-22T11:27:17.272Z</time></trkpt><trkpt lat="44.3159214" lon="10.6397552"><ele>771.1999999999999</ele><time>2026-03-22T11:27:18.279Z</time></trkpt><trkpt lat="44.3158654" lon="10.6398853"><ele>769.5999999999999</ele><time>2026-03-22T11:27:19.278Z</time></trkpt><trkpt lat="44.3158084" lon="10.640014"><ele>768.0</ele><time>2026-03-22T11:27:20.272Z</time></trkpt><trkpt lat="44.3157877" lon="10.6401546"><ele>768.0</ele><time>2026-03-22T11:27:21.286Z</time></trkpt><trkpt lat="44.3158194" lon="10.640297"><ele>768.0</ele><time>2026-03-22T11:27:22.285Z</time></trkpt><trkpt lat="44.3158958" lon="10.6404281"><ele>768.0</ele><time>2026-03-22T11:27:23.289Z</time></trkpt><trkpt lat="44.3160056" lon="10.6405388"><ele>768.0</ele><time>2026-03-22T11:27:24.272Z</time></trkpt><trkpt lat="44.3161198" lon="10.6406428"><ele>768.5</ele><time>2026-03-22T11:27:25.286Z</time></trkpt><trkpt lat="44.3162305" lon="10.6407438"><ele>769.0</ele><time>2026-03-22T11:27:26.271Z</time></trkpt><trkpt lat="44.3163365" lon="10.6408544"><ele>769.5</ele><time>2026-03-22T11:27:27.286Z</time></trkpt><trkpt lat="44.3164201" lon="10.6409883"><ele>770.0</ele><time>2026-03-22T11:27:28.277Z</time></trkpt><trkpt lat="44.3164902" lon="10.6411457"><ele>766.0</ele><time>2026-03-22T11:27:29.293Z</time></trkpt><trkpt lat="44.3165464" lon="10.6413191"><ele>762.0</ele><time>2026-03-22T11:27:30.281Z</time></trkpt><trkpt lat="44.3165835" lon="10.6415125"><ele>758.0</ele><time>2026-03-22T11:27:31.287Z</time></trkpt><trkpt lat="44.3165986" lon="10.6417236"><ele>754.0</ele><time>2026-03-22T11:27:32.294Z</time></trkpt><trkpt lat="44.3166052" lon="10.6419433"><ele>751.6666666666667</ele><time>2026-03-22T11:27:33.274Z</time></trkpt><trkpt lat="44.3165964" lon="10.6421661"><ele>749.3333333333334</ele><time>2026-03-22T11:27:34.286Z</time></trkpt><trkpt lat="44.3165835" lon="10.6423799"><ele>747.0</ele><time>2026-03-22T11:27:35.275Z</time></trkpt><trkpt lat="44.3165614" lon="10.6425885"><ele>747.0</ele><time>2026-03-22T11:27:36.274Z</time></trkpt><trkpt lat="44.3165195" lon="10.642781"><ele>747.0</ele><time>2026-03-22T11:27:37.287Z</time></trkpt><trkpt lat="44.3164434" lon="10.6429422"><ele>747.0</ele><time>2026-03-22T11:27:38.287Z</time></trkpt><trkpt lat="44.3163535" lon="10.6430738"><ele>747.0</ele><time>2026-03-22T11:27:39.286Z</time></trkpt><trkpt lat="44.3162623" lon="10.643187"><ele>750.25</ele><time>2026-03-22T11:27:40.272Z</time></trkpt><trkpt lat="44.3161956" lon="10.6433206"><ele>753.5</ele><time>2026-03-22T11:27:41.274Z</time></trkpt><trkpt lat="44.3161626" lon="10.6434775"><ele>756.75</ele><time>2026-03-22T11:27:42.279Z</time></trkpt><trkpt lat="44.3161604" lon="10.6436386"><ele>760.0</ele><time>2026-03-22T11:27:43.278Z</time></trkpt><trkpt lat="44.3161946" lon="10.6437927"><ele>763.75</ele><time>2026-03-22T11:27:44.279Z</time></trkpt><trkpt lat="44.3162623" lon="10.6439343"><ele>767.5</ele><time>2026-03-22T11:27:45.279Z</time></trkpt><trkpt lat="44.3163543" lon="10.6440699"><ele>771.25</ele><time>2026-03-22T11:27:46.282Z</time></trkpt><trkpt lat="44.3164462" lon="10.6442145"><ele>775.0</ele><time>2026-03-22T11:27:47.269Z</time></trkpt><trkpt lat="44.3165406" lon="10.6443782"><ele>765.0</ele><time>2026-03-22T11:27:48.274Z</time></trkpt><trkpt lat="44.3166336" lon="10.6445514"><ele>755.0</ele><time>2026-03-22T11:27:49.287Z</time></trkpt><trkpt lat="44.3167206" lon="10.6447434"><ele>745.0</ele><time>2026-03-22T11:27:50.278Z</time></trkpt><trkpt lat="44.3167949" lon="10.644948"><ele>745.0</ele><time>2026-03-22T11:27:51.277Z</time></trkpt><trkpt lat="44.3168562" lon="10.645159"><ele>745.0</ele><time>2026-03-22T11:27:52.281Z</time></trkpt><trkpt lat="44.3169075" lon="10.6453637"><ele>745.0</ele><time>2026-03-22T11:27:53.276Z</time></trkpt><trkpt lat="44.3169544" lon="10.6455583"><ele>744.0</ele><time>2026-03-22T11:27:54.284Z</time></trkpt><trkpt lat="44.3170075" lon="10.6457432"><ele>743.0</ele><time>2026-03-22T11:27:55.285Z</time></trkpt><trkpt lat="44.317087" lon="10.6459188"><ele>742.0</ele><time>2026-03-22T11:27:56.283Z</time></trkpt><trkpt lat="44.3171896" lon="10.6460601"><ele>741.0</ele><time>2026-03-22T11:27:57.265Z</time></trkpt><trkpt lat="44.3173042" lon="10.6461695"><ele>741.0</ele><time>2026-03-22T11:27:58.275Z</time></trkpt><trkpt lat="44.3174261" lon="10.6462306"><ele>741.0</ele><time>2026-03-22T11:27:59.284Z</time></trkpt><trkpt lat="44.3175658" lon="10.6462442"><ele>741.0</ele><time>2026-03-22T11:28:00.279Z</time></trkpt><trkpt lat="44.3177135" lon="10.6462192"><ele>741.0</ele><time>2026-03-22T11:28:01.275Z</time></trkpt><trkpt lat="44.3178614" lon="10.6461847"><ele>741.0</ele><time>2026-03-22T11:28:02.283Z</time></trkpt><trkpt lat="44.3180006" lon="10.6461603"><ele>741.0</ele><time>2026-03-22T11:28:03.268Z</time></trkpt><trkpt lat="44.3181297" lon="10.6461616"><ele>741.0</ele><time>2026-03-22T11:28:04.285Z</time></trkpt><trkpt lat="44.3182517" lon="10.6461805"><ele>741.0</ele><time>2026-03-22T11:28:05.282Z</time></trkpt><trkpt lat="44.3183686" lon="10.6462504"><ele>737.25</ele><time>2026-03-22T11:28:06.274Z</time></trkpt><trkpt lat="44.3184815" lon="10.6463663"><ele>733.5</ele><time>2026-03-22T11:28:07.278Z</time></trkpt><trkpt lat="44.3185932" lon="10.6464995"><ele>729.75</ele><time>2026-03-22T11:28:08.271Z</time></trkpt><trkpt lat="44.318712" lon="10.6466381"><ele>726.0</ele><time>2026-03-22T11:28:09.276Z</time></trkpt><trkpt lat="44.3188285" lon="10.6467894"><ele>724.6666666666666</ele><time>2026-03-22T11:28:10.275Z</time></trkpt><trkpt lat="44.3189583" lon="10.6469305"><ele>723.3333333333333</ele><time>2026-03-22T11:28:11.29Z</time></trkpt><trkpt lat="44.319086" lon="10.6470711"><ele>722.0</ele><time>2026-03-22T11:28:12.291Z</time></trkpt><trkpt lat="44.3192112" lon="10.6472046"><ele>722.0</ele><time>2026-03-22T11:28:13.288Z</time></trkpt><trkpt lat="44.3193311" lon="10.6473344"><ele>722.0</ele><time>2026-03-22T11:28:14.288Z</time></trkpt><trkpt lat="44.3194478" lon="10.6474582"><ele>722.0</ele><time>2026-03-22T11:28:15.296Z</time></trkpt><trkpt lat="44.3195517" lon="10.6475801"><ele>722.0</ele><time>2026-03-22T11:28:16.27Z</time></trkpt><trkpt lat="44.3196543" lon="10.6477002"><ele>721.75</ele><time>2026-03-22T11:28:17.286Z</time></trkpt><trkpt lat="44.3197543" lon="10.6478135"><ele>721.5</ele><time>2026-03-22T11:28:18.285Z</time></trkpt><trkpt lat="44.3198483" lon="10.6479218"><ele>721.25</ele><time>2026-03-22T11:28:19.282Z</time></trkpt><trkpt lat="44.3199393" lon="10.6480198"><ele>721.0</ele><time>2026-03-22T11:28:20.292Z</time></trkpt><trkpt lat="44.320033" lon="10.6480931"><ele>721.0</ele><time>2026-03-22T11:28:21.28Z</time></trkpt><trkpt lat="44.3201336" lon="10.6481347"><ele>721.0</ele><time>2026-03-22T11:28:22.287Z</time></trkpt><trkpt lat="44.3202382" lon="10.6481657"><ele>721.0</ele><time>2026-03-22T11:28:23.279Z</time></trkpt><trkpt lat="44.3203559" lon="10.6481513"><ele>721.0</ele><time>2026-03-22T11:28:24.286Z</time></trkpt><trkpt lat="44.320474" lon="10.6481267"><ele>721.0</ele><time>2026-03-22T11:28:25.274Z</time></trkpt><trkpt lat="44.3205921" lon="10.6480912"><ele>720.5</ele><time>2026-03-22T11:28:26.281Z</time></trkpt><trkpt lat="44.320707" lon="10.6480522"><ele>720.0</ele><time>2026-03-22T11:28:27.285Z</time></trkpt><trkpt lat="44.3208199" lon="10.6480201"><ele>719.5</ele><time>2026-03-22T11:28:28.285Z</time></trkpt><trkpt lat="44.3209333" lon="10.6479915"><ele>719.0</ele><time>2026-03-22T11:28:29.277Z</time></trkpt><trkpt lat="44.32105" lon="10.6479734"><ele>719.0</ele><time>2026-03-22T11:28:30.285Z</time></trkpt><trkpt lat="44.3211678" lon="10.6479591"><ele>719.0</ele><time>2026-03-22T11:28:31.289Z</time></trkpt><trkpt lat="44.3212866" lon="10.6479428"><ele>719.0</ele><time>2026-03-22T11:28:32.291Z</time></trkpt><trkpt lat="44.3214048" lon="10.6479224"><ele>719.0</ele><time>2026-03-22T11:28:33.288Z</time></trkpt><trkpt lat="44.3215138" lon="10.6478998"><ele>718.6</ele><time>2026-03-22T11:28:34.279Z</time></trkpt><trkpt lat="44.3216211" lon="10.6478798"><ele>718.2</ele><time>2026-03-22T11:28:35.266Z</time></trkpt><trkpt lat="44.3217303" lon="10.6478751"><ele>717.8000000000001</ele><time>2026-03-22T11:28:36.284Z</time></trkpt><trkpt lat="44.3218252" lon="10.6478622"><ele>717.4000000000001</ele><time>2026-03-22T11:28:37.279Z</time></trkpt><trkpt lat="44.3219042" lon="10.6478502"><ele>717.0</ele><time>2026-03-22T11:28:38.289Z</time></trkpt><trkpt lat="44.3219819" lon="10.6478487"><ele>717.0</ele><time>2026-03-22T11:28:39.275Z</time></trkpt><trkpt lat="44.3220637" lon="10.6478588"><ele>717.0</ele><time>2026-03-22T11:28:40.272Z</time></trkpt><trkpt lat="44.3221497" lon="10.6478998"><ele>717.0</ele><time>2026-03-22T11:28:41.272Z</time></trkpt><trkpt lat="44.3222387" lon="10.6479632"><ele>717.0</ele><time>2026-03-22T11:28:42.281Z</time></trkpt><trkpt lat="44.3223268" lon="10.6480335"><ele>717.0</ele><time>2026-03-22T11:28:43.27Z</time></trkpt><trkpt lat="44.3224148" lon="10.6481031"><ele>716.1666666666666</ele><time>2026-03-22T11:28:44.276Z</time></trkpt><trkpt lat="44.3225057" lon="10.6481538"><ele>715.3333333333334</ele><time>2026-03-22T11:28:45.269Z</time></trkpt><trkpt lat="44.3225962" lon="10.6481783"><ele>714.5</ele><time>2026-03-22T11:28:46.289Z</time></trkpt><trkpt lat="44.3226794" lon="10.6481848"><ele>713.6666666666667</ele><time>2026-03-22T11:28:47.283Z</time></trkpt><trkpt lat="44.3227542" lon="10.6481805"><ele>712.8333333333334</ele><time>2026-03-22T11:28:48.276Z</time></trkpt><trkpt lat="44.3228264" lon="10.6481733"><ele>712.0</ele><time>2026-03-22T11:28:49.278Z</time></trkpt><trkpt lat="44.322898" lon="10.6481676"><ele>711.9999999999999</ele><time>2026-03-22T11:28:50.284Z</time></trkpt><trkpt lat="44.3229642" lon="10.6481622"><ele>712.0</ele><time>2026-03-22T11:28:51.274Z</time></trkpt><trkpt lat="44.3230286" lon="10.6481437"><ele>712.0</ele><time>2026-03-22T11:28:52.284Z</time></trkpt><trkpt lat="44.3230915" lon="10.6481126"><ele>712.0</ele><time>2026-03-22T11:28:53.281Z</time></trkpt><trkpt lat="44.3231487" lon="10.6480708"><ele>712.0</ele><time>2026-03-22T11:28:54.278Z</time></trkpt><trkpt lat="44.3232064" lon="10.6480182"><ele>711.9999999999999</ele><time>2026-03-22T11:28:55.275Z</time></trkpt><trkpt lat="44.323259" lon="10.6479507"><ele>712.0</ele><time>2026-03-22T11:28:56.279Z</time></trkpt><trkpt lat="44.323312" lon="10.6478755"><ele>712.0</ele><time>2026-03-22T11:28:57.289Z</time></trkpt><trkpt lat="44.3233695" lon="10.6477965"><ele>712.0</ele><time>2026-03-22T11:28:58.288Z</time></trkpt><trkpt lat="44.3234316" lon="10.6477163"><ele>712.0</ele><time>2026-03-22T11:28:59.286Z</time></trkpt><trkpt lat="44.3235021" lon="10.6476391"><ele>712.0</ele><time>2026-03-22T11:29:00.292Z</time></trkpt><trkpt lat="44.3235815" lon="10.6475769"><ele>712.0</ele><time>2026-03-22T11:29:01.271Z</time></trkpt><trkpt lat="44.3236765" lon="10.6475414"><ele>712.0</ele><time>2026-03-22T11:29:02.273Z</time></trkpt><trkpt lat="44.3237774" lon="10.6475194"><ele>711.6</ele><time>2026-03-22T11:29:03.27Z</time></trkpt><trkpt lat="44.3238801" lon="10.6475048"><ele>711.2</ele><time>2026-03-22T11:29:04.292Z</time></trkpt><trkpt lat="44.3239826" lon="10.647492"><ele>710.8</ele><time>2026-03-22T11:29:05.279Z</time></trkpt><trkpt lat="44.3240807" lon="10.6474819"><ele>710.4</ele><time>2026-03-22T11:29:06.272Z</time></trkpt><trkpt lat="44.3241726" lon="10.6474771"><ele>710.0</ele><time>2026-03-22T11:29:07.291Z</time></trkpt><trkpt lat="44.3242536" lon="10.6474723"><ele>710.0</ele><time>2026-03-22T11:29:08.273Z</time></trkpt><trkpt lat="44.3243323" lon="10.6474657"><ele>710.0</ele><time>2026-03-22T11:29:09.286Z</time></trkpt><trkpt lat="44.3243949" lon="10.6474782"><ele>710.0</ele><time>2026-03-22T11:29:10.273Z</time></trkpt><trkpt lat="44.3244863" lon="10.6474836"><ele>710.0</ele><time>2026-03-22T11:29:12.286Z</time></trkpt><trkpt lat="44.3245613" lon="10.6475029"><ele>710.0</ele><time>2026-03-22T11:33:15.289Z</time></trkpt><trkpt lat="44.3246518" lon="10.6474726"><ele>710.0</ele><time>2026-03-22T11:33:17.278Z</time></trkpt><trkpt lat="44.3247742" lon="10.6474201"><ele>710.0</ele><time>2026-03-22T11:33:19.271Z</time></trkpt><trkpt lat="44.3248443" lon="10.6473839"><ele>710.0</ele><time>2026-03-22T11:33:20.285Z</time></trkpt><trkpt lat="44.324921" lon="10.6473277"><ele>710.0</ele><time>2026-03-22T11:33:21.283Z</time></trkpt><trkpt lat="44.3250003" lon="10.647233"><ele>710.0</ele><time>2026-03-22T11:33:22.286Z</time></trkpt><trkpt lat="44.3250731" lon="10.6471186"><ele>710.0</ele><time>2026-03-22T11:33:23.282Z</time></trkpt><trkpt lat="44.3251388" lon="10.6469996"><ele>707.5</ele><time>2026-03-22T11:33:24.272Z</time></trkpt><trkpt lat="44.325209" lon="10.6468751"><ele>705.0</ele><time>2026-03-22T11:33:25.28Z</time></trkpt><trkpt lat="44.3252827" lon="10.6467491"><ele>702.5</ele><time>2026-03-22T11:33:26.272Z</time></trkpt><trkpt lat="44.3253663" lon="10.646618"><ele>700.0</ele><time>2026-03-22T11:33:27.275Z</time></trkpt><trkpt lat="44.3254572" lon="10.6464776"><ele>701.75</ele><time>2026-03-22T11:33:28.27Z</time></trkpt><trkpt lat="44.3255694" lon="10.6463506"><ele>703.5</ele><time>2026-03-22T11:33:29.284Z</time></trkpt><trkpt lat="44.3256844" lon="10.6462239"><ele>705.25</ele><time>2026-03-22T11:33:30.291Z</time></trkpt><trkpt lat="44.3258162" lon="10.646117"><ele>707.0</ele><time>2026-03-22T11:33:31.278Z</time></trkpt><trkpt lat="44.325962" lon="10.6460432"><ele>703.25</ele><time>2026-03-22T11:33:32.276Z</time></trkpt><trkpt lat="44.3261" lon="10.6459771"><ele>699.5</ele><time>2026-03-22T11:33:33.278Z</time></trkpt><trkpt lat="44.3262306" lon="10.645944"><ele>695.75</ele><time>2026-03-22T11:33:34.274Z</time></trkpt><trkpt lat="44.3263535" lon="10.645933"><ele>692.0</ele><time>2026-03-22T11:33:35.286Z</time></trkpt><trkpt lat="44.3264723" lon="10.6459604"><ele>691.5</ele><time>2026-03-22T11:33:36.275Z</time></trkpt><trkpt lat="44.3265781" lon="10.646037"><ele>691.0</ele><time>2026-03-22T11:33:37.281Z</time></trkpt><trkpt lat="44.3266558" lon="10.6461695"><ele>690.5</ele><time>2026-03-22T11:33:38.285Z</time></trkpt><trkpt lat="44.3267146" lon="10.6463288"><ele>690.0</ele><time>2026-03-22T11:33:39.273Z</time></trkpt><trkpt lat="44.3267777" lon="10.6464973"><ele>692.25</ele><time>2026-03-22T11:33:40.288Z</time></trkpt><trkpt lat="44.3268489" lon="10.6466642"><ele>694.5</ele><time>2026-03-22T11:33:41.276Z</time></trkpt><trkpt lat="44.3269438" lon="10.6468141"><ele>696.75</ele><time>2026-03-22T11:33:42.279Z</time></trkpt><trkpt lat="44.3270719" lon="10.6469535"><ele>699.0</ele><time>2026-03-22T11:33:43.272Z</time></trkpt><trkpt lat="44.3272243" lon="10.6470815"><ele>699.0</ele><time>2026-03-22T11:33:44.276Z</time></trkpt><trkpt lat="44.3273817" lon="10.647214"><ele>699.0</ele><time>2026-03-22T11:33:45.285Z</time></trkpt><trkpt lat="44.3275418" lon="10.647347"><ele>699.0</ele><time>2026-03-22T11:33:46.269Z</time></trkpt><trkpt lat="44.3277031" lon="10.6474811"><ele>699.0</ele><time>2026-03-22T11:33:47.276Z</time></trkpt><trkpt lat="44.3278659" lon="10.6476029"><ele>699.0</ele><time>2026-03-22T11:33:48.285Z</time></trkpt><trkpt lat="44.3280329" lon="10.6477033"><ele>699.0</ele><time>2026-03-22T11:33:49.274Z</time></trkpt><trkpt lat="44.3281886" lon="10.6477972"><ele>700.75</ele><time>2026-03-22T11:33:50.276Z</time></trkpt><trkpt lat="44.3283336" lon="10.6478776"><ele>702.5</ele><time>2026-03-22T11:33:51.272Z</time></trkpt><trkpt lat="44.3284769" lon="10.6479168"><ele>704.25</ele><time>2026-03-22T11:33:52.275Z</time></trkpt><trkpt lat="44.3286234" lon="10.6479119"><ele>706.0</ele><time>2026-03-22T11:33:53.271Z</time></trkpt><trkpt lat="44.3287723" lon="10.64787"><ele>699.0</ele><time>2026-03-22T11:33:54.292Z</time></trkpt><trkpt lat="44.3289308" lon="10.64777"><ele>692.0</ele><time>2026-03-22T11:33:55.279Z</time></trkpt><trkpt lat="44.3290963" lon="10.6476755"><ele>685.0</ele><time>2026-03-22T11:33:56.285Z</time></trkpt><trkpt lat="44.3292601" lon="10.6475913"><ele>685.0</ele><time>2026-03-22T11:33:57.281Z</time></trkpt><trkpt lat="44.3294144" lon="10.6475309"><ele>685.0</ele><time>2026-03-22T11:33:58.27Z</time></trkpt><trkpt lat="44.32956" lon="10.6474656"><ele>685.0</ele><time>2026-03-22T11:33:59.268Z</time></trkpt><trkpt lat="44.3296804" lon="10.6473566"><ele>684.6666666666667</ele><time>2026-03-22T11:34:00.276Z</time></trkpt><trkpt lat="44.3297793" lon="10.6471906"><ele>684.3333333333334</ele><time>2026-03-22T11:34:01.285Z</time></trkpt><trkpt lat="44.3298764" lon="10.6470165"><ele>684.0</ele><time>2026-03-22T11:34:02.289Z</time></trkpt><trkpt lat="44.3299728" lon="10.6468321"><ele>684.0</ele><time>2026-03-22T11:34:03.289Z</time></trkpt><trkpt lat="44.3300784" lon="10.6466663"><ele>684.0</ele><time>2026-03-22T11:34:04.285Z</time></trkpt><trkpt lat="44.3301972" lon="10.6465347"><ele>684.0</ele><time>2026-03-22T11:34:05.281Z</time></trkpt><trkpt lat="44.3303133" lon="10.6464258"><ele>684.0</ele><time>2026-03-22T11:34:06.273Z</time></trkpt><trkpt lat="44.3304428" lon="10.6463498"><ele>684.0</ele><time>2026-03-22T11:34:07.275Z</time></trkpt><trkpt lat="44.330592" lon="10.6463107"><ele>684.0</ele><time>2026-03-22T11:34:08.274Z</time></trkpt><trkpt lat="44.3307445" lon="10.646314"><ele>684.0</ele><time>2026-03-22T11:34:09.283Z</time></trkpt><trkpt lat="44.3309095" lon="10.6463069"><ele>686.6666666666666</ele><time>2026-03-22T11:34:10.278Z</time></trkpt><trkpt lat="44.3310686" lon="10.6462478"><ele>689.3333333333333</ele><time>2026-03-22T11:34:11.275Z</time></trkpt><trkpt lat="44.3312181" lon="10.646154"><ele>692.0</ele><time>2026-03-22T11:34:12.283Z</time></trkpt><trkpt lat="44.331358" lon="10.646056"><ele>687.25</ele><time>2026-03-22T11:34:13.278Z</time></trkpt><trkpt lat="44.3314795" lon="10.6459855"><ele>682.5</ele><time>2026-03-22T11:34:14.272Z</time></trkpt><trkpt lat="44.3315918" lon="10.6459859"><ele>677.75</ele><time>2026-03-22T11:34:15.286Z</time></trkpt><trkpt lat="44.3317095" lon="10.6460257"><ele>673.0</ele><time>2026-03-22T11:34:16.264Z</time></trkpt><trkpt lat="44.3318248" lon="10.6461232"><ele>673.25</ele><time>2026-03-22T11:34:17.278Z</time></trkpt><trkpt lat="44.3319426" lon="10.6462347"><ele>673.5</ele><time>2026-03-22T11:34:18.276Z</time></trkpt><trkpt lat="44.3320776" lon="10.6463233"><ele>673.75</ele><time>2026-03-22T11:34:19.272Z</time></trkpt><trkpt lat="44.3322154" lon="10.6464007"><ele>674.0</ele><time>2026-03-22T11:34:20.274Z</time></trkpt><trkpt lat="44.332349" lon="10.6464791"><ele>674.0</ele><time>2026-03-22T11:34:21.285Z</time></trkpt><trkpt lat="44.3324621" lon="10.6466062"><ele>674.0</ele><time>2026-03-22T11:34:22.282Z</time></trkpt><trkpt lat="44.3325742" lon="10.6467482"><ele>674.0</ele><time>2026-03-22T11:34:23.286Z</time></trkpt><trkpt lat="44.3326999" lon="10.6468816"><ele>680.0</ele><time>2026-03-22T11:34:24.285Z</time></trkpt><trkpt lat="44.33286" lon="10.6469623"><ele>686.0</ele><time>2026-03-22T11:34:25.281Z</time></trkpt><trkpt lat="44.3330528" lon="10.6470048"><ele>692.0</ele><time>2026-03-22T11:34:26.278Z</time></trkpt><trkpt lat="44.3332473" lon="10.6470301"><ele>692.0</ele><time>2026-03-22T11:34:27.291Z</time></trkpt><trkpt lat="44.3334315" lon="10.6470587"><ele>692.0</ele><time>2026-03-22T11:34:28.283Z</time></trkpt><trkpt lat="44.3336053" lon="10.6470972"><ele>692.0</ele><time>2026-03-22T11:34:29.278Z</time></trkpt><trkpt lat="44.3337699" lon="10.6471563"><ele>689.6666666666666</ele><time>2026-03-22T11:34:30.286Z</time></trkpt><trkpt lat="44.3339248" lon="10.647219"><ele>687.3333333333334</ele><time>2026-03-22T11:34:31.291Z</time></trkpt><trkpt lat="44.3340802" lon="10.6472608"><ele>685.0</ele><time>2026-03-22T11:34:32.271Z</time></trkpt><trkpt lat="44.3342319" lon="10.6472828"><ele>685.0</ele><time>2026-03-22T11:34:33.27Z</time></trkpt><trkpt lat="44.3343827" lon="10.6472588"><ele>685.0</ele><time>2026-03-22T11:34:34.293Z</time></trkpt><trkpt lat="44.3345222" lon="10.6472381"><ele>685.0</ele><time>2026-03-22T11:34:35.285Z</time></trkpt><trkpt lat="44.3346601" lon="10.6472679"><ele>685.0</ele><time>2026-03-22T11:34:36.294Z</time></trkpt><trkpt lat="44.3347813" lon="10.6473442"><ele>683.5</ele><time>2026-03-22T11:34:37.275Z</time></trkpt><trkpt lat="44.3348839" lon="10.6474627"><ele>682.0</ele><time>2026-03-22T11:34:38.281Z</time></trkpt><trkpt lat="44.3349491" lon="10.6476143"><ele>680.5</ele><time>2026-03-22T11:34:39.27Z</time></trkpt><trkpt lat="44.3349866" lon="10.6478057"><ele>679.0</ele><time>2026-03-22T11:34:40.28Z</time></trkpt><trkpt lat="44.3350217" lon="10.6479924"><ele>679.0</ele><time>2026-03-22T11:34:41.274Z</time></trkpt><trkpt lat="44.3350451" lon="10.6481738"><ele>679.0</ele><time>2026-03-22T11:34:42.284Z</time></trkpt><trkpt lat="44.3350734" lon="10.6483679"><ele>679.0</ele><time>2026-03-22T11:34:43.267Z</time></trkpt><trkpt lat="44.3351097" lon="10.6485649"><ele>679.0</ele><time>2026-03-22T11:34:44.271Z</time></trkpt><trkpt lat="44.3351554" lon="10.6487608"><ele>680.0</ele><time>2026-03-22T11:34:45.272Z</time></trkpt><trkpt lat="44.3352169" lon="10.6489634"><ele>681.0</ele><time>2026-03-22T11:34:46.282Z</time></trkpt><trkpt lat="44.3352655" lon="10.6491798"><ele>682.0</ele><time>2026-03-22T11:34:47.269Z</time></trkpt><trkpt lat="44.3352961" lon="10.649416"><ele>683.3333333333334</ele><time>2026-03-22T11:34:48.284Z</time></trkpt><trkpt lat="44.3353103" lon="10.649667"><ele>684.6666666666666</ele><time>2026-03-22T11:34:49.271Z</time></trkpt><trkpt lat="44.3353185" lon="10.649928"><ele>686.0</ele><time>2026-03-22T11:34:50.282Z</time></trkpt><trkpt lat="44.3353136" lon="10.650177"><ele>687.0</ele><time>2026-03-22T11:34:51.274Z</time></trkpt><trkpt lat="44.3353165" lon="10.6504143"><ele>688.0</ele><time>2026-03-22T11:34:52.281Z</time></trkpt><trkpt lat="44.3353245" lon="10.6506461"><ele>689.0</ele><time>2026-03-22T11:34:53.275Z</time></trkpt><trkpt lat="44.3353743" lon="10.6508764"><ele>689.0</ele><time>2026-03-22T11:34:54.288Z</time></trkpt><trkpt lat="44.3354246" lon="10.6510896"><ele>689.0</ele><time>2026-03-22T11:34:55.278Z</time></trkpt><trkpt lat="44.3354732" lon="10.6512693"><ele>689.0</ele><time>2026-03-22T11:34:56.274Z</time></trkpt><trkpt lat="44.3355519" lon="10.651443"><ele>689.0</ele><time>2026-03-22T11:34:57.272Z</time></trkpt><trkpt lat="44.3356292" lon="10.651605"><ele>686.6666666666666</ele><time>2026-03-22T11:34:58.278Z</time></trkpt><trkpt lat="44.3357436" lon="10.6517472"><ele>684.3333333333334</ele><time>2026-03-22T11:34:59.269Z</time></trkpt><trkpt lat="44.3358596" lon="10.6519004"><ele>682.0</ele><time>2026-03-22T11:35:00.275Z</time></trkpt><trkpt lat="44.3359828" lon="10.6520438"><ele>682.0</ele><time>2026-03-22T11:35:01.273Z</time></trkpt><trkpt lat="44.3361035" lon="10.6521528"><ele>682.0</ele><time>2026-03-22T11:35:02.271Z</time></trkpt><trkpt lat="44.3362108" lon="10.6522415"><ele>682.0</ele><time>2026-03-22T11:35:03.281Z</time></trkpt><trkpt lat="44.3363274" lon="10.6522579"><ele>682.0</ele><time>2026-03-22T11:35:04.275Z</time></trkpt><trkpt lat="44.3364506" lon="10.6522325"><ele>678.75</ele><time>2026-03-22T11:35:05.285Z</time></trkpt><trkpt lat="44.3365612" lon="10.6522407"><ele>675.5</ele><time>2026-03-22T11:35:06.27Z</time></trkpt><trkpt lat="44.336679" lon="10.6522768"><ele>672.25</ele><time>2026-03-22T11:35:07.281Z</time></trkpt><trkpt lat="44.3367914" lon="10.6523824"><ele>669.0</ele><time>2026-03-22T11:35:08.274Z</time></trkpt><trkpt lat="44.3368825" lon="10.6525384"><ele>669.0</ele><time>2026-03-22T11:35:09.27Z</time></trkpt><trkpt lat="44.3369701" lon="10.6527142"><ele>669.0</ele><time>2026-03-22T11:35:10.28Z</time></trkpt><trkpt lat="44.3370379" lon="10.6529007"><ele>669.0</ele><time>2026-03-22T11:35:11.282Z</time></trkpt><trkpt lat="44.3370796" lon="10.653084"><ele>669.0</ele><time>2026-03-22T11:35:12.284Z</time></trkpt><trkpt lat="44.3371192" lon="10.6532568"><ele>667.6</ele><time>2026-03-22T11:35:13.281Z</time></trkpt><trkpt lat="44.3371712" lon="10.6534038"><ele>666.2</ele><time>2026-03-22T11:35:14.269Z</time></trkpt><trkpt lat="44.3372477" lon="10.653509"><ele>664.8000000000001</ele><time>2026-03-22T11:35:15.27Z</time></trkpt><trkpt lat="44.3373371" lon="10.6535864"><ele>663.4000000000001</ele><time>2026-03-22T11:35:16.274Z</time></trkpt><trkpt lat="44.3374422" lon="10.653622"><ele>662.0</ele><time>2026-03-22T11:35:17.273Z</time></trkpt><trkpt lat="44.3375417" lon="10.6536205"><ele>662.0</ele><time>2026-03-22T11:35:18.28Z</time></trkpt><trkpt lat="44.3376448" lon="10.6536172"><ele>662.0</ele><time>2026-03-22T11:35:19.27Z</time></trkpt><trkpt lat="44.3377328" lon="10.6536204"><ele>662.0</ele><time>2026-03-22T11:35:20.27Z</time></trkpt><trkpt lat="44.3378034" lon="10.6536253"><ele>662.0</ele><time>2026-03-22T11:35:21.282Z</time></trkpt><trkpt lat="44.3379085" lon="10.6536293"><ele>662.0</ele><time>2026-03-22T11:35:23.275Z</time></trkpt><trkpt lat="44.338015" lon="10.653625"><ele>664.6</ele><time>2026-03-22T11:35:25.28Z</time></trkpt><trkpt lat="44.3381473" lon="10.6536368"><ele>667.2</ele><time>2026-03-22T11:35:27.273Z</time></trkpt><trkpt lat="44.3382351" lon="10.6536404"><ele>669.8</ele><time>2026-03-22T11:35:28.279Z</time></trkpt><trkpt lat="44.3383335" lon="10.6536608"><ele>672.4</ele><time>2026-03-22T11:35:29.284Z</time></trkpt><trkpt lat="44.3384346" lon="10.6537128"><ele>675.0</ele><time>2026-03-22T11:35:30.267Z</time></trkpt><trkpt lat="44.3385524" lon="10.6537777"><ele>675.0</ele><time>2026-03-22T11:35:31.28Z</time></trkpt><trkpt lat="44.3386912" lon="10.6538614"><ele>675.0</ele><time>2026-03-22T11:35:32.278Z</time></trkpt><trkpt lat="44.3388569" lon="10.6539499"><ele>675.0</ele><time>2026-03-22T11:35:33.284Z</time></trkpt><trkpt lat="44.3390298" lon="10.6540298"><ele>669.3333333333334</ele><time>2026-03-22T11:35:34.287Z</time></trkpt><trkpt lat="44.3391873" lon="10.6541244"><ele>663.6666666666667</ele><time>2026-03-22T11:35:35.28Z</time></trkpt><trkpt lat="44.3393408" lon="10.6542413"><ele>658.0</ele><time>2026-03-22T11:35:36.28Z</time></trkpt><trkpt lat="44.3395086" lon="10.6543416"><ele>658.0</ele><time>2026-03-22T11:35:37.273Z</time></trkpt><trkpt lat="44.3396998" lon="10.6544148"><ele>658.0</ele><time>2026-03-22T11:35:38.282Z</time></trkpt><trkpt lat="44.3399137" lon="10.6544552"><ele>658.0</ele><time>2026-03-22T11:35:39.28Z</time></trkpt><trkpt lat="44.3401219" lon="10.6545109"><ele>657.0</ele><time>2026-03-22T11:35:40.284Z</time></trkpt><trkpt lat="44.340319" lon="10.6545757"><ele>656.0</ele><time>2026-03-22T11:35:41.271Z</time></trkpt><trkpt lat="44.3405111" lon="10.6546418"><ele>655.0</ele><time>2026-03-22T11:35:42.285Z</time></trkpt><trkpt lat="44.3406914" lon="10.6547113"><ele>655.0</ele><time>2026-03-22T11:35:43.28Z</time></trkpt><trkpt lat="44.3408625" lon="10.6547725"><ele>655.0</ele><time>2026-03-22T11:35:44.273Z</time></trkpt><trkpt lat="44.3410158" lon="10.6548332"><ele>655.0</ele><time>2026-03-22T11:35:45.282Z</time></trkpt><trkpt lat="44.3411485" lon="10.6549046"><ele>655.0</ele><time>2026-03-22T11:35:46.279Z</time></trkpt><trkpt lat="44.3412667" lon="10.6550124"><ele>655.0</ele><time>2026-03-22T11:35:47.269Z</time></trkpt><trkpt lat="44.3413661" lon="10.6551563"><ele>655.0</ele><time>2026-03-22T11:35:48.286Z</time></trkpt><trkpt lat="44.3414716" lon="10.6553215"><ele>655.0</ele><time>2026-03-22T11:35:49.286Z</time></trkpt><trkpt lat="44.3415489" lon="10.6555222"><ele>650.0</ele><time>2026-03-22T11:35:50.272Z</time></trkpt><trkpt lat="44.3416211" lon="10.6557114"><ele>645.0</ele><time>2026-03-22T11:35:51.274Z</time></trkpt><trkpt lat="44.3417058" lon="10.6558671"><ele>640.0</ele><time>2026-03-22T11:35:52.274Z</time></trkpt><trkpt lat="44.3418106" lon="10.6559766"><ele>635.0</ele><time>2026-03-22T11:35:53.283Z</time></trkpt><trkpt lat="44.3419429" lon="10.6560171"><ele>635.0</ele><time>2026-03-22T11:35:54.268Z</time></trkpt><trkpt lat="44.3420806" lon="10.6560148"><ele>635.0</ele><time>2026-03-22T11:35:55.286Z</time></trkpt><trkpt lat="44.3422284" lon="10.6559421"><ele>635.0</ele><time>2026-03-22T11:35:56.283Z</time></trkpt><trkpt lat="44.3423761" lon="10.6558539"><ele>633.5</ele><time>2026-03-22T11:35:57.287Z</time></trkpt><trkpt lat="44.3425241" lon="10.655775"><ele>632.0</ele><time>2026-03-22T11:35:58.282Z</time></trkpt><trkpt lat="44.3426698" lon="10.655721"><ele>630.5</ele><time>2026-03-22T11:35:59.279Z</time></trkpt><trkpt lat="44.3428055" lon="10.6557252"><ele>629.0</ele><time>2026-03-22T11:36:00.28Z</time></trkpt><trkpt lat="44.3429398" lon="10.6557704"><ele>626.6666666666666</ele><time>2026-03-22T11:36:01.3Z</time></trkpt><trkpt lat="44.343072" lon="10.6558612"><ele>624.3333333333334</ele><time>2026-03-22T11:36:02.279Z</time></trkpt><trkpt lat="44.3432081" lon="10.6559732"><ele>622.0</ele><time>2026-03-22T11:36:03.278Z</time></trkpt><trkpt lat="44.3433412" lon="10.6561194"><ele>624.75</ele><time>2026-03-22T11:36:04.287Z</time></trkpt><trkpt lat="44.3434628" lon="10.6562684"><ele>627.5</ele><time>2026-03-22T11:36:05.266Z</time></trkpt><trkpt lat="44.3435762" lon="10.6564006"><ele>630.25</ele><time>2026-03-22T11:36:06.279Z</time></trkpt><trkpt lat="44.3436861" lon="10.6564916"><ele>633.0</ele><time>2026-03-22T11:36:07.272Z</time></trkpt><trkpt lat="44.3438231" lon="10.6565065"><ele>631.75</ele><time>2026-03-22T11:36:08.28Z</time></trkpt><trkpt lat="44.3439331" lon="10.6564572"><ele>630.5</ele><time>2026-03-22T11:36:09.286Z</time></trkpt><trkpt lat="44.3440142" lon="10.6563402"><ele>629.25</ele><time>2026-03-22T11:36:10.283Z</time></trkpt><trkpt lat="44.3440728" lon="10.6561865"><ele>628.0</ele><time>2026-03-22T11:36:11.282Z</time></trkpt><trkpt lat="44.3441093" lon="10.6560093"><ele>625.5</ele><time>2026-03-22T11:36:12.288Z</time></trkpt><trkpt lat="44.344149" lon="10.6558522"><ele>623.0</ele><time>2026-03-22T11:36:13.285Z</time></trkpt><trkpt lat="44.3442171" lon="10.6557193"><ele>620.5</ele><time>2026-03-22T11:36:14.269Z</time></trkpt><trkpt lat="44.3443291" lon="10.655652"><ele>618.0</ele><time>2026-03-22T11:36:15.283Z</time></trkpt><trkpt lat="44.3444531" lon="10.6556089"><ele>618.0</ele><time>2026-03-22T11:36:16.286Z</time></trkpt><trkpt lat="44.3445851" lon="10.6555526"><ele>618.0</ele><time>2026-03-22T11:36:17.279Z</time></trkpt><trkpt lat="44.3447304" lon="10.6554653"><ele>618.0</ele><time>2026-03-22T11:36:18.286Z</time></trkpt><trkpt lat="44.3448807" lon="10.6553346"><ele>614.5</ele><time>2026-03-22T11:36:19.278Z</time></trkpt><trkpt lat="44.3450195" lon="10.6552107"><ele>611.0</ele><time>2026-03-22T11:36:20.281Z</time></trkpt><trkpt lat="44.3451447" lon="10.6551044"><ele>607.5</ele><time>2026-03-22T11:36:21.277Z</time></trkpt><trkpt lat="44.3452596" lon="10.6550332"><ele>604.0</ele><time>2026-03-22T11:36:22.284Z</time></trkpt><trkpt lat="44.3453642" lon="10.6550346"><ele>604.0</ele><time>2026-03-22T11:36:23.282Z</time></trkpt><trkpt lat="44.3454539" lon="10.6550926"><ele>604.0</ele><time>2026-03-22T11:36:24.286Z</time></trkpt><trkpt lat="44.3455292" lon="10.6552001"><ele>604.0</ele><time>2026-03-22T11:36:25.27Z</time></trkpt><trkpt lat="44.345606" lon="10.6553244"><ele>604.0</ele><time>2026-03-22T11:36:26.274Z</time></trkpt><trkpt lat="44.3456641" lon="10.6555103"><ele>605.0</ele><time>2026-03-22T11:36:27.279Z</time></trkpt><trkpt lat="44.3457597" lon="10.6556724"><ele>606.0</ele><time>2026-03-22T11:36:28.278Z</time></trkpt><trkpt lat="44.3458791" lon="10.6558486"><ele>607.0</ele><time>2026-03-22T11:36:29.282Z</time></trkpt><trkpt lat="44.3460087" lon="10.6560435"><ele>609.6666666666667</ele><time>2026-03-22T11:36:30.279Z</time></trkpt><trkpt lat="44.346144" lon="10.6562422"><ele>612.3333333333334</ele><time>2026-03-22T11:36:31.275Z</time></trkpt><trkpt lat="44.346271" lon="10.6564338"><ele>615.0</ele><time>2026-03-22T11:36:32.27Z</time></trkpt><trkpt lat="44.3463944" lon="10.6566113"><ele>614.75</ele><time>2026-03-22T11:36:33.278Z</time></trkpt><trkpt lat="44.3465111" lon="10.6567652"><ele>614.5</ele><time>2026-03-22T11:36:34.282Z</time></trkpt><trkpt lat="44.3466273" lon="10.6568869"><ele>614.25</ele><time>2026-03-22T11:36:35.286Z</time></trkpt><trkpt lat="44.3467366" lon="10.656974"><ele>614.0</ele><time>2026-03-22T11:36:36.282Z</time></trkpt><trkpt lat="44.3468444" lon="10.65706"><ele>614.0</ele><time>2026-03-22T11:36:37.273Z</time></trkpt><trkpt lat="44.3469529" lon="10.6571461"><ele>614.0</ele><time>2026-03-22T11:36:38.284Z</time></trkpt><trkpt lat="44.3470669" lon="10.6572308"><ele>614.0</ele><time>2026-03-22T11:36:39.266Z</time></trkpt><trkpt lat="44.3471926" lon="10.6573075"><ele>614.0</ele><time>2026-03-22T11:36:40.27Z</time></trkpt><trkpt lat="44.3473281" lon="10.6573755"><ele>612.6666666666666</ele><time>2026-03-22T11:36:41.273Z</time></trkpt><trkpt lat="44.3474726" lon="10.6574332"><ele>611.3333333333334</ele><time>2026-03-22T11:36:42.278Z</time></trkpt><trkpt lat="44.3476321" lon="10.6574492"><ele>610.0</ele><time>2026-03-22T11:36:43.274Z</time></trkpt><trkpt lat="44.3477898" lon="10.6574629"><ele>610.0</ele><time>2026-03-22T11:36:44.288Z</time></trkpt><trkpt lat="44.3479482" lon="10.6574793"><ele>610.0</ele><time>2026-03-22T11:36:45.273Z</time></trkpt><trkpt lat="44.3481113" lon="10.6575367"><ele>610.0</ele><time>2026-03-22T11:36:46.277Z</time></trkpt><trkpt lat="44.3482784" lon="10.6576156"><ele>609.6666666666667</ele><time>2026-03-22T11:36:47.27Z</time></trkpt><trkpt lat="44.3484397" lon="10.6577017"><ele>609.3333333333334</ele><time>2026-03-22T11:36:48.276Z</time></trkpt><trkpt lat="44.3485919" lon="10.6577864"><ele>609.0</ele><time>2026-03-22T11:36:49.286Z</time></trkpt><trkpt lat="44.3487374" lon="10.6578673"><ele>611.25</ele><time>2026-03-22T11:36:50.284Z</time></trkpt><trkpt lat="44.3488791" lon="10.6579457"><ele>613.5</ele><time>2026-03-22T11:36:51.277Z</time></trkpt><trkpt lat="44.349012" lon="10.6580348"><ele>615.75</ele><time>2026-03-22T11:36:52.285Z</time></trkpt><trkpt lat="44.3491361" lon="10.6581511"><ele>618.0</ele><time>2026-03-22T11:36:53.28Z</time></trkpt><trkpt lat="44.3492414" lon="10.6583057"><ele>618.0</ele><time>2026-03-22T11:36:54.271Z</time></trkpt><trkpt lat="44.3493364" lon="10.6584403"><ele>618.0</ele><time>2026-03-22T11:36:55.271Z</time></trkpt><trkpt lat="44.3494244" lon="10.6585444"><ele>618.0</ele><time>2026-03-22T11:36:56.266Z</time></trkpt><trkpt lat="44.3495228" lon="10.6585767"><ele>618.0</ele><time>2026-03-22T11:36:57.268Z</time></trkpt><trkpt lat="44.3496404" lon="10.6585524"><ele>618.75</ele><time>2026-03-22T11:36:58.272Z</time></trkpt><trkpt lat="44.3497318" lon="10.6584787"><ele>619.5</ele><time>2026-03-22T11:36:59.279Z</time></trkpt><trkpt lat="44.3497995" lon="10.6583349"><ele>620.25</ele><time>2026-03-22T11:37:00.278Z</time></trkpt><trkpt lat="44.3498695" lon="10.6581882"><ele>621.0</ele><time>2026-03-22T11:37:01.279Z</time></trkpt><trkpt lat="44.3499609" lon="10.6580452"><ele>621.0</ele><time>2026-03-22T11:37:02.283Z</time></trkpt><trkpt lat="44.3500956" lon="10.6579404"><ele>621.0</ele><time>2026-03-22T11:37:03.281Z</time></trkpt><trkpt lat="44.3502313" lon="10.657837"><ele>621.0</ele><time>2026-03-22T11:37:04.281Z</time></trkpt><trkpt lat="44.3503588" lon="10.6577425"><ele>620.0</ele><time>2026-03-22T11:37:05.277Z</time></trkpt><trkpt lat="44.3504904" lon="10.6576848"><ele>619.0</ele><time>2026-03-22T11:37:06.279Z</time></trkpt><trkpt lat="44.3506303" lon="10.657681"><ele>618.0</ele><time>2026-03-22T11:37:07.275Z</time></trkpt><trkpt lat="44.3507767" lon="10.6576826"><ele>617.0</ele><time>2026-03-22T11:37:08.279Z</time></trkpt><trkpt lat="44.3509291" lon="10.6577343"><ele>617.0</ele><time>2026-03-22T11:37:09.284Z</time></trkpt><trkpt lat="44.3510837" lon="10.6577657"><ele>617.0</ele><time>2026-03-22T11:37:10.29Z</time></trkpt><trkpt lat="44.3512461" lon="10.6577854"><ele>617.0</ele><time>2026-03-22T11:37:11.274Z</time></trkpt><trkpt lat="44.3514086" lon="10.6577581"><ele>618.6666666666666</ele><time>2026-03-22T11:37:12.276Z</time></trkpt><trkpt lat="44.3515689" lon="10.6577211"><ele>620.3333333333334</ele><time>2026-03-22T11:37:13.278Z</time></trkpt><trkpt lat="44.351721" lon="10.6576843"><ele>622.0</ele><time>2026-03-22T11:37:14.281Z</time></trkpt><trkpt lat="44.3518585" lon="10.6576514"><ele>622.0</ele><time>2026-03-22T11:37:15.272Z</time></trkpt><trkpt lat="44.351986" lon="10.6576507"><ele>622.0</ele><time>2026-03-22T11:37:16.262Z</time></trkpt><trkpt lat="44.3521194" lon="10.6576912"><ele>622.0</ele><time>2026-03-22T11:37:17.269Z</time></trkpt><trkpt lat="44.3522522" lon="10.6577374"><ele>622.0</ele><time>2026-03-22T11:37:18.281Z</time></trkpt><trkpt lat="44.3523779" lon="10.6577772"><ele>625.6</ele><time>2026-03-22T11:37:19.268Z</time></trkpt><trkpt lat="44.3524988" lon="10.6578156"><ele>629.2</ele><time>2026-03-22T11:37:20.287Z</time></trkpt><trkpt lat="44.3526095" lon="10.6578544"><ele>632.8</ele><time>2026-03-22T11:37:21.278Z</time></trkpt><trkpt lat="44.3527023" lon="10.6579039"><ele>636.4</ele><time>2026-03-22T11:37:22.267Z</time></trkpt><trkpt lat="44.3527666" lon="10.657985"><ele>640.0</ele><time>2026-03-22T11:37:23.277Z</time></trkpt><trkpt lat="44.352819" lon="10.6580958"><ele>640.0</ele><time>2026-03-22T11:37:24.272Z</time></trkpt><trkpt lat="44.3528293" lon="10.6582507"><ele>640.0</ele><time>2026-03-22T11:37:25.29Z</time></trkpt><trkpt lat="44.3528449" lon="10.6584255"><ele>640.0</ele><time>2026-03-22T11:37:26.282Z</time></trkpt><trkpt lat="44.35285" lon="10.6586113"><ele>640.0</ele><time>2026-03-22T11:37:27.269Z</time></trkpt><trkpt lat="44.3528666" lon="10.6588095"><ele>642.3333333333334</ele><time>2026-03-22T11:37:28.288Z</time></trkpt><trkpt lat="44.3528912" lon="10.6590076"><ele>644.6666666666666</ele><time>2026-03-22T11:37:29.267Z</time></trkpt><trkpt lat="44.3529312" lon="10.6592187"><ele>647.0</ele><time>2026-03-22T11:37:30.269Z</time></trkpt><trkpt lat="44.3529889" lon="10.6594149"><ele>646.75</ele><time>2026-03-22T11:37:31.288Z</time></trkpt><trkpt lat="44.3530628" lon="10.6595788"><ele>646.5</ele><time>2026-03-22T11:37:32.284Z</time></trkpt><trkpt lat="44.3531572" lon="10.6597461"><ele>646.25</ele><time>2026-03-22T11:37:33.281Z</time></trkpt><trkpt lat="44.3532374" lon="10.6598958"><ele>646.0</ele><time>2026-03-22T11:37:34.275Z</time></trkpt><trkpt lat="44.3533052" lon="10.6600424"><ele>646.0</ele><time>2026-03-22T11:37:35.284Z</time></trkpt><trkpt lat="44.3533505" lon="10.6602112"><ele>646.0</ele><time>2026-03-22T11:37:36.285Z</time></trkpt><trkpt lat="44.3533616" lon="10.6603951"><ele>646.0</ele><time>2026-03-22T11:37:37.279Z</time></trkpt><trkpt lat="44.3533473" lon="10.6606081"><ele>646.0</ele><time>2026-03-22T11:37:38.289Z</time></trkpt><trkpt lat="44.3533117" lon="10.6608328"><ele>647.3333333333334</ele><time>2026-03-22T11:37:39.277Z</time></trkpt><trkpt lat="44.3532734" lon="10.6610662"><ele>648.6666666666666</ele><time>2026-03-22T11:37:40.268Z</time></trkpt><trkpt lat="44.353241" lon="10.6613001"><ele>650.0</ele><time>2026-03-22T11:37:41.282Z</time></trkpt><trkpt lat="44.3532152" lon="10.6615186"><ele>650.5</ele><time>2026-03-22T11:37:42.285Z</time></trkpt><trkpt lat="44.3531931" lon="10.6617225"><ele>651.0</ele><time>2026-03-22T11:37:43.292Z</time></trkpt><trkpt lat="44.353186" lon="10.661913"><ele>651.5</ele><time>2026-03-22T11:37:44.285Z</time></trkpt><trkpt lat="44.3532318" lon="10.6621085"><ele>652.0</ele><time>2026-03-22T11:37:45.286Z</time></trkpt><trkpt lat="44.3532779" lon="10.6622871"><ele>653.75</ele><time>2026-03-22T11:37:46.286Z</time></trkpt><trkpt lat="44.3533572" lon="10.6624375"><ele>655.5</ele><time>2026-03-22T11:37:47.275Z</time></trkpt><trkpt lat="44.3534621" lon="10.6625599"><ele>657.25</ele><time>2026-03-22T11:37:48.274Z</time></trkpt><trkpt lat="44.3536081" lon="10.6626469"><ele>659.0</ele><time>2026-03-22T11:37:49.27Z</time></trkpt><trkpt lat="44.3537524" lon="10.6626885"><ele>656.3333333333333</ele><time>2026-03-22T11:37:50.286Z</time></trkpt><trkpt lat="44.3538987" lon="10.6627074"><ele>653.6666666666666</ele><time>2026-03-22T11:37:51.27Z</time></trkpt><trkpt lat="44.3540522" lon="10.662724"><ele>651.0</ele><time>2026-03-22T11:37:52.271Z</time></trkpt><trkpt lat="44.354211" lon="10.6627335"><ele>651.0</ele><time>2026-03-22T11:37:53.27Z</time></trkpt><trkpt lat="44.3543693" lon="10.6627415"><ele>651.0</ele><time>2026-03-22T11:37:54.283Z</time></trkpt><trkpt lat="44.3545343" lon="10.6627542"><ele>651.0</ele><time>2026-03-22T11:37:55.287Z</time></trkpt><trkpt lat="44.3546933" lon="10.6627607"><ele>652.0</ele><time>2026-03-22T11:37:56.285Z</time></trkpt><trkpt lat="44.3548308" lon="10.6627608"><ele>653.0</ele><time>2026-03-22T11:37:57.281Z</time></trkpt><trkpt lat="44.3549654" lon="10.6627701"><ele>654.0</ele><time>2026-03-22T11:37:58.277Z</time></trkpt><trkpt lat="44.3550978" lon="10.6627698"><ele>655.0</ele><time>2026-03-22T11:37:59.269Z</time></trkpt><trkpt lat="44.3552302" lon="10.6627608"><ele>655.0</ele><time>2026-03-22T11:38:00.29Z</time></trkpt><trkpt lat="44.3553709" lon="10.6627299"><ele>655.0</ele><time>2026-03-22T11:38:01.283Z</time></trkpt><trkpt lat="44.3555221" lon="10.6626898"><ele>655.0</ele><time>2026-03-22T11:38:02.282Z</time></trkpt><trkpt lat="44.3556815" lon="10.6626484"><ele>657.6666666666667</ele><time>2026-03-22T11:38:03.28Z</time></trkpt><trkpt lat="44.3558446" lon="10.6625888"><ele>660.3333333333334</ele><time>2026-03-22T11:38:04.277Z</time></trkpt><trkpt lat="44.3560123" lon="10.6625453"><ele>663.0</ele><time>2026-03-22T11:38:05.273Z</time></trkpt><trkpt lat="44.3561759" lon="10.6625068"><ele>663.0</ele><time>2026-03-22T11:38:06.27Z</time></trkpt><trkpt lat="44.3563278" lon="10.662471"><ele>663.0</ele><time>2026-03-22T11:38:07.271Z</time></trkpt><trkpt lat="44.356451" lon="10.6624476"><ele>663.0</ele><time>2026-03-22T11:38:08.274Z</time></trkpt><trkpt lat="44.3565627" lon="10.6624205"><ele>663.0</ele><time>2026-03-22T11:38:09.281Z</time></trkpt><trkpt lat="44.356665" lon="10.6624216"><ele>664.4</ele><time>2026-03-22T11:38:10.275Z</time></trkpt><trkpt lat="44.3567441" lon="10.6624456"><ele>665.8</ele><time>2026-03-22T11:38:11.278Z</time></trkpt><trkpt lat="44.3568067" lon="10.6625156"><ele>667.2</ele><time>2026-03-22T11:38:12.281Z</time></trkpt><trkpt lat="44.3568607" lon="10.6626158"><ele>668.6</ele><time>2026-03-22T11:38:13.284Z</time></trkpt><trkpt lat="44.3568809" lon="10.662744"><ele>670.0</ele><time>2026-03-22T11:38:14.287Z</time></trkpt><trkpt lat="44.3569038" lon="10.6628891"><ele>671.0</ele><time>2026-03-22T11:38:15.263Z</time></trkpt><trkpt lat="44.3569099" lon="10.6630566"><ele>672.0</ele><time>2026-03-22T11:38:16.275Z</time></trkpt><trkpt lat="44.356902" lon="10.6632254"><ele>673.0</ele><time>2026-03-22T11:38:17.283Z</time></trkpt><trkpt lat="44.3568779" lon="10.6633888"><ele>674.0</ele><time>2026-03-22T11:38:18.28Z</time></trkpt><trkpt lat="44.3568481" lon="10.6635493"><ele>674.2</ele><time>2026-03-22T11:38:19.276Z</time></trkpt><trkpt lat="44.3568124" lon="10.6636967"><ele>674.4000000000001</ele><time>2026-03-22T11:38:20.279Z</time></trkpt><trkpt lat="44.3567845" lon="10.663834"><ele>674.6</ele><time>2026-03-22T11:38:21.284Z</time></trkpt><trkpt lat="44.3567939" lon="10.6639771"><ele>674.8</ele><time>2026-03-22T11:38:22.282Z</time></trkpt><trkpt lat="44.356837" lon="10.6641309"><ele>675.0</ele><time>2026-03-22T11:38:23.279Z</time></trkpt><trkpt lat="44.3569094" lon="10.664321"><ele>677.0</ele><time>2026-03-22T11:38:24.274Z</time></trkpt><trkpt lat="44.3569606" lon="10.6645337"><ele>679.0</ele><time>2026-03-22T11:38:25.285Z</time></trkpt><trkpt lat="44.3569981" lon="10.6647488"><ele>681.0</ele><time>2026-03-22T11:38:26.286Z</time></trkpt><trkpt lat="44.3570316" lon="10.6649814"><ele>681.0</ele><time>2026-03-22T11:38:27.278Z</time></trkpt><trkpt lat="44.3570906" lon="10.6652104"><ele>681.0</ele><time>2026-03-22T11:38:28.287Z</time></trkpt><trkpt lat="44.3571817" lon="10.6654309"><ele>681.0</ele><time>2026-03-22T11:38:29.292Z</time></trkpt><trkpt lat="44.3572789" lon="10.6656515"><ele>682.0</ele><time>2026-03-22T11:38:30.283Z</time></trkpt><trkpt lat="44.3573799" lon="10.6658522"><ele>683.0</ele><time>2026-03-22T11:38:31.266Z</time></trkpt><trkpt lat="44.3574838" lon="10.6660192"><ele>684.0</ele><time>2026-03-22T11:38:32.289Z</time></trkpt><trkpt lat="44.3576113" lon="10.6661551"><ele>684.0</ele><time>2026-03-22T11:38:33.286Z</time></trkpt><trkpt lat="44.3577494" lon="10.6662665"><ele>684.0</ele><time>2026-03-22T11:38:34.272Z</time></trkpt><trkpt lat="44.3579129" lon="10.6663268"><ele>684.0</ele><time>2026-03-22T11:38:35.286Z</time></trkpt><trkpt lat="44.3580779" lon="10.6663424"><ele>683.5</ele><time>2026-03-22T11:38:36.271Z</time></trkpt><trkpt lat="44.3582217" lon="10.6663076"><ele>683.0</ele><time>2026-03-22T11:38:37.283Z</time></trkpt><trkpt lat="44.3583493" lon="10.6662591"><ele>682.5</ele><time>2026-03-22T11:38:38.271Z</time></trkpt><trkpt lat="44.3584412" lon="10.6662424"><ele>682.0</ele><time>2026-03-22T11:38:39.272Z</time></trkpt><trkpt lat="44.3585204" lon="10.6663084"><ele>682.0</ele><time>2026-03-22T11:38:40.275Z</time></trkpt><trkpt lat="44.3586117" lon="10.6663971"><ele>682.0</ele><time>2026-03-22T11:38:41.275Z</time></trkpt><trkpt lat="44.3586742" lon="10.6665504"><ele>682.0</ele><time>2026-03-22T11:38:42.271Z</time></trkpt><trkpt lat="44.3587208" lon="10.6667312"><ele>682.0</ele><time>2026-03-22T11:38:43.279Z</time></trkpt><trkpt lat="44.35878" lon="10.6669257"><ele>680.25</ele><time>2026-03-22T11:38:44.283Z</time></trkpt><trkpt lat="44.358833" lon="10.6671086"><ele>678.5</ele><time>2026-03-22T11:38:45.267Z</time></trkpt><trkpt lat="44.3588633" lon="10.6672786"><ele>676.75</ele><time>2026-03-22T11:38:46.279Z</time></trkpt><trkpt lat="44.3589076" lon="10.6674192"><ele>675.0</ele><time>2026-03-22T11:38:47.283Z</time></trkpt><trkpt lat="44.359011" lon="10.6675133"><ele>675.0</ele><time>2026-03-22T11:38:48.274Z</time></trkpt><trkpt lat="44.3591221" lon="10.6675787"><ele>675.0</ele><time>2026-03-22T11:38:49.28Z</time></trkpt><trkpt lat="44.3592439" lon="10.6675543"><ele>675.0</ele><time>2026-03-22T11:38:50.275Z</time></trkpt><trkpt lat="44.3593523" lon="10.6674688"><ele>675.0</ele><time>2026-03-22T11:38:51.281Z</time></trkpt><trkpt lat="44.3594617" lon="10.6673564"><ele>675.0</ele><time>2026-03-22T11:38:52.274Z</time></trkpt><trkpt lat="44.3595366" lon="10.6671877"><ele>675.0</ele><time>2026-03-22T11:38:53.265Z</time></trkpt><trkpt lat="44.3596092" lon="10.6670015"><ele>675.0</ele><time>2026-03-22T11:38:54.281Z</time></trkpt><trkpt lat="44.3596636" lon="10.6667914"><ele>678.6666666666666</ele><time>2026-03-22T11:38:55.277Z</time></trkpt><trkpt lat="44.359714" lon="10.6665692"><ele>682.3333333333333</ele><time>2026-03-22T11:38:56.274Z</time></trkpt><trkpt lat="44.3597709" lon="10.6663503"><ele>686.0</ele><time>2026-03-22T11:38:57.271Z</time></trkpt><trkpt lat="44.3598365" lon="10.6661385"><ele>684.25</ele><time>2026-03-22T11:38:58.278Z</time></trkpt><trkpt lat="44.3599084" lon="10.6659373"><ele>682.5</ele><time>2026-03-22T11:38:59.276Z</time></trkpt><trkpt lat="44.3599901" lon="10.6657629"><ele>680.75</ele><time>2026-03-22T11:39:00.273Z</time></trkpt><trkpt lat="44.3600743" lon="10.6656146"><ele>679.0</ele><time>2026-03-22T11:39:01.277Z</time></trkpt><trkpt lat="44.3601634" lon="10.6654945"><ele>679.0</ele><time>2026-03-22T11:39:02.279Z</time></trkpt><trkpt lat="44.3602612" lon="10.6653706"><ele>679.0</ele><time>2026-03-22T11:39:03.273Z</time></trkpt><trkpt lat="44.3604005" lon="10.66529"><ele>679.0</ele><time>2026-03-22T11:39:04.263Z</time></trkpt><trkpt lat="44.3605536" lon="10.6652178"><ele>679.0</ele><time>2026-03-22T11:39:05.276Z</time></trkpt><trkpt lat="44.3607113" lon="10.6651354"><ele>681.6666666666667</ele><time>2026-03-22T11:39:06.285Z</time></trkpt><trkpt lat="44.3608644" lon="10.665034"><ele>684.3333333333334</ele><time>2026-03-22T11:39:07.281Z</time></trkpt><trkpt lat="44.3610088" lon="10.6649058"><ele>687.0</ele><time>2026-03-22T11:39:08.285Z</time></trkpt><trkpt lat="44.3611301" lon="10.6647719"><ele>687.0</ele><time>2026-03-22T11:39:09.268Z</time></trkpt><trkpt lat="44.3612257" lon="10.664654"><ele>687.0</ele><time>2026-03-22T11:39:10.274Z</time></trkpt><trkpt lat="44.3613165" lon="10.6645503"><ele>687.0</ele><time>2026-03-22T11:39:11.278Z</time></trkpt><trkpt lat="44.3613966" lon="10.6644989"><ele>687.0</ele><time>2026-03-22T11:39:12.274Z</time></trkpt><trkpt lat="44.3614799" lon="10.6644997"><ele>687.0</ele><time>2026-03-22T11:39:13.285Z</time></trkpt><trkpt lat="44.3615565" lon="10.6645514"><ele>688.6</ele><time>2026-03-22T11:39:14.286Z</time></trkpt><trkpt lat="44.3616062" lon="10.6646755"><ele>690.2</ele><time>2026-03-22T11:39:15.288Z</time></trkpt><trkpt lat="44.3616642" lon="10.6648036"><ele>691.8</ele><time>2026-03-22T11:39:16.27Z</time></trkpt><trkpt lat="44.361716" lon="10.6649226"><ele>693.4</ele><time>2026-03-22T11:39:17.281Z</time></trkpt><trkpt lat="44.3617907" lon="10.6650566"><ele>695.0</ele><time>2026-03-22T11:39:18.276Z</time></trkpt><trkpt lat="44.3618746" lon="10.6651828"><ele>694.75</ele><time>2026-03-22T11:39:19.288Z</time></trkpt><trkpt lat="44.3619605" lon="10.6652874"><ele>694.5</ele><time>2026-03-22T11:39:20.286Z</time></trkpt><trkpt lat="44.3620538" lon="10.6653824"><ele>694.25</ele><time>2026-03-22T11:39:21.271Z</time></trkpt><trkpt lat="44.3621552" lon="10.6654805"><ele>694.0</ele><time>2026-03-22T11:39:22.274Z</time></trkpt><trkpt lat="44.3622774" lon="10.6655689"><ele>694.0</ele><time>2026-03-22T11:39:23.274Z</time></trkpt><trkpt lat="44.3624128" lon="10.6656621"><ele>694.0</ele><time>2026-03-22T11:39:24.286Z</time></trkpt><trkpt lat="44.3625669" lon="10.6657463"><ele>694.0</ele><time>2026-03-22T11:39:25.284Z</time></trkpt><trkpt lat="44.362728" lon="10.6658391"><ele>694.0</ele><time>2026-03-22T11:39:26.274Z</time></trkpt><trkpt lat="44.3628887" lon="10.665933"><ele>694.0</ele><time>2026-03-22T11:39:27.286Z</time></trkpt><trkpt lat="44.3630458" lon="10.6660247"><ele>694.0</ele><time>2026-03-22T11:39:28.286Z</time></trkpt><trkpt lat="44.3631919" lon="10.6661159"><ele>696.25</ele><time>2026-03-22T11:39:29.29Z</time></trkpt><trkpt lat="44.3633251" lon="10.6662006"><ele>698.5</ele><time>2026-03-22T11:39:30.278Z</time></trkpt><trkpt lat="44.3634478" lon="10.6662731"><ele>700.75</ele><time>2026-03-22T11:39:31.271Z</time></trkpt><trkpt lat="44.3635711" lon="10.6663202"><ele>703.0</ele><time>2026-03-22T11:39:32.264Z</time></trkpt><trkpt lat="44.3636999" lon="10.6663323"><ele>703.0</ele><time>2026-03-22T11:39:33.273Z</time></trkpt><trkpt lat="44.3638311" lon="10.6662892"><ele>703.0</ele><time>2026-03-22T11:39:34.279Z</time></trkpt><trkpt lat="44.3639485" lon="10.666239"><ele>703.0</ele><time>2026-03-22T11:39:35.282Z</time></trkpt><trkpt lat="44.364047" lon="10.6662158"><ele>703.0</ele><time>2026-03-22T11:39:36.261Z</time></trkpt><trkpt lat="44.3641421" lon="10.6662356"><ele>704.0</ele><time>2026-03-22T11:39:37.287Z</time></trkpt><trkpt lat="44.3642296" lon="10.6663103"><ele>705.0</ele><time>2026-03-22T11:39:38.281Z</time></trkpt><trkpt lat="44.3642869" lon="10.6664301"><ele>706.0</ele><time>2026-03-22T11:39:39.286Z</time></trkpt><trkpt lat="44.3643167" lon="10.6665759"><ele>707.0</ele><time>2026-03-22T11:39:40.272Z</time></trkpt><trkpt lat="44.3643571" lon="10.6667247"><ele>708.0</ele><time>2026-03-22T11:39:41.276Z</time></trkpt><trkpt lat="44.3644035" lon="10.6668533"><ele>710.5</ele><time>2026-03-22T11:39:42.275Z</time></trkpt><trkpt lat="44.3644953" lon="10.666964"><ele>713.0</ele><time>2026-03-22T11:39:43.28Z</time></trkpt><trkpt lat="44.3646011" lon="10.6670331"><ele>715.5</ele><time>2026-03-22T11:39:44.265Z</time></trkpt><trkpt lat="44.36472" lon="10.6670811"><ele>718.0</ele><time>2026-03-22T11:39:45.269Z</time></trkpt><trkpt lat="44.3648092" lon="10.6670944"><ele>718.0</ele><time>2026-03-22T11:39:46.269Z</time></trkpt><trkpt lat="44.3648764" lon="10.6671023"><ele>718.0</ele><time>2026-03-22T11:39:47.277Z</time></trkpt><trkpt lat="44.3649709" lon="10.6671331"><ele>718.0</ele><time>2026-03-22T11:39:49.275Z</time></trkpt><trkpt lat="44.3650922" lon="10.6671875"><ele>718.0</ele><time>2026-03-22T11:39:51.278Z</time></trkpt><trkpt lat="44.365185" lon="10.6672034"><ele>718.0</ele><time>2026-03-22T11:39:52.286Z</time></trkpt><trkpt lat="44.3652937" lon="10.6671899"><ele>718.0</ele><time>2026-03-22T11:39:53.27Z</time></trkpt><trkpt lat="44.3654083" lon="10.6671063"><ele>718.0</ele><time>2026-03-22T11:39:54.289Z</time></trkpt><trkpt lat="44.3655208" lon="10.666995"><ele>718.0</ele><time>2026-03-22T11:39:55.281Z</time></trkpt><trkpt lat="44.3656538" lon="10.6668734"><ele>718.0</ele><time>2026-03-22T11:39:56.285Z</time></trkpt><trkpt lat="44.3658076" lon="10.6667615"><ele>715.0</ele><time>2026-03-22T11:39:57.286Z</time></trkpt><trkpt lat="44.3659655" lon="10.6666712"><ele>712.0</ele><time>2026-03-22T11:39:58.268Z</time></trkpt><trkpt lat="44.3661244" lon="10.6665989"><ele>709.0</ele><time>2026-03-22T11:39:59.275Z</time></trkpt><trkpt lat="44.366294" lon="10.6665464"><ele>712.3333333333334</ele><time>2026-03-22T11:40:00.261Z</time></trkpt><trkpt lat="44.3664633" lon="10.6664952"><ele>715.6666666666666</ele><time>2026-03-22T11:40:01.277Z</time></trkpt><trkpt lat="44.3666187" lon="10.666454"><ele>719.0</ele><time>2026-03-22T11:40:02.278Z</time></trkpt><trkpt lat="44.3667631" lon="10.6664191"><ele>719.0</ele><time>2026-03-22T11:40:03.275Z</time></trkpt><trkpt lat="44.3668971" lon="10.6663585"><ele>719.0</ele><time>2026-03-22T11:40:04.273Z</time></trkpt><trkpt lat="44.3670166" lon="10.6662627"><ele>719.0</ele><time>2026-03-22T11:40:05.277Z</time></trkpt><trkpt lat="44.3671378" lon="10.6661616"><ele>719.0</ele><time>2026-03-22T11:40:06.285Z</time></trkpt><trkpt lat="44.3672645" lon="10.6660746"><ele>720.0</ele><time>2026-03-22T11:40:07.291Z</time></trkpt><trkpt lat="44.3673928" lon="10.6660441"><ele>721.0</ele><time>2026-03-22T11:40:08.272Z</time></trkpt><trkpt lat="44.3675135" lon="10.6660665"><ele>722.0</ele><time>2026-03-22T11:40:09.261Z</time></trkpt><trkpt lat="44.3676296" lon="10.6661292"><ele>723.0</ele><time>2026-03-22T11:40:10.289Z</time></trkpt><trkpt lat="44.3677468" lon="10.6661824"><ele>723.0</ele><time>2026-03-22T11:40:11.283Z</time></trkpt><trkpt lat="44.3678662" lon="10.6661755"><ele>723.0</ele><time>2026-03-22T11:40:12.287Z</time></trkpt><trkpt lat="44.367972" lon="10.6661364"><ele>723.0</ele><time>2026-03-22T11:40:13.289Z</time></trkpt><trkpt lat="44.3680661" lon="10.6660063"><ele>723.0</ele><time>2026-03-22T11:40:14.269Z</time></trkpt><trkpt lat="44.3681724" lon="10.6658566"><ele>721.6666666666666</ele><time>2026-03-22T11:40:15.288Z</time></trkpt><trkpt lat="44.368273" lon="10.6657082"><ele>720.3333333333333</ele><time>2026-03-22T11:40:16.271Z</time></trkpt><trkpt lat="44.3683757" lon="10.6655518"><ele>719.0</ele><time>2026-03-22T11:40:17.285Z</time></trkpt><trkpt lat="44.3684877" lon="10.6654012"><ele>716.3333333333333</ele><time>2026-03-22T11:40:18.286Z</time></trkpt><trkpt lat="44.3686049" lon="10.6652645"><ele>713.6666666666666</ele><time>2026-03-22T11:40:19.269Z</time></trkpt><trkpt lat="44.36873" lon="10.6651282"><ele>711.0</ele><time>2026-03-22T11:40:20.279Z</time></trkpt><trkpt lat="44.3688564" lon="10.6649941"><ele>715.0</ele><time>2026-03-22T11:40:21.288Z</time></trkpt><trkpt lat="44.3689745" lon="10.6648608"><ele>719.0</ele><time>2026-03-22T11:40:22.288Z</time></trkpt><trkpt lat="44.3690833" lon="10.6647287"><ele>723.0</ele><time>2026-03-22T11:40:23.286Z</time></trkpt><trkpt lat="44.3691858" lon="10.6646049"><ele>727.0</ele><time>2026-03-22T11:40:24.283Z</time></trkpt><trkpt lat="44.3692577" lon="10.6644871"><ele>726.1666666666667</ele><time>2026-03-22T11:40:25.268Z</time></trkpt><trkpt lat="44.3692913" lon="10.6643532"><ele>725.3333333333334</ele><time>2026-03-22T11:40:26.276Z</time></trkpt><trkpt lat="44.3693171" lon="10.6642331"><ele>724.5</ele><time>2026-03-22T11:40:27.281Z</time></trkpt><trkpt lat="44.3693517" lon="10.6641314"><ele>723.6666666666666</ele><time>2026-03-22T11:40:28.283Z</time></trkpt><trkpt lat="44.3694066" lon="10.6640801"><ele>722.8333333333333</ele><time>2026-03-22T11:40:29.265Z</time></trkpt><trkpt lat="44.3694733" lon="10.6640782"><ele>722.0</ele><time>2026-03-22T11:40:30.281Z</time></trkpt><trkpt lat="44.3695664" lon="10.664236"><ele>722.0</ele><time>2026-03-22T11:40:32.279Z</time></trkpt><trkpt lat="44.3696029" lon="10.6643718"><ele>722.0</ele><time>2026-03-22T11:40:33.283Z</time></trkpt><trkpt lat="44.369636" lon="10.6645145"><ele>722.0</ele><time>2026-03-22T11:40:34.274Z</time></trkpt><trkpt lat="44.3697082" lon="10.6646414"><ele>722.0</ele><time>2026-03-22T11:40:35.286Z</time></trkpt><trkpt lat="44.3698095" lon="10.6647497"><ele>726.6666666666666</ele><time>2026-03-22T11:40:36.279Z</time></trkpt><trkpt lat="44.369952" lon="10.6648137"><ele>731.3333333333334</ele><time>2026-03-22T11:40:37.275Z</time></trkpt><trkpt lat="44.3701282" lon="10.6648633"><ele>736.0</ele><time>2026-03-22T11:40:38.289Z</time></trkpt><trkpt lat="44.3702846" lon="10.6649081"><ele>736.0</ele><time>2026-03-22T11:40:39.287Z</time></trkpt><trkpt lat="44.3704163" lon="10.6649835"><ele>736.0</ele><time>2026-03-22T11:40:40.291Z</time></trkpt><trkpt lat="44.3705423" lon="10.6650624"><ele>736.0</ele><time>2026-03-22T11:40:41.281Z</time></trkpt><trkpt lat="44.3706651" lon="10.6651347"><ele>736.0</ele><time>2026-03-22T11:40:42.272Z</time></trkpt><trkpt lat="44.3707714" lon="10.6651999"><ele>737.5999999999999</ele><time>2026-03-22T11:40:43.272Z</time></trkpt><trkpt lat="44.3708648" lon="10.6652826"><ele>739.2</ele><time>2026-03-22T11:40:44.275Z</time></trkpt><trkpt lat="44.3709292" lon="10.6653968"><ele>740.8</ele><time>2026-03-22T11:40:45.281Z</time></trkpt><trkpt lat="44.3709501" lon="10.6655449"><ele>742.4000000000001</ele><time>2026-03-22T11:40:46.277Z</time></trkpt><trkpt lat="44.3709179" lon="10.6656957"><ele>744.0</ele><time>2026-03-22T11:40:47.289Z</time></trkpt><trkpt lat="44.3708783" lon="10.6658407"><ele>744.0</ele><time>2026-03-22T11:40:48.277Z</time></trkpt><trkpt lat="44.3708492" lon="10.6660035"><ele>744.0</ele><time>2026-03-22T11:40:49.276Z</time></trkpt><trkpt lat="44.3708753" lon="10.6661735"><ele>744.0</ele><time>2026-03-22T11:40:50.279Z</time></trkpt><trkpt lat="44.3709362" lon="10.6663385"><ele>744.0</ele><time>2026-03-22T11:40:51.283Z</time></trkpt><trkpt lat="44.3710282" lon="10.6664788"><ele>747.0</ele><time>2026-03-22T11:40:52.277Z</time></trkpt><trkpt lat="44.3711614" lon="10.6665964"><ele>750.0</ele><time>2026-03-22T11:40:53.277Z</time></trkpt><trkpt lat="44.3713215" lon="10.6666801"><ele>753.0</ele><time>2026-03-22T11:40:54.286Z</time></trkpt><trkpt lat="44.3714956" lon="10.6667397"><ele>753.0</ele><time>2026-03-22T11:40:55.271Z</time></trkpt><trkpt lat="44.37167" lon="10.6667832"><ele>753.0</ele><time>2026-03-22T11:40:56.284Z</time></trkpt><trkpt lat="44.3718443" lon="10.6668089"><ele>753.0</ele><time>2026-03-22T11:40:57.288Z</time></trkpt><trkpt lat="44.3720132" lon="10.666836"><ele>753.0</ele><time>2026-03-22T11:40:58.279Z</time></trkpt><trkpt lat="44.3721686" lon="10.6668576"><ele>753.0</ele><time>2026-03-22T11:40:59.288Z</time></trkpt><trkpt lat="44.3723331" lon="10.6668999"><ele>753.0</ele><time>2026-03-22T11:41:00.271Z</time></trkpt><trkpt lat="44.3724946" lon="10.6669529"><ele>758.0</ele><time>2026-03-22T11:41:01.285Z</time></trkpt><trkpt lat="44.3726544" lon="10.6670175"><ele>763.0</ele><time>2026-03-22T11:41:02.284Z</time></trkpt><trkpt lat="44.3728079" lon="10.6670763"><ele>768.0</ele><time>2026-03-22T11:41:03.291Z</time></trkpt><trkpt lat="44.3729547" lon="10.6671331"><ele>766.5</ele><time>2026-03-22T11:41:04.288Z</time></trkpt><trkpt lat="44.3730896" lon="10.6671955"><ele>765.0</ele><time>2026-03-22T11:41:05.273Z</time></trkpt><trkpt lat="44.3732108" lon="10.6672851"><ele>763.5</ele><time>2026-03-22T11:41:06.288Z</time></trkpt><trkpt lat="44.3733198" lon="10.6674121"><ele>762.0</ele><time>2026-03-22T11:41:07.277Z</time></trkpt><trkpt lat="44.3734014" lon="10.6675731"><ele>762.0</ele><time>2026-03-22T11:41:08.284Z</time></trkpt><trkpt lat="44.3734488" lon="10.6677584"><ele>762.0</ele><time>2026-03-22T11:41:09.286Z</time></trkpt><trkpt lat="44.3734732" lon="10.6679602"><ele>762.0</ele><time>2026-03-22T11:41:10.29Z</time></trkpt><trkpt lat="44.3735011" lon="10.6681729"><ele>762.0</ele><time>2026-03-22T11:41:11.272Z</time></trkpt><trkpt lat="44.3735442" lon="10.6683757"><ele>765.0</ele><time>2026-03-22T11:41:12.285Z</time></trkpt><trkpt lat="44.3735969" lon="10.6685706"><ele>768.0</ele><time>2026-03-22T11:41:13.276Z</time></trkpt><trkpt lat="44.3736808" lon="10.6687564"><ele>771.0</ele><time>2026-03-22T11:41:14.273Z</time></trkpt><trkpt lat="44.3737748" lon="10.6689557"><ele>770.6666666666667</ele><time>2026-03-22T11:41:15.287Z</time></trkpt><trkpt lat="44.3738544" lon="10.6691481"><ele>770.3333333333334</ele><time>2026-03-22T11:41:16.27Z</time></trkpt><trkpt lat="44.373929" lon="10.6693356"><ele>770.0</ele><time>2026-03-22T11:41:17.281Z</time></trkpt><trkpt lat="44.3740032" lon="10.6695191"><ele>773.6666666666667</ele><time>2026-03-22T11:41:18.274Z</time></trkpt><trkpt lat="44.3740814" lon="10.6697085"><ele>777.3333333333333</ele><time>2026-03-22T11:41:19.287Z</time></trkpt><trkpt lat="44.374157" lon="10.6698955"><ele>781.0</ele><time>2026-03-22T11:41:20.271Z</time></trkpt><trkpt lat="44.37423" lon="10.6700779"><ele>781.0</ele><time>2026-03-22T11:41:21.269Z</time></trkpt><trkpt lat="44.3742921" lon="10.6702603"><ele>781.0</ele><time>2026-03-22T11:41:22.287Z</time></trkpt><trkpt lat="44.374351" lon="10.6704353"><ele>781.0</ele><time>2026-03-22T11:41:23.289Z</time></trkpt><trkpt lat="44.3743958" lon="10.6706171"><ele>781.0</ele><time>2026-03-22T11:41:24.282Z</time></trkpt><trkpt lat="44.3744202" lon="10.6708069"><ele>782.6666666666666</ele><time>2026-03-22T11:41:25.279Z</time></trkpt><trkpt lat="44.3744425" lon="10.6710147"><ele>784.3333333333333</ele><time>2026-03-22T11:41:26.287Z</time></trkpt><trkpt lat="44.3744803" lon="10.6712198"><ele>786.0</ele><time>2026-03-22T11:41:27.283Z</time></trkpt><trkpt lat="44.3745233" lon="10.6714365"><ele>786.3333333333333</ele><time>2026-03-22T11:41:28.292Z</time></trkpt><trkpt lat="44.3745629" lon="10.6716697"><ele>786.6666666666666</ele><time>2026-03-22T11:41:29.291Z</time></trkpt><trkpt lat="44.3745961" lon="10.6719146"><ele>787.0</ele><time>2026-03-22T11:41:30.286Z</time></trkpt><trkpt lat="44.3746238" lon="10.672164"><ele>786.0</ele><time>2026-03-22T11:41:31.29Z</time></trkpt><trkpt lat="44.3746669" lon="10.6724179"><ele>785.0</ele><time>2026-03-22T11:41:32.288Z</time></trkpt><trkpt lat="44.3747031" lon="10.6726641"><ele>784.0</ele><time>2026-03-22T11:41:33.274Z</time></trkpt><trkpt lat="44.3747258" lon="10.6729096"><ele>784.0</ele><time>2026-03-22T11:41:34.275Z</time></trkpt><trkpt lat="44.3747541" lon="10.673147"><ele>784.0</ele><time>2026-03-22T11:41:35.278Z</time></trkpt><trkpt lat="44.3747885" lon="10.6733858"><ele>784.0</ele><time>2026-03-22T11:41:36.29Z</time></trkpt><trkpt lat="44.374827" lon="10.6736182"><ele>786.6666666666666</ele><time>2026-03-22T11:41:37.276Z</time></trkpt><trkpt lat="44.3748801" lon="10.6738401"><ele>789.3333333333333</ele><time>2026-03-22T11:41:38.282Z</time></trkpt><trkpt lat="44.3749326" lon="10.6740364"><ele>792.0</ele><time>2026-03-22T11:41:39.282Z</time></trkpt><trkpt lat="44.3750223" lon="10.6742167"><ele>792.0</ele><time>2026-03-22T11:41:40.28Z</time></trkpt><trkpt lat="44.3751286" lon="10.6743684"><ele>792.0</ele><time>2026-03-22T11:41:41.279Z</time></trkpt><trkpt lat="44.3752688" lon="10.6744977"><ele>792.0</ele><time>2026-03-22T11:41:42.288Z</time></trkpt><trkpt lat="44.3754151" lon="10.6745831"><ele>794.3333333333333</ele><time>2026-03-22T11:41:43.274Z</time></trkpt><trkpt lat="44.375571" lon="10.6746338"><ele>796.6666666666666</ele><time>2026-03-22T11:41:44.286Z</time></trkpt><trkpt lat="44.375734" lon="10.6746647"><ele>799.0</ele><time>2026-03-22T11:41:45.283Z</time></trkpt><trkpt lat="44.3758996" lon="10.6746952"><ele>799.0</ele><time>2026-03-22T11:41:46.285Z</time></trkpt><trkpt lat="44.376073" lon="10.6747252"><ele>799.0</ele><time>2026-03-22T11:41:47.276Z</time></trkpt><trkpt lat="44.3762601" lon="10.6747633"><ele>799.0</ele><time>2026-03-22T11:41:48.285Z</time></trkpt><trkpt lat="44.3764574" lon="10.6747966"><ele>800.6666666666666</ele><time>2026-03-22T11:41:49.291Z</time></trkpt><trkpt lat="44.3766547" lon="10.674851"><ele>802.3333333333333</ele><time>2026-03-22T11:41:50.275Z</time></trkpt><trkpt lat="44.3768491" lon="10.6748938"><ele>804.0</ele><time>2026-03-22T11:41:51.28Z</time></trkpt><trkpt lat="44.3770468" lon="10.6749158"><ele>807.0</ele><time>2026-03-22T11:41:52.274Z</time></trkpt><trkpt lat="44.377248" lon="10.6748916"><ele>810.0</ele><time>2026-03-22T11:41:53.267Z</time></trkpt><trkpt lat="44.3774572" lon="10.6748287"><ele>813.0</ele><time>2026-03-22T11:41:54.273Z</time></trkpt><trkpt lat="44.377668" lon="10.6747423"><ele>813.0</ele><time>2026-03-22T11:41:55.275Z</time></trkpt><trkpt lat="44.3778762" lon="10.6746475"><ele>813.0</ele><time>2026-03-22T11:41:56.287Z</time></trkpt><trkpt lat="44.3780771" lon="10.6745502"><ele>813.0</ele><time>2026-03-22T11:41:57.293Z</time></trkpt><trkpt lat="44.3782727" lon="10.6744587"><ele>811.0</ele><time>2026-03-22T11:41:58.274Z</time></trkpt><trkpt lat="44.3784516" lon="10.6743635"><ele>809.0</ele><time>2026-03-22T11:41:59.284Z</time></trkpt><trkpt lat="44.3786163" lon="10.6742635"><ele>807.0</ele><time>2026-03-22T11:42:00.289Z</time></trkpt><trkpt lat="44.3787635" lon="10.6741403"><ele>810.3333333333333</ele><time>2026-03-22T11:42:01.275Z</time></trkpt><trkpt lat="44.3788969" lon="10.6739766"><ele>813.6666666666666</ele><time>2026-03-22T11:42:02.292Z</time></trkpt><trkpt lat="44.3790138" lon="10.6737729"><ele>817.0</ele><time>2026-03-22T11:42:03.286Z</time></trkpt><trkpt lat="44.3791178" lon="10.6735549"><ele>817.0</ele><time>2026-03-22T11:42:04.282Z</time></trkpt><trkpt lat="44.379211" lon="10.6733467"><ele>817.0</ele><time>2026-03-22T11:42:05.274Z</time></trkpt><trkpt lat="44.3793129" lon="10.673136"><ele>817.0</ele><time>2026-03-22T11:42:06.275Z</time></trkpt><trkpt lat="44.3794098" lon="10.6729337"><ele>815.3333333333333</ele><time>2026-03-22T11:42:07.285Z</time></trkpt><trkpt lat="44.3795024" lon="10.6727369"><ele>813.6666666666667</ele><time>2026-03-22T11:42:08.284Z</time></trkpt><trkpt lat="44.3795866" lon="10.672555"><ele>812.0</ele><time>2026-03-22T11:42:09.289Z</time></trkpt><trkpt lat="44.3796705" lon="10.6723877"><ele>818.6666666666667</ele><time>2026-03-22T11:42:10.284Z</time></trkpt><trkpt lat="44.379763" lon="10.6722268"><ele>825.3333333333333</ele><time>2026-03-22T11:42:11.292Z</time></trkpt><trkpt lat="44.3798849" lon="10.6721047"><ele>832.0</ele><time>2026-03-22T11:42:12.278Z</time></trkpt><trkpt lat="44.3800224" lon="10.6720118"><ele>832.0</ele><time>2026-03-22T11:42:13.275Z</time></trkpt><trkpt lat="44.3801806" lon="10.6719614"><ele>832.0</ele><time>2026-03-22T11:42:14.278Z</time></trkpt><trkpt lat="44.3803493" lon="10.6719182"><ele>832.0</ele><time>2026-03-22T11:42:15.277Z</time></trkpt><trkpt lat="44.3805179" lon="10.6718787"><ele>826.6666666666666</ele><time>2026-03-22T11:42:16.278Z</time></trkpt><trkpt lat="44.3807002" lon="10.6718391"><ele>821.3333333333333</ele><time>2026-03-22T11:42:17.278Z</time></trkpt><trkpt lat="44.3808863" lon="10.6717918"><ele>816.0</ele><time>2026-03-22T11:42:18.288Z</time></trkpt><trkpt lat="44.3810844" lon="10.6717348"><ele>816.0</ele><time>2026-03-22T11:42:19.284Z</time></trkpt><trkpt lat="44.3812876" lon="10.6716755"><ele>816.0</ele><time>2026-03-22T11:42:20.27Z</time></trkpt><trkpt lat="44.3814921" lon="10.6716197"><ele>816.0</ele><time>2026-03-22T11:42:21.293Z</time></trkpt><trkpt lat="44.3816961" lon="10.6715514"><ele>817.3333333333333</ele><time>2026-03-22T11:42:22.292Z</time></trkpt><trkpt lat="44.3818918" lon="10.6714831"><ele>818.6666666666666</ele><time>2026-03-22T11:42:23.288Z</time></trkpt><trkpt lat="44.3820827" lon="10.6714133"><ele>820.0</ele><time>2026-03-22T11:42:24.287Z</time></trkpt><trkpt lat="44.3822682" lon="10.67134"><ele>820.0</ele><time>2026-03-22T11:42:25.292Z</time></trkpt><trkpt lat="44.3824462" lon="10.6712755"><ele>820.0</ele><time>2026-03-22T11:42:26.272Z</time></trkpt><trkpt lat="44.3826284" lon="10.6712099"><ele>820.0</ele><time>2026-03-22T11:42:27.285Z</time></trkpt><trkpt lat="44.3828077" lon="10.6711421"><ele>816.3333333333333</ele><time>2026-03-22T11:42:28.287Z</time></trkpt><trkpt lat="44.3829851" lon="10.6710758"><ele>812.6666666666667</ele><time>2026-03-22T11:42:29.284Z</time></trkpt><trkpt lat="44.38316" lon="10.6710134"><ele>809.0</ele><time>2026-03-22T11:42:30.28Z</time></trkpt><trkpt lat="44.3833356" lon="10.6709498"><ele>809.0</ele><time>2026-03-22T11:42:31.292Z</time></trkpt><trkpt lat="44.3835145" lon="10.6708791"><ele>809.0</ele><time>2026-03-22T11:42:32.29Z</time></trkpt><trkpt lat="44.3836927" lon="10.6707892"><ele>809.0</ele><time>2026-03-22T11:42:33.282Z</time></trkpt><trkpt lat="44.3838754" lon="10.6706757"><ele>810.6666666666667</ele><time>2026-03-22T11:42:34.287Z</time></trkpt><trkpt lat="44.3840509" lon="10.6705411"><ele>812.3333333333333</ele><time>2026-03-22T11:42:35.276Z</time></trkpt><trkpt lat="44.3842299" lon="10.670399"><ele>814.0</ele><time>2026-03-22T11:42:36.269Z</time></trkpt><trkpt lat="44.3844123" lon="10.6702481"><ele>809.0</ele><time>2026-03-22T11:42:37.274Z</time></trkpt><trkpt lat="44.3845969" lon="10.6701003"><ele>804.0</ele><time>2026-03-22T11:42:38.276Z</time></trkpt><trkpt lat="44.3847813" lon="10.669954"><ele>799.0</ele><time>2026-03-22T11:42:39.279Z</time></trkpt><trkpt lat="44.3849618" lon="10.6698115"><ele>799.0</ele><time>2026-03-22T11:42:40.265Z</time></trkpt><trkpt lat="44.385141" lon="10.6696702"><ele>799.0</ele><time>2026-03-22T11:42:41.275Z</time></trkpt><trkpt lat="44.3853161" lon="10.6695328"><ele>799.0</ele><time>2026-03-22T11:42:42.285Z</time></trkpt><trkpt lat="44.385488" lon="10.6694039"><ele>798.6666666666666</ele><time>2026-03-22T11:42:43.273Z</time></trkpt><trkpt lat="44.3856568" lon="10.6692771"><ele>798.3333333333333</ele><time>2026-03-22T11:42:44.267Z</time></trkpt><trkpt lat="44.3858214" lon="10.6691453"><ele>798.0</ele><time>2026-03-22T11:42:45.272Z</time></trkpt><trkpt lat="44.3859776" lon="10.6690003"><ele>798.0</ele><time>2026-03-22T11:42:46.282Z</time></trkpt><trkpt lat="44.3861149" lon="10.6688272"><ele>798.0</ele><time>2026-03-22T11:42:47.268Z</time></trkpt><trkpt lat="44.3862422" lon="10.6686306"><ele>798.0</ele><time>2026-03-22T11:42:48.275Z</time></trkpt><trkpt lat="44.3863528" lon="10.6684208"><ele>797.3333333333333</ele><time>2026-03-22T11:42:49.28Z</time></trkpt><trkpt lat="44.3864306" lon="10.6681991"><ele>796.6666666666666</ele><time>2026-03-22T11:42:50.27Z</time></trkpt><trkpt lat="44.3864875" lon="10.6679727"><ele>796.0</ele><time>2026-03-22T11:42:51.288Z</time></trkpt><trkpt lat="44.3865105" lon="10.6677367"><ele>796.0</ele><time>2026-03-22T11:42:52.289Z</time></trkpt><trkpt lat="44.3865193" lon="10.6675178"><ele>796.0</ele><time>2026-03-22T11:42:53.274Z</time></trkpt><trkpt lat="44.38654" lon="10.6673172"><ele>796.0</ele><time>2026-03-22T11:42:54.287Z</time></trkpt><trkpt lat="44.3865902" lon="10.66713"><ele>796.0</ele><time>2026-03-22T11:42:55.289Z</time></trkpt><trkpt lat="44.3866653" lon="10.6669447"><ele>794.3333333333333</ele><time>2026-03-22T11:42:56.273Z</time></trkpt><trkpt lat="44.3867515" lon="10.6667435"><ele>792.6666666666667</ele><time>2026-03-22T11:42:57.289Z</time></trkpt><trkpt lat="44.3868333" lon="10.6665452"><ele>791.0</ele><time>2026-03-22T11:42:58.278Z</time></trkpt><trkpt lat="44.3868991" lon="10.666349"><ele>791.0</ele><time>2026-03-22T11:42:59.285Z</time></trkpt><trkpt lat="44.386948" lon="10.6661522"><ele>791.0</ele><time>2026-03-22T11:43:00.286Z</time></trkpt><trkpt lat="44.3869779" lon="10.6659539"><ele>791.0</ele><time>2026-03-22T11:43:01.27Z</time></trkpt><trkpt lat="44.3869653" lon="10.6657509"><ele>791.0</ele><time>2026-03-22T11:43:02.276Z</time></trkpt><trkpt lat="44.3869157" lon="10.6655602"><ele>790.3333333333334</ele><time>2026-03-22T11:43:03.274Z</time></trkpt><trkpt lat="44.3868352" lon="10.665382"><ele>789.6666666666667</ele><time>2026-03-22T11:43:04.29Z</time></trkpt><trkpt lat="44.3867413" lon="10.6652101"><ele>789.0</ele><time>2026-03-22T11:43:05.275Z</time></trkpt><trkpt lat="44.3866582" lon="10.6650424"><ele>789.0</ele><time>2026-03-22T11:43:06.287Z</time></trkpt><trkpt lat="44.3866013" lon="10.6648831"><ele>789.0</ele><time>2026-03-22T11:43:07.28Z</time></trkpt><trkpt lat="44.3865793" lon="10.6647228"><ele>789.0</ele><time>2026-03-22T11:43:08.274Z</time></trkpt><trkpt lat="44.3865739" lon="10.6645629"><ele>789.0</ele><time>2026-03-22T11:43:09.28Z</time></trkpt><trkpt lat="44.3866073" lon="10.6643833"><ele>789.0</ele><time>2026-03-22T11:43:10.289Z</time></trkpt><trkpt lat="44.3866251" lon="10.6641952"><ele>789.0</ele><time>2026-03-22T11:43:11.269Z</time></trkpt><trkpt lat="44.3866076" lon="10.663992"><ele>789.0</ele><time>2026-03-22T11:43:12.282Z</time></trkpt><trkpt lat="44.3865546" lon="10.6637866"><ele>789.0</ele><time>2026-03-22T11:43:13.294Z</time></trkpt><trkpt lat="44.3864824" lon="10.6635828"><ele>789.3333333333333</ele><time>2026-03-22T11:43:14.285Z</time></trkpt><trkpt lat="44.3864097" lon="10.6633839"><ele>789.6666666666666</ele><time>2026-03-22T11:43:15.277Z</time></trkpt><trkpt lat="44.3863423" lon="10.6631953"><ele>790.0</ele><time>2026-03-22T11:43:16.27Z</time></trkpt><trkpt lat="44.3862688" lon="10.6630179"><ele>785.5</ele><time>2026-03-22T11:43:17.287Z</time></trkpt><trkpt lat="44.3861812" lon="10.6628558"><ele>781.0</ele><time>2026-03-22T11:43:18.29Z</time></trkpt><trkpt lat="44.3860804" lon="10.6627052"><ele>776.5</ele><time>2026-03-22T11:43:19.28Z</time></trkpt><trkpt lat="44.3859774" lon="10.6625548"><ele>772.0</ele><time>2026-03-22T11:43:20.284Z</time></trkpt><trkpt lat="44.3858834" lon="10.6624112"><ele>772.0</ele><time>2026-03-22T11:43:21.285Z</time></trkpt><trkpt lat="44.3858058" lon="10.6622799"><ele>772.0</ele><time>2026-03-22T11:43:22.289Z</time></trkpt><trkpt lat="44.38575" lon="10.6621492"><ele>772.0</ele><time>2026-03-22T11:43:23.286Z</time></trkpt><trkpt lat="44.3857213" lon="10.662005"><ele>772.0</ele><time>2026-03-22T11:43:24.273Z</time></trkpt><trkpt lat="44.3857251" lon="10.6618505"><ele>772.0</ele><time>2026-03-22T11:43:25.274Z</time></trkpt><trkpt lat="44.3857595" lon="10.6616938"><ele>771.25</ele><time>2026-03-22T11:43:26.285Z</time></trkpt><trkpt lat="44.3858145" lon="10.6615261"><ele>770.5</ele><time>2026-03-22T11:43:27.288Z</time></trkpt><trkpt lat="44.3858648" lon="10.6613365"><ele>769.75</ele><time>2026-03-22T11:43:28.286Z</time></trkpt><trkpt lat="44.3858695" lon="10.6611197"><ele>769.0</ele><time>2026-03-22T11:43:29.279Z</time></trkpt><trkpt lat="44.3858354" lon="10.6608942"><ele>769.0</ele><time>2026-03-22T11:43:30.28Z</time></trkpt><trkpt lat="44.3857595" lon="10.6606913"><ele>769.0</ele><time>2026-03-22T11:43:31.268Z</time></trkpt><trkpt lat="44.3856697" lon="10.6605094"><ele>769.0</ele><time>2026-03-22T11:43:32.278Z</time></trkpt><trkpt lat="44.3855867" lon="10.6603421"><ele>770.25</ele><time>2026-03-22T11:43:33.268Z</time></trkpt><trkpt lat="44.3855331" lon="10.6601648"><ele>771.5</ele><time>2026-03-22T11:43:34.301Z</time></trkpt><trkpt lat="44.3855191" lon="10.6599777"><ele>772.75</ele><time>2026-03-22T11:43:35.28Z</time></trkpt><trkpt lat="44.3855441" lon="10.6597713"><ele>774.0</ele><time>2026-03-22T11:43:36.284Z</time></trkpt><trkpt lat="44.3855854" lon="10.6595538"><ele>774.0</ele><time>2026-03-22T11:43:37.284Z</time></trkpt><trkpt lat="44.385622" lon="10.6593257"><ele>774.0</ele><time>2026-03-22T11:43:38.289Z</time></trkpt><trkpt lat="44.3856268" lon="10.6590709"><ele>774.0</ele><time>2026-03-22T11:43:39.274Z</time></trkpt><trkpt lat="44.3856168" lon="10.6588037"><ele>774.6666666666667</ele><time>2026-03-22T11:43:40.282Z</time></trkpt><trkpt lat="44.3855979" lon="10.6585364"><ele>775.3333333333334</ele><time>2026-03-22T11:43:41.269Z</time></trkpt><trkpt lat="44.3855731" lon="10.6582817"><ele>776.0</ele><time>2026-03-22T11:43:42.283Z</time></trkpt><trkpt lat="44.3855305" lon="10.6580504"><ele>769.0</ele><time>2026-03-22T11:43:43.278Z</time></trkpt><trkpt lat="44.3854723" lon="10.6578305"><ele>762.0</ele><time>2026-03-22T11:43:44.283Z</time></trkpt><trkpt lat="44.3853994" lon="10.6576346"><ele>755.0</ele><time>2026-03-22T11:43:45.284Z</time></trkpt><trkpt lat="44.3853137" lon="10.6574476"><ele>755.0</ele><time>2026-03-22T11:43:46.282Z</time></trkpt><trkpt lat="44.3852117" lon="10.6572659"><ele>755.0</ele><time>2026-03-22T11:43:47.286Z</time></trkpt><trkpt lat="44.3850952" lon="10.6570869"><ele>755.0</ele><time>2026-03-22T11:43:48.281Z</time></trkpt><trkpt lat="44.3849718" lon="10.6569126"><ele>753.5</ele><time>2026-03-22T11:43:49.274Z</time></trkpt><trkpt lat="44.3848521" lon="10.6567514"><ele>752.0</ele><time>2026-03-22T11:43:50.283Z</time></trkpt><trkpt lat="44.3847429" lon="10.6566064"><ele>750.5</ele><time>2026-03-22T11:43:51.272Z</time></trkpt><trkpt lat="44.3846528" lon="10.6564737"><ele>749.0</ele><time>2026-03-22T11:43:52.282Z</time></trkpt><trkpt lat="44.3845957" lon="10.6563444"><ele>749.0</ele><time>2026-03-22T11:43:53.281Z</time></trkpt><trkpt lat="44.3845753" lon="10.6562075"><ele>749.0</ele><time>2026-03-22T11:43:54.283Z</time></trkpt><trkpt lat="44.3845914" lon="10.6560672"><ele>749.0</ele><time>2026-03-22T11:43:55.282Z</time></trkpt><trkpt lat="44.3846435" lon="10.6559225"><ele>749.0</ele><time>2026-03-22T11:43:56.277Z</time></trkpt><trkpt lat="44.3847315" lon="10.6557723"><ele>754.6666666666666</ele><time>2026-03-22T11:43:57.289Z</time></trkpt><trkpt lat="44.3848195" lon="10.655606"><ele>760.3333333333334</ele><time>2026-03-22T11:43:58.273Z</time></trkpt><trkpt lat="44.3848845" lon="10.6554094"><ele>766.0</ele><time>2026-03-22T11:43:59.266Z</time></trkpt><trkpt lat="44.3849223" lon="10.6551943"><ele>766.0</ele><time>2026-03-22T11:44:00.275Z</time></trkpt><trkpt lat="44.384939" lon="10.6549875"><ele>766.0</ele><time>2026-03-22T11:44:01.278Z</time></trkpt><trkpt lat="44.3849143" lon="10.6547817"><ele>766.0</ele><time>2026-03-22T11:44:02.29Z</time></trkpt><trkpt lat="44.3848443" lon="10.6545852"><ele>769.6666666666667</ele><time>2026-03-22T11:44:03.286Z</time></trkpt><trkpt lat="44.3847456" lon="10.6543989"><ele>773.3333333333334</ele><time>2026-03-22T11:44:04.282Z</time></trkpt><trkpt lat="44.3846542" lon="10.6542086"><ele>777.0</ele><time>2026-03-22T11:44:05.28Z</time></trkpt><trkpt lat="44.3845758" lon="10.654018"><ele>768.25</ele><time>2026-03-22T11:44:06.283Z</time></trkpt><trkpt lat="44.3845145" lon="10.6538273"><ele>759.5</ele><time>2026-03-22T11:44:07.289Z</time></trkpt><trkpt lat="44.384476" lon="10.6536376"><ele>750.75</ele><time>2026-03-22T11:44:08.291Z</time></trkpt><trkpt lat="44.3844636" lon="10.6534447"><ele>742.0</ele><time>2026-03-22T11:44:09.288Z</time></trkpt><trkpt lat="44.3844775" lon="10.6532514"><ele>742.0</ele><time>2026-03-22T11:44:10.277Z</time></trkpt><trkpt lat="44.3845077" lon="10.6530576"><ele>742.0</ele><time>2026-03-22T11:44:11.286Z</time></trkpt><trkpt lat="44.3845645" lon="10.6528817"><ele>742.0</ele><time>2026-03-22T11:44:12.283Z</time></trkpt><trkpt lat="44.3846289" lon="10.6527176"><ele>742.0</ele><time>2026-03-22T11:44:13.278Z</time></trkpt><trkpt lat="44.3846876" lon="10.6525646"><ele>741.0</ele><time>2026-03-22T11:44:14.283Z</time></trkpt><trkpt lat="44.3846987" lon="10.6523882"><ele>740.0</ele><time>2026-03-22T11:44:15.288Z</time></trkpt><trkpt lat="44.384665" lon="10.652206"><ele>739.0</ele><time>2026-03-22T11:44:16.274Z</time></trkpt><trkpt lat="44.384611" lon="10.6520348"><ele>738.0</ele><time>2026-03-22T11:44:17.276Z</time></trkpt><trkpt lat="44.3845758" lon="10.6518622"><ele>738.0</ele><time>2026-03-22T11:44:18.287Z</time></trkpt><trkpt lat="44.3845536" lon="10.6516751"><ele>738.0</ele><time>2026-03-22T11:44:19.27Z</time></trkpt><trkpt lat="44.3845599" lon="10.6514695"><ele>738.0</ele><time>2026-03-22T11:44:20.273Z</time></trkpt><trkpt lat="44.3845674" lon="10.6512547"><ele>738.0</ele><time>2026-03-22T11:44:21.279Z</time></trkpt><trkpt lat="44.3845704" lon="10.6510264"><ele>738.25</ele><time>2026-03-22T11:44:22.28Z</time></trkpt><trkpt lat="44.3845672" lon="10.6508072"><ele>738.5</ele><time>2026-03-22T11:44:23.276Z</time></trkpt><trkpt lat="44.38456" lon="10.6506119"><ele>738.75</ele><time>2026-03-22T11:44:24.28Z</time></trkpt><trkpt lat="44.3845334" lon="10.6504374"><ele>739.0</ele><time>2026-03-22T11:44:25.29Z</time></trkpt><trkpt lat="44.3844631" lon="10.6502876"><ele>740.2</ele><time>2026-03-22T11:44:26.277Z</time></trkpt><trkpt lat="44.3843799" lon="10.6501415"><ele>741.4000000000001</ele><time>2026-03-22T11:44:27.281Z</time></trkpt><trkpt lat="44.3842892" lon="10.6500231"><ele>742.6</ele><time>2026-03-22T11:44:28.287Z</time></trkpt><trkpt lat="44.3842194" lon="10.6499151"><ele>743.8</ele><time>2026-03-22T11:44:29.28Z</time></trkpt><trkpt lat="44.3841798" lon="10.6498076"><ele>745.0</ele><time>2026-03-22T11:44:30.29Z</time></trkpt><trkpt lat="44.3841744" lon="10.6496956"><ele>745.0</ele><time>2026-03-22T11:44:31.287Z</time></trkpt><trkpt lat="44.3841925" lon="10.6495896"><ele>745.0</ele><time>2026-03-22T11:44:32.276Z</time></trkpt><trkpt lat="44.3842518" lon="10.6494967"><ele>745.0</ele><time>2026-03-22T11:44:33.271Z</time></trkpt><trkpt lat="44.3843354" lon="10.6494113"><ele>745.0</ele><time>2026-03-22T11:44:34.289Z</time></trkpt><trkpt lat="44.3844257" lon="10.649318"><ele>745.0</ele><time>2026-03-22T11:44:35.285Z</time></trkpt><trkpt lat="44.384511" lon="10.6492215"><ele>745.5</ele><time>2026-03-22T11:44:36.282Z</time></trkpt><trkpt lat="44.3845922" lon="10.6491257"><ele>746.0</ele><time>2026-03-22T11:44:37.282Z</time></trkpt><trkpt lat="44.3846856" lon="10.6490375"><ele>746.5</ele><time>2026-03-22T11:44:38.273Z</time></trkpt><trkpt lat="44.3847929" lon="10.6489425"><ele>747.0</ele><time>2026-03-22T11:44:39.282Z</time></trkpt><trkpt lat="44.3848939" lon="10.6488216"><ele>747.0</ele><time>2026-03-22T11:44:40.28Z</time></trkpt><trkpt lat="44.3849947" lon="10.6486644"><ele>747.0</ele><time>2026-03-22T11:44:41.294Z</time></trkpt><trkpt lat="44.3851088" lon="10.6485121"><ele>747.0</ele><time>2026-03-22T11:44:42.275Z</time></trkpt><trkpt lat="44.3852291" lon="10.6483689"><ele>744.6666666666666</ele><time>2026-03-22T11:44:43.274Z</time></trkpt><trkpt lat="44.3853568" lon="10.6482492"><ele>742.3333333333333</ele><time>2026-03-22T11:44:44.28Z</time></trkpt><trkpt lat="44.3854901" lon="10.6481361"><ele>740.0</ele><time>2026-03-22T11:44:45.283Z</time></trkpt><trkpt lat="44.3856231" lon="10.6480292"><ele>740.0</ele><time>2026-03-22T11:44:46.294Z</time></trkpt><trkpt lat="44.3857551" lon="10.6479306"><ele>740.0</ele><time>2026-03-22T11:44:47.289Z</time></trkpt><trkpt lat="44.3858964" lon="10.6478348"><ele>740.0</ele><time>2026-03-22T11:44:48.281Z</time></trkpt><trkpt lat="44.3860264" lon="10.6477344"><ele>738.5</ele><time>2026-03-22T11:44:49.289Z</time></trkpt><trkpt lat="44.3861436" lon="10.6476202"><ele>737.0</ele><time>2026-03-22T11:44:50.277Z</time></trkpt><trkpt lat="44.386251" lon="10.6474705"><ele>735.5</ele><time>2026-03-22T11:44:51.289Z</time></trkpt><trkpt lat="44.3863503" lon="10.6473098"><ele>734.0</ele><time>2026-03-22T11:44:52.283Z</time></trkpt><trkpt lat="44.3864324" lon="10.6471107"><ele>732.0</ele><time>2026-03-22T11:44:53.276Z</time></trkpt><trkpt lat="44.3865064" lon="10.646894"><ele>730.0</ele><time>2026-03-22T11:44:54.287Z</time></trkpt><trkpt lat="44.3865779" lon="10.6466763"><ele>728.0</ele><time>2026-03-22T11:44:55.284Z</time></trkpt><trkpt lat="44.3866487" lon="10.6464667"><ele>728.0</ele><time>2026-03-22T11:44:56.293Z</time></trkpt><trkpt lat="44.3867165" lon="10.6462616"><ele>728.0</ele><time>2026-03-22T11:44:57.29Z</time></trkpt><trkpt lat="44.3867849" lon="10.6460606"><ele>728.0</ele><time>2026-03-22T11:44:58.295Z</time></trkpt><trkpt lat="44.3868517" lon="10.6458604"><ele>724.6666666666666</ele><time>2026-03-22T11:44:59.293Z</time></trkpt><trkpt lat="44.3869142" lon="10.6456655"><ele>721.3333333333334</ele><time>2026-03-22T11:45:00.292Z</time></trkpt><trkpt lat="44.3869785" lon="10.6454741"><ele>718.0</ele><time>2026-03-22T11:45:01.284Z</time></trkpt><trkpt lat="44.3870442" lon="10.6452873"><ele>717.5</ele><time>2026-03-22T11:45:02.289Z</time></trkpt><trkpt lat="44.3871063" lon="10.6451026"><ele>717.0</ele><time>2026-03-22T11:45:03.284Z</time></trkpt><trkpt lat="44.3871687" lon="10.6449233"><ele>716.5</ele><time>2026-03-22T11:45:04.286Z</time></trkpt><trkpt lat="44.387235" lon="10.6447546"><ele>716.0</ele><time>2026-03-22T11:45:05.279Z</time></trkpt><trkpt lat="44.3872969" lon="10.6445859"><ele>713.25</ele><time>2026-03-22T11:45:06.291Z</time></trkpt><trkpt lat="44.3873712" lon="10.6444256"><ele>710.5</ele><time>2026-03-22T11:45:07.289Z</time></trkpt><trkpt lat="44.3874412" lon="10.6442679"><ele>707.75</ele><time>2026-03-22T11:45:08.285Z</time></trkpt><trkpt lat="44.3875068" lon="10.6441135"><ele>705.0</ele><time>2026-03-22T11:45:09.282Z</time></trkpt><trkpt lat="44.3875555" lon="10.6439595"><ele>705.0</ele><time>2026-03-22T11:45:10.272Z</time></trkpt><trkpt lat="44.3875715" lon="10.6437806"><ele>705.0</ele><time>2026-03-22T11:45:11.286Z</time></trkpt><trkpt lat="44.3875504" lon="10.6436016"><ele>705.0</ele><time>2026-03-22T11:45:12.272Z</time></trkpt><trkpt lat="44.3875431" lon="10.6434436"><ele>705.0</ele><time>2026-03-22T11:45:13.289Z</time></trkpt><trkpt lat="44.3875717" lon="10.6432902"><ele>703.5</ele><time>2026-03-22T11:45:14.29Z</time></trkpt><trkpt lat="44.387635" lon="10.6431675"><ele>702.0</ele><time>2026-03-22T11:45:15.279Z</time></trkpt><trkpt lat="44.3877248" lon="10.6430686"><ele>700.5</ele><time>2026-03-22T11:45:16.281Z</time></trkpt><trkpt lat="44.3878416" lon="10.6429836"><ele>699.0</ele><time>2026-03-22T11:45:17.266Z</time></trkpt><trkpt lat="44.3879626" lon="10.6428858"><ele>699.3333333333334</ele><time>2026-03-22T11:45:18.285Z</time></trkpt><trkpt lat="44.3880782" lon="10.6427573"><ele>699.6666666666667</ele><time>2026-03-22T11:45:19.284Z</time></trkpt><trkpt lat="44.3881839" lon="10.6426005"><ele>700.0</ele><time>2026-03-22T11:45:20.287Z</time></trkpt><trkpt lat="44.3882934" lon="10.6424177"><ele>700.0</ele><time>2026-03-22T11:45:21.287Z</time></trkpt><trkpt lat="44.3884103" lon="10.6422181"><ele>700.0</ele><time>2026-03-22T11:45:22.29Z</time></trkpt><trkpt lat="44.3885262" lon="10.6420191"><ele>700.0</ele><time>2026-03-22T11:45:23.273Z</time></trkpt><trkpt lat="44.3886357" lon="10.6418244"><ele>699.6666666666667</ele><time>2026-03-22T11:45:24.276Z</time></trkpt><trkpt lat="44.388734" lon="10.6416353"><ele>699.3333333333334</ele><time>2026-03-22T11:45:25.279Z</time></trkpt><trkpt lat="44.3888177" lon="10.6414444"><ele>699.0</ele><time>2026-03-22T11:45:26.288Z</time></trkpt><trkpt lat="44.3888648" lon="10.6412298"><ele>695.3333333333334</ele><time>2026-03-22T11:45:27.282Z</time></trkpt><trkpt lat="44.3888786" lon="10.6409926"><ele>691.6666666666667</ele><time>2026-03-22T11:45:28.276Z</time></trkpt><trkpt lat="44.3888676" lon="10.6407594"><ele>688.0</ele><time>2026-03-22T11:45:29.271Z</time></trkpt><trkpt lat="44.3888601" lon="10.6405456"><ele>688.0</ele><time>2026-03-22T11:45:30.284Z</time></trkpt><trkpt lat="44.3888777" lon="10.6403464"><ele>688.0</ele><time>2026-03-22T11:45:31.279Z</time></trkpt><trkpt lat="44.3889092" lon="10.6401702"><ele>688.0</ele><time>2026-03-22T11:45:32.275Z</time></trkpt><trkpt lat="44.3889704" lon="10.6400324"><ele>688.0</ele><time>2026-03-22T11:45:33.281Z</time></trkpt><trkpt lat="44.3890622" lon="10.6399259"><ele>686.25</ele><time>2026-03-22T11:45:34.279Z</time></trkpt><trkpt lat="44.3891758" lon="10.6398461"><ele>684.5</ele><time>2026-03-22T11:45:35.275Z</time></trkpt><trkpt lat="44.3892961" lon="10.6397806"><ele>682.75</ele><time>2026-03-22T11:45:36.284Z</time></trkpt><trkpt lat="44.3894198" lon="10.6397519"><ele>681.0</ele><time>2026-03-22T11:45:37.269Z</time></trkpt><trkpt lat="44.3895465" lon="10.6397622"><ele>679.3333333333334</ele><time>2026-03-22T11:45:38.27Z</time></trkpt><trkpt lat="44.3896922" lon="10.6398205"><ele>677.6666666666667</ele><time>2026-03-22T11:45:39.275Z</time></trkpt><trkpt lat="44.3898528" lon="10.6399111"><ele>676.0</ele><time>2026-03-22T11:45:40.277Z</time></trkpt><trkpt lat="44.3900375" lon="10.6400025"><ele>676.0</ele><time>2026-03-22T11:45:41.274Z</time></trkpt><trkpt lat="44.390248" lon="10.6400874"><ele>676.0</ele><time>2026-03-22T11:45:42.294Z</time></trkpt><trkpt lat="44.3904577" lon="10.6401673"><ele>676.0</ele><time>2026-03-22T11:45:43.288Z</time></trkpt><trkpt lat="44.3906609" lon="10.6402446"><ele>676.3333333333334</ele><time>2026-03-22T11:45:44.278Z</time></trkpt><trkpt lat="44.3908549" lon="10.6403202"><ele>676.6666666666666</ele><time>2026-03-22T11:45:45.278Z</time></trkpt><trkpt lat="44.3910393" lon="10.6403909"><ele>677.0</ele><time>2026-03-22T11:45:46.285Z</time></trkpt><trkpt lat="44.3912168" lon="10.6404644"><ele>672.6666666666666</ele><time>2026-03-22T11:45:47.263Z</time></trkpt><trkpt lat="44.3913886" lon="10.6405639"><ele>668.3333333333334</ele><time>2026-03-22T11:45:48.291Z</time></trkpt><trkpt lat="44.3915392" lon="10.6406962"><ele>664.0</ele><time>2026-03-22T11:45:49.266Z</time></trkpt><trkpt lat="44.3916872" lon="10.6408486"><ele>664.0</ele><time>2026-03-22T11:45:50.286Z</time></trkpt><trkpt lat="44.391836" lon="10.6409906"><ele>664.0</ele><time>2026-03-22T11:45:51.293Z</time></trkpt><trkpt lat="44.3919928" lon="10.6411094"><ele>664.0</ele><time>2026-03-22T11:45:52.291Z</time></trkpt><trkpt lat="44.3921548" lon="10.6412389"><ele>662.6666666666667</ele><time>2026-03-22T11:45:53.275Z</time></trkpt><trkpt lat="44.3923125" lon="10.6414051"><ele>661.3333333333334</ele><time>2026-03-22T11:45:54.276Z</time></trkpt><trkpt lat="44.3924656" lon="10.6415918"><ele>660.0</ele><time>2026-03-22T11:45:55.279Z</time></trkpt><trkpt lat="44.3926336" lon="10.6417633"><ele>660.0</ele><time>2026-03-22T11:45:56.279Z</time></trkpt><trkpt lat="44.3928172" lon="10.6419123"><ele>660.0</ele><time>2026-03-22T11:45:57.282Z</time></trkpt><trkpt lat="44.3930077" lon="10.6420567"><ele>660.0</ele><time>2026-03-22T11:45:58.275Z</time></trkpt><trkpt lat="44.3931918" lon="10.6422105"><ele>658.3333333333334</ele><time>2026-03-22T11:45:59.289Z</time></trkpt><trkpt lat="44.3933645" lon="10.6423668"><ele>656.6666666666667</ele><time>2026-03-22T11:46:00.278Z</time></trkpt><trkpt lat="44.3935273" lon="10.6425327"><ele>655.0</ele><time>2026-03-22T11:46:01.267Z</time></trkpt><trkpt lat="44.3936951" lon="10.6426817"><ele>652.6666666666667</ele><time>2026-03-22T11:46:02.281Z</time></trkpt><trkpt lat="44.3938776" lon="10.6427876"><ele>650.3333333333334</ele><time>2026-03-22T11:46:03.28Z</time></trkpt><trkpt lat="44.3940729" lon="10.6428637"><ele>648.0</ele><time>2026-03-22T11:46:04.272Z</time></trkpt><trkpt lat="44.3942665" lon="10.6429189"><ele>648.0</ele><time>2026-03-22T11:46:05.284Z</time></trkpt><trkpt lat="44.3944478" lon="10.6429498"><ele>648.0</ele><time>2026-03-22T11:46:06.287Z</time></trkpt><trkpt lat="44.3946275" lon="10.6429326"><ele>648.0</ele><time>2026-03-22T11:46:07.285Z</time></trkpt><trkpt lat="44.3948108" lon="10.6428576"><ele>642.6666666666666</ele><time>2026-03-22T11:46:08.279Z</time></trkpt><trkpt lat="44.3949965" lon="10.6427487"><ele>637.3333333333333</ele><time>2026-03-22T11:46:09.287Z</time></trkpt><trkpt lat="44.3951818" lon="10.6426245"><ele>632.0</ele><time>2026-03-22T11:46:10.282Z</time></trkpt><trkpt lat="44.3953573" lon="10.6424984"><ele>634.3333333333333</ele><time>2026-03-22T11:46:11.266Z</time></trkpt><trkpt lat="44.3955197" lon="10.6423859"><ele>636.6666666666666</ele><time>2026-03-22T11:46:12.287Z</time></trkpt><trkpt lat="44.3956528" lon="10.6422559"><ele>639.0</ele><time>2026-03-22T11:46:13.283Z</time></trkpt><trkpt lat="44.3957785" lon="10.6421098"><ele>633.0</ele><time>2026-03-22T11:46:14.283Z</time></trkpt><trkpt lat="44.3958896" lon="10.6419207"><ele>627.0</ele><time>2026-03-22T11:46:15.284Z</time></trkpt><trkpt lat="44.3959914" lon="10.6417027"><ele>621.0</ele><time>2026-03-22T11:46:16.278Z</time></trkpt><trkpt lat="44.3960972" lon="10.6414863"><ele>621.0</ele><time>2026-03-22T11:46:17.29Z</time></trkpt><trkpt lat="44.3962046" lon="10.6412841"><ele>621.0</ele><time>2026-03-22T11:46:18.274Z</time></trkpt><trkpt lat="44.3963118" lon="10.6411107"><ele>621.0</ele><time>2026-03-22T11:46:19.275Z</time></trkpt><trkpt lat="44.3964167" lon="10.6409732"><ele>620.75</ele><time>2026-03-22T11:46:20.289Z</time></trkpt><trkpt lat="44.3965382" lon="10.6408917"><ele>620.5</ele><time>2026-03-22T11:46:21.293Z</time></trkpt><trkpt lat="44.3966796" lon="10.6408476"><ele>620.25</ele><time>2026-03-22T11:46:22.287Z</time></trkpt><trkpt lat="44.3968487" lon="10.6408358"><ele>620.0</ele><time>2026-03-22T11:46:23.291Z</time></trkpt><trkpt lat="44.397039" lon="10.6408399"><ele>616.3333333333333</ele><time>2026-03-22T11:46:24.286Z</time></trkpt><trkpt lat="44.3972405" lon="10.640842"><ele>612.6666666666666</ele><time>2026-03-22T11:46:25.297Z</time></trkpt><trkpt lat="44.397444" lon="10.6408326"><ele>609.0</ele><time>2026-03-22T11:46:26.269Z</time></trkpt><trkpt lat="44.3976336" lon="10.6408229"><ele>609.0</ele><time>2026-03-22T11:46:27.28Z</time></trkpt><trkpt lat="44.3977905" lon="10.6408293"><ele>609.0</ele><time>2026-03-22T11:46:28.282Z</time></trkpt><trkpt lat="44.3979351" lon="10.6408621"><ele>609.0</ele><time>2026-03-22T11:46:29.279Z</time></trkpt><trkpt lat="44.3980738" lon="10.6409461"><ele>610.3333333333334</ele><time>2026-03-22T11:46:30.291Z</time></trkpt><trkpt lat="44.3982076" lon="10.6410762"><ele>611.6666666666667</ele><time>2026-03-22T11:46:31.292Z</time></trkpt><trkpt lat="44.3983465" lon="10.6412257"><ele>613.0</ele><time>2026-03-22T11:46:32.278Z</time></trkpt><trkpt lat="44.3984853" lon="10.6413633"><ele>613.0</ele><time>2026-03-22T11:46:33.288Z</time></trkpt><trkpt lat="44.3986217" lon="10.6414635"><ele>613.0</ele><time>2026-03-22T11:46:34.281Z</time></trkpt><trkpt lat="44.3987714" lon="10.6415014"><ele>613.0</ele><time>2026-03-22T11:46:35.282Z</time></trkpt><trkpt lat="44.3989248" lon="10.6414811"><ele>612.0</ele><time>2026-03-22T11:46:36.278Z</time></trkpt><trkpt lat="44.3990749" lon="10.641423"><ele>611.0</ele><time>2026-03-22T11:46:37.279Z</time></trkpt><trkpt lat="44.3992159" lon="10.6413665"><ele>610.0</ele><time>2026-03-22T11:46:38.277Z</time></trkpt><trkpt lat="44.3993564" lon="10.6413472"><ele>609.0</ele><time>2026-03-22T11:46:39.288Z</time></trkpt><trkpt lat="44.3994951" lon="10.6413875"><ele>609.0</ele><time>2026-03-22T11:46:40.287Z</time></trkpt><trkpt lat="44.3996251" lon="10.6414913"><ele>609.0</ele><time>2026-03-22T11:46:41.287Z</time></trkpt><trkpt lat="44.3997374" lon="10.6416263"><ele>609.0</ele><time>2026-03-22T11:46:42.275Z</time></trkpt><trkpt lat="44.3998196" lon="10.6418002"><ele>609.0</ele><time>2026-03-22T11:46:43.286Z</time></trkpt><trkpt lat="44.3998659" lon="10.6420029"><ele>606.0</ele><time>2026-03-22T11:46:44.289Z</time></trkpt><trkpt lat="44.3998838" lon="10.6422204"><ele>603.0</ele><time>2026-03-22T11:46:45.282Z</time></trkpt><trkpt lat="44.3998697" lon="10.6424344"><ele>600.0</ele><time>2026-03-22T11:46:46.286Z</time></trkpt><trkpt lat="44.3998692" lon="10.6426146"><ele>597.0</ele><time>2026-03-22T11:46:47.281Z</time></trkpt><trkpt lat="44.3999157" lon="10.642779"><ele>597.25</ele><time>2026-03-22T11:46:48.285Z</time></trkpt><trkpt lat="44.4000097" lon="10.6429131"><ele>597.5</ele><time>2026-03-22T11:46:49.28Z</time></trkpt><trkpt lat="44.4001277" lon="10.6430238"><ele>597.75</ele><time>2026-03-22T11:46:50.288Z</time></trkpt><trkpt lat="44.4002326" lon="10.6431406"><ele>598.0</ele><time>2026-03-22T11:46:51.284Z</time></trkpt><trkpt lat="44.4003138" lon="10.6432877"><ele>598.0</ele><time>2026-03-22T11:46:52.276Z</time></trkpt><trkpt lat="44.4003642" lon="10.6434743"><ele>598.0</ele><time>2026-03-22T11:46:53.279Z</time></trkpt><trkpt lat="44.400389" lon="10.6436919"><ele>598.0</ele><time>2026-03-22T11:46:54.269Z</time></trkpt><trkpt lat="44.4004191" lon="10.6439371"><ele>597.6666666666667</ele><time>2026-03-22T11:46:55.281Z</time></trkpt><trkpt lat="44.4004576" lon="10.6441905"><ele>597.3333333333334</ele><time>2026-03-22T11:46:56.276Z</time></trkpt><trkpt lat="44.4005262" lon="10.6444376"><ele>597.0</ele><time>2026-03-22T11:46:57.275Z</time></trkpt><trkpt lat="44.4006027" lon="10.6446649"><ele>591.0</ele><time>2026-03-22T11:46:58.272Z</time></trkpt><trkpt lat="44.4006715" lon="10.6448852"><ele>585.0</ele><time>2026-03-22T11:46:59.289Z</time></trkpt><trkpt lat="44.4007135" lon="10.645126"><ele>579.0</ele><time>2026-03-22T11:47:00.278Z</time></trkpt><trkpt lat="44.4007327" lon="10.645384"><ele>579.0</ele><time>2026-03-22T11:47:01.285Z</time></trkpt><trkpt lat="44.4007319" lon="10.6456409"><ele>579.0</ele><time>2026-03-22T11:47:02.289Z</time></trkpt><trkpt lat="44.4007377" lon="10.6458949"><ele>579.0</ele><time>2026-03-22T11:47:03.281Z</time></trkpt><trkpt lat="44.4007657" lon="10.6461332"><ele>579.0</ele><time>2026-03-22T11:47:04.283Z</time></trkpt><trkpt lat="44.4008365" lon="10.6463451"><ele>579.0</ele><time>2026-03-22T11:47:05.285Z</time></trkpt><trkpt lat="44.400944" lon="10.6465295"><ele>579.0</ele><time>2026-03-22T11:47:06.265Z</time></trkpt><trkpt lat="44.4010901" lon="10.6466708"><ele>579.0</ele><time>2026-03-22T11:47:07.275Z</time></trkpt><trkpt lat="44.4012605" lon="10.6467806"><ele>579.0</ele><time>2026-03-22T11:47:08.273Z</time></trkpt><trkpt lat="44.4014412" lon="10.646877"><ele>579.0</ele><time>2026-03-22T11:47:09.285Z</time></trkpt><trkpt lat="44.4016145" lon="10.646975"><ele>575.6666666666666</ele><time>2026-03-22T11:47:10.275Z</time></trkpt><trkpt lat="44.4017735" lon="10.6470603"><ele>572.3333333333333</ele><time>2026-03-22T11:47:11.276Z</time></trkpt><trkpt lat="44.4019158" lon="10.6471254"><ele>569.0</ele><time>2026-03-22T11:47:12.276Z</time></trkpt><trkpt lat="44.402051" lon="10.6471478"><ele>566.75</ele><time>2026-03-22T11:47:13.293Z</time></trkpt><trkpt lat="44.4021864" lon="10.6471204"><ele>564.5</ele><time>2026-03-22T11:47:14.267Z</time></trkpt><trkpt lat="44.4023227" lon="10.6470438"><ele>562.25</ele><time>2026-03-22T11:47:15.28Z</time></trkpt><trkpt lat="44.4024557" lon="10.6469732"><ele>560.0</ele><time>2026-03-22T11:47:16.275Z</time></trkpt><trkpt lat="44.4026051" lon="10.6469542"><ele>560.0</ele><time>2026-03-22T11:47:17.289Z</time></trkpt><trkpt lat="44.4027687" lon="10.6469972"><ele>560.0</ele><time>2026-03-22T11:47:18.284Z</time></trkpt><trkpt lat="44.4029418" lon="10.6470737"><ele>560.0</ele><time>2026-03-22T11:47:19.285Z</time></trkpt><trkpt lat="44.4031222" lon="10.6471582"><ele>557.0</ele><time>2026-03-22T11:47:20.284Z</time></trkpt><trkpt lat="44.4033049" lon="10.6472404"><ele>554.0</ele><time>2026-03-22T11:47:21.271Z</time></trkpt><trkpt lat="44.4034791" lon="10.6473264"><ele>551.0</ele><time>2026-03-22T11:47:22.28Z</time></trkpt><trkpt lat="44.40363" lon="10.6474116"><ele>551.0</ele><time>2026-03-22T11:47:23.285Z</time></trkpt><trkpt lat="44.4037626" lon="10.6474843"><ele>551.0</ele><time>2026-03-22T11:47:24.275Z</time></trkpt><trkpt lat="44.4038995" lon="10.6475128"><ele>551.0</ele><time>2026-03-22T11:47:25.288Z</time></trkpt><trkpt lat="44.4040275" lon="10.6474893"><ele>551.0</ele><time>2026-03-22T11:47:26.284Z</time></trkpt><trkpt lat="44.4041494" lon="10.647433"><ele>550.6666666666666</ele><time>2026-03-22T11:47:27.282Z</time></trkpt><trkpt lat="44.4042487" lon="10.6472802"><ele>550.3333333333334</ele><time>2026-03-22T11:47:28.274Z</time></trkpt><trkpt lat="44.4043303" lon="10.6470875"><ele>550.0</ele><time>2026-03-22T11:47:29.282Z</time></trkpt><trkpt lat="44.4044111" lon="10.6468718"><ele>547.6666666666667</ele><time>2026-03-22T11:47:30.269Z</time></trkpt><trkpt lat="44.4045021" lon="10.646626"><ele>545.3333333333334</ele><time>2026-03-22T11:47:31.288Z</time></trkpt><trkpt lat="44.4046044" lon="10.6463597"><ele>543.0</ele><time>2026-03-22T11:47:32.274Z</time></trkpt><trkpt lat="44.4047097" lon="10.6460779"><ele>542.0</ele><time>2026-03-22T11:47:33.275Z</time></trkpt><trkpt lat="44.4048031" lon="10.6458076"><ele>541.0</ele><time>2026-03-22T11:47:34.285Z</time></trkpt><trkpt lat="44.4048727" lon="10.6455557"><ele>540.0</ele><time>2026-03-22T11:47:35.279Z</time></trkpt><trkpt lat="44.4049216" lon="10.6453217"><ele>538.3333333333334</ele><time>2026-03-22T11:47:36.284Z</time></trkpt><trkpt lat="44.4049602" lon="10.6451087"><ele>536.6666666666667</ele><time>2026-03-22T11:47:37.291Z</time></trkpt><trkpt lat="44.4050024" lon="10.6449059"><ele>535.0</ele><time>2026-03-22T11:47:38.281Z</time></trkpt><trkpt lat="44.4050713" lon="10.6447037"><ele>535.0</ele><time>2026-03-22T11:47:39.276Z</time></trkpt><trkpt lat="44.405166" lon="10.6444996"><ele>535.0</ele><time>2026-03-22T11:47:40.283Z</time></trkpt><trkpt lat="44.4052607" lon="10.6443027"><ele>535.0</ele><time>2026-03-22T11:47:41.275Z</time></trkpt><trkpt lat="44.4053465" lon="10.6441233"><ele>534.75</ele><time>2026-03-22T11:47:42.288Z</time></trkpt><trkpt lat="44.4054306" lon="10.6439765"><ele>534.5</ele><time>2026-03-22T11:47:43.288Z</time></trkpt><trkpt lat="44.4055403" lon="10.6438557"><ele>534.25</ele><time>2026-03-22T11:47:44.28Z</time></trkpt><trkpt lat="44.4056842" lon="10.6437642"><ele>534.0</ele><time>2026-03-22T11:47:45.283Z</time></trkpt><trkpt lat="44.4058564" lon="10.6436962"><ele>534.0</ele><time>2026-03-22T11:47:46.286Z</time></trkpt><trkpt lat="44.406047" lon="10.6436344"><ele>534.0</ele><time>2026-03-22T11:47:47.289Z</time></trkpt><trkpt lat="44.4062423" lon="10.6435831"><ele>534.0</ele><time>2026-03-22T11:47:48.282Z</time></trkpt><trkpt lat="44.4064296" lon="10.6435208"><ele>529.0</ele><time>2026-03-22T11:47:49.284Z</time></trkpt><trkpt lat="44.4066092" lon="10.6434373"><ele>524.0</ele><time>2026-03-22T11:47:50.28Z</time></trkpt><trkpt lat="44.4067703" lon="10.6432949"><ele>519.0</ele><time>2026-03-22T11:47:51.287Z</time></trkpt><trkpt lat="44.406925" lon="10.6431356"><ele>519.0</ele><time>2026-03-22T11:47:52.276Z</time></trkpt><trkpt lat="44.4070596" lon="10.6429288"><ele>519.0</ele><time>2026-03-22T11:47:53.281Z</time></trkpt><trkpt lat="44.4071875" lon="10.6427018"><ele>519.0</ele><time>2026-03-22T11:47:54.284Z</time></trkpt><trkpt lat="44.4073139" lon="10.6424842"><ele>517.0</ele><time>2026-03-22T11:47:55.283Z</time></trkpt><trkpt lat="44.4074336" lon="10.6422831"><ele>515.0</ele><time>2026-03-22T11:47:56.272Z</time></trkpt><trkpt lat="44.4075451" lon="10.6420974"><ele>513.0</ele><time>2026-03-22T11:47:57.288Z</time></trkpt><trkpt lat="44.4076264" lon="10.641915"><ele>510.66666666666663</ele><time>2026-03-22T11:47:58.282Z</time></trkpt><trkpt lat="44.4076897" lon="10.6417217"><ele>508.3333333333333</ele><time>2026-03-22T11:47:59.279Z</time></trkpt><trkpt lat="44.4077003" lon="10.6414856"><ele>506.0</ele><time>2026-03-22T11:48:00.282Z</time></trkpt><trkpt lat="44.4077039" lon="10.6412535"><ele>504.0</ele><time>2026-03-22T11:48:01.286Z</time></trkpt><trkpt lat="44.4077246" lon="10.6410322"><ele>502.0</ele><time>2026-03-22T11:48:02.282Z</time></trkpt><trkpt lat="44.407768" lon="10.6408091"><ele>500.0</ele><time>2026-03-22T11:48:03.275Z</time></trkpt><trkpt lat="44.407861" lon="10.6405959"><ele>500.0</ele><time>2026-03-22T11:48:04.278Z</time></trkpt><trkpt lat="44.4079653" lon="10.6403813"><ele>500.0</ele><time>2026-03-22T11:48:05.288Z</time></trkpt><trkpt lat="44.4080697" lon="10.6401738"><ele>500.0</ele><time>2026-03-22T11:48:06.283Z</time></trkpt><trkpt lat="44.4081754" lon="10.6399739"><ele>499.0</ele><time>2026-03-22T11:48:07.287Z</time></trkpt><trkpt lat="44.4082832" lon="10.6397973"><ele>498.0</ele><time>2026-03-22T11:48:08.269Z</time></trkpt><trkpt lat="44.4083954" lon="10.6396593"><ele>497.0</ele><time>2026-03-22T11:48:09.281Z</time></trkpt><trkpt lat="44.4085007" lon="10.6395717"><ele>496.0</ele><time>2026-03-22T11:48:10.267Z</time></trkpt><trkpt lat="44.4086182" lon="10.6395343"><ele>496.0</ele><time>2026-03-22T11:48:11.278Z</time></trkpt><trkpt lat="44.4087494" lon="10.6395196"><ele>496.0</ele><time>2026-03-22T11:48:12.279Z</time></trkpt><trkpt lat="44.4089128" lon="10.6395333"><ele>496.0</ele><time>2026-03-22T11:48:13.289Z</time></trkpt><trkpt lat="44.409088" lon="10.6395049"><ele>488.6666666666667</ele><time>2026-03-22T11:48:14.285Z</time></trkpt><trkpt lat="44.4092733" lon="10.6394326"><ele>481.33333333333337</ele><time>2026-03-22T11:48:15.281Z</time></trkpt><trkpt lat="44.4094621" lon="10.6393084"><ele>474.0</ele><time>2026-03-22T11:48:16.28Z</time></trkpt><trkpt lat="44.4096425" lon="10.6391748"><ele>473.66666666666663</ele><time>2026-03-22T11:48:17.287Z</time></trkpt><trkpt lat="44.4098105" lon="10.6390451"><ele>473.3333333333333</ele><time>2026-03-22T11:48:18.262Z</time></trkpt><trkpt lat="44.4099657" lon="10.6389327"><ele>473.0</ele><time>2026-03-22T11:48:19.28Z</time></trkpt><trkpt lat="44.4101036" lon="10.6388474"><ele>473.0</ele><time>2026-03-22T11:48:20.267Z</time></trkpt><trkpt lat="44.4102594" lon="10.6388053"><ele>473.0</ele><time>2026-03-22T11:48:21.274Z</time></trkpt><trkpt lat="44.4104256" lon="10.6387888"><ele>473.0</ele><time>2026-03-22T11:48:22.27Z</time></trkpt><trkpt lat="44.4106114" lon="10.6387818"><ele>473.3333333333333</ele><time>2026-03-22T11:48:23.287Z</time></trkpt><trkpt lat="44.4107907" lon="10.63876"><ele>473.66666666666663</ele><time>2026-03-22T11:48:24.28Z</time></trkpt><trkpt lat="44.4109588" lon="10.638713"><ele>474.0</ele><time>2026-03-22T11:48:25.27Z</time></trkpt><trkpt lat="44.4111053" lon="10.6386505"><ele>471.25</ele><time>2026-03-22T11:48:26.278Z</time></trkpt><trkpt lat="44.4112364" lon="10.638598"><ele>468.5</ele><time>2026-03-22T11:48:27.284Z</time></trkpt><trkpt lat="44.4113514" lon="10.6385638"><ele>465.75</ele><time>2026-03-22T11:48:28.267Z</time></trkpt><trkpt lat="44.4114515" lon="10.638589"><ele>463.0</ele><time>2026-03-22T11:48:29.271Z</time></trkpt><trkpt lat="44.4115532" lon="10.638688"><ele>463.0</ele><time>2026-03-22T11:48:30.274Z</time></trkpt><trkpt lat="44.4116567" lon="10.6388323"><ele>463.0</ele><time>2026-03-22T11:48:31.286Z</time></trkpt><trkpt lat="44.4117751" lon="10.6389621"><ele>463.0</ele><time>2026-03-22T11:48:32.273Z</time></trkpt><trkpt lat="44.4119219" lon="10.6390509"><ele>463.0</ele><time>2026-03-22T11:48:33.281Z</time></trkpt><trkpt lat="44.4120921" lon="10.6391052"><ele>463.0</ele><time>2026-03-22T11:48:34.289Z</time></trkpt><trkpt lat="44.4122769" lon="10.6391202"><ele>463.0</ele><time>2026-03-22T11:48:35.276Z</time></trkpt><trkpt lat="44.4124559" lon="10.6391176"><ele>457.6666666666667</ele><time>2026-03-22T11:48:36.28Z</time></trkpt><trkpt lat="44.4126212" lon="10.6391092"><ele>452.33333333333337</ele><time>2026-03-22T11:48:37.284Z</time></trkpt><trkpt lat="44.4127675" lon="10.6390625"><ele>447.0</ele><time>2026-03-22T11:48:38.294Z</time></trkpt><trkpt lat="44.4128874" lon="10.638972"><ele>447.0</ele><time>2026-03-22T11:48:39.273Z</time></trkpt><trkpt lat="44.4129838" lon="10.6388395"><ele>447.00000000000006</ele><time>2026-03-22T11:48:40.285Z</time></trkpt><trkpt lat="44.4130621" lon="10.6387214"><ele>447.00000000000006</ele><time>2026-03-22T11:48:41.286Z</time></trkpt><trkpt lat="44.4131481" lon="10.6386366"><ele>447.0</ele><time>2026-03-22T11:48:42.28Z</time></trkpt><trkpt lat="44.4132297" lon="10.6386286"><ele>447.0</ele><time>2026-03-22T11:48:43.279Z</time></trkpt><trkpt lat="44.4133193" lon="10.6386781"><ele>445.0</ele><time>2026-03-22T11:48:44.286Z</time></trkpt><trkpt lat="44.413419" lon="10.6387678"><ele>443.0</ele><time>2026-03-22T11:48:45.278Z</time></trkpt><trkpt lat="44.4135271" lon="10.6388666"><ele>441.0</ele><time>2026-03-22T11:48:46.282Z</time></trkpt><trkpt lat="44.4136384" lon="10.6389927"><ele>439.0</ele><time>2026-03-22T11:48:47.278Z</time></trkpt><trkpt lat="44.4137471" lon="10.6391017"><ele>435.79999999999995</ele><time>2026-03-22T11:48:48.27Z</time></trkpt><trkpt lat="44.4138437" lon="10.6392001"><ele>432.59999999999997</ele><time>2026-03-22T11:48:49.286Z</time></trkpt><trkpt lat="44.4139308" lon="10.6392905"><ele>429.4</ele><time>2026-03-22T11:48:50.268Z</time></trkpt><trkpt lat="44.4140096" lon="10.6393546"><ele>426.2</ele><time>2026-03-22T11:48:51.274Z</time></trkpt><trkpt lat="44.4140936" lon="10.6393457"><ele>423.0</ele><time>2026-03-22T11:48:52.279Z</time></trkpt><trkpt lat="44.4141552" lon="10.6393051"><ele>423.0</ele><time>2026-03-22T11:48:53.285Z</time></trkpt><trkpt lat="44.4141648" lon="10.6391935"><ele>423.0</ele><time>2026-03-22T11:48:54.277Z</time></trkpt><trkpt lat="44.4141445" lon="10.6390908"><ele>423.0</ele><time>2026-03-22T11:48:55.281Z</time></trkpt><trkpt lat="44.4140487" lon="10.6390014"><ele>423.0</ele><time>2026-03-22T11:48:56.286Z</time></trkpt><trkpt lat="44.4139461" lon="10.6389242"><ele>423.0</ele><time>2026-03-22T11:48:57.268Z</time></trkpt><trkpt lat="44.4138267" lon="10.6388187"><ele>422.33333333333337</ele><time>2026-03-22T11:48:58.271Z</time></trkpt><trkpt lat="44.4136912" lon="10.6386804"><ele>421.6666666666667</ele><time>2026-03-22T11:48:59.271Z</time></trkpt><trkpt lat="44.4135599" lon="10.6385189"><ele>421.0</ele><time>2026-03-22T11:49:00.284Z</time></trkpt><trkpt lat="44.4134401" lon="10.6383524"><ele>421.0</ele><time>2026-03-22T11:49:01.277Z</time></trkpt><trkpt lat="44.4133428" lon="10.638172"><ele>421.0</ele><time>2026-03-22T11:49:02.279Z</time></trkpt><trkpt lat="44.4132328" lon="10.6380202"><ele>421.0</ele><time>2026-03-22T11:49:03.289Z</time></trkpt><trkpt lat="44.4131031" lon="10.6379049"><ele>423.33333333333337</ele><time>2026-03-22T11:49:04.282Z</time></trkpt><trkpt lat="44.4129603" lon="10.6378116"><ele>425.66666666666663</ele><time>2026-03-22T11:49:05.289Z</time></trkpt><trkpt lat="44.4128159" lon="10.6377299"><ele>428.0</ele><time>2026-03-22T11:49:06.278Z</time></trkpt><trkpt lat="44.4126781" lon="10.6376613"><ele>424.2</ele><time>2026-03-22T11:49:07.271Z</time></trkpt><trkpt lat="44.4125602" lon="10.6375933"><ele>420.4</ele><time>2026-03-22T11:49:08.276Z</time></trkpt><trkpt lat="44.4124697" lon="10.6375153"><ele>416.59999999999997</ele><time>2026-03-22T11:49:09.279Z</time></trkpt><trkpt lat="44.4124144" lon="10.6374207"><ele>412.79999999999995</ele><time>2026-03-22T11:49:10.294Z</time></trkpt><trkpt lat="44.4123845" lon="10.6373364"><ele>409.0</ele><time>2026-03-22T11:49:11.282Z</time></trkpt><trkpt lat="44.4124216" lon="10.6372481"><ele>409.0</ele><time>2026-03-22T11:49:12.282Z</time></trkpt><trkpt lat="44.412498" lon="10.6371848"><ele>409.0</ele><time>2026-03-22T11:49:13.278Z</time></trkpt><trkpt lat="44.4125986" lon="10.637153"><ele>409.0</ele><time>2026-03-22T11:49:14.282Z</time></trkpt><trkpt lat="44.4127268" lon="10.6371491"><ele>409.0</ele><time>2026-03-22T11:49:15.285Z</time></trkpt><trkpt lat="44.412874" lon="10.6371545"><ele>406.6666666666667</ele><time>2026-03-22T11:49:16.281Z</time></trkpt><trkpt lat="44.413036" lon="10.6371811"><ele>404.33333333333337</ele><time>2026-03-22T11:49:17.277Z</time></trkpt><trkpt lat="44.4132137" lon="10.6372267"><ele>402.0</ele><time>2026-03-22T11:49:18.287Z</time></trkpt><trkpt lat="44.4133969" lon="10.6372906"><ele>402.0</ele><time>2026-03-22T11:49:19.284Z</time></trkpt><trkpt lat="44.4135921" lon="10.6373481"><ele>402.0</ele><time>2026-03-22T11:49:20.29Z</time></trkpt><trkpt lat="44.4138022" lon="10.6373601"><ele>402.0</ele><time>2026-03-22T11:49:21.281Z</time></trkpt><trkpt lat="44.4140157" lon="10.6373511"><ele>398.33333333333337</ele><time>2026-03-22T11:49:22.285Z</time></trkpt><trkpt lat="44.4142193" lon="10.637342"><ele>394.6666666666667</ele><time>2026-03-22T11:49:23.279Z</time></trkpt><trkpt lat="44.4144172" lon="10.6373326"><ele>391.0</ele><time>2026-03-22T11:49:24.274Z</time></trkpt><trkpt lat="44.4146032" lon="10.6373268"><ele>389.33333333333337</ele><time>2026-03-22T11:49:25.269Z</time></trkpt><trkpt lat="44.4147846" lon="10.6373506"><ele>387.66666666666663</ele><time>2026-03-22T11:49:26.282Z</time></trkpt><trkpt lat="44.4149725" lon="10.6373926"><ele>386.0</ele><time>2026-03-22T11:49:27.28Z</time></trkpt><trkpt lat="44.4151628" lon="10.6374653"><ele>386.0</ele><time>2026-03-22T11:49:28.289Z</time></trkpt><trkpt lat="44.4153505" lon="10.6375543"><ele>386.0</ele><time>2026-03-22T11:49:29.267Z</time></trkpt><trkpt lat="44.4155355" lon="10.637648"><ele>386.0</ele><time>2026-03-22T11:49:30.282Z</time></trkpt><trkpt lat="44.4157174" lon="10.6377397"><ele>383.0</ele><time>2026-03-22T11:49:31.284Z</time></trkpt><trkpt lat="44.4158966" lon="10.6378299"><ele>380.0</ele><time>2026-03-22T11:49:32.286Z</time></trkpt><trkpt lat="44.4160773" lon="10.6379187"><ele>377.0</ele><time>2026-03-22T11:49:33.291Z</time></trkpt><trkpt lat="44.4162586" lon="10.6379966"><ele>374.6666666666667</ele><time>2026-03-22T11:49:34.29Z</time></trkpt><trkpt lat="44.4164332" lon="10.6380823"><ele>372.3333333333333</ele><time>2026-03-22T11:49:35.277Z</time></trkpt><trkpt lat="44.4165955" lon="10.6381744"><ele>370.0</ele><time>2026-03-22T11:49:36.281Z</time></trkpt><trkpt lat="44.416753" lon="10.6382714"><ele>370.0</ele><time>2026-03-22T11:49:37.285Z</time></trkpt><trkpt lat="44.4169112" lon="10.638332"><ele>370.0</ele><time>2026-03-22T11:49:38.27Z</time></trkpt><trkpt lat="44.4170687" lon="10.6383394"><ele>370.0</ele><time>2026-03-22T11:49:39.288Z</time></trkpt><trkpt lat="44.4172077" lon="10.638309"><ele>369.0</ele><time>2026-03-22T11:49:40.289Z</time></trkpt><trkpt lat="44.4173415" lon="10.6382764"><ele>368.0</ele><time>2026-03-22T11:49:41.302Z</time></trkpt><trkpt lat="44.4174506" lon="10.6382718"><ele>367.0</ele><time>2026-03-22T11:49:42.287Z</time></trkpt><trkpt lat="44.4175567" lon="10.63833"><ele>366.0</ele><time>2026-03-22T11:49:43.291Z</time></trkpt><trkpt lat="44.4176556" lon="10.6384187"><ele>366.0</ele><time>2026-03-22T11:49:44.29Z</time></trkpt><trkpt lat="44.4177497" lon="10.6385512"><ele>366.0</ele><time>2026-03-22T11:49:45.275Z</time></trkpt><trkpt lat="44.4178642" lon="10.6386756"><ele>366.0</ele><time>2026-03-22T11:49:46.289Z</time></trkpt><trkpt lat="44.4180063" lon="10.6387541"><ele>366.0</ele><time>2026-03-22T11:49:47.281Z</time></trkpt><trkpt lat="44.4181536" lon="10.6388135"><ele>364.75</ele><time>2026-03-22T11:49:48.292Z</time></trkpt><trkpt lat="44.4183008" lon="10.6388857"><ele>363.5</ele><time>2026-03-22T11:49:49.289Z</time></trkpt><trkpt lat="44.4184349" lon="10.6389546"><ele>362.25</ele><time>2026-03-22T11:49:50.283Z</time></trkpt><trkpt lat="44.4185587" lon="10.6390609"><ele>361.0</ele><time>2026-03-22T11:49:51.272Z</time></trkpt><trkpt lat="44.4186725" lon="10.6391943"><ele>361.0</ele><time>2026-03-22T11:49:52.289Z</time></trkpt><trkpt lat="44.4187917" lon="10.6393407"><ele>361.0</ele><time>2026-03-22T11:49:53.287Z</time></trkpt><trkpt lat="44.4189314" lon="10.6394554"><ele>361.0</ele><time>2026-03-22T11:49:54.273Z</time></trkpt><trkpt lat="44.4190778" lon="10.6395535"><ele>359.3333333333333</ele><time>2026-03-22T11:49:55.274Z</time></trkpt><trkpt lat="44.4192224" lon="10.6396541"><ele>357.6666666666667</ele><time>2026-03-22T11:49:56.272Z</time></trkpt><trkpt lat="44.4193649" lon="10.6397487"><ele>356.0</ele><time>2026-03-22T11:49:57.279Z</time></trkpt><trkpt lat="44.4195012" lon="10.6398534"><ele>356.0</ele><time>2026-03-22T11:49:58.266Z</time></trkpt><trkpt lat="44.4196308" lon="10.6399534"><ele>356.0</ele><time>2026-03-22T11:49:59.277Z</time></trkpt><trkpt lat="44.4197481" lon="10.6400884"><ele>356.0</ele><time>2026-03-22T11:50:00.286Z</time></trkpt><trkpt lat="44.4198487" lon="10.6402608"><ele>351.0</ele><time>2026-03-22T11:50:01.272Z</time></trkpt><trkpt lat="44.4199469" lon="10.6404453"><ele>346.0</ele><time>2026-03-22T11:50:02.274Z</time></trkpt><trkpt lat="44.4200248" lon="10.6406646"><ele>341.0</ele><time>2026-03-22T11:50:03.281Z</time></trkpt><trkpt lat="44.4200951" lon="10.6408876"><ele>341.0</ele><time>2026-03-22T11:50:04.283Z</time></trkpt><trkpt lat="44.4201743" lon="10.6411041"><ele>341.0</ele><time>2026-03-22T11:50:05.286Z</time></trkpt><trkpt lat="44.4202468" lon="10.6413057"><ele>341.0</ele><time>2026-03-22T11:50:06.292Z</time></trkpt><trkpt lat="44.4203198" lon="10.6414989"><ele>343.0</ele><time>2026-03-22T11:50:07.287Z</time></trkpt><trkpt lat="44.4203914" lon="10.641671"><ele>345.0</ele><time>2026-03-22T11:50:08.279Z</time></trkpt><trkpt lat="44.4205094" lon="10.6418"><ele>347.0</ele><time>2026-03-22T11:50:09.288Z</time></trkpt><trkpt lat="44.4206513" lon="10.6418852"><ele>349.0</ele><time>2026-03-22T11:50:10.295Z</time></trkpt><trkpt lat="44.4208011" lon="10.6419584"><ele>345.3333333333333</ele><time>2026-03-22T11:50:11.281Z</time></trkpt><trkpt lat="44.4209402" lon="10.6420734"><ele>341.6666666666667</ele><time>2026-03-22T11:50:12.291Z</time></trkpt><trkpt lat="44.421079" lon="10.64222"><ele>338.0</ele><time>2026-03-22T11:50:13.278Z</time></trkpt><trkpt lat="44.4212096" lon="10.6424068"><ele>334.6666666666667</ele><time>2026-03-22T11:50:14.274Z</time></trkpt><trkpt lat="44.4213374" lon="10.6425905"><ele>331.3333333333333</ele><time>2026-03-22T11:50:15.289Z</time></trkpt><trkpt lat="44.421458" lon="10.6427655"><ele>328.0</ele><time>2026-03-22T11:50:16.291Z</time></trkpt><trkpt lat="44.421567" lon="10.6429387"><ele>328.0</ele><time>2026-03-22T11:50:17.291Z</time></trkpt><trkpt lat="44.4216671" lon="10.6431016"><ele>328.0</ele><time>2026-03-22T11:50:18.28Z</time></trkpt><trkpt lat="44.421775" lon="10.6432506"><ele>328.0</ele><time>2026-03-22T11:50:19.275Z</time></trkpt><trkpt lat="44.4218897" lon="10.6433789"><ele>328.0</ele><time>2026-03-22T11:50:20.291Z</time></trkpt><trkpt lat="44.4220334" lon="10.6434843"><ele>328.0</ele><time>2026-03-22T11:50:21.276Z</time></trkpt><trkpt lat="44.4221957" lon="10.6435885"><ele>328.0</ele><time>2026-03-22T11:50:22.277Z</time></trkpt><trkpt lat="44.4223717" lon="10.6436952"><ele>326.3333333333333</ele><time>2026-03-22T11:50:23.283Z</time></trkpt><trkpt lat="44.4225507" lon="10.6437987"><ele>324.6666666666667</ele><time>2026-03-22T11:50:24.285Z</time></trkpt><trkpt lat="44.4227196" lon="10.6439021"><ele>323.0</ele><time>2026-03-22T11:50:25.295Z</time></trkpt><trkpt lat="44.4228774" lon="10.6440037"><ele>322.0</ele><time>2026-03-22T11:50:26.287Z</time></trkpt><trkpt lat="44.4230324" lon="10.6441325"><ele>321.0</ele><time>2026-03-22T11:50:27.286Z</time></trkpt><trkpt lat="44.4231776" lon="10.6442986"><ele>320.0</ele><time>2026-03-22T11:50:28.278Z</time></trkpt><trkpt lat="44.4233109" lon="10.6445109"><ele>320.0</ele><time>2026-03-22T11:50:29.274Z</time></trkpt><trkpt lat="44.4234372" lon="10.6447469"><ele>320.0</ele><time>2026-03-22T11:50:30.276Z</time></trkpt><trkpt lat="44.4235742" lon="10.6449712"><ele>320.0</ele><time>2026-03-22T11:50:31.289Z</time></trkpt><trkpt lat="44.4237223" lon="10.6451656"><ele>318.0</ele><time>2026-03-22T11:50:32.279Z</time></trkpt><trkpt lat="44.4238814" lon="10.6453287"><ele>316.0</ele><time>2026-03-22T11:50:33.283Z</time></trkpt><trkpt lat="44.4240338" lon="10.6454814"><ele>314.0</ele><time>2026-03-22T11:50:34.28Z</time></trkpt><trkpt lat="44.4241727" lon="10.6456515"><ele>314.0</ele><time>2026-03-22T11:50:35.294Z</time></trkpt><trkpt lat="44.4242907" lon="10.6458458"><ele>314.0</ele><time>2026-03-22T11:50:36.264Z</time></trkpt><trkpt lat="44.4243976" lon="10.646064"><ele>314.0</ele><time>2026-03-22T11:50:37.286Z</time></trkpt><trkpt lat="44.4245023" lon="10.6462996"><ele>316.0</ele><time>2026-03-22T11:50:38.27Z</time></trkpt><trkpt lat="44.4245997" lon="10.6465474"><ele>318.0</ele><time>2026-03-22T11:50:39.281Z</time></trkpt><trkpt lat="44.424693" lon="10.6467926"><ele>320.0</ele><time>2026-03-22T11:50:40.288Z</time></trkpt><trkpt lat="44.4247745" lon="10.6470377"><ele>315.0</ele><time>2026-03-22T11:50:41.276Z</time></trkpt><trkpt lat="44.4248532" lon="10.6472658"><ele>310.0</ele><time>2026-03-22T11:50:42.288Z</time></trkpt><trkpt lat="44.4249219" lon="10.6474882"><ele>305.0</ele><time>2026-03-22T11:50:43.292Z</time></trkpt><trkpt lat="44.4249809" lon="10.6476988"><ele>306.5</ele><time>2026-03-22T11:50:44.29Z</time></trkpt><trkpt lat="44.4250414" lon="10.6478904"><ele>308.0</ele><time>2026-03-22T11:50:45.274Z</time></trkpt><trkpt lat="44.425119" lon="10.6480558"><ele>309.5</ele><time>2026-03-22T11:50:46.292Z</time></trkpt><trkpt lat="44.4252264" lon="10.6481817"><ele>311.0</ele><time>2026-03-22T11:50:47.289Z</time></trkpt><trkpt lat="44.4253651" lon="10.6482546"><ele>308.33333333333337</ele><time>2026-03-22T11:50:48.291Z</time></trkpt><trkpt lat="44.4255229" lon="10.6482952"><ele>305.6666666666667</ele><time>2026-03-22T11:50:49.294Z</time></trkpt><trkpt lat="44.4257096" lon="10.6482776"><ele>303.0</ele><time>2026-03-22T11:50:50.286Z</time></trkpt><trkpt lat="44.4258959" lon="10.6482336"><ele>303.0</ele><time>2026-03-22T11:50:51.279Z</time></trkpt><trkpt lat="44.4260905" lon="10.6481853"><ele>303.0</ele><time>2026-03-22T11:50:52.277Z</time></trkpt><trkpt lat="44.42628" lon="10.6481621"><ele>303.0</ele><time>2026-03-22T11:50:53.272Z</time></trkpt><trkpt lat="44.4264581" lon="10.6481695"><ele>301.3333333333333</ele><time>2026-03-22T11:50:54.292Z</time></trkpt><trkpt lat="44.4266279" lon="10.6481863"><ele>299.66666666666663</ele><time>2026-03-22T11:50:55.286Z</time></trkpt><trkpt lat="44.4267813" lon="10.6482243"><ele>298.0</ele><time>2026-03-22T11:50:56.284Z</time></trkpt><trkpt lat="44.4269116" lon="10.648295"><ele>298.0</ele><time>2026-03-22T11:50:57.273Z</time></trkpt><trkpt lat="44.4270411" lon="10.648433"><ele>298.0</ele><time>2026-03-22T11:50:58.269Z</time></trkpt><trkpt lat="44.4271713" lon="10.6485944"><ele>298.0</ele><time>2026-03-22T11:50:59.276Z</time></trkpt><trkpt lat="44.4273127" lon="10.6487617"><ele>297.3333333333333</ele><time>2026-03-22T11:51:00.277Z</time></trkpt><trkpt lat="44.4274703" lon="10.648907"><ele>296.6666666666667</ele><time>2026-03-22T11:51:01.288Z</time></trkpt><trkpt lat="44.4276466" lon="10.6490213"><ele>296.0</ele><time>2026-03-22T11:51:02.265Z</time></trkpt><trkpt lat="44.4278282" lon="10.6491077"><ele>293.33333333333337</ele><time>2026-03-22T11:51:03.28Z</time></trkpt><trkpt lat="44.4280001" lon="10.6491841"><ele>290.6666666666667</ele><time>2026-03-22T11:51:04.288Z</time></trkpt><trkpt lat="44.4281624" lon="10.649241"><ele>288.0</ele><time>2026-03-22T11:51:05.275Z</time></trkpt><trkpt lat="44.4283159" lon="10.6492595"><ele>288.0</ele><time>2026-03-22T11:51:06.287Z</time></trkpt><trkpt lat="44.4284739" lon="10.6492065"><ele>288.0</ele><time>2026-03-22T11:51:07.289Z</time></trkpt><trkpt lat="44.4286282" lon="10.649113"><ele>288.0</ele><time>2026-03-22T11:51:08.276Z</time></trkpt><trkpt lat="44.4287807" lon="10.6490108"><ele>288.5</ele><time>2026-03-22T11:51:09.278Z</time></trkpt><trkpt lat="44.4289255" lon="10.6489343"><ele>289.0</ele><time>2026-03-22T11:51:10.266Z</time></trkpt><trkpt lat="44.4290712" lon="10.6488788"><ele>289.5</ele><time>2026-03-22T11:51:11.288Z</time></trkpt><trkpt lat="44.4292075" lon="10.6488459"><ele>290.0</ele><time>2026-03-22T11:51:12.274Z</time></trkpt><trkpt lat="44.4293442" lon="10.6488902"><ele>290.0</ele><time>2026-03-22T11:51:13.278Z</time></trkpt><trkpt lat="44.4294762" lon="10.6489523"><ele>290.0</ele><time>2026-03-22T11:51:14.286Z</time></trkpt><trkpt lat="44.4295998" lon="10.6490584"><ele>290.0</ele><time>2026-03-22T11:51:15.283Z</time></trkpt><trkpt lat="44.4297189" lon="10.6491576"><ele>290.0</ele><time>2026-03-22T11:51:16.289Z</time></trkpt><trkpt lat="44.4298417" lon="10.6492095"><ele>287.75</ele><time>2026-03-22T11:51:17.287Z</time></trkpt><trkpt lat="44.4299773" lon="10.6491873"><ele>285.5</ele><time>2026-03-22T11:51:18.286Z</time></trkpt><trkpt lat="44.4301126" lon="10.6491234"><ele>283.25</ele><time>2026-03-22T11:51:19.288Z</time></trkpt><trkpt lat="44.4302549" lon="10.6490361"><ele>281.0</ele><time>2026-03-22T11:51:20.273Z</time></trkpt><trkpt lat="44.4303909" lon="10.6489347"><ele>279.0</ele><time>2026-03-22T11:51:21.278Z</time></trkpt><trkpt lat="44.4305221" lon="10.6488413"><ele>277.0</ele><time>2026-03-22T11:51:22.266Z</time></trkpt><trkpt lat="44.4306448" lon="10.6487586"><ele>275.0</ele><time>2026-03-22T11:51:23.288Z</time></trkpt><trkpt lat="44.4307619" lon="10.6487112"><ele>273.0</ele><time>2026-03-22T11:51:24.289Z</time></trkpt><trkpt lat="44.4308727" lon="10.6486851"><ele>273.0</ele><time>2026-03-22T11:51:25.284Z</time></trkpt><trkpt lat="44.430971" lon="10.64874"><ele>273.0</ele><time>2026-03-22T11:51:26.292Z</time></trkpt><trkpt lat="44.4310763" lon="10.6488085"><ele>273.0</ele><time>2026-03-22T11:51:27.278Z</time></trkpt><trkpt lat="44.4311397" lon="10.6489476"><ele>273.0</ele><time>2026-03-22T11:51:28.29Z</time></trkpt><trkpt lat="44.4311944" lon="10.6491149"><ele>273.0</ele><time>2026-03-22T11:51:29.275Z</time></trkpt><trkpt lat="44.4312426" lon="10.6492899"><ele>273.0</ele><time>2026-03-22T11:51:30.267Z</time></trkpt><trkpt lat="44.4312607" lon="10.6494755"><ele>273.0</ele><time>2026-03-22T11:51:31.284Z</time></trkpt><trkpt lat="44.4312323" lon="10.6496671"><ele>273.0</ele><time>2026-03-22T11:51:32.288Z</time></trkpt><trkpt lat="44.4311614" lon="10.6498526"><ele>273.0</ele><time>2026-03-22T11:51:33.29Z</time></trkpt><trkpt lat="44.4310616" lon="10.650033"><ele>273.0</ele><time>2026-03-22T11:51:34.285Z</time></trkpt><trkpt lat="44.4309738" lon="10.6502291"><ele>273.0</ele><time>2026-03-22T11:51:35.285Z</time></trkpt><trkpt lat="44.4309095" lon="10.6504393"><ele>271.0</ele><time>2026-03-22T11:51:36.289Z</time></trkpt><trkpt lat="44.4308809" lon="10.6506474"><ele>269.0</ele><time>2026-03-22T11:51:37.288Z</time></trkpt><trkpt lat="44.4308566" lon="10.6508598"><ele>267.0</ele><time>2026-03-22T11:51:38.286Z</time></trkpt><trkpt lat="44.4309053" lon="10.6510667"><ele>266.0</ele><time>2026-03-22T11:51:39.28Z</time></trkpt><trkpt lat="44.4309876" lon="10.6512435"><ele>265.0</ele><time>2026-03-22T11:51:40.272Z</time></trkpt><trkpt lat="44.4310787" lon="10.65141"><ele>264.0</ele><time>2026-03-22T11:51:41.275Z</time></trkpt><trkpt lat="44.4311484" lon="10.6515783"><ele>263.0</ele><time>2026-03-22T11:51:42.284Z</time></trkpt><trkpt lat="44.4311887" lon="10.6517478"><ele>263.0</ele><time>2026-03-22T11:51:43.288Z</time></trkpt><trkpt lat="44.4311918" lon="10.6519123"><ele>263.0</ele><time>2026-03-22T11:51:44.272Z</time></trkpt><trkpt lat="44.4311773" lon="10.6520759"><ele>263.0</ele><time>2026-03-22T11:51:45.288Z</time></trkpt><trkpt lat="44.4311144" lon="10.6522339"><ele>263.0</ele><time>2026-03-22T11:51:46.28Z</time></trkpt><trkpt lat="44.4310371" lon="10.6523979"><ele>261.75</ele><time>2026-03-22T11:51:47.275Z</time></trkpt><trkpt lat="44.4309642" lon="10.6525712"><ele>260.5</ele><time>2026-03-22T11:51:48.289Z</time></trkpt><trkpt lat="44.4309189" lon="10.652751"><ele>259.25</ele><time>2026-03-22T11:51:49.285Z</time></trkpt><trkpt lat="44.4309075" lon="10.65295"><ele>258.0</ele><time>2026-03-22T11:51:50.289Z</time></trkpt><trkpt lat="44.430909" lon="10.6531362"><ele>256.25</ele><time>2026-03-22T11:51:51.293Z</time></trkpt><trkpt lat="44.4309453" lon="10.6533064"><ele>254.5</ele><time>2026-03-22T11:51:52.282Z</time></trkpt><trkpt lat="44.4309886" lon="10.653463"><ele>252.75</ele><time>2026-03-22T11:51:53.272Z</time></trkpt><trkpt lat="44.4310216" lon="10.6536115"><ele>251.0</ele><time>2026-03-22T11:51:54.29Z</time></trkpt><trkpt lat="44.4310421" lon="10.6537508"><ele>250.50000000000003</ele><time>2026-03-22T11:51:55.292Z</time></trkpt><trkpt lat="44.4310347" lon="10.6538858"><ele>250.0</ele><time>2026-03-22T11:51:56.272Z</time></trkpt><trkpt lat="44.4310358" lon="10.6539906"><ele>249.5</ele><time>2026-03-22T11:51:57.29Z</time></trkpt><trkpt lat="44.43108" lon="10.654073"><ele>249.0</ele><time>2026-03-22T11:51:58.28Z</time></trkpt><trkpt lat="44.4311581" lon="10.6540999"><ele>248.50000000000003</ele><time>2026-03-22T11:51:59.285Z</time></trkpt><trkpt lat="44.4312409" lon="10.6540583"><ele>248.0</ele><time>2026-03-22T11:52:00.277Z</time></trkpt><trkpt lat="44.4313264" lon="10.6539978"><ele>246.0</ele><time>2026-03-22T11:52:01.278Z</time></trkpt><trkpt lat="44.4314001" lon="10.6538595"><ele>244.0</ele><time>2026-03-22T11:52:02.28Z</time></trkpt><trkpt lat="44.4315051" lon="10.6537646"><ele>242.0</ele><time>2026-03-22T11:52:03.275Z</time></trkpt><trkpt lat="44.4316251" lon="10.6536799"><ele>240.0</ele><time>2026-03-22T11:52:04.282Z</time></trkpt><trkpt lat="44.4317804" lon="10.6536585"><ele>240.0</ele><time>2026-03-22T11:52:05.287Z</time></trkpt><trkpt lat="44.4319501" lon="10.6536463"><ele>240.0</ele><time>2026-03-22T11:52:06.286Z</time></trkpt><trkpt lat="44.4321323" lon="10.6536436"><ele>240.0</ele><time>2026-03-22T11:52:07.285Z</time></trkpt><trkpt lat="44.4323158" lon="10.6536378"><ele>240.0</ele><time>2026-03-22T11:52:08.275Z</time></trkpt><trkpt lat="44.4324962" lon="10.6536288"><ele>240.0</ele><time>2026-03-22T11:52:09.274Z</time></trkpt><trkpt lat="44.4326739" lon="10.6536208"><ele>240.0</ele><time>2026-03-22T11:52:10.284Z</time></trkpt><trkpt lat="44.432847" lon="10.6536016"><ele>240.66666666666669</ele><time>2026-03-22T11:52:11.283Z</time></trkpt><trkpt lat="44.4330153" lon="10.6535878"><ele>241.33333333333334</ele><time>2026-03-22T11:52:12.264Z</time></trkpt><trkpt lat="44.4331786" lon="10.6535864"><ele>242.0</ele><time>2026-03-22T11:52:13.282Z</time></trkpt><trkpt lat="44.4333456" lon="10.6535786"><ele>242.0</ele><time>2026-03-22T11:52:14.273Z</time></trkpt><trkpt lat="44.4335107" lon="10.6535661"><ele>242.0</ele><time>2026-03-22T11:52:15.29Z</time></trkpt><trkpt lat="44.4336722" lon="10.6535609"><ele>242.0</ele><time>2026-03-22T11:52:16.279Z</time></trkpt><trkpt lat="44.4338189" lon="10.6535802"><ele>243.5</ele><time>2026-03-22T11:52:17.274Z</time></trkpt><trkpt lat="44.4339614" lon="10.6536183"><ele>245.0</ele><time>2026-03-22T11:52:18.273Z</time></trkpt><trkpt lat="44.4340839" lon="10.6537151"><ele>246.5</ele><time>2026-03-22T11:52:19.276Z</time></trkpt><trkpt lat="44.4341933" lon="10.6538343"><ele>248.0</ele><time>2026-03-22T11:52:20.292Z</time></trkpt><trkpt lat="44.4342983" lon="10.6539399"><ele>248.0</ele><time>2026-03-22T11:52:21.286Z</time></trkpt><trkpt lat="44.4343944" lon="10.6540167"><ele>248.0</ele><time>2026-03-22T11:52:22.292Z</time></trkpt><trkpt lat="44.4344989" lon="10.6540323"><ele>248.0</ele><time>2026-03-22T11:52:23.275Z</time></trkpt><trkpt lat="44.4346067" lon="10.6540167"><ele>248.0</ele><time>2026-03-22T11:52:24.272Z</time></trkpt><trkpt lat="44.4347233" lon="10.6539695"><ele>248.0</ele><time>2026-03-22T11:52:25.287Z</time></trkpt><trkpt lat="44.4348446" lon="10.6538855"><ele>248.0</ele><time>2026-03-22T11:52:26.284Z</time></trkpt><trkpt lat="44.4349862" lon="10.6538025"><ele>248.0</ele><time>2026-03-22T11:52:27.291Z</time></trkpt><trkpt lat="44.4351299" lon="10.6537197"><ele>248.0</ele><time>2026-03-22T11:52:28.279Z</time></trkpt><trkpt lat="44.4352711" lon="10.6536381"><ele>249.33333333333334</ele><time>2026-03-22T11:52:29.282Z</time></trkpt><trkpt lat="44.4354145" lon="10.6535423"><ele>250.66666666666669</ele><time>2026-03-22T11:52:30.275Z</time></trkpt><trkpt lat="44.4355608" lon="10.6534409"><ele>252.0</ele><time>2026-03-22T11:52:31.284Z</time></trkpt><trkpt lat="44.435709" lon="10.653345"><ele>252.0</ele><time>2026-03-22T11:52:32.265Z</time></trkpt><trkpt lat="44.4358576" lon="10.6532395"><ele>252.0</ele><time>2026-03-22T11:52:33.282Z</time></trkpt><trkpt lat="44.4360008" lon="10.6531141"><ele>252.0</ele><time>2026-03-22T11:52:34.28Z</time></trkpt><trkpt lat="44.4361471" lon="10.6529768"><ele>252.0</ele><time>2026-03-22T11:52:35.266Z</time></trkpt><trkpt lat="44.436289" lon="10.6527958"><ele>252.0</ele><time>2026-03-22T11:52:36.288Z</time></trkpt><trkpt lat="44.4364269" lon="10.6525977"><ele>252.0</ele><time>2026-03-22T11:52:37.279Z</time></trkpt><trkpt lat="44.4365526" lon="10.6523827"><ele>250.66666666666669</ele><time>2026-03-22T11:52:38.289Z</time></trkpt><trkpt lat="44.4366746" lon="10.6521706"><ele>249.33333333333334</ele><time>2026-03-22T11:52:39.286Z</time></trkpt><trkpt lat="44.4368029" lon="10.6519735"><ele>248.0</ele><time>2026-03-22T11:52:40.287Z</time></trkpt><trkpt lat="44.4369408" lon="10.6517907"><ele>245.66666666666669</ele><time>2026-03-22T11:52:41.28Z</time></trkpt><trkpt lat="44.4370851" lon="10.6516172"><ele>243.33333333333331</ele><time>2026-03-22T11:52:42.272Z</time></trkpt><trkpt lat="44.4372411" lon="10.651443"><ele>241.0</ele><time>2026-03-22T11:52:43.286Z</time></trkpt><trkpt lat="44.4374074" lon="10.6512745"><ele>246.0</ele><time>2026-03-22T11:52:44.282Z</time></trkpt><trkpt lat="44.4375799" lon="10.6511116"><ele>251.0</ele><time>2026-03-22T11:52:45.276Z</time></trkpt><trkpt lat="44.4377613" lon="10.6509537"><ele>256.0</ele><time>2026-03-22T11:52:46.283Z</time></trkpt><trkpt lat="44.43795" lon="10.650807"><ele>252.0</ele><time>2026-03-22T11:52:47.286Z</time></trkpt><trkpt lat="44.4381412" lon="10.6506693"><ele>248.0</ele><time>2026-03-22T11:52:48.294Z</time></trkpt><trkpt lat="44.4383348" lon="10.6505445"><ele>244.0</ele><time>2026-03-22T11:52:49.283Z</time></trkpt><trkpt lat="44.4385326" lon="10.6504261"><ele>244.0</ele><time>2026-03-22T11:52:50.29Z</time></trkpt><trkpt lat="44.4387403" lon="10.6503568"><ele>244.0</ele><time>2026-03-22T11:52:51.285Z</time></trkpt><trkpt lat="44.438953" lon="10.6503137"><ele>244.0</ele><time>2026-03-22T11:52:52.291Z</time></trkpt><trkpt lat="44.4391769" lon="10.6503052"><ele>242.0</ele><time>2026-03-22T11:52:53.27Z</time></trkpt><trkpt lat="44.4394041" lon="10.6502978"><ele>240.0</ele><time>2026-03-22T11:52:54.277Z</time></trkpt><trkpt lat="44.439627" lon="10.6502945"><ele>240.66666666666669</ele><time>2026-03-22T11:52:55.284Z</time></trkpt><trkpt lat="44.4398449" lon="10.6502934"><ele>241.33333333333334</ele><time>2026-03-22T11:52:56.286Z</time></trkpt><trkpt lat="44.4400614" lon="10.6502914"><ele>242.0</ele><time>2026-03-22T11:52:57.286Z</time></trkpt><trkpt lat="44.4402788" lon="10.6502906"><ele>242.66666666666669</ele><time>2026-03-22T11:52:58.276Z</time></trkpt><trkpt lat="44.440496" lon="10.6502858"><ele>243.33333333333331</ele><time>2026-03-22T11:52:59.291Z</time></trkpt><trkpt lat="44.440713" lon="10.6502843"><ele>244.0</ele><time>2026-03-22T11:53:00.271Z</time></trkpt><trkpt lat="44.4409342" lon="10.6502901"><ele>243.0</ele><time>2026-03-22T11:53:01.285Z</time></trkpt><trkpt lat="44.4411478" lon="10.6503073"><ele>242.0</ele><time>2026-03-22T11:53:02.287Z</time></trkpt><trkpt lat="44.4413472" lon="10.6503474"><ele>241.0</ele><time>2026-03-22T11:53:03.272Z</time></trkpt><trkpt lat="44.4415404" lon="10.6504058"><ele>241.0</ele><time>2026-03-22T11:53:04.281Z</time></trkpt><trkpt lat="44.4417282" lon="10.6504775"><ele>241.0</ele><time>2026-03-22T11:53:05.28Z</time></trkpt><trkpt lat="44.441911" lon="10.6505624"><ele>241.0</ele><time>2026-03-22T11:53:06.287Z</time></trkpt><trkpt lat="44.4420911" lon="10.6506508"><ele>242.0</ele><time>2026-03-22T11:53:07.285Z</time></trkpt><trkpt lat="44.4422742" lon="10.6507349"><ele>243.0</ele><time>2026-03-22T11:53:08.29Z</time></trkpt><trkpt lat="44.4424562" lon="10.6508222"><ele>244.0</ele><time>2026-03-22T11:53:09.273Z</time></trkpt><trkpt lat="44.4426374" lon="10.6509047"><ele>244.0</ele><time>2026-03-22T11:53:10.287Z</time></trkpt><trkpt lat="44.4428221" lon="10.6509698"><ele>244.0</ele><time>2026-03-22T11:53:11.279Z</time></trkpt><trkpt lat="44.4430013" lon="10.6510258"><ele>244.0</ele><time>2026-03-22T11:53:12.268Z</time></trkpt><trkpt lat="44.4431736" lon="10.6510669"><ele>243.75</ele><time>2026-03-22T11:53:13.288Z</time></trkpt><trkpt lat="44.443334" lon="10.6511022"><ele>243.5</ele><time>2026-03-22T11:53:14.286Z</time></trkpt><trkpt lat="44.4434815" lon="10.6511422"><ele>243.25</ele><time>2026-03-22T11:53:15.271Z</time></trkpt><trkpt lat="44.4436152" lon="10.6511797"><ele>243.0</ele><time>2026-03-22T11:53:16.271Z</time></trkpt><trkpt lat="44.4437352" lon="10.6512152"><ele>243.2</ele><time>2026-03-22T11:53:17.285Z</time></trkpt><trkpt lat="44.4438441" lon="10.651221"><ele>243.4</ele><time>2026-03-22T11:53:18.284Z</time></trkpt><trkpt lat="44.4439451" lon="10.6511989"><ele>243.59999999999997</ele><time>2026-03-22T11:53:19.266Z</time></trkpt><trkpt lat="44.4440366" lon="10.6511595"><ele>243.79999999999998</ele><time>2026-03-22T11:53:20.285Z</time></trkpt><trkpt lat="44.4441236" lon="10.6511155"><ele>244.0</ele><time>2026-03-22T11:53:21.286Z</time></trkpt><trkpt lat="44.4441944" lon="10.6510898"><ele>243.99999999999997</ele><time>2026-03-22T11:53:22.288Z</time></trkpt><trkpt lat="44.4442943" lon="10.6511145"><ele>244.0</ele><time>2026-03-22T11:53:24.283Z</time></trkpt><trkpt lat="44.4443484" lon="10.6511983"><ele>244.0</ele><time>2026-03-22T11:53:26.283Z</time></trkpt><trkpt lat="44.444385" lon="10.6512846"><ele>244.0</ele><time>2026-03-22T11:53:29.279Z</time></trkpt><trkpt lat="44.4444369" lon="10.6513782"><ele>243.99999999999997</ele><time>2026-03-22T11:53:37.291Z</time></trkpt><trkpt lat="44.4444974" lon="10.6514199"><ele>244.0</ele><time>2026-03-22T11:53:38.282Z</time></trkpt><trkpt lat="44.4445673" lon="10.6514212"><ele>239.75</ele><time>2026-03-22T11:53:39.288Z</time></trkpt><trkpt lat="44.4446499" lon="10.6513857"><ele>235.5</ele><time>2026-03-22T11:53:40.28Z</time></trkpt><trkpt lat="44.4447565" lon="10.6513221"><ele>231.25</ele><time>2026-03-22T11:53:41.281Z</time></trkpt><trkpt lat="44.4448774" lon="10.6512516"><ele>227.0</ele><time>2026-03-22T11:53:42.284Z</time></trkpt><trkpt lat="44.445011" lon="10.6511625"><ele>229.33333333333334</ele><time>2026-03-22T11:53:43.276Z</time></trkpt><trkpt lat="44.4451578" lon="10.6510734"><ele>231.66666666666669</ele><time>2026-03-22T11:53:44.284Z</time></trkpt><trkpt lat="44.4453167" lon="10.6509836"><ele>234.0</ele><time>2026-03-22T11:53:45.288Z</time></trkpt><trkpt lat="44.4454831" lon="10.6508851"><ele>234.0</ele><time>2026-03-22T11:53:46.276Z</time></trkpt><trkpt lat="44.4456554" lon="10.6507871"><ele>234.0</ele><time>2026-03-22T11:53:47.278Z</time></trkpt><trkpt lat="44.4458419" lon="10.650694"><ele>234.0</ele><time>2026-03-22T11:53:48.273Z</time></trkpt><trkpt lat="44.446036" lon="10.650594"><ele>234.0</ele><time>2026-03-22T11:53:49.278Z</time></trkpt><trkpt lat="44.4462545" lon="10.6505076"><ele>234.0</ele><time>2026-03-22T11:53:50.288Z</time></trkpt><trkpt lat="44.4464884" lon="10.6504211"><ele>234.5</ele><time>2026-03-22T11:53:51.283Z</time></trkpt><trkpt lat="44.44672" lon="10.6503363"><ele>235.0</ele><time>2026-03-22T11:53:52.285Z</time></trkpt><trkpt lat="44.4469521" lon="10.6502588"><ele>238.0</ele><time>2026-03-22T11:53:53.285Z</time></trkpt><trkpt lat="44.4471793" lon="10.6501842"><ele>241.0</ele><time>2026-03-22T11:53:54.298Z</time></trkpt><trkpt lat="44.4473969" lon="10.6501147"><ele>241.0</ele><time>2026-03-22T11:53:55.285Z</time></trkpt><trkpt lat="44.4476128" lon="10.6500439"><ele>241.0</ele><time>2026-03-22T11:53:56.292Z</time></trkpt><trkpt lat="44.4478182" lon="10.6499755"><ele>241.0</ele><time>2026-03-22T11:53:57.282Z</time></trkpt><trkpt lat="44.4480146" lon="10.649912"><ele>239.66666666666666</ele><time>2026-03-22T11:53:58.289Z</time></trkpt><trkpt lat="44.4482002" lon="10.6498592"><ele>238.33333333333331</ele><time>2026-03-22T11:53:59.288Z</time></trkpt><trkpt lat="44.4483741" lon="10.6498149"><ele>237.0</ele><time>2026-03-22T11:54:00.293Z</time></trkpt><trkpt lat="44.4485352" lon="10.6497827"><ele>237.0</ele><time>2026-03-22T11:54:01.278Z</time></trkpt><trkpt lat="44.4486953" lon="10.6497885"><ele>237.0</ele><time>2026-03-22T11:54:02.286Z</time></trkpt><trkpt lat="44.4488405" lon="10.6498377"><ele>237.0</ele><time>2026-03-22T11:54:03.264Z</time></trkpt><trkpt lat="44.4489714" lon="10.6499335"><ele>237.33333333333331</ele><time>2026-03-22T11:54:04.292Z</time></trkpt><trkpt lat="44.4490903" lon="10.6500777"><ele>237.66666666666666</ele><time>2026-03-22T11:54:05.277Z</time></trkpt><trkpt lat="44.4491963" lon="10.6502554"><ele>238.0</ele><time>2026-03-22T11:54:06.291Z</time></trkpt><trkpt lat="44.4493032" lon="10.6504502"><ele>236.0</ele><time>2026-03-22T11:54:07.286Z</time></trkpt><trkpt lat="44.4494221" lon="10.6506516"><ele>234.0</ele><time>2026-03-22T11:54:08.276Z</time></trkpt><trkpt lat="44.4495494" lon="10.6508461"><ele>232.0</ele><time>2026-03-22T11:54:09.281Z</time></trkpt><trkpt lat="44.4496918" lon="10.6510168"><ele>230.66666666666666</ele><time>2026-03-22T11:54:10.288Z</time></trkpt><trkpt lat="44.4498391" lon="10.6511705"><ele>229.33333333333331</ele><time>2026-03-22T11:54:11.275Z</time></trkpt><trkpt lat="44.45001" lon="10.6512896"><ele>228.0</ele><time>2026-03-22T11:54:12.276Z</time></trkpt><trkpt lat="44.450195" lon="10.6513747"><ele>228.0</ele><time>2026-03-22T11:54:13.276Z</time></trkpt><trkpt lat="44.4503838" lon="10.6514446"><ele>228.0</ele><time>2026-03-22T11:54:14.279Z</time></trkpt><trkpt lat="44.4505711" lon="10.6515122"><ele>228.0</ele><time>2026-03-22T11:54:15.278Z</time></trkpt><trkpt lat="44.4507534" lon="10.6515872"><ele>230.33333333333331</ele><time>2026-03-22T11:54:16.287Z</time></trkpt><trkpt lat="44.4509311" lon="10.6516548"><ele>232.66666666666666</ele><time>2026-03-22T11:54:17.286Z</time></trkpt><trkpt lat="44.4511004" lon="10.6517202"><ele>235.0</ele><time>2026-03-22T11:54:18.276Z</time></trkpt><trkpt lat="44.4512535" lon="10.651781"><ele>235.33333333333331</ele><time>2026-03-22T11:54:19.288Z</time></trkpt><trkpt lat="44.4514034" lon="10.6518379"><ele>235.66666666666669</ele><time>2026-03-22T11:54:20.276Z</time></trkpt><trkpt lat="44.4515508" lon="10.6518925"><ele>236.0</ele><time>2026-03-22T11:54:21.294Z</time></trkpt><trkpt lat="44.4516925" lon="10.6519465"><ele>234.0</ele><time>2026-03-22T11:54:22.289Z</time></trkpt><trkpt lat="44.4518323" lon="10.6520051"><ele>232.0</ele><time>2026-03-22T11:54:23.28Z</time></trkpt><trkpt lat="44.4519648" lon="10.6520491"><ele>230.0</ele><time>2026-03-22T11:54:24.279Z</time></trkpt><trkpt lat="44.4520848" lon="10.6520898"><ele>228.0</ele><time>2026-03-22T11:54:25.271Z</time></trkpt><trkpt lat="44.4522031" lon="10.652131"><ele>228.0</ele><time>2026-03-22T11:54:26.275Z</time></trkpt><trkpt lat="44.4523227" lon="10.6521693"><ele>228.0</ele><time>2026-03-22T11:54:27.281Z</time></trkpt><trkpt lat="44.4524412" lon="10.6522089"><ele>228.0</ele><time>2026-03-22T11:54:28.277Z</time></trkpt><trkpt lat="44.4525704" lon="10.6522596"><ele>228.0</ele><time>2026-03-22T11:54:29.284Z</time></trkpt><trkpt lat="44.4527067" lon="10.6523159"><ele>228.0</ele><time>2026-03-22T11:54:30.274Z</time></trkpt><trkpt lat="44.4528581" lon="10.6523727"><ele>228.0</ele><time>2026-03-22T11:54:31.296Z</time></trkpt><trkpt lat="44.4530221" lon="10.6524156"><ele>228.0</ele><time>2026-03-22T11:54:32.271Z</time></trkpt><trkpt lat="44.4532124" lon="10.6524458"><ele>228.66666666666669</ele><time>2026-03-22T11:54:33.279Z</time></trkpt><trkpt lat="44.4534209" lon="10.6524678"><ele>229.33333333333334</ele><time>2026-03-22T11:54:34.289Z</time></trkpt><trkpt lat="44.4536437" lon="10.6524787"><ele>230.0</ele><time>2026-03-22T11:54:35.275Z</time></trkpt><trkpt lat="44.4538996" lon="10.6524791"><ele>232.0</ele><time>2026-03-22T11:54:36.295Z</time></trkpt><trkpt lat="44.4541642" lon="10.6524797"><ele>234.0</ele><time>2026-03-22T11:54:37.282Z</time></trkpt><trkpt lat="44.4544427" lon="10.6524873"><ele>235.0</ele><time>2026-03-22T11:54:38.301Z</time></trkpt><trkpt lat="44.4547105" lon="10.6524968"><ele>236.0</ele><time>2026-03-22T11:54:39.286Z</time></trkpt><trkpt lat="44.4549682" lon="10.6525097"><ele>236.0</ele><time>2026-03-22T11:54:40.286Z</time></trkpt><trkpt lat="44.4552121" lon="10.6525387"><ele>236.0</ele><time>2026-03-22T11:54:41.29Z</time></trkpt><trkpt lat="44.4554407" lon="10.6525974"><ele>236.5</ele><time>2026-03-22T11:54:42.281Z</time></trkpt><trkpt lat="44.4556608" lon="10.6526779"><ele>237.0</ele><time>2026-03-22T11:54:43.288Z</time></trkpt><trkpt lat="44.4558599" lon="10.6528269"><ele>228.0</ele><time>2026-03-22T11:54:44.284Z</time></trkpt><trkpt lat="44.4560543" lon="10.6530048"><ele>219.0</ele><time>2026-03-22T11:54:45.284Z</time></trkpt><trkpt lat="44.4562504" lon="10.6531981"><ele>219.0</ele><time>2026-03-22T11:54:46.28Z</time></trkpt><trkpt lat="44.4564571" lon="10.6533938"><ele>219.0</ele><time>2026-03-22T11:54:47.279Z</time></trkpt><trkpt lat="44.4566706" lon="10.6535765"><ele>218.0</ele><time>2026-03-22T11:54:48.286Z</time></trkpt><trkpt lat="44.4568909" lon="10.6537305"><ele>217.0</ele><time>2026-03-22T11:54:49.276Z</time></trkpt><trkpt lat="44.4571231" lon="10.6538555"><ele>217.0</ele><time>2026-03-22T11:54:50.279Z</time></trkpt><trkpt lat="44.4573683" lon="10.6539419"><ele>217.0</ele><time>2026-03-22T11:54:51.27Z</time></trkpt><trkpt lat="44.457631" lon="10.6539949"><ele>217.0</ele><time>2026-03-22T11:54:52.29Z</time></trkpt><trkpt lat="44.4578958" lon="10.6540277"><ele>217.0</ele><time>2026-03-22T11:54:53.277Z</time></trkpt><trkpt lat="44.458161" lon="10.6540521"><ele>216.5</ele><time>2026-03-22T11:54:54.269Z</time></trkpt><trkpt lat="44.4584172" lon="10.6540776"><ele>216.0</ele><time>2026-03-22T11:54:55.285Z</time></trkpt><trkpt lat="44.4586578" lon="10.6541061"><ele>216.0</ele><time>2026-03-22T11:54:56.293Z</time></trkpt><trkpt lat="44.4588841" lon="10.654134"><ele>216.0</ele><time>2026-03-22T11:54:57.285Z</time></trkpt><trkpt lat="44.4590944" lon="10.6541621"><ele>216.0</ele><time>2026-03-22T11:54:58.28Z</time></trkpt><trkpt lat="44.4592893" lon="10.654189"><ele>216.0</ele><time>2026-03-22T11:54:59.273Z</time></trkpt><trkpt lat="44.4594592" lon="10.6542123"><ele>216.0</ele><time>2026-03-22T11:55:00.277Z</time></trkpt><trkpt lat="44.4596018" lon="10.6542386"><ele>216.0</ele><time>2026-03-22T11:55:01.27Z</time></trkpt><trkpt lat="44.4597279" lon="10.6542872"><ele>216.0</ele><time>2026-03-22T11:55:02.282Z</time></trkpt><trkpt lat="44.4598396" lon="10.65437"><ele>215.0</ele><time>2026-03-22T11:55:03.287Z</time></trkpt><trkpt lat="44.4599365" lon="10.6544563"><ele>214.0</ele><time>2026-03-22T11:55:04.284Z</time></trkpt><trkpt lat="44.4600449" lon="10.6545019"><ele>213.0</ele><time>2026-03-22T11:55:05.288Z</time></trkpt><trkpt lat="44.4601723" lon="10.6545084"><ele>212.0</ele><time>2026-03-22T11:55:06.278Z</time></trkpt><trkpt lat="44.4603121" lon="10.6545153"><ele>212.33333333333334</ele><time>2026-03-22T11:55:07.275Z</time></trkpt><trkpt lat="44.460464" lon="10.6545713"><ele>212.66666666666669</ele><time>2026-03-22T11:55:08.28Z</time></trkpt><trkpt lat="44.4606166" lon="10.6546788"><ele>213.0</ele><time>2026-03-22T11:55:09.281Z</time></trkpt><trkpt lat="44.4607755" lon="10.6548276"><ele>213.0</ele><time>2026-03-22T11:55:10.272Z</time></trkpt><trkpt lat="44.4609458" lon="10.6549933"><ele>213.0</ele><time>2026-03-22T11:55:11.289Z</time></trkpt><trkpt lat="44.4611207" lon="10.6551649"><ele>213.0</ele><time>2026-03-22T11:55:12.289Z</time></trkpt><trkpt lat="44.4612977" lon="10.6553407"><ele>212.33333333333331</ele><time>2026-03-22T11:55:13.272Z</time></trkpt><trkpt lat="44.4614739" lon="10.6555136"><ele>211.66666666666666</ele><time>2026-03-22T11:55:14.278Z</time></trkpt><trkpt lat="44.4616389" lon="10.655681"><ele>211.0</ele><time>2026-03-22T11:55:15.281Z</time></trkpt><trkpt lat="44.4617963" lon="10.6558412"><ele>211.0</ele><time>2026-03-22T11:55:16.289Z</time></trkpt><trkpt lat="44.4619469" lon="10.6559876"><ele>211.0</ele><time>2026-03-22T11:55:17.278Z</time></trkpt><trkpt lat="44.4620958" lon="10.6561249"><ele>211.0</ele><time>2026-03-22T11:55:18.279Z</time></trkpt><trkpt lat="44.4622396" lon="10.6562588"><ele>211.66666666666666</ele><time>2026-03-22T11:55:19.275Z</time></trkpt><trkpt lat="44.4623769" lon="10.6563921"><ele>212.33333333333331</ele><time>2026-03-22T11:55:20.281Z</time></trkpt><trkpt lat="44.4625125" lon="10.6565238"><ele>213.0</ele><time>2026-03-22T11:55:21.285Z</time></trkpt><trkpt lat="44.4626445" lon="10.6566543"><ele>213.0</ele><time>2026-03-22T11:55:22.28Z</time></trkpt><trkpt lat="44.4627741" lon="10.656783"><ele>213.0</ele><time>2026-03-22T11:55:23.275Z</time></trkpt><trkpt lat="44.4629018" lon="10.6569105"><ele>213.0</ele><time>2026-03-22T11:55:24.273Z</time></trkpt><trkpt lat="44.4630276" lon="10.6570352"><ele>212.0</ele><time>2026-03-22T11:55:25.27Z</time></trkpt><trkpt lat="44.4631563" lon="10.657164"><ele>211.0</ele><time>2026-03-22T11:55:26.298Z</time></trkpt><trkpt lat="44.4632799" lon="10.6572887"><ele>210.0</ele><time>2026-03-22T11:55:27.267Z</time></trkpt><trkpt lat="44.4634102" lon="10.6574181"><ele>210.0</ele><time>2026-03-22T11:55:28.287Z</time></trkpt><trkpt lat="44.4635441" lon="10.6575475"><ele>210.0</ele><time>2026-03-22T11:55:29.29Z</time></trkpt><trkpt lat="44.4636805" lon="10.6576787"><ele>210.0</ele><time>2026-03-22T11:55:30.29Z</time></trkpt><trkpt lat="44.4638208" lon="10.6578113"><ele>210.0</ele><time>2026-03-22T11:55:31.276Z</time></trkpt><trkpt lat="44.4639729" lon="10.6579504"><ele>210.0</ele><time>2026-03-22T11:55:32.285Z</time></trkpt><trkpt lat="44.4641514" lon="10.6581052"><ele>210.0</ele><time>2026-03-22T11:55:33.275Z</time></trkpt><trkpt lat="44.4643283" lon="10.6582922"><ele>210.0</ele><time>2026-03-22T11:55:34.295Z</time></trkpt><trkpt lat="44.4645163" lon="10.6584885"><ele>210.0</ele><time>2026-03-22T11:55:35.275Z</time></trkpt><trkpt lat="44.4647128" lon="10.658696"><ele>210.0</ele><time>2026-03-22T11:55:36.288Z</time></trkpt><trkpt lat="44.4649187" lon="10.6588988"><ele>210.0</ele><time>2026-03-22T11:55:37.281Z</time></trkpt><trkpt lat="44.4651173" lon="10.659096"><ele>210.0</ele><time>2026-03-22T11:55:38.283Z</time></trkpt><trkpt lat="44.4653113" lon="10.6592931"><ele>210.0</ele><time>2026-03-22T11:55:39.272Z</time></trkpt><trkpt lat="44.4654963" lon="10.6594928"><ele>209.0</ele><time>2026-03-22T11:55:40.268Z</time></trkpt><trkpt lat="44.4656677" lon="10.6597034"><ele>208.0</ele><time>2026-03-22T11:55:41.293Z</time></trkpt><trkpt lat="44.4658317" lon="10.6599021"><ele>207.0</ele><time>2026-03-22T11:55:42.286Z</time></trkpt><trkpt lat="44.4659788" lon="10.6600974"><ele>207.0</ele><time>2026-03-22T11:55:43.297Z</time></trkpt><trkpt lat="44.466123" lon="10.6602782"><ele>207.0</ele><time>2026-03-22T11:55:44.283Z</time></trkpt><trkpt lat="44.4662595" lon="10.6604511"><ele>207.0</ele><time>2026-03-22T11:55:45.274Z</time></trkpt><trkpt lat="44.4663927" lon="10.6606254"><ele>207.33333333333331</ele><time>2026-03-22T11:55:46.278Z</time></trkpt><trkpt lat="44.4665303" lon="10.6607933"><ele>207.66666666666666</ele><time>2026-03-22T11:55:47.28Z</time></trkpt><trkpt lat="44.4666596" lon="10.6609568"><ele>208.0</ele><time>2026-03-22T11:55:48.287Z</time></trkpt><trkpt lat="44.4667876" lon="10.6611162"><ele>208.33333333333331</ele><time>2026-03-22T11:55:49.292Z</time></trkpt><trkpt lat="44.4669101" lon="10.6612786"><ele>208.66666666666669</ele><time>2026-03-22T11:55:50.288Z</time></trkpt><trkpt lat="44.4670252" lon="10.6614521"><ele>209.0</ele><time>2026-03-22T11:55:51.273Z</time></trkpt><trkpt lat="44.4671492" lon="10.6616278"><ele>209.0</ele><time>2026-03-22T11:55:52.278Z</time></trkpt><trkpt lat="44.4672923" lon="10.6617981"><ele>209.0</ele><time>2026-03-22T11:55:53.282Z</time></trkpt><trkpt lat="44.4674496" lon="10.6619666"><ele>209.0</ele><time>2026-03-22T11:55:54.279Z</time></trkpt><trkpt lat="44.4676037" lon="10.6621442"><ele>209.0</ele><time>2026-03-22T11:55:55.28Z</time></trkpt><trkpt lat="44.467749" lon="10.662324"><ele>209.0</ele><time>2026-03-22T11:55:56.285Z</time></trkpt><trkpt lat="44.4678896" lon="10.6625062"><ele>209.0</ele><time>2026-03-22T11:55:57.283Z</time></trkpt><trkpt lat="44.4680267" lon="10.6626925"><ele>208.33333333333334</ele><time>2026-03-22T11:55:58.294Z</time></trkpt><trkpt lat="44.4681647" lon="10.6628711"><ele>207.66666666666669</ele><time>2026-03-22T11:55:59.284Z</time></trkpt><trkpt lat="44.4682996" lon="10.6630565"><ele>207.0</ele><time>2026-03-22T11:56:00.289Z</time></trkpt><trkpt lat="44.4684297" lon="10.6632471"><ele>207.0</ele><time>2026-03-22T11:56:01.276Z</time></trkpt><trkpt lat="44.4685481" lon="10.6634474"><ele>207.0</ele><time>2026-03-22T11:56:02.293Z</time></trkpt><trkpt lat="44.4686591" lon="10.6636626"><ele>207.0</ele><time>2026-03-22T11:56:03.286Z</time></trkpt><trkpt lat="44.4687671" lon="10.6638863"><ele>207.33333333333331</ele><time>2026-03-22T11:56:04.271Z</time></trkpt><trkpt lat="44.4688741" lon="10.664117"><ele>207.66666666666666</ele><time>2026-03-22T11:56:05.294Z</time></trkpt><trkpt lat="44.4689835" lon="10.6643499"><ele>208.0</ele><time>2026-03-22T11:56:06.282Z</time></trkpt><trkpt lat="44.4690975" lon="10.6645853"><ele>207.33333333333331</ele><time>2026-03-22T11:56:07.288Z</time></trkpt><trkpt lat="44.4692039" lon="10.6648167"><ele>206.66666666666669</ele><time>2026-03-22T11:56:08.279Z</time></trkpt><trkpt lat="44.4693114" lon="10.6650465"><ele>206.0</ele><time>2026-03-22T11:56:09.286Z</time></trkpt><trkpt lat="44.4694196" lon="10.6652767"><ele>206.66666666666669</ele><time>2026-03-22T11:56:10.284Z</time></trkpt><trkpt lat="44.4695288" lon="10.665504"><ele>207.33333333333331</ele><time>2026-03-22T11:56:11.276Z</time></trkpt><trkpt lat="44.4696382" lon="10.6657346"><ele>208.0</ele><time>2026-03-22T11:56:12.292Z</time></trkpt><trkpt lat="44.4697474" lon="10.6659653"><ele>207.0</ele><time>2026-03-22T11:56:13.289Z</time></trkpt><trkpt lat="44.4698566" lon="10.6661987"><ele>206.0</ele><time>2026-03-22T11:56:14.277Z</time></trkpt><trkpt lat="44.4699693" lon="10.6664367"><ele>205.0</ele><time>2026-03-22T11:56:15.282Z</time></trkpt><trkpt lat="44.4700834" lon="10.6666756"><ele>205.0</ele><time>2026-03-22T11:56:16.282Z</time></trkpt><trkpt lat="44.470201" lon="10.6669149"><ele>205.0</ele><time>2026-03-22T11:56:17.274Z</time></trkpt><trkpt lat="44.4703175" lon="10.6671582"><ele>205.0</ele><time>2026-03-22T11:56:18.286Z</time></trkpt><trkpt lat="44.4704342" lon="10.6674036"><ele>206.33333333333331</ele><time>2026-03-22T11:56:19.285Z</time></trkpt><trkpt lat="44.4705535" lon="10.6676547"><ele>207.66666666666669</ele><time>2026-03-22T11:56:20.281Z</time></trkpt><trkpt lat="44.4706754" lon="10.667905"><ele>209.0</ele><time>2026-03-22T11:56:21.274Z</time></trkpt><trkpt lat="44.4708079" lon="10.6681477"><ele>206.33333333333334</ele><time>2026-03-22T11:56:22.277Z</time></trkpt><trkpt lat="44.4709501" lon="10.6683799"><ele>203.66666666666669</ele><time>2026-03-22T11:56:23.288Z</time></trkpt><trkpt lat="44.4710976" lon="10.6686025"><ele>201.0</ele><time>2026-03-22T11:56:24.289Z</time></trkpt><trkpt lat="44.4712506" lon="10.6688189"><ele>201.0</ele><time>2026-03-22T11:56:25.283Z</time></trkpt><trkpt lat="44.4714054" lon="10.6690393"><ele>201.0</ele><time>2026-03-22T11:56:26.274Z</time></trkpt><trkpt lat="44.4715683" lon="10.6692687"><ele>200.5</ele><time>2026-03-22T11:56:27.274Z</time></trkpt><trkpt lat="44.4717432" lon="10.6695014"><ele>200.0</ele><time>2026-03-22T11:56:28.288Z</time></trkpt><trkpt lat="44.4719269" lon="10.6697466"><ele>198.5</ele><time>2026-03-22T11:56:29.274Z</time></trkpt><trkpt lat="44.4721235" lon="10.6700125"><ele>197.0</ele><time>2026-03-22T11:56:30.294Z</time></trkpt><trkpt lat="44.4723224" lon="10.6702902"><ele>196.5</ele><time>2026-03-22T11:56:31.288Z</time></trkpt><trkpt lat="44.4725151" lon="10.670577"><ele>196.0</ele><time>2026-03-22T11:56:32.269Z</time></trkpt><trkpt lat="44.4726999" lon="10.6708675"><ele>196.0</ele><time>2026-03-22T11:56:33.279Z</time></trkpt><trkpt lat="44.4728748" lon="10.6711519"><ele>196.0</ele><time>2026-03-22T11:56:34.285Z</time></trkpt><trkpt lat="44.4730415" lon="10.6714278"><ele>196.0</ele><time>2026-03-22T11:56:35.28Z</time></trkpt><trkpt lat="44.4732058" lon="10.6716972"><ele>196.0</ele><time>2026-03-22T11:56:36.291Z</time></trkpt><trkpt lat="44.4733637" lon="10.6719543"><ele>197.0</ele><time>2026-03-22T11:56:37.284Z</time></trkpt><trkpt lat="44.4735197" lon="10.6722052"><ele>198.0</ele><time>2026-03-22T11:56:38.285Z</time></trkpt><trkpt lat="44.4736749" lon="10.6724509"><ele>198.0</ele><time>2026-03-22T11:56:39.299Z</time></trkpt><trkpt lat="44.4738256" lon="10.672693"><ele>198.0</ele><time>2026-03-22T11:56:40.277Z</time></trkpt><trkpt lat="44.4739781" lon="10.6729354"><ele>198.0</ele><time>2026-03-22T11:56:41.289Z</time></trkpt><trkpt lat="44.4741269" lon="10.6731733"><ele>198.0</ele><time>2026-03-22T11:56:42.289Z</time></trkpt><trkpt lat="44.4742719" lon="10.6734096"><ele>198.0</ele><time>2026-03-22T11:56:43.283Z</time></trkpt><trkpt lat="44.4744189" lon="10.673647"><ele>197.5</ele><time>2026-03-22T11:56:44.296Z</time></trkpt><trkpt lat="44.4745647" lon="10.6738824"><ele>197.0</ele><time>2026-03-22T11:56:45.28Z</time></trkpt><trkpt lat="44.4747141" lon="10.6741238"><ele>197.0</ele><time>2026-03-22T11:56:46.283Z</time></trkpt><trkpt lat="44.4748651" lon="10.6743683"><ele>197.0</ele><time>2026-03-22T11:56:47.287Z</time></trkpt><trkpt lat="44.4750179" lon="10.6746137"><ele>197.0</ele><time>2026-03-22T11:56:48.296Z</time></trkpt><trkpt lat="44.4751723" lon="10.6748568"><ele>197.0</ele><time>2026-03-22T11:56:49.287Z</time></trkpt><trkpt lat="44.4753272" lon="10.675102"><ele>197.0</ele><time>2026-03-22T11:56:50.292Z</time></trkpt><trkpt lat="44.4754775" lon="10.6753462"><ele>197.0</ele><time>2026-03-22T11:56:51.276Z</time></trkpt><trkpt lat="44.4756305" lon="10.6755908"><ele>197.0</ele><time>2026-03-22T11:56:52.279Z</time></trkpt><trkpt lat="44.4757826" lon="10.6758379"><ele>197.0</ele><time>2026-03-22T11:56:53.278Z</time></trkpt><trkpt lat="44.4759381" lon="10.6760812"><ele>196.5</ele><time>2026-03-22T11:56:54.274Z</time></trkpt><trkpt lat="44.4760882" lon="10.676329"><ele>196.0</ele><time>2026-03-22T11:56:55.278Z</time></trkpt><trkpt lat="44.4762416" lon="10.676575"><ele>195.5</ele><time>2026-03-22T11:56:56.295Z</time></trkpt><trkpt lat="44.4763947" lon="10.6768177"><ele>195.0</ele><time>2026-03-22T11:56:57.272Z</time></trkpt><trkpt lat="44.4765506" lon="10.6770713"><ele>195.0</ele><time>2026-03-22T11:56:58.294Z</time></trkpt><trkpt lat="44.4767056" lon="10.677321"><ele>195.0</ele><time>2026-03-22T11:56:59.284Z</time></trkpt><trkpt lat="44.4768623" lon="10.6775736"><ele>195.0</ele><time>2026-03-22T11:57:00.284Z</time></trkpt><trkpt lat="44.477016" lon="10.6778225"><ele>195.0</ele><time>2026-03-22T11:57:01.276Z</time></trkpt><trkpt lat="44.4771666" lon="10.6780665"><ele>194.33333333333331</ele><time>2026-03-22T11:57:02.29Z</time></trkpt><trkpt lat="44.47731" lon="10.678294"><ele>193.66666666666666</ele><time>2026-03-22T11:57:03.282Z</time></trkpt><trkpt lat="44.4774466" lon="10.6785122"><ele>193.0</ele><time>2026-03-22T11:57:04.286Z</time></trkpt><trkpt lat="44.4775742" lon="10.6787217"><ele>192.66666666666666</ele><time>2026-03-22T11:57:05.283Z</time></trkpt><trkpt lat="44.4776993" lon="10.6789276"><ele>192.33333333333331</ele><time>2026-03-22T11:57:06.292Z</time></trkpt><trkpt lat="44.4778204" lon="10.6791271"><ele>192.0</ele><time>2026-03-22T11:57:07.271Z</time></trkpt><trkpt lat="44.4779411" lon="10.6793271"><ele>191.33333333333334</ele><time>2026-03-22T11:57:08.279Z</time></trkpt><trkpt lat="44.4780605" lon="10.6795244"><ele>190.66666666666669</ele><time>2026-03-22T11:57:09.294Z</time></trkpt><trkpt lat="44.4781795" lon="10.6797197"><ele>190.0</ele><time>2026-03-22T11:57:10.291Z</time></trkpt><trkpt lat="44.4783015" lon="10.679914"><ele>190.0</ele><time>2026-03-22T11:57:11.275Z</time></trkpt><trkpt lat="44.4784284" lon="10.6801133"><ele>190.0</ele><time>2026-03-22T11:57:12.292Z</time></trkpt><trkpt lat="44.4785502" lon="10.6803058"><ele>190.0</ele><time>2026-03-22T11:57:13.282Z</time></trkpt><trkpt lat="44.4786659" lon="10.6804871"><ele>189.66666666666669</ele><time>2026-03-22T11:57:14.274Z</time></trkpt><trkpt lat="44.478775" lon="10.680664"><ele>189.33333333333334</ele><time>2026-03-22T11:57:15.281Z</time></trkpt><trkpt lat="44.4788781" lon="10.6808321"><ele>189.0</ele><time>2026-03-22T11:57:16.288Z</time></trkpt><trkpt lat="44.4789769" lon="10.6809948"><ele>188.66666666666666</ele><time>2026-03-22T11:57:17.289Z</time></trkpt><trkpt lat="44.479076" lon="10.6811576"><ele>188.33333333333331</ele><time>2026-03-22T11:57:18.279Z</time></trkpt><trkpt lat="44.4791815" lon="10.6813245"><ele>188.0</ele><time>2026-03-22T11:57:19.279Z</time></trkpt><trkpt lat="44.4792889" lon="10.6814984"><ele>188.0</ele><time>2026-03-22T11:57:20.291Z</time></trkpt><trkpt lat="44.4793959" lon="10.681672"><ele>188.0</ele><time>2026-03-22T11:57:21.288Z</time></trkpt><trkpt lat="44.4794998" lon="10.6818414"><ele>188.0</ele><time>2026-03-22T11:57:22.291Z</time></trkpt><trkpt lat="44.4795979" lon="10.6820016"><ele>188.0</ele><time>2026-03-22T11:57:23.271Z</time></trkpt><trkpt lat="44.4796919" lon="10.6821522"><ele>188.0</ele><time>2026-03-22T11:57:24.278Z</time></trkpt><trkpt lat="44.4797814" lon="10.6822975"><ele>188.0</ele><time>2026-03-22T11:57:25.282Z</time></trkpt><trkpt lat="44.4798675" lon="10.6824348"><ele>188.0</ele><time>2026-03-22T11:57:26.291Z</time></trkpt><trkpt lat="44.4799536" lon="10.6825694"><ele>188.0</ele><time>2026-03-22T11:57:27.294Z</time></trkpt><trkpt lat="44.480037" lon="10.6826994"><ele>188.0</ele><time>2026-03-22T11:57:28.288Z</time></trkpt><trkpt lat="44.4801166" lon="10.6828263"><ele>188.0</ele><time>2026-03-22T11:57:29.276Z</time></trkpt><trkpt lat="44.480192" lon="10.682949"><ele>188.0</ele><time>2026-03-22T11:57:30.279Z</time></trkpt><trkpt lat="44.4802571" lon="10.6830716"><ele>188.0</ele><time>2026-03-22T11:57:31.293Z</time></trkpt><trkpt lat="44.4803121" lon="10.6831933"><ele>188.0</ele><time>2026-03-22T11:57:32.289Z</time></trkpt><trkpt lat="44.4803411" lon="10.6833191"><ele>188.0</ele><time>2026-03-22T11:57:33.294Z</time></trkpt><trkpt lat="44.4803709" lon="10.6834346"><ele>188.0</ele><time>2026-03-22T11:57:34.285Z</time></trkpt><trkpt lat="44.4804265" lon="10.6835223"><ele>188.0</ele><time>2026-03-22T11:57:35.277Z</time></trkpt><trkpt lat="44.4805079" lon="10.6835856"><ele>187.75</ele><time>2026-03-22T11:57:36.274Z</time></trkpt><trkpt lat="44.480596" lon="10.683656"><ele>187.5</ele><time>2026-03-22T11:57:37.285Z</time></trkpt><trkpt lat="44.4806852" lon="10.6837512"><ele>187.25</ele><time>2026-03-22T11:57:38.284Z</time></trkpt><trkpt lat="44.4807736" lon="10.6838773"><ele>187.0</ele><time>2026-03-22T11:57:39.277Z</time></trkpt><trkpt lat="44.4808648" lon="10.6840219"><ele>187.0</ele><time>2026-03-22T11:57:40.293Z</time></trkpt><trkpt lat="44.4809561" lon="10.6841729"><ele>187.0</ele><time>2026-03-22T11:57:41.289Z</time></trkpt><trkpt lat="44.4810491" lon="10.6843279"><ele>187.0</ele><time>2026-03-22T11:57:42.277Z</time></trkpt><trkpt lat="44.4811488" lon="10.6844931"><ele>187.0</ele><time>2026-03-22T11:57:43.283Z</time></trkpt><trkpt lat="44.4812643" lon="10.6846709"><ele>186.66666666666669</ele><time>2026-03-22T11:57:44.284Z</time></trkpt><trkpt lat="44.4813977" lon="10.6848673"><ele>186.33333333333334</ele><time>2026-03-22T11:57:45.288Z</time></trkpt><trkpt lat="44.4815379" lon="10.685081"><ele>186.0</ele><time>2026-03-22T11:57:46.283Z</time></trkpt><trkpt lat="44.4816763" lon="10.685315"><ele>186.0</ele><time>2026-03-22T11:57:47.288Z</time></trkpt><trkpt lat="44.481808" lon="10.6855417"><ele>186.0</ele><time>2026-03-22T11:57:48.294Z</time></trkpt><trkpt lat="44.4819246" lon="10.6857475"><ele>186.0</ele><time>2026-03-22T11:57:49.277Z</time></trkpt><trkpt lat="44.4820449" lon="10.6859402"><ele>186.33333333333334</ele><time>2026-03-22T11:57:50.286Z</time></trkpt><trkpt lat="44.4821651" lon="10.6861351"><ele>186.66666666666669</ele><time>2026-03-22T11:57:51.281Z</time></trkpt><trkpt lat="44.4822981" lon="10.6863419"><ele>187.0</ele><time>2026-03-22T11:57:52.282Z</time></trkpt><trkpt lat="44.4824388" lon="10.6865605"><ele>187.0</ele><time>2026-03-22T11:57:53.283Z</time></trkpt><trkpt lat="44.4825849" lon="10.6867851"><ele>187.0</ele><time>2026-03-22T11:57:54.279Z</time></trkpt><trkpt lat="44.4827372" lon="10.687033"><ele>187.0</ele><time>2026-03-22T11:57:55.292Z</time></trkpt><trkpt lat="44.4829108" lon="10.6872913"><ele>187.0</ele><time>2026-03-22T11:57:56.271Z</time></trkpt><trkpt lat="44.4831044" lon="10.6875613"><ele>186.0</ele><time>2026-03-22T11:57:57.269Z</time></trkpt><trkpt lat="44.4833057" lon="10.6878476"><ele>185.0</ele><time>2026-03-22T11:57:58.284Z</time></trkpt><trkpt lat="44.4835094" lon="10.6881321"><ele>185.0</ele><time>2026-03-22T11:57:59.29Z</time></trkpt><trkpt lat="44.4837184" lon="10.6884191"><ele>185.0</ele><time>2026-03-22T11:58:00.277Z</time></trkpt><trkpt lat="44.4839292" lon="10.688701"><ele>184.0</ele><time>2026-03-22T11:58:01.278Z</time></trkpt><trkpt lat="44.4841402" lon="10.6889782"><ele>183.0</ele><time>2026-03-22T11:58:02.29Z</time></trkpt><trkpt lat="44.4843468" lon="10.6892513"><ele>182.5</ele><time>2026-03-22T11:58:03.295Z</time></trkpt><trkpt lat="44.4845473" lon="10.6895227"><ele>182.0</ele><time>2026-03-22T11:58:04.272Z</time></trkpt><trkpt lat="44.484746" lon="10.6897853"><ele>182.0</ele><time>2026-03-22T11:58:05.292Z</time></trkpt><trkpt lat="44.4849423" lon="10.6900411"><ele>182.0</ele><time>2026-03-22T11:58:06.285Z</time></trkpt><trkpt lat="44.4851328" lon="10.6902938"><ele>182.5</ele><time>2026-03-22T11:58:07.286Z</time></trkpt><trkpt lat="44.4853209" lon="10.6905388"><ele>183.0</ele><time>2026-03-22T11:58:08.276Z</time></trkpt><trkpt lat="44.4855043" lon="10.6907719"><ele>182.5</ele><time>2026-03-22T11:58:09.277Z</time></trkpt><trkpt lat="44.4856802" lon="10.6910023"><ele>182.0</ele><time>2026-03-22T11:58:10.273Z</time></trkpt><trkpt lat="44.4858505" lon="10.6912213"><ele>182.0</ele><time>2026-03-22T11:58:11.284Z</time></trkpt><trkpt lat="44.4860124" lon="10.6914384"><ele>182.0</ele><time>2026-03-22T11:58:12.283Z</time></trkpt><trkpt lat="44.4861678" lon="10.6916569"><ele>182.0</ele><time>2026-03-22T11:58:13.289Z</time></trkpt><trkpt lat="44.486318" lon="10.6918771"><ele>182.66666666666666</ele><time>2026-03-22T11:58:14.27Z</time></trkpt><trkpt lat="44.4864609" lon="10.6920938"><ele>183.33333333333334</ele><time>2026-03-22T11:58:15.283Z</time></trkpt><trkpt lat="44.4866022" lon="10.6923118"><ele>184.0</ele><time>2026-03-22T11:58:16.279Z</time></trkpt><trkpt lat="44.4867401" lon="10.6925306"><ele>184.0</ele><time>2026-03-22T11:58:17.295Z</time></trkpt><trkpt lat="44.4868754" lon="10.6927518"><ele>184.0</ele><time>2026-03-22T11:58:18.271Z</time></trkpt><trkpt lat="44.4870092" lon="10.6929715"><ele>184.0</ele><time>2026-03-22T11:58:19.279Z</time></trkpt><trkpt lat="44.4871421" lon="10.6931866"><ele>185.0</ele><time>2026-03-22T11:58:20.287Z</time></trkpt><trkpt lat="44.4872697" lon="10.6934023"><ele>186.0</ele><time>2026-03-22T11:58:21.282Z</time></trkpt><trkpt lat="44.4873991" lon="10.6936064"><ele>187.0</ele><time>2026-03-22T11:58:22.286Z</time></trkpt><trkpt lat="44.4875246" lon="10.6938096"><ele>187.33333333333334</ele><time>2026-03-22T11:58:23.287Z</time></trkpt><trkpt lat="44.4876459" lon="10.6940053"><ele>187.66666666666666</ele><time>2026-03-22T11:58:24.285Z</time></trkpt><trkpt lat="44.487768" lon="10.6941989"><ele>188.0</ele><time>2026-03-22T11:58:25.279Z</time></trkpt><trkpt lat="44.48789" lon="10.6943878"><ele>188.66666666666666</ele><time>2026-03-22T11:58:26.289Z</time></trkpt><trkpt lat="44.4880117" lon="10.6945615"><ele>189.33333333333334</ele><time>2026-03-22T11:58:27.272Z</time></trkpt><trkpt lat="44.4881353" lon="10.6947257"><ele>190.0</ele><time>2026-03-22T11:58:28.289Z</time></trkpt><trkpt lat="44.4882608" lon="10.6948853"><ele>190.0</ele><time>2026-03-22T11:58:29.28Z</time></trkpt><trkpt lat="44.4883821" lon="10.6950592"><ele>190.0</ele><time>2026-03-22T11:58:30.276Z</time></trkpt><trkpt lat="44.4884895" lon="10.6952577"><ele>190.0</ele><time>2026-03-22T11:58:31.287Z</time></trkpt><trkpt lat="44.4885883" lon="10.6954732"><ele>190.0</ele><time>2026-03-22T11:58:32.283Z</time></trkpt><trkpt lat="44.4886963" lon="10.6956944"><ele>190.0</ele><time>2026-03-22T11:58:33.289Z</time></trkpt><trkpt lat="44.4888115" lon="10.6959089"><ele>190.0</ele><time>2026-03-22T11:58:34.288Z</time></trkpt><trkpt lat="44.488934" lon="10.696115"><ele>190.33333333333334</ele><time>2026-03-22T11:58:35.277Z</time></trkpt><trkpt lat="44.48906" lon="10.6963231"><ele>190.66666666666666</ele><time>2026-03-22T11:58:36.292Z</time></trkpt><trkpt lat="44.4891864" lon="10.6965288"><ele>191.0</ele><time>2026-03-22T11:58:37.29Z</time></trkpt><trkpt lat="44.4893137" lon="10.6967401"><ele>190.66666666666666</ele><time>2026-03-22T11:58:38.296Z</time></trkpt><trkpt lat="44.4894421" lon="10.6969503"><ele>190.33333333333334</ele><time>2026-03-22T11:58:39.282Z</time></trkpt><trkpt lat="44.4895715" lon="10.6971624"><ele>190.0</ele><time>2026-03-22T11:58:40.29Z</time></trkpt><trkpt lat="44.4896958" lon="10.6973726"><ele>189.66666666666669</ele><time>2026-03-22T11:58:41.283Z</time></trkpt><trkpt lat="44.4898194" lon="10.6975752"><ele>189.33333333333334</ele><time>2026-03-22T11:58:42.267Z</time></trkpt><trkpt lat="44.4899427" lon="10.6977745"><ele>189.0</ele><time>2026-03-22T11:58:43.29Z</time></trkpt><trkpt lat="44.49006" lon="10.6979647"><ele>189.0</ele><time>2026-03-22T11:58:44.282Z</time></trkpt><trkpt lat="44.4901719" lon="10.69815"><ele>189.0</ele><time>2026-03-22T11:58:45.27Z</time></trkpt><trkpt lat="44.4902777" lon="10.6983307"><ele>189.0</ele><time>2026-03-22T11:58:46.283Z</time></trkpt><trkpt lat="44.4903785" lon="10.6985018"><ele>188.75</ele><time>2026-03-22T11:58:47.291Z</time></trkpt><trkpt lat="44.4904721" lon="10.6986603"><ele>188.5</ele><time>2026-03-22T11:58:48.293Z</time></trkpt><trkpt lat="44.4905578" lon="10.698806"><ele>188.25</ele><time>2026-03-22T11:58:49.277Z</time></trkpt><trkpt lat="44.4906399" lon="10.6989439"><ele>188.0</ele><time>2026-03-22T11:58:50.277Z</time></trkpt><trkpt lat="44.490713" lon="10.6990712"><ele>188.0</ele><time>2026-03-22T11:58:51.28Z</time></trkpt><trkpt lat="44.4907799" lon="10.6992135"><ele>188.0</ele><time>2026-03-22T11:58:52.286Z</time></trkpt><trkpt lat="44.4908451" lon="10.6993783"><ele>188.0</ele><time>2026-03-22T11:58:53.287Z</time></trkpt><trkpt lat="44.4909274" lon="10.6995489"><ele>188.0</ele><time>2026-03-22T11:58:54.291Z</time></trkpt><trkpt lat="44.491024" lon="10.6997186"><ele>187.33333333333331</ele><time>2026-03-22T11:58:55.286Z</time></trkpt><trkpt lat="44.4911171" lon="10.6999056"><ele>186.66666666666666</ele><time>2026-03-22T11:58:56.278Z</time></trkpt><trkpt lat="44.4912139" lon="10.7000982"><ele>186.0</ele><time>2026-03-22T11:58:57.277Z</time></trkpt><trkpt lat="44.4913169" lon="10.7002934"><ele>187.33333333333334</ele><time>2026-03-22T11:58:58.281Z</time></trkpt><trkpt lat="44.4914222" lon="10.7004882"><ele>188.66666666666669</ele><time>2026-03-22T11:58:59.275Z</time></trkpt><trkpt lat="44.491526" lon="10.700687"><ele>190.0</ele><time>2026-03-22T11:59:00.276Z</time></trkpt><trkpt lat="44.4916303" lon="10.7008909"><ele>189.66666666666669</ele><time>2026-03-22T11:59:01.29Z</time></trkpt><trkpt lat="44.4917371" lon="10.7010946"><ele>189.33333333333334</ele><time>2026-03-22T11:59:02.279Z</time></trkpt><trkpt lat="44.491841" lon="10.7013086"><ele>189.0</ele><time>2026-03-22T11:59:03.292Z</time></trkpt><trkpt lat="44.4919467" lon="10.7015214"><ele>189.0</ele><time>2026-03-22T11:59:04.271Z</time></trkpt><trkpt lat="44.4920588" lon="10.7017442"><ele>189.0</ele><time>2026-03-22T11:59:05.272Z</time></trkpt><trkpt lat="44.492177" lon="10.7019671"><ele>189.0</ele><time>2026-03-22T11:59:06.284Z</time></trkpt><trkpt lat="44.4922955" lon="10.7021938"><ele>189.0</ele><time>2026-03-22T11:59:07.288Z</time></trkpt><trkpt lat="44.4924114" lon="10.7024212"><ele>189.0</ele><time>2026-03-22T11:59:08.293Z</time></trkpt><trkpt lat="44.4925242" lon="10.7026391"><ele>189.0</ele><time>2026-03-22T11:59:09.274Z</time></trkpt><trkpt lat="44.492634" lon="10.7028544"><ele>189.0</ele><time>2026-03-22T11:59:10.279Z</time></trkpt><trkpt lat="44.492745" lon="10.7030595"><ele>189.0</ele><time>2026-03-22T11:59:11.292Z</time></trkpt><trkpt lat="44.4928525" lon="10.7032595"><ele>189.0</ele><time>2026-03-22T11:59:12.277Z</time></trkpt><trkpt lat="44.4929611" lon="10.7034665"><ele>190.33333333333331</ele><time>2026-03-22T11:59:13.278Z</time></trkpt><trkpt lat="44.493065" lon="10.7036755"><ele>191.66666666666666</ele><time>2026-03-22T11:59:14.27Z</time></trkpt><trkpt lat="44.4931643" lon="10.7038887"><ele>193.0</ele><time>2026-03-22T11:59:15.287Z</time></trkpt><trkpt lat="44.4932465" lon="10.7041121"><ele>193.0</ele><time>2026-03-22T11:59:16.275Z</time></trkpt><trkpt lat="44.4933003" lon="10.7043583"><ele>193.0</ele><time>2026-03-22T11:59:17.278Z</time></trkpt><trkpt lat="44.4933379" lon="10.7046141"><ele>193.0</ele><time>2026-03-22T11:59:18.275Z</time></trkpt><trkpt lat="44.4933454" lon="10.7048882"><ele>193.66666666666666</ele><time>2026-03-22T11:59:19.269Z</time></trkpt><trkpt lat="44.4933329" lon="10.7051577"><ele>194.33333333333331</ele><time>2026-03-22T11:59:20.278Z</time></trkpt><trkpt lat="44.4933114" lon="10.7054182"><ele>195.0</ele><time>2026-03-22T11:59:21.283Z</time></trkpt><trkpt lat="44.4932812" lon="10.7056691"><ele>196.33333333333331</ele><time>2026-03-22T11:59:22.273Z</time></trkpt><trkpt lat="44.4932388" lon="10.7059203"><ele>197.66666666666666</ele><time>2026-03-22T11:59:23.27Z</time></trkpt><trkpt lat="44.4931771" lon="10.7061778"><ele>199.0</ele><time>2026-03-22T11:59:24.276Z</time></trkpt><trkpt lat="44.4931041" lon="10.7064524"><ele>202.5</ele><time>2026-03-22T11:59:25.288Z</time></trkpt><trkpt lat="44.4930277" lon="10.7067457"><ele>206.0</ele><time>2026-03-22T11:59:26.283Z</time></trkpt><trkpt lat="44.4929373" lon="10.7070426"><ele>202.66666666666669</ele><time>2026-03-22T11:59:27.292Z</time></trkpt><trkpt lat="44.4928488" lon="10.7073175"><ele>199.33333333333331</ele><time>2026-03-22T11:59:28.272Z</time></trkpt><trkpt lat="44.4927633" lon="10.7075749"><ele>196.0</ele><time>2026-03-22T11:59:29.282Z</time></trkpt><trkpt lat="44.4926898" lon="10.7078083"><ele>196.0</ele><time>2026-03-22T11:59:30.281Z</time></trkpt><trkpt lat="44.4926373" lon="10.7080295"><ele>196.0</ele><time>2026-03-22T11:59:31.292Z</time></trkpt><trkpt lat="44.4926129" lon="10.7082358"><ele>196.0</ele><time>2026-03-22T11:59:32.277Z</time></trkpt><trkpt lat="44.4926244" lon="10.7084436"><ele>195.33333333333331</ele><time>2026-03-22T11:59:33.281Z</time></trkpt><trkpt lat="44.4926609" lon="10.7086663"><ele>194.66666666666669</ele><time>2026-03-22T11:59:34.29Z</time></trkpt><trkpt lat="44.4927032" lon="10.7089101"><ele>194.0</ele><time>2026-03-22T11:59:35.282Z</time></trkpt><trkpt lat="44.4927402" lon="10.7091683"><ele>191.0</ele><time>2026-03-22T11:59:36.266Z</time></trkpt><trkpt lat="44.4927763" lon="10.7094309"><ele>188.0</ele><time>2026-03-22T11:59:37.286Z</time></trkpt><trkpt lat="44.4928173" lon="10.709687"><ele>185.0</ele><time>2026-03-22T11:59:38.273Z</time></trkpt><trkpt lat="44.4928624" lon="10.7099514"><ele>185.0</ele><time>2026-03-22T11:59:39.289Z</time></trkpt><trkpt lat="44.4928985" lon="10.7102136"><ele>185.0</ele><time>2026-03-22T11:59:40.273Z</time></trkpt><trkpt lat="44.4929295" lon="10.7104635"><ele>185.0</ele><time>2026-03-22T11:59:41.29Z</time></trkpt><trkpt lat="44.4929602" lon="10.710692"><ele>195.66666666666666</ele><time>2026-03-22T11:59:42.285Z</time></trkpt><trkpt lat="44.4929926" lon="10.7109138"><ele>206.33333333333331</ele><time>2026-03-22T11:59:43.287Z</time></trkpt><trkpt lat="44.4930188" lon="10.7111284"><ele>217.0</ele><time>2026-03-22T11:59:44.282Z</time></trkpt><trkpt lat="44.4930364" lon="10.7113357"><ele>217.25</ele><time>2026-03-22T11:59:45.266Z</time></trkpt><trkpt lat="44.4930579" lon="10.7115314"><ele>217.5</ele><time>2026-03-22T11:59:46.281Z</time></trkpt><trkpt lat="44.4930932" lon="10.711726"><ele>217.75</ele><time>2026-03-22T11:59:47.268Z</time></trkpt><trkpt lat="44.4931433" lon="10.7119344"><ele>218.0</ele><time>2026-03-22T11:59:48.289Z</time></trkpt><trkpt lat="44.4932065" lon="10.7121424"><ele>217.33333333333334</ele><time>2026-03-22T11:59:49.291Z</time></trkpt><trkpt lat="44.4932885" lon="10.7123394"><ele>216.66666666666669</ele><time>2026-03-22T11:59:50.278Z</time></trkpt><trkpt lat="44.4933971" lon="10.7125249"><ele>216.0</ele><time>2026-03-22T11:59:51.271Z</time></trkpt><trkpt lat="44.4935162" lon="10.7126968"><ele>215.0</ele><time>2026-03-22T11:59:52.28Z</time></trkpt><trkpt lat="44.4936619" lon="10.7128365"><ele>214.0</ele><time>2026-03-22T11:59:53.292Z</time></trkpt><trkpt lat="44.493817" lon="10.7129679"><ele>213.0</ele><time>2026-03-22T11:59:54.288Z</time></trkpt><trkpt lat="44.49397" lon="10.713103"><ele>213.0</ele><time>2026-03-22T11:59:55.289Z</time></trkpt><trkpt lat="44.4941213" lon="10.7132447"><ele>213.0</ele><time>2026-03-22T11:59:56.271Z</time></trkpt><trkpt lat="44.4942731" lon="10.7133941"><ele>213.0</ele><time>2026-03-22T11:59:57.293Z</time></trkpt><trkpt lat="44.4944109" lon="10.7135511"><ele>214.66666666666669</ele><time>2026-03-22T11:59:58.285Z</time></trkpt><trkpt lat="44.4945369" lon="10.7137162"><ele>216.33333333333334</ele><time>2026-03-22T11:59:59.272Z</time></trkpt><trkpt lat="44.4946475" lon="10.713894"><ele>218.0</ele><time>2026-03-22T12:00:00.281Z</time></trkpt><trkpt lat="44.4947404" lon="10.7140778"><ele>218.0</ele><time>2026-03-22T12:00:01.278Z</time></trkpt><trkpt lat="44.4948343" lon="10.7142626"><ele>218.0</ele><time>2026-03-22T12:00:02.269Z</time></trkpt><trkpt lat="44.4949336" lon="10.7144442"><ele>218.0</ele><time>2026-03-22T12:00:03.281Z</time></trkpt><trkpt lat="44.4950412" lon="10.7146099"><ele>213.33333333333334</ele><time>2026-03-22T12:00:04.282Z</time></trkpt><trkpt lat="44.4951627" lon="10.7147468"><ele>208.66666666666669</ele><time>2026-03-22T12:00:05.285Z</time></trkpt><trkpt lat="44.4953082" lon="10.7148384"><ele>204.0</ele><time>2026-03-22T12:00:06.285Z</time></trkpt><trkpt lat="44.4954658" lon="10.7148791"><ele>204.0</ele><time>2026-03-22T12:00:07.277Z</time></trkpt><trkpt lat="44.4956204" lon="10.7148919"><ele>204.0</ele><time>2026-03-22T12:00:08.279Z</time></trkpt><trkpt lat="44.4957721" lon="10.714891"><ele>204.0</ele><time>2026-03-22T12:00:09.281Z</time></trkpt><trkpt lat="44.4959272" lon="10.7148895"><ele>204.0</ele><time>2026-03-22T12:00:10.29Z</time></trkpt><trkpt lat="44.4960866" lon="10.714914"><ele>204.0</ele><time>2026-03-22T12:00:11.291Z</time></trkpt><trkpt lat="44.4962467" lon="10.7149657"><ele>204.0</ele><time>2026-03-22T12:00:12.277Z</time></trkpt><trkpt lat="44.496407" lon="10.7150577"><ele>206.0</ele><time>2026-03-22T12:00:13.283Z</time></trkpt><trkpt lat="44.496562" lon="10.7151699"><ele>208.0</ele><time>2026-03-22T12:00:14.291Z</time></trkpt><trkpt lat="44.4967161" lon="10.7152909"><ele>210.0</ele><time>2026-03-22T12:00:15.284Z</time></trkpt><trkpt lat="44.4968705" lon="10.7154014"><ele>208.66666666666669</ele><time>2026-03-22T12:00:16.281Z</time></trkpt><trkpt lat="44.4970257" lon="10.7154981"><ele>207.33333333333334</ele><time>2026-03-22T12:00:17.279Z</time></trkpt><trkpt lat="44.4971862" lon="10.715582"><ele>206.0</ele><time>2026-03-22T12:00:18.278Z</time></trkpt><trkpt lat="44.4973509" lon="10.7156467"><ele>206.0</ele><time>2026-03-22T12:00:19.285Z</time></trkpt><trkpt lat="44.4975184" lon="10.7157011"><ele>206.0</ele><time>2026-03-22T12:00:20.276Z</time></trkpt><trkpt lat="44.4976858" lon="10.7157502"><ele>206.0</ele><time>2026-03-22T12:00:21.279Z</time></trkpt><trkpt lat="44.4978475" lon="10.715797"><ele>205.33333333333334</ele><time>2026-03-22T12:00:22.289Z</time></trkpt><trkpt lat="44.4980017" lon="10.7158538"><ele>204.66666666666669</ele><time>2026-03-22T12:00:23.283Z</time></trkpt><trkpt lat="44.4981581" lon="10.7159512"><ele>204.0</ele><time>2026-03-22T12:00:24.284Z</time></trkpt><trkpt lat="44.4983013" lon="10.7160943"><ele>200.66666666666669</ele><time>2026-03-22T12:00:25.281Z</time></trkpt><trkpt lat="44.4984255" lon="10.7162705"><ele>197.33333333333334</ele><time>2026-03-22T12:00:26.273Z</time></trkpt><trkpt lat="44.498537" lon="10.7164551"><ele>194.0</ele><time>2026-03-22T12:00:27.283Z</time></trkpt><trkpt lat="44.4986445" lon="10.7166383"><ele>194.0</ele><time>2026-03-22T12:00:28.289Z</time></trkpt><trkpt lat="44.4987345" lon="10.7168395"><ele>194.0</ele><time>2026-03-22T12:00:29.278Z</time></trkpt><trkpt lat="44.4988196" lon="10.7170481"><ele>194.0</ele><time>2026-03-22T12:00:30.284Z</time></trkpt><trkpt lat="44.4988916" lon="10.7172611"><ele>195.66666666666669</ele><time>2026-03-22T12:00:31.275Z</time></trkpt><trkpt lat="44.4989678" lon="10.7174742"><ele>197.33333333333331</ele><time>2026-03-22T12:00:32.279Z</time></trkpt><trkpt lat="44.4990527" lon="10.7176769"><ele>199.0</ele><time>2026-03-22T12:00:33.287Z</time></trkpt><trkpt lat="44.4991659" lon="10.7178498"><ele>196.0</ele><time>2026-03-22T12:00:34.268Z</time></trkpt><trkpt lat="44.4993109" lon="10.717993"><ele>193.0</ele><time>2026-03-22T12:00:35.284Z</time></trkpt><trkpt lat="44.4994816" lon="10.7181025"><ele>190.0</ele><time>2026-03-22T12:00:36.299Z</time></trkpt><trkpt lat="44.4996753" lon="10.7181927"><ele>190.0</ele><time>2026-03-22T12:00:37.29Z</time></trkpt><trkpt lat="44.499895" lon="10.7182886"><ele>190.0</ele><time>2026-03-22T12:00:38.279Z</time></trkpt><trkpt lat="44.5001267" lon="10.7184042"><ele>190.0</ele><time>2026-03-22T12:00:39.282Z</time></trkpt><trkpt lat="44.500357" lon="10.718536"><ele>190.0</ele><time>2026-03-22T12:00:40.267Z</time></trkpt><trkpt lat="44.5005902" lon="10.7186742"><ele>184.0</ele><time>2026-03-22T12:00:41.272Z</time></trkpt><trkpt lat="44.5008232" lon="10.7188041"><ele>178.0</ele><time>2026-03-22T12:00:42.285Z</time></trkpt><trkpt lat="44.5010518" lon="10.7189304"><ele>184.0</ele><time>2026-03-22T12:00:43.283Z</time></trkpt><trkpt lat="44.50128" lon="10.7190528"><ele>190.0</ele><time>2026-03-22T12:00:44.291Z</time></trkpt><trkpt lat="44.5015032" lon="10.7191697"><ele>190.0</ele><time>2026-03-22T12:00:45.277Z</time></trkpt><trkpt lat="44.5017262" lon="10.7192813"><ele>190.0</ele><time>2026-03-22T12:00:46.288Z</time></trkpt><trkpt lat="44.501943" lon="10.719392"><ele>186.66666666666669</ele><time>2026-03-22T12:00:47.284Z</time></trkpt><trkpt lat="44.502151" lon="10.7195121"><ele>183.33333333333334</ele><time>2026-03-22T12:00:48.288Z</time></trkpt><trkpt lat="44.5023451" lon="10.7196475"><ele>180.0</ele><time>2026-03-22T12:00:49.286Z</time></trkpt><trkpt lat="44.5025272" lon="10.719797"><ele>180.0</ele><time>2026-03-22T12:00:50.292Z</time></trkpt><trkpt lat="44.5026873" lon="10.7199724"><ele>180.0</ele><time>2026-03-22T12:00:51.272Z</time></trkpt><trkpt lat="44.5028177" lon="10.7201947"><ele>180.0</ele><time>2026-03-22T12:00:52.271Z</time></trkpt><trkpt lat="44.502933" lon="10.7204448"><ele>180.66666666666666</ele><time>2026-03-22T12:00:53.292Z</time></trkpt><trkpt lat="44.5030389" lon="10.7207004"><ele>181.33333333333331</ele><time>2026-03-22T12:00:54.292Z</time></trkpt><trkpt lat="44.5031383" lon="10.7209588"><ele>182.0</ele><time>2026-03-22T12:00:55.289Z</time></trkpt><trkpt lat="44.503229" lon="10.7212191"><ele>180.66666666666666</ele><time>2026-03-22T12:00:56.285Z</time></trkpt><trkpt lat="44.5033241" lon="10.7214687"><ele>179.33333333333334</ele><time>2026-03-22T12:00:57.289Z</time></trkpt><trkpt lat="44.5034169" lon="10.7217061"><ele>178.0</ele><time>2026-03-22T12:00:58.283Z</time></trkpt><trkpt lat="44.503511" lon="10.7219412"><ele>178.33333333333334</ele><time>2026-03-22T12:00:59.286Z</time></trkpt><trkpt lat="44.5036063" lon="10.7221749"><ele>178.66666666666666</ele><time>2026-03-22T12:01:00.279Z</time></trkpt><trkpt lat="44.5037015" lon="10.722412"><ele>179.0</ele><time>2026-03-22T12:01:01.285Z</time></trkpt><trkpt lat="44.5037927" lon="10.7226456"><ele>178.66666666666666</ele><time>2026-03-22T12:01:02.279Z</time></trkpt><trkpt lat="44.5038805" lon="10.7228792"><ele>178.33333333333334</ele><time>2026-03-22T12:01:03.294Z</time></trkpt><trkpt lat="44.5039651" lon="10.7231081"><ele>178.0</ele><time>2026-03-22T12:01:04.288Z</time></trkpt><trkpt lat="44.5040489" lon="10.7233395"><ele>178.0</ele><time>2026-03-22T12:01:05.29Z</time></trkpt><trkpt lat="44.5041318" lon="10.7235572"><ele>178.0</ele><time>2026-03-22T12:01:06.293Z</time></trkpt><trkpt lat="44.5042128" lon="10.7237695"><ele>178.0</ele><time>2026-03-22T12:01:07.284Z</time></trkpt><trkpt lat="44.5042913" lon="10.7239822"><ele>176.0</ele><time>2026-03-22T12:01:08.292Z</time></trkpt><trkpt lat="44.5043634" lon="10.724194"><ele>174.0</ele><time>2026-03-22T12:01:09.288Z</time></trkpt><trkpt lat="44.5044325" lon="10.7243981"><ele>172.0</ele><time>2026-03-22T12:01:10.284Z</time></trkpt><trkpt lat="44.5044983" lon="10.7245864"><ele>171.8</ele><time>2026-03-22T12:01:11.288Z</time></trkpt><trkpt lat="44.5045543" lon="10.7247502"><ele>171.6</ele><time>2026-03-22T12:01:12.278Z</time></trkpt><trkpt lat="44.5046049" lon="10.7248914"><ele>171.4</ele><time>2026-03-22T12:01:13.287Z</time></trkpt><trkpt lat="44.5046473" lon="10.7250066"><ele>171.20000000000002</ele><time>2026-03-22T12:01:14.294Z</time></trkpt><trkpt lat="44.5046858" lon="10.725121"><ele>171.0</ele><time>2026-03-22T12:01:15.282Z</time></trkpt><trkpt lat="44.5047207" lon="10.7252458"><ele>168.75</ele><time>2026-03-22T12:01:16.283Z</time></trkpt><trkpt lat="44.5047595" lon="10.7253973"><ele>166.5</ele><time>2026-03-22T12:01:17.285Z</time></trkpt><trkpt lat="44.5048022" lon="10.7255784"><ele>164.25</ele><time>2026-03-22T12:01:18.29Z</time></trkpt><trkpt lat="44.504838" lon="10.7257878"><ele>162.0</ele><time>2026-03-22T12:01:19.287Z</time></trkpt><trkpt lat="44.5048638" lon="10.7260311"><ele>161.0</ele><time>2026-03-22T12:01:20.29Z</time></trkpt><trkpt lat="44.5048875" lon="10.7263119"><ele>160.0</ele><time>2026-03-22T12:01:21.287Z</time></trkpt><trkpt lat="44.5049156" lon="10.7266013"><ele>159.0</ele><time>2026-03-22T12:01:22.282Z</time></trkpt><trkpt lat="44.5049468" lon="10.7269027"><ele>158.5</ele><time>2026-03-22T12:01:23.278Z</time></trkpt><trkpt lat="44.5049836" lon="10.7272068"><ele>158.0</ele><time>2026-03-22T12:01:24.282Z</time></trkpt><trkpt lat="44.5050499" lon="10.7275266"><ele>156.5</ele><time>2026-03-22T12:01:25.286Z</time></trkpt><trkpt lat="44.505134" lon="10.7278644"><ele>155.0</ele><time>2026-03-22T12:01:26.286Z</time></trkpt><trkpt lat="44.5052371" lon="10.7282192"><ele>155.0</ele><time>2026-03-22T12:01:27.282Z</time></trkpt><trkpt lat="44.5053505" lon="10.7285873"><ele>155.0</ele><time>2026-03-22T12:01:28.29Z</time></trkpt><trkpt lat="44.5054663" lon="10.7289577"><ele>155.0</ele><time>2026-03-22T12:01:29.289Z</time></trkpt><trkpt lat="44.5055835" lon="10.7293271"><ele>155.0</ele><time>2026-03-22T12:01:30.282Z</time></trkpt><trkpt lat="44.5056995" lon="10.7296953"><ele>154.5</ele><time>2026-03-22T12:01:31.288Z</time></trkpt><trkpt lat="44.5058122" lon="10.7300547"><ele>154.0</ele><time>2026-03-22T12:01:32.287Z</time></trkpt><trkpt lat="44.5059214" lon="10.7304038"><ele>153.0</ele><time>2026-03-22T12:01:33.276Z</time></trkpt><trkpt lat="44.5060327" lon="10.7307451"><ele>152.0</ele><time>2026-03-22T12:01:34.276Z</time></trkpt><trkpt lat="44.5061494" lon="10.7311019"><ele>153.0</ele><time>2026-03-22T12:01:35.288Z</time></trkpt><trkpt lat="44.5062752" lon="10.7314738"><ele>154.0</ele><time>2026-03-22T12:01:36.288Z</time></trkpt><trkpt lat="44.5064015" lon="10.7318638"><ele>153.5</ele><time>2026-03-22T12:01:37.274Z</time></trkpt><trkpt lat="44.5065271" lon="10.7322632"><ele>153.0</ele><time>2026-03-22T12:01:38.273Z</time></trkpt><trkpt lat="44.5066499" lon="10.732669"><ele>150.5</ele><time>2026-03-22T12:01:39.286Z</time></trkpt><trkpt lat="44.5067804" lon="10.7330713"><ele>148.0</ele><time>2026-03-22T12:01:40.274Z</time></trkpt><trkpt lat="44.5069333" lon="10.733473"><ele>149.0</ele><time>2026-03-22T12:01:41.289Z</time></trkpt><trkpt lat="44.5071037" lon="10.733865"><ele>150.0</ele><time>2026-03-22T12:01:42.272Z</time></trkpt><trkpt lat="44.5072953" lon="10.73426"><ele>148.5</ele><time>2026-03-22T12:01:43.29Z</time></trkpt><trkpt lat="44.5074998" lon="10.734644"><ele>147.0</ele><time>2026-03-22T12:01:44.278Z</time></trkpt><trkpt lat="44.5077177" lon="10.7350219"><ele>147.5</ele><time>2026-03-22T12:01:45.277Z</time></trkpt><trkpt lat="44.5079444" lon="10.735384"><ele>148.0</ele><time>2026-03-22T12:01:46.282Z</time></trkpt><trkpt lat="44.5081824" lon="10.7357321"><ele>146.0</ele><time>2026-03-22T12:01:47.271Z</time></trkpt><trkpt lat="44.5084291" lon="10.7360824"><ele>144.0</ele><time>2026-03-22T12:01:48.285Z</time></trkpt><trkpt lat="44.5086809" lon="10.73642"><ele>144.0</ele><time>2026-03-22T12:01:49.285Z</time></trkpt><trkpt lat="44.5089411" lon="10.7367424"><ele>144.0</ele><time>2026-03-22T12:01:50.272Z</time></trkpt><trkpt lat="44.5092154" lon="10.7370535"><ele>144.0</ele><time>2026-03-22T12:01:51.285Z</time></trkpt><trkpt lat="44.5094976" lon="10.7373488"><ele>144.0</ele><time>2026-03-22T12:01:52.29Z</time></trkpt><trkpt lat="44.5097883" lon="10.7376306"><ele>145.0</ele><time>2026-03-22T12:01:53.288Z</time></trkpt><trkpt lat="44.5100854" lon="10.7379057"><ele>146.0</ele><time>2026-03-22T12:01:54.294Z</time></trkpt><trkpt lat="44.5103826" lon="10.7381752"><ele>146.5</ele><time>2026-03-22T12:01:55.284Z</time></trkpt><trkpt lat="44.5106834" lon="10.7384434"><ele>147.0</ele><time>2026-03-22T12:01:56.287Z</time></trkpt><trkpt lat="44.5109812" lon="10.73871"><ele>147.5</ele><time>2026-03-22T12:01:57.282Z</time></trkpt><trkpt lat="44.5112789" lon="10.7389777"><ele>148.0</ele><time>2026-03-22T12:01:58.288Z</time></trkpt><trkpt lat="44.5115741" lon="10.7392425"><ele>147.0</ele><time>2026-03-22T12:01:59.29Z</time></trkpt><trkpt lat="44.511865" lon="10.7395049"><ele>146.0</ele><time>2026-03-22T12:02:00.282Z</time></trkpt><trkpt lat="44.5121516" lon="10.7397686"><ele>146.0</ele><time>2026-03-22T12:02:01.28Z</time></trkpt><trkpt lat="44.5124342" lon="10.740025"><ele>146.0</ele><time>2026-03-22T12:02:02.277Z</time></trkpt><trkpt lat="44.5127146" lon="10.7402748"><ele>144.5</ele><time>2026-03-22T12:02:03.272Z</time></trkpt><trkpt lat="44.512994" lon="10.7405234"><ele>143.0</ele><time>2026-03-22T12:02:04.276Z</time></trkpt><trkpt lat="44.5132689" lon="10.7407699"><ele>143.0</ele><time>2026-03-22T12:02:05.28Z</time></trkpt><trkpt lat="44.513539" lon="10.7410156"><ele>143.0</ele><time>2026-03-22T12:02:06.277Z</time></trkpt><trkpt lat="44.513807" lon="10.7412601"><ele>143.0</ele><time>2026-03-22T12:02:07.281Z</time></trkpt><trkpt lat="44.5140714" lon="10.7415011"><ele>143.0</ele><time>2026-03-22T12:02:08.277Z</time></trkpt><trkpt lat="44.514334" lon="10.7417395"><ele>143.0</ele><time>2026-03-22T12:02:09.289Z</time></trkpt><trkpt lat="44.5145936" lon="10.7419713"><ele>143.0</ele><time>2026-03-22T12:02:10.287Z</time></trkpt><trkpt lat="44.514858" lon="10.7421981"><ele>143.0</ele><time>2026-03-22T12:02:11.292Z</time></trkpt><trkpt lat="44.5151302" lon="10.7424176"><ele>143.0</ele><time>2026-03-22T12:02:12.28Z</time></trkpt><trkpt lat="44.5154144" lon="10.7426318"><ele>141.0</ele><time>2026-03-22T12:02:13.286Z</time></trkpt><trkpt lat="44.5157031" lon="10.7428333"><ele>139.0</ele><time>2026-03-22T12:02:14.281Z</time></trkpt><trkpt lat="44.5159968" lon="10.743028"><ele>140.5</ele><time>2026-03-22T12:02:15.29Z</time></trkpt><trkpt lat="44.5162906" lon="10.7432139"><ele>142.0</ele><time>2026-03-22T12:02:16.287Z</time></trkpt><trkpt lat="44.5165809" lon="10.7433909"><ele>141.0</ele><time>2026-03-22T12:02:17.279Z</time></trkpt><trkpt lat="44.5168615" lon="10.7435605"><ele>140.0</ele><time>2026-03-22T12:02:18.289Z</time></trkpt><trkpt lat="44.5171258" lon="10.7437168"><ele>140.0</ele><time>2026-03-22T12:02:19.279Z</time></trkpt><trkpt lat="44.5173819" lon="10.7438654"><ele>140.0</ele><time>2026-03-22T12:02:20.293Z</time></trkpt><trkpt lat="44.5176285" lon="10.74401"><ele>140.0</ele><time>2026-03-22T12:02:21.271Z</time></trkpt><trkpt lat="44.517868" lon="10.7441605"><ele>140.0</ele><time>2026-03-22T12:02:22.279Z</time></trkpt><trkpt lat="44.5181033" lon="10.7443133"><ele>137.5</ele><time>2026-03-22T12:02:23.297Z</time></trkpt><trkpt lat="44.5183191" lon="10.7444799"><ele>135.0</ele><time>2026-03-22T12:02:24.287Z</time></trkpt><trkpt lat="44.5185162" lon="10.7446506"><ele>135.0</ele><time>2026-03-22T12:02:25.275Z</time></trkpt><trkpt lat="44.5187033" lon="10.7448151"><ele>135.0</ele><time>2026-03-22T12:02:26.287Z</time></trkpt><trkpt lat="44.5188727" lon="10.7449609"><ele>135.0</ele><time>2026-03-22T12:02:27.294Z</time></trkpt><trkpt lat="44.5190226" lon="10.7450854"><ele>135.5</ele><time>2026-03-22T12:02:28.296Z</time></trkpt><trkpt lat="44.5191362" lon="10.7451913"><ele>136.0</ele><time>2026-03-22T12:02:29.278Z</time></trkpt><trkpt lat="44.5192317" lon="10.7452708"><ele>136.5</ele><time>2026-03-22T12:02:30.291Z</time></trkpt><trkpt lat="44.5193091" lon="10.7453105"><ele>137.0</ele><time>2026-03-22T12:02:31.293Z</time></trkpt><trkpt lat="44.5194257" lon="10.745268"><ele>137.0</ele><time>2026-03-22T12:02:33.289Z</time></trkpt><trkpt lat="44.5194776" lon="10.7451795"><ele>137.0</ele><time>2026-03-22T12:02:34.277Z</time></trkpt><trkpt lat="44.5195229" lon="10.7450441"><ele>137.0</ele><time>2026-03-22T12:02:35.283Z</time></trkpt><trkpt lat="44.5195647" lon="10.7448702"><ele>137.0</ele><time>2026-03-22T12:02:36.29Z</time></trkpt><trkpt lat="44.5196128" lon="10.7446724"><ele>137.33333333333331</ele><time>2026-03-22T12:02:37.289Z</time></trkpt><trkpt lat="44.519666" lon="10.7444625"><ele>137.66666666666666</ele><time>2026-03-22T12:02:38.277Z</time></trkpt><trkpt lat="44.5197281" lon="10.7442251"><ele>138.0</ele><time>2026-03-22T12:02:39.271Z</time></trkpt><trkpt lat="44.5197974" lon="10.7439551"><ele>138.0</ele><time>2026-03-22T12:02:40.29Z</time></trkpt><trkpt lat="44.5198689" lon="10.7436805"><ele>138.0</ele><time>2026-03-22T12:02:41.278Z</time></trkpt><trkpt lat="44.5199453" lon="10.7433952"><ele>138.0</ele><time>2026-03-22T12:02:42.279Z</time></trkpt><trkpt lat="44.5200248" lon="10.7431028"><ele>139.33333333333334</ele><time>2026-03-22T12:02:43.273Z</time></trkpt><trkpt lat="44.5201067" lon="10.7428125"><ele>140.66666666666669</ele><time>2026-03-22T12:02:44.279Z</time></trkpt><trkpt lat="44.5201864" lon="10.7425257"><ele>142.0</ele><time>2026-03-22T12:02:45.286Z</time></trkpt><trkpt lat="44.5202633" lon="10.742244"><ele>142.0</ele><time>2026-03-22T12:02:46.279Z</time></trkpt><trkpt lat="44.5203406" lon="10.7419659"><ele>142.0</ele><time>2026-03-22T12:02:47.283Z</time></trkpt><trkpt lat="44.5204154" lon="10.7416928"><ele>142.0</ele><time>2026-03-22T12:02:48.291Z</time></trkpt><trkpt lat="44.5204842" lon="10.7414313"><ele>142.0</ele><time>2026-03-22T12:02:49.282Z</time></trkpt><trkpt lat="44.520541" lon="10.741181"><ele>142.0</ele><time>2026-03-22T12:02:50.274Z</time></trkpt><trkpt lat="44.5205824" lon="10.7409382"><ele>142.0</ele><time>2026-03-22T12:02:51.281Z</time></trkpt><trkpt lat="44.5206122" lon="10.7407047"><ele>143.0</ele><time>2026-03-22T12:02:52.28Z</time></trkpt><trkpt lat="44.5206302" lon="10.7404695"><ele>144.0</ele><time>2026-03-22T12:02:53.289Z</time></trkpt><trkpt lat="44.5206386" lon="10.7402385"><ele>145.0</ele><time>2026-03-22T12:02:54.292Z</time></trkpt><trkpt lat="44.5206359" lon="10.7400112"><ele>145.66666666666669</ele><time>2026-03-22T12:02:55.283Z</time></trkpt><trkpt lat="44.5206274" lon="10.7397802"><ele>146.33333333333334</ele><time>2026-03-22T12:02:56.294Z</time></trkpt><trkpt lat="44.5206177" lon="10.7395511"><ele>147.0</ele><time>2026-03-22T12:02:57.283Z</time></trkpt><trkpt lat="44.5206083" lon="10.7393217"><ele>147.5</ele><time>2026-03-22T12:02:58.283Z</time></trkpt><trkpt lat="44.5206001" lon="10.7391039"><ele>148.0</ele><time>2026-03-22T12:02:59.278Z</time></trkpt><trkpt lat="44.5205938" lon="10.7389007"><ele>148.5</ele><time>2026-03-22T12:03:00.292Z</time></trkpt><trkpt lat="44.5205948" lon="10.7387189"><ele>149.0</ele><time>2026-03-22T12:03:01.285Z</time></trkpt><trkpt lat="44.5206025" lon="10.7385426"><ele>149.2</ele><time>2026-03-22T12:03:02.273Z</time></trkpt><trkpt lat="44.5206209" lon="10.738372"><ele>149.4</ele><time>2026-03-22T12:03:03.276Z</time></trkpt><trkpt lat="44.5206444" lon="10.7382123"><ele>149.6</ele><time>2026-03-22T12:03:04.283Z</time></trkpt><trkpt lat="44.520677" lon="10.7380668"><ele>149.8</ele><time>2026-03-22T12:03:05.29Z</time></trkpt><trkpt lat="44.5207112" lon="10.7379365"><ele>150.0</ele><time>2026-03-22T12:03:06.281Z</time></trkpt><trkpt lat="44.5207562" lon="10.7378207"><ele>149.8</ele><time>2026-03-22T12:03:07.288Z</time></trkpt><trkpt lat="44.5208145" lon="10.7377012"><ele>149.6</ele><time>2026-03-22T12:03:08.286Z</time></trkpt><trkpt lat="44.5208529" lon="10.7375715"><ele>149.4</ele><time>2026-03-22T12:03:09.28Z</time></trkpt><trkpt lat="44.520858" lon="10.7374222"><ele>149.2</ele><time>2026-03-22T12:03:10.287Z</time></trkpt><trkpt lat="44.5208343" lon="10.7372501"><ele>149.0</ele><time>2026-03-22T12:03:11.294Z</time></trkpt><trkpt lat="44.5208044" lon="10.7370542"><ele>150.0</ele><time>2026-03-22T12:03:12.282Z</time></trkpt><trkpt lat="44.5207848" lon="10.7368314"><ele>151.0</ele><time>2026-03-22T12:03:13.292Z</time></trkpt><trkpt lat="44.5207689" lon="10.7365943"><ele>152.0</ele><time>2026-03-22T12:03:14.267Z</time></trkpt><trkpt lat="44.5207416" lon="10.7363342"><ele>152.0</ele><time>2026-03-22T12:03:15.279Z</time></trkpt><trkpt lat="44.5206966" lon="10.736072"><ele>152.0</ele><time>2026-03-22T12:03:16.282Z</time></trkpt><trkpt lat="44.5206322" lon="10.7358076"><ele>152.0</ele><time>2026-03-22T12:03:17.283Z</time></trkpt><trkpt lat="44.5205674" lon="10.7355603"><ele>153.0</ele><time>2026-03-22T12:03:18.293Z</time></trkpt><trkpt lat="44.5205126" lon="10.7353407"><ele>154.0</ele><time>2026-03-22T12:03:19.277Z</time></trkpt><trkpt lat="44.5204631" lon="10.7351429"><ele>155.0</ele><time>2026-03-22T12:03:20.283Z</time></trkpt><trkpt lat="44.5204166" lon="10.7349705"><ele>156.0</ele><time>2026-03-22T12:03:21.285Z</time></trkpt><trkpt lat="44.5203704" lon="10.7348254"><ele>157.0</ele><time>2026-03-22T12:03:22.291Z</time></trkpt><trkpt lat="44.5203196" lon="10.7346769"><ele>158.0</ele><time>2026-03-22T12:03:23.277Z</time></trkpt><trkpt lat="44.520263" lon="10.7345097"><ele>159.0</ele><time>2026-03-22T12:03:24.284Z</time></trkpt><trkpt lat="44.5202046" lon="10.7343209"><ele>160.0</ele><time>2026-03-22T12:03:25.278Z</time></trkpt><trkpt lat="44.5201421" lon="10.7341091"><ele>163.0</ele><time>2026-03-22T12:03:26.284Z</time></trkpt><trkpt lat="44.5200803" lon="10.7338797"><ele>166.0</ele><time>2026-03-22T12:03:27.288Z</time></trkpt><trkpt lat="44.5200254" lon="10.7336559"><ele>169.0</ele><time>2026-03-22T12:03:28.28Z</time></trkpt><trkpt lat="44.519979" lon="10.7334528"><ele>171.0</ele><time>2026-03-22T12:03:29.282Z</time></trkpt><trkpt lat="44.5199373" lon="10.7332789"><ele>173.0</ele><time>2026-03-22T12:03:30.285Z</time></trkpt><trkpt lat="44.5198906" lon="10.7331083"><ele>175.0</ele><time>2026-03-22T12:03:31.27Z</time></trkpt><trkpt lat="44.5198336" lon="10.7329276"><ele>177.0</ele><time>2026-03-22T12:03:32.279Z</time></trkpt><trkpt lat="44.5197745" lon="10.732729"><ele>176.33333333333334</ele><time>2026-03-22T12:03:33.287Z</time></trkpt><trkpt lat="44.5197109" lon="10.7325185"><ele>175.66666666666669</ele><time>2026-03-22T12:03:34.276Z</time></trkpt><trkpt lat="44.5196439" lon="10.7322917"><ele>175.0</ele><time>2026-03-22T12:03:35.291Z</time></trkpt><trkpt lat="44.5195642" lon="10.7320528"><ele>177.33333333333334</ele><time>2026-03-22T12:03:36.278Z</time></trkpt><trkpt lat="44.5194729" lon="10.7318252"><ele>179.66666666666666</ele><time>2026-03-22T12:03:37.278Z</time></trkpt><trkpt lat="44.5193775" lon="10.7316246"><ele>182.0</ele><time>2026-03-22T12:03:38.291Z</time></trkpt><trkpt lat="44.5192894" lon="10.7314464"><ele>182.0</ele><time>2026-03-22T12:03:39.28Z</time></trkpt><trkpt lat="44.5192083" lon="10.7312852"><ele>182.0</ele><time>2026-03-22T12:03:40.283Z</time></trkpt><trkpt lat="44.5191303" lon="10.7311466"><ele>182.0</ele><time>2026-03-22T12:03:41.275Z</time></trkpt><trkpt lat="44.5190528" lon="10.7310232"><ele>182.0</ele><time>2026-03-22T12:03:42.29Z</time></trkpt><trkpt lat="44.5189768" lon="10.7308987"><ele>184.75</ele><time>2026-03-22T12:03:43.294Z</time></trkpt><trkpt lat="44.518916" lon="10.7307648"><ele>187.5</ele><time>2026-03-22T12:03:44.284Z</time></trkpt><trkpt lat="44.5188829" lon="10.7306178"><ele>190.25</ele><time>2026-03-22T12:03:45.284Z</time></trkpt><trkpt lat="44.5188665" lon="10.7304528"><ele>193.0</ele><time>2026-03-22T12:03:46.272Z</time></trkpt><trkpt lat="44.5188881" lon="10.7302547"><ele>195.33333333333331</ele><time>2026-03-22T12:03:47.274Z</time></trkpt><trkpt lat="44.5189001" lon="10.7300419"><ele>197.66666666666669</ele><time>2026-03-22T12:03:48.278Z</time></trkpt><trkpt lat="44.5188763" lon="10.7298068"><ele>200.0</ele><time>2026-03-22T12:03:49.276Z</time></trkpt><trkpt lat="44.5188334" lon="10.7295873"><ele>200.0</ele><time>2026-03-22T12:03:50.276Z</time></trkpt><trkpt lat="44.5187914" lon="10.7294107"><ele>200.0</ele><time>2026-03-22T12:03:51.29Z</time></trkpt><trkpt lat="44.5187575" lon="10.7292718"><ele>200.0</ele><time>2026-03-22T12:03:52.28Z</time></trkpt><trkpt lat="44.5187421" lon="10.7291764"><ele>200.0</ele><time>2026-03-22T12:03:53.291Z</time></trkpt><trkpt lat="44.5187272" lon="10.7290792"><ele>200.0</ele><time>2026-03-22T12:03:54.286Z</time></trkpt><trkpt lat="44.5187081" lon="10.7289522"><ele>198.0</ele><time>2026-03-22T12:03:55.282Z</time></trkpt><trkpt lat="44.5186901" lon="10.7287878"><ele>196.0</ele><time>2026-03-22T12:03:56.286Z</time></trkpt><trkpt lat="44.5186963" lon="10.7285875"><ele>194.0</ele><time>2026-03-22T12:03:57.279Z</time></trkpt><trkpt lat="44.5187135" lon="10.7283859"><ele>192.0</ele><time>2026-03-22T12:03:58.291Z</time></trkpt><trkpt lat="44.518747" lon="10.7281966"><ele>196.25</ele><time>2026-03-22T12:03:59.286Z</time></trkpt><trkpt lat="44.518785" lon="10.7280186"><ele>200.5</ele><time>2026-03-22T12:04:00.285Z</time></trkpt><trkpt lat="44.5188257" lon="10.7278486"><ele>204.75</ele><time>2026-03-22T12:04:01.276Z</time></trkpt><trkpt lat="44.5188566" lon="10.7276802"><ele>209.0</ele><time>2026-03-22T12:04:02.281Z</time></trkpt><trkpt lat="44.5188783" lon="10.7275358"><ele>209.00000000000003</ele><time>2026-03-22T12:04:03.288Z</time></trkpt><trkpt lat="44.5189199" lon="10.7274389"><ele>209.0</ele><time>2026-03-22T12:04:04.293Z</time></trkpt><trkpt lat="44.5189806" lon="10.727385"><ele>209.0</ele><time>2026-03-22T12:04:05.279Z</time></trkpt><trkpt lat="44.5190487" lon="10.7273932"><ele>209.0</ele><time>2026-03-22T12:04:06.297Z</time></trkpt><trkpt lat="44.5191002" lon="10.7274576"><ele>209.00000000000003</ele><time>2026-03-22T12:04:07.307Z</time></trkpt><trkpt lat="44.5191205" lon="10.727565"><ele>209.0</ele><time>2026-03-22T12:04:08.291Z</time></trkpt><trkpt lat="44.5191049" lon="10.7277172"><ele>209.25</ele><time>2026-03-22T12:04:09.281Z</time></trkpt><trkpt lat="44.5191001" lon="10.7278895"><ele>209.5</ele><time>2026-03-22T12:04:10.286Z</time></trkpt><trkpt lat="44.5191246" lon="10.7280707"><ele>209.75</ele><time>2026-03-22T12:04:11.275Z</time></trkpt><trkpt lat="44.5192075" lon="10.7282718"><ele>210.0</ele><time>2026-03-22T12:04:12.277Z</time></trkpt><trkpt lat="44.5193029" lon="10.7284895"><ele>208.66666666666669</ele><time>2026-03-22T12:04:13.282Z</time></trkpt><trkpt lat="44.5194063" lon="10.7287234"><ele>207.33333333333334</ele><time>2026-03-22T12:04:14.284Z</time></trkpt><trkpt lat="44.5195135" lon="10.7289556"><ele>206.0</ele><time>2026-03-22T12:04:15.282Z</time></trkpt><trkpt lat="44.5196441" lon="10.7291755"><ele>210.33333333333334</ele><time>2026-03-22T12:04:16.285Z</time></trkpt><trkpt lat="44.5197845" lon="10.7293914"><ele>214.66666666666669</ele><time>2026-03-22T12:04:17.28Z</time></trkpt><trkpt lat="44.5199274" lon="10.7296137"><ele>219.0</ele><time>2026-03-22T12:04:18.28Z</time></trkpt><trkpt lat="44.5200509" lon="10.7298581"><ele>219.0</ele><time>2026-03-22T12:04:19.29Z</time></trkpt><trkpt lat="44.5201572" lon="10.7301248"><ele>219.0</ele><time>2026-03-22T12:04:20.287Z</time></trkpt><trkpt lat="44.5202758" lon="10.7303823"><ele>219.0</ele><time>2026-03-22T12:04:21.292Z</time></trkpt><trkpt lat="44.5204152" lon="10.7306272"><ele>218.66666666666669</ele><time>2026-03-22T12:04:22.268Z</time></trkpt><trkpt lat="44.5205581" lon="10.7308634"><ele>218.33333333333334</ele><time>2026-03-22T12:04:23.29Z</time></trkpt><trkpt lat="44.5206858" lon="10.7310727"><ele>218.0</ele><time>2026-03-22T12:04:24.287Z</time></trkpt><trkpt lat="44.5208046" lon="10.7312573"><ele>218.0</ele><time>2026-03-22T12:04:25.289Z</time></trkpt><trkpt lat="44.5209272" lon="10.7313924"><ele>218.0</ele><time>2026-03-22T12:04:26.284Z</time></trkpt><trkpt lat="44.5210697" lon="10.731495"><ele>218.0</ele><time>2026-03-22T12:04:27.289Z</time></trkpt><trkpt lat="44.5212367" lon="10.7315241"><ele>221.66666666666669</ele><time>2026-03-22T12:04:28.284Z</time></trkpt><trkpt lat="44.5214102" lon="10.7314993"><ele>225.33333333333331</ele><time>2026-03-22T12:04:29.285Z</time></trkpt><trkpt lat="44.5215648" lon="10.731443"><ele>229.0</ele><time>2026-03-22T12:04:30.285Z</time></trkpt><trkpt lat="44.5217007" lon="10.7313954"><ele>229.0</ele><time>2026-03-22T12:04:31.277Z</time></trkpt><trkpt lat="44.5218316" lon="10.7313994"><ele>229.0</ele><time>2026-03-22T12:04:32.276Z</time></trkpt><trkpt lat="44.5219629" lon="10.7314835"><ele>229.0</ele><time>2026-03-22T12:04:33.271Z</time></trkpt><trkpt lat="44.5220838" lon="10.7316204"><ele>229.0</ele><time>2026-03-22T12:04:34.279Z</time></trkpt><trkpt lat="44.5221898" lon="10.7317718"><ele>230.0</ele><time>2026-03-22T12:04:35.292Z</time></trkpt><trkpt lat="44.5223113" lon="10.7318948"><ele>231.0</ele><time>2026-03-22T12:04:36.276Z</time></trkpt><trkpt lat="44.5224544" lon="10.7319819"><ele>232.0</ele><time>2026-03-22T12:04:37.284Z</time></trkpt><trkpt lat="44.5226123" lon="10.732036"><ele>232.0</ele><time>2026-03-22T12:04:38.291Z</time></trkpt><trkpt lat="44.522778" lon="10.7320903"><ele>232.0</ele><time>2026-03-22T12:04:39.287Z</time></trkpt><trkpt lat="44.5229402" lon="10.7321415"><ele>232.0</ele><time>2026-03-22T12:04:40.281Z</time></trkpt><trkpt lat="44.5230935" lon="10.7321604"><ele>232.75</ele><time>2026-03-22T12:04:41.276Z</time></trkpt><trkpt lat="44.5232408" lon="10.73214"><ele>233.5</ele><time>2026-03-22T12:04:42.278Z</time></trkpt><trkpt lat="44.5233703" lon="10.7320832"><ele>234.25</ele><time>2026-03-22T12:04:43.291Z</time></trkpt><trkpt lat="44.5234779" lon="10.7319924"><ele>235.0</ele><time>2026-03-22T12:04:44.285Z</time></trkpt><trkpt lat="44.5235691" lon="10.7318666"><ele>235.25</ele><time>2026-03-22T12:04:45.269Z</time></trkpt><trkpt lat="44.5236436" lon="10.731711"><ele>235.5</ele><time>2026-03-22T12:04:46.267Z</time></trkpt><trkpt lat="44.5237008" lon="10.7315198"><ele>235.75</ele><time>2026-03-22T12:04:47.275Z</time></trkpt><trkpt lat="44.523743" lon="10.7312919"><ele>236.0</ele><time>2026-03-22T12:04:48.287Z</time></trkpt><trkpt lat="44.5237798" lon="10.7310411"><ele>237.33333333333334</ele><time>2026-03-22T12:04:49.288Z</time></trkpt><trkpt lat="44.5238267" lon="10.7307919"><ele>238.66666666666669</ele><time>2026-03-22T12:04:50.279Z</time></trkpt><trkpt lat="44.5238795" lon="10.7305504"><ele>240.0</ele><time>2026-03-22T12:04:51.274Z</time></trkpt><trkpt lat="44.523953" lon="10.7303183"><ele>241.33333333333331</ele><time>2026-03-22T12:04:52.277Z</time></trkpt><trkpt lat="44.5240522" lon="10.7301033"><ele>242.66666666666666</ele><time>2026-03-22T12:04:53.291Z</time></trkpt><trkpt lat="44.5241787" lon="10.7299056"><ele>244.0</ele><time>2026-03-22T12:04:54.289Z</time></trkpt><trkpt lat="44.5243137" lon="10.7297283"><ele>244.0</ele><time>2026-03-22T12:04:55.273Z</time></trkpt><trkpt lat="44.5244463" lon="10.7295478"><ele>244.0</ele><time>2026-03-22T12:04:56.287Z</time></trkpt><trkpt lat="44.5245576" lon="10.7293528"><ele>244.0</ele><time>2026-03-22T12:04:57.283Z</time></trkpt><trkpt lat="44.5246436" lon="10.7291182"><ele>243.33333333333331</ele><time>2026-03-22T12:04:58.281Z</time></trkpt><trkpt lat="44.5247023" lon="10.7288423"><ele>242.66666666666669</ele><time>2026-03-22T12:04:59.278Z</time></trkpt><trkpt lat="44.5247456" lon="10.7285264"><ele>242.0</ele><time>2026-03-22T12:05:00.293Z</time></trkpt><trkpt lat="44.5247821" lon="10.7281836"><ele>242.0</ele><time>2026-03-22T12:05:01.285Z</time></trkpt><trkpt lat="44.5248212" lon="10.7278298"><ele>242.0</ele><time>2026-03-22T12:05:02.279Z</time></trkpt><trkpt lat="44.5248625" lon="10.7274824"><ele>243.0</ele><time>2026-03-22T12:05:03.284Z</time></trkpt><trkpt lat="44.5249024" lon="10.7271486"><ele>244.0</ele><time>2026-03-22T12:05:04.281Z</time></trkpt><trkpt lat="44.5249344" lon="10.7268149"><ele>245.0</ele><time>2026-03-22T12:05:05.276Z</time></trkpt><trkpt lat="44.5249461" lon="10.7264624"><ele>246.0</ele><time>2026-03-22T12:05:06.286Z</time></trkpt><trkpt lat="44.5249472" lon="10.7261048"><ele>248.5</ele><time>2026-03-22T12:05:07.272Z</time></trkpt><trkpt lat="44.5249303" lon="10.7257361"><ele>251.0</ele><time>2026-03-22T12:05:08.287Z</time></trkpt><trkpt lat="44.5249161" lon="10.7253852"><ele>253.0</ele><time>2026-03-22T12:05:09.282Z</time></trkpt><trkpt lat="44.5249053" lon="10.7250555"><ele>255.0</ele><time>2026-03-22T12:05:10.284Z</time></trkpt><trkpt lat="44.5249032" lon="10.7247465"><ele>255.0</ele><time>2026-03-22T12:05:11.288Z</time></trkpt><trkpt lat="44.5249274" lon="10.7244593"><ele>255.0</ele><time>2026-03-22T12:05:12.289Z</time></trkpt><trkpt lat="44.5249633" lon="10.7241764"><ele>255.0</ele><time>2026-03-22T12:05:13.283Z</time></trkpt><trkpt lat="44.5250183" lon="10.7239203"><ele>255.33333333333331</ele><time>2026-03-22T12:05:14.272Z</time></trkpt><trkpt lat="44.5250763" lon="10.7236659"><ele>255.66666666666666</ele><time>2026-03-22T12:05:15.287Z</time></trkpt><trkpt lat="44.5250982" lon="10.723385"><ele>256.0</ele><time>2026-03-22T12:05:16.281Z</time></trkpt><trkpt lat="44.5250793" lon="10.7230889"><ele>256.0</ele><time>2026-03-22T12:05:17.271Z</time></trkpt><trkpt lat="44.5250195" lon="10.7227728"><ele>256.0</ele><time>2026-03-22T12:05:18.283Z</time></trkpt><trkpt lat="44.5249425" lon="10.7224423"><ele>256.5</ele><time>2026-03-22T12:05:19.282Z</time></trkpt><trkpt lat="44.5248703" lon="10.722092"><ele>257.0</ele><time>2026-03-22T12:05:20.287Z</time></trkpt><trkpt lat="44.5248009" lon="10.7217286"><ele>259.0</ele><time>2026-03-22T12:05:21.288Z</time></trkpt><trkpt lat="44.5247395" lon="10.7213498"><ele>261.0</ele><time>2026-03-22T12:05:22.284Z</time></trkpt><trkpt lat="44.524684" lon="10.72096"><ele>261.5</ele><time>2026-03-22T12:05:23.294Z</time></trkpt><trkpt lat="44.5246444" lon="10.7205619"><ele>262.0</ele><time>2026-03-22T12:05:24.285Z</time></trkpt><trkpt lat="44.524612" lon="10.7201571"><ele>263.0</ele><time>2026-03-22T12:05:25.282Z</time></trkpt><trkpt lat="44.5245847" lon="10.7197547"><ele>264.0</ele><time>2026-03-22T12:05:26.29Z</time></trkpt><trkpt lat="44.5245567" lon="10.7193563"><ele>265.0</ele><time>2026-03-22T12:05:27.284Z</time></trkpt><trkpt lat="44.5245282" lon="10.7189589"><ele>266.0</ele><time>2026-03-22T12:05:28.282Z</time></trkpt><trkpt lat="44.5245034" lon="10.7185838"><ele>266.0</ele><time>2026-03-22T12:05:29.278Z</time></trkpt><trkpt lat="44.5244824" lon="10.7182329"><ele>266.0</ele><time>2026-03-22T12:05:30.286Z</time></trkpt><trkpt lat="44.5244611" lon="10.7179068"><ele>266.6666666666667</ele><time>2026-03-22T12:05:31.278Z</time></trkpt><trkpt lat="44.5244409" lon="10.7175926"><ele>267.3333333333333</ele><time>2026-03-22T12:05:32.295Z</time></trkpt><trkpt lat="44.5244273" lon="10.7172913"><ele>268.0</ele><time>2026-03-22T12:05:33.289Z</time></trkpt><trkpt lat="44.5244165" lon="10.7169982"><ele>267.66666666666663</ele><time>2026-03-22T12:05:34.285Z</time></trkpt><trkpt lat="44.5244122" lon="10.7167274"><ele>267.3333333333333</ele><time>2026-03-22T12:05:35.282Z</time></trkpt><trkpt lat="44.5243886" lon="10.7164678"><ele>267.0</ele><time>2026-03-22T12:05:36.287Z</time></trkpt><trkpt lat="44.5243438" lon="10.7162297"><ele>268.0</ele><time>2026-03-22T12:05:37.287Z</time></trkpt><trkpt lat="44.5242746" lon="10.7160059"><ele>269.0</ele><time>2026-03-22T12:05:38.285Z</time></trkpt><trkpt lat="44.5242343" lon="10.7157904"><ele>270.0</ele><time>2026-03-22T12:05:39.282Z</time></trkpt><trkpt lat="44.5242327" lon="10.7155676"><ele>270.0</ele><time>2026-03-22T12:05:40.286Z</time></trkpt><trkpt lat="44.5242678" lon="10.7153448"><ele>270.0</ele><time>2026-03-22T12:05:41.27Z</time></trkpt><trkpt lat="44.5242795" lon="10.715098"><ele>270.0</ele><time>2026-03-22T12:05:42.286Z</time></trkpt><trkpt lat="44.5242758" lon="10.7148521"><ele>271.25</ele><time>2026-03-22T12:05:43.279Z</time></trkpt><trkpt lat="44.5242534" lon="10.7146204"><ele>272.5</ele><time>2026-03-22T12:05:44.284Z</time></trkpt><trkpt lat="44.5242452" lon="10.7144124"><ele>273.75</ele><time>2026-03-22T12:05:45.277Z</time></trkpt><trkpt lat="44.5242647" lon="10.7142274"><ele>275.0</ele><time>2026-03-22T12:05:46.289Z</time></trkpt><trkpt lat="44.5243271" lon="10.714073"><ele>276.25</ele><time>2026-03-22T12:05:47.283Z</time></trkpt><trkpt lat="44.5244336" lon="10.7139702"><ele>277.5</ele><time>2026-03-22T12:05:48.273Z</time></trkpt><trkpt lat="44.5245634" lon="10.7138969"><ele>278.75</ele><time>2026-03-22T12:05:49.281Z</time></trkpt><trkpt lat="44.5247042" lon="10.7138511"><ele>280.0</ele><time>2026-03-22T12:05:50.273Z</time></trkpt><trkpt lat="44.5248571" lon="10.7138274"><ele>280.3333333333333</ele><time>2026-03-22T12:05:51.276Z</time></trkpt><trkpt lat="44.5249944" lon="10.7137595"><ele>280.6666666666667</ele><time>2026-03-22T12:05:52.29Z</time></trkpt><trkpt lat="44.5251247" lon="10.7136525"><ele>281.0</ele><time>2026-03-22T12:05:53.285Z</time></trkpt><trkpt lat="44.5252492" lon="10.713518"><ele>281.0</ele><time>2026-03-22T12:05:54.285Z</time></trkpt><trkpt lat="44.5253948" lon="10.7133987"><ele>281.0</ele><time>2026-03-22T12:05:55.272Z</time></trkpt><trkpt lat="44.5255574" lon="10.7133232"><ele>281.0</ele><time>2026-03-22T12:05:56.286Z</time></trkpt><trkpt lat="44.5257217" lon="10.7132668"><ele>285.0</ele><time>2026-03-22T12:05:57.282Z</time></trkpt><trkpt lat="44.5258885" lon="10.7131998"><ele>289.0</ele><time>2026-03-22T12:05:58.278Z</time></trkpt><trkpt lat="44.5260476" lon="10.7131064"><ele>293.0</ele><time>2026-03-22T12:05:59.276Z</time></trkpt><trkpt lat="44.5261865" lon="10.7129659"><ele>295.6666666666667</ele><time>2026-03-22T12:06:00.287Z</time></trkpt><trkpt lat="44.5262929" lon="10.712762"><ele>298.3333333333333</ele><time>2026-03-22T12:06:01.275Z</time></trkpt><trkpt lat="44.5263899" lon="10.7125305"><ele>301.0</ele><time>2026-03-22T12:06:02.293Z</time></trkpt><trkpt lat="44.5264894" lon="10.7122967"><ele>301.0</ele><time>2026-03-22T12:06:03.286Z</time></trkpt><trkpt lat="44.5265972" lon="10.7120582"><ele>301.0</ele><time>2026-03-22T12:06:04.281Z</time></trkpt><trkpt lat="44.5267025" lon="10.7118004"><ele>301.0</ele><time>2026-03-22T12:06:05.29Z</time></trkpt><trkpt lat="44.5267915" lon="10.7115222"><ele>299.3333333333333</ele><time>2026-03-22T12:06:06.272Z</time></trkpt><trkpt lat="44.5268741" lon="10.7112487"><ele>297.6666666666667</ele><time>2026-03-22T12:06:07.273Z</time></trkpt><trkpt lat="44.5269538" lon="10.7110014"><ele>296.0</ele><time>2026-03-22T12:06:08.281Z</time></trkpt><trkpt lat="44.5270284" lon="10.7107804"><ele>298.0</ele><time>2026-03-22T12:06:09.281Z</time></trkpt><trkpt lat="44.5270866" lon="10.7105944"><ele>300.0</ele><time>2026-03-22T12:06:10.284Z</time></trkpt><trkpt lat="44.527135" lon="10.7104177"><ele>302.0</ele><time>2026-03-22T12:06:11.292Z</time></trkpt><trkpt lat="44.5271392" lon="10.7102436"><ele>304.0</ele><time>2026-03-22T12:06:12.286Z</time></trkpt><trkpt lat="44.5270993" lon="10.7100564"><ele>302.0</ele><time>2026-03-22T12:06:13.292Z</time></trkpt><trkpt lat="44.5270463" lon="10.7098536"><ele>300.0</ele><time>2026-03-22T12:06:14.279Z</time></trkpt><trkpt lat="44.5269838" lon="10.7096279"><ele>298.0</ele><time>2026-03-22T12:06:15.273Z</time></trkpt><trkpt lat="44.5269417" lon="10.7093852"><ele>298.0</ele><time>2026-03-22T12:06:16.282Z</time></trkpt><trkpt lat="44.5268898" lon="10.7091522"><ele>298.0</ele><time>2026-03-22T12:06:17.288Z</time></trkpt><trkpt lat="44.5268225" lon="10.7089364"><ele>298.0</ele><time>2026-03-22T12:06:18.286Z</time></trkpt><trkpt lat="44.5267533" lon="10.708716"><ele>300.0</ele><time>2026-03-22T12:06:19.287Z</time></trkpt><trkpt lat="44.526715" lon="10.7084763"><ele>302.0</ele><time>2026-03-22T12:06:20.278Z</time></trkpt><trkpt lat="44.526707" lon="10.7082337"><ele>304.0</ele><time>2026-03-22T12:06:21.281Z</time></trkpt><trkpt lat="44.5267122" lon="10.7080033"><ele>304.0</ele><time>2026-03-22T12:06:22.285Z</time></trkpt><trkpt lat="44.5266899" lon="10.7077868"><ele>304.0</ele><time>2026-03-22T12:06:23.282Z</time></trkpt><trkpt lat="44.5266331" lon="10.7075855"><ele>304.0</ele><time>2026-03-22T12:06:24.285Z</time></trkpt><trkpt lat="44.5265812" lon="10.7073969"><ele>304.0</ele><time>2026-03-22T12:06:25.28Z</time></trkpt><trkpt lat="44.5265596" lon="10.7072023"><ele>304.0</ele><time>2026-03-22T12:06:26.278Z</time></trkpt><trkpt lat="44.5265741" lon="10.7069861"><ele>304.0</ele><time>2026-03-22T12:06:27.285Z</time></trkpt><trkpt lat="44.5266037" lon="10.7067518"><ele>304.3333333333333</ele><time>2026-03-22T12:06:28.273Z</time></trkpt><trkpt lat="44.5266412" lon="10.706504"><ele>304.6666666666667</ele><time>2026-03-22T12:06:29.293Z</time></trkpt><trkpt lat="44.5266646" lon="10.7062709"><ele>305.0</ele><time>2026-03-22T12:06:30.287Z</time></trkpt><trkpt lat="44.5266419" lon="10.7060577"><ele>307.0</ele><time>2026-03-22T12:06:31.291Z</time></trkpt><trkpt lat="44.5265845" lon="10.7058565"><ele>309.0</ele><time>2026-03-22T12:06:32.284Z</time></trkpt><trkpt lat="44.5264846" lon="10.7056742"><ele>311.0</ele><time>2026-03-22T12:06:33.275Z</time></trkpt><trkpt lat="44.52636" lon="10.7055264"><ele>311.0</ele><time>2026-03-22T12:06:34.283Z</time></trkpt><trkpt lat="44.5262446" lon="10.7053959"><ele>311.0</ele><time>2026-03-22T12:06:35.29Z</time></trkpt><trkpt lat="44.5261504" lon="10.7052554"><ele>311.0</ele><time>2026-03-22T12:06:36.276Z</time></trkpt><trkpt lat="44.526071" lon="10.7050901"><ele>311.0</ele><time>2026-03-22T12:06:37.29Z</time></trkpt><trkpt lat="44.5260486" lon="10.7048854"><ele>306.33333333333337</ele><time>2026-03-22T12:06:38.282Z</time></trkpt><trkpt lat="44.5260714" lon="10.7046746"><ele>301.6666666666667</ele><time>2026-03-22T12:06:39.286Z</time></trkpt><trkpt lat="44.52612" lon="10.7044751"><ele>297.0</ele><time>2026-03-22T12:06:40.275Z</time></trkpt><trkpt lat="44.5262218" lon="10.7042846"><ele>302.0</ele><time>2026-03-22T12:06:41.282Z</time></trkpt><trkpt lat="44.5263117" lon="10.7040852"><ele>307.0</ele><time>2026-03-22T12:06:42.271Z</time></trkpt><trkpt lat="44.5263757" lon="10.703878"><ele>312.0</ele><time>2026-03-22T12:06:43.289Z</time></trkpt><trkpt lat="44.5264285" lon="10.7036852"><ele>311.0</ele><time>2026-03-22T12:06:44.29Z</time></trkpt><trkpt lat="44.526482" lon="10.7035216"><ele>310.0</ele><time>2026-03-22T12:06:45.29Z</time></trkpt><trkpt lat="44.5265259" lon="10.7033796"><ele>309.0</ele><time>2026-03-22T12:06:46.288Z</time></trkpt><trkpt lat="44.5265296" lon="10.7032335"><ele>308.0</ele><time>2026-03-22T12:06:47.262Z</time></trkpt><trkpt lat="44.5264964" lon="10.7030836"><ele>308.0</ele><time>2026-03-22T12:06:48.284Z</time></trkpt><trkpt lat="44.5264217" lon="10.7029359"><ele>308.0</ele><time>2026-03-22T12:06:49.287Z</time></trkpt><trkpt lat="44.5262966" lon="10.7027686"><ele>308.0</ele><time>2026-03-22T12:06:50.288Z</time></trkpt><trkpt lat="44.5261678" lon="10.7025854"><ele>306.0</ele><time>2026-03-22T12:06:51.291Z</time></trkpt><trkpt lat="44.5260433" lon="10.7023884"><ele>304.0</ele><time>2026-03-22T12:06:52.29Z</time></trkpt><trkpt lat="44.5259325" lon="10.7021981"><ele>302.0</ele><time>2026-03-22T12:06:53.284Z</time></trkpt><trkpt lat="44.5258278" lon="10.702027"><ele>303.0</ele><time>2026-03-22T12:06:54.286Z</time></trkpt><trkpt lat="44.5257111" lon="10.701891"><ele>304.0</ele><time>2026-03-22T12:06:55.277Z</time></trkpt><trkpt lat="44.5255821" lon="10.7017742"><ele>305.0</ele><time>2026-03-22T12:06:56.269Z</time></trkpt><trkpt lat="44.5254449" lon="10.7016568"><ele>304.75</ele><time>2026-03-22T12:06:57.273Z</time></trkpt><trkpt lat="44.5253063" lon="10.7015434"><ele>304.5</ele><time>2026-03-22T12:06:58.284Z</time></trkpt><trkpt lat="44.5251814" lon="10.7014424"><ele>304.25</ele><time>2026-03-22T12:06:59.273Z</time></trkpt><trkpt lat="44.5250677" lon="10.7013478"><ele>304.0</ele><time>2026-03-22T12:07:00.288Z</time></trkpt><trkpt lat="44.5249758" lon="10.7012568"><ele>304.0</ele><time>2026-03-22T12:07:01.276Z</time></trkpt><trkpt lat="44.524898" lon="10.701167"><ele>304.0</ele><time>2026-03-22T12:07:02.276Z</time></trkpt><trkpt lat="44.5248772" lon="10.7010707"><ele>304.0</ele><time>2026-03-22T12:07:03.271Z</time></trkpt><trkpt lat="44.5248812" lon="10.7009419"><ele>304.0</ele><time>2026-03-22T12:07:04.282Z</time></trkpt><trkpt lat="44.5249279" lon="10.7007938"><ele>304.0</ele><time>2026-03-22T12:07:05.286Z</time></trkpt><trkpt lat="44.5249972" lon="10.7006181"><ele>303.5</ele><time>2026-03-22T12:07:06.289Z</time></trkpt><trkpt lat="44.5250733" lon="10.7004381"><ele>303.0</ele><time>2026-03-22T12:07:07.291Z</time></trkpt><trkpt lat="44.5251498" lon="10.7002857"><ele>302.5</ele><time>2026-03-22T12:07:08.28Z</time></trkpt><trkpt lat="44.5252185" lon="10.7001669"><ele>302.0</ele><time>2026-03-22T12:07:09.286Z</time></trkpt><trkpt lat="44.5252579" lon="10.7000484"><ele>299.5</ele><time>2026-03-22T12:07:10.291Z</time></trkpt><trkpt lat="44.5252593" lon="10.69992"><ele>297.0</ele><time>2026-03-22T12:07:11.29Z</time></trkpt><trkpt lat="44.5252204" lon="10.6997745"><ele>294.5</ele><time>2026-03-22T12:07:12.294Z</time></trkpt><trkpt lat="44.5251642" lon="10.699607"><ele>292.0</ele><time>2026-03-22T12:07:13.269Z</time></trkpt><trkpt lat="44.5251023" lon="10.6993988"><ele>289.3333333333333</ele><time>2026-03-22T12:07:14.291Z</time></trkpt><trkpt lat="44.5250406" lon="10.6991653"><ele>286.6666666666667</ele><time>2026-03-22T12:07:15.284Z</time></trkpt><trkpt lat="44.5249861" lon="10.6989013"><ele>284.0</ele><time>2026-03-22T12:07:16.277Z</time></trkpt><trkpt lat="44.5249311" lon="10.6986271"><ele>282.33333333333337</ele><time>2026-03-22T12:07:17.287Z</time></trkpt><trkpt lat="44.524864" lon="10.6983439"><ele>280.6666666666667</ele><time>2026-03-22T12:07:18.284Z</time></trkpt><trkpt lat="44.5248023" lon="10.6980696"><ele>279.0</ele><time>2026-03-22T12:07:19.288Z</time></trkpt><trkpt lat="44.5247503" lon="10.6978173"><ele>277.3333333333333</ele><time>2026-03-22T12:07:20.267Z</time></trkpt><trkpt lat="44.5247247" lon="10.6975787"><ele>275.66666666666663</ele><time>2026-03-22T12:07:21.288Z</time></trkpt><trkpt lat="44.524694" lon="10.6973688"><ele>274.0</ele><time>2026-03-22T12:07:22.285Z</time></trkpt><trkpt lat="44.5246436" lon="10.697178"><ele>274.0</ele><time>2026-03-22T12:07:23.285Z</time></trkpt><trkpt lat="44.5245723" lon="10.6970219"><ele>274.0</ele><time>2026-03-22T12:07:24.268Z</time></trkpt><trkpt lat="44.5244806" lon="10.6968794"><ele>274.0</ele><time>2026-03-22T12:07:25.292Z</time></trkpt><trkpt lat="44.5244167" lon="10.6967482"><ele>274.0</ele><time>2026-03-22T12:07:26.279Z</time></trkpt><trkpt lat="44.5244063" lon="10.6966129"><ele>275.0</ele><time>2026-03-22T12:07:27.271Z</time></trkpt><trkpt lat="44.5244347" lon="10.6964832"><ele>276.0</ele><time>2026-03-22T12:07:28.271Z</time></trkpt><trkpt lat="44.5244784" lon="10.6963412"><ele>277.0</ele><time>2026-03-22T12:07:29.286Z</time></trkpt><trkpt lat="44.5245685" lon="10.6962066"><ele>278.0</ele><time>2026-03-22T12:07:30.283Z</time></trkpt><trkpt lat="44.5246799" lon="10.6960654"><ele>274.33333333333337</ele><time>2026-03-22T12:07:31.289Z</time></trkpt><trkpt lat="44.5247941" lon="10.6958883"><ele>270.6666666666667</ele><time>2026-03-22T12:07:32.271Z</time></trkpt><trkpt lat="44.5249056" lon="10.6956938"><ele>267.0</ele><time>2026-03-22T12:07:33.283Z</time></trkpt><trkpt lat="44.5250151" lon="10.6954775"><ele>266.6666666666667</ele><time>2026-03-22T12:07:34.279Z</time></trkpt><trkpt lat="44.5251152" lon="10.6952227"><ele>266.33333333333337</ele><time>2026-03-22T12:07:35.282Z</time></trkpt><trkpt lat="44.5252091" lon="10.6949478"><ele>266.0</ele><time>2026-03-22T12:07:36.285Z</time></trkpt><trkpt lat="44.5253128" lon="10.6946633"><ele>264.33333333333337</ele><time>2026-03-22T12:07:37.285Z</time></trkpt><trkpt lat="44.5254259" lon="10.6943886"><ele>262.6666666666667</ele><time>2026-03-22T12:07:38.276Z</time></trkpt><trkpt lat="44.5255468" lon="10.6941286"><ele>261.0</ele><time>2026-03-22T12:07:39.269Z</time></trkpt><trkpt lat="44.525667" lon="10.6938943"><ele>261.0</ele><time>2026-03-22T12:07:40.28Z</time></trkpt><trkpt lat="44.5257877" lon="10.6936853"><ele>261.0</ele><time>2026-03-22T12:07:41.297Z</time></trkpt><trkpt lat="44.5259052" lon="10.6935008"><ele>261.0</ele><time>2026-03-22T12:07:42.289Z</time></trkpt><trkpt lat="44.5260145" lon="10.6933318"><ele>261.6666666666667</ele><time>2026-03-22T12:07:43.294Z</time></trkpt><trkpt lat="44.5261198" lon="10.6931659"><ele>262.33333333333337</ele><time>2026-03-22T12:07:44.292Z</time></trkpt><trkpt lat="44.5262256" lon="10.6929789"><ele>263.0</ele><time>2026-03-22T12:07:45.29Z</time></trkpt><trkpt lat="44.5263303" lon="10.6927995"><ele>264.33333333333337</ele><time>2026-03-22T12:07:46.278Z</time></trkpt><trkpt lat="44.5264161" lon="10.6926014"><ele>265.6666666666667</ele><time>2026-03-22T12:07:47.294Z</time></trkpt><trkpt lat="44.5264888" lon="10.6924052"><ele>267.0</ele><time>2026-03-22T12:07:48.289Z</time></trkpt><trkpt lat="44.5265614" lon="10.6922034"><ele>267.0</ele><time>2026-03-22T12:07:49.283Z</time></trkpt><trkpt lat="44.5266345" lon="10.692006"><ele>267.0</ele><time>2026-03-22T12:07:50.27Z</time></trkpt><trkpt lat="44.5267124" lon="10.6918217"><ele>267.0</ele><time>2026-03-22T12:07:51.27Z</time></trkpt><trkpt lat="44.5268048" lon="10.6916642"><ele>265.25</ele><time>2026-03-22T12:07:52.298Z</time></trkpt><trkpt lat="44.5269192" lon="10.6915195"><ele>263.5</ele><time>2026-03-22T12:07:53.284Z</time></trkpt><trkpt lat="44.5270363" lon="10.6914142"><ele>261.75</ele><time>2026-03-22T12:07:54.271Z</time></trkpt><trkpt lat="44.5271712" lon="10.6913455"><ele>260.0</ele><time>2026-03-22T12:07:55.285Z</time></trkpt><trkpt lat="44.527296" lon="10.6912665"><ele>258.0</ele><time>2026-03-22T12:07:56.283Z</time></trkpt><trkpt lat="44.5273968" lon="10.6911473"><ele>256.0</ele><time>2026-03-22T12:07:57.285Z</time></trkpt><trkpt lat="44.5274847" lon="10.6910163"><ele>254.0</ele><time>2026-03-22T12:07:58.274Z</time></trkpt><trkpt lat="44.527526" lon="10.6908434"><ele>252.0</ele><time>2026-03-22T12:07:59.278Z</time></trkpt><trkpt lat="44.5275306" lon="10.6906425"><ele>252.0</ele><time>2026-03-22T12:08:00.287Z</time></trkpt><trkpt lat="44.5275042" lon="10.690433"><ele>252.0</ele><time>2026-03-22T12:08:01.291Z</time></trkpt><trkpt lat="44.5274708" lon="10.6902186"><ele>252.0</ele><time>2026-03-22T12:08:02.281Z</time></trkpt><trkpt lat="44.5274392" lon="10.6899932"><ele>252.0</ele><time>2026-03-22T12:08:03.282Z</time></trkpt><trkpt lat="44.5274097" lon="10.6897922"><ele>252.0</ele><time>2026-03-22T12:08:04.287Z</time></trkpt><trkpt lat="44.5273767" lon="10.6896036"><ele>252.0</ele><time>2026-03-22T12:08:05.275Z</time></trkpt><trkpt lat="44.5273527" lon="10.689434"><ele>252.0</ele><time>2026-03-22T12:08:06.267Z</time></trkpt><trkpt lat="44.5273448" lon="10.689289"><ele>251.39999999999998</ele><time>2026-03-22T12:08:07.277Z</time></trkpt><trkpt lat="44.5273596" lon="10.6891642"><ele>250.79999999999998</ele><time>2026-03-22T12:08:08.273Z</time></trkpt><trkpt lat="44.5273977" lon="10.6890496"><ele>250.2</ele><time>2026-03-22T12:08:09.273Z</time></trkpt><trkpt lat="44.527471" lon="10.6889407"><ele>249.6</ele><time>2026-03-22T12:08:10.293Z</time></trkpt><trkpt lat="44.5275733" lon="10.6888163"><ele>249.0</ele><time>2026-03-22T12:08:11.269Z</time></trkpt><trkpt lat="44.527682" lon="10.6887092"><ele>249.0</ele><time>2026-03-22T12:08:12.285Z</time></trkpt><trkpt lat="44.5277953" lon="10.688653"><ele>249.0</ele><time>2026-03-22T12:08:13.284Z</time></trkpt><trkpt lat="44.5279153" lon="10.6886317"><ele>249.0</ele><time>2026-03-22T12:08:14.275Z</time></trkpt><trkpt lat="44.5280567" lon="10.6886248"><ele>249.0</ele><time>2026-03-22T12:08:15.281Z</time></trkpt><trkpt lat="44.5281894" lon="10.6886163"><ele>245.25</ele><time>2026-03-22T12:08:16.278Z</time></trkpt><trkpt lat="44.5283093" lon="10.6885451"><ele>241.5</ele><time>2026-03-22T12:08:17.28Z</time></trkpt><trkpt lat="44.5284305" lon="10.6884624"><ele>237.75</ele><time>2026-03-22T12:08:18.273Z</time></trkpt><trkpt lat="44.5285375" lon="10.6883484"><ele>234.0</ele><time>2026-03-22T12:08:19.281Z</time></trkpt><trkpt lat="44.528642" lon="10.6882123"><ele>231.25</ele><time>2026-03-22T12:08:20.278Z</time></trkpt><trkpt lat="44.5287377" lon="10.6880647"><ele>228.5</ele><time>2026-03-22T12:08:21.29Z</time></trkpt><trkpt lat="44.5288349" lon="10.6879137"><ele>225.75</ele><time>2026-03-22T12:08:22.281Z</time></trkpt><trkpt lat="44.5289284" lon="10.6877679"><ele>223.0</ele><time>2026-03-22T12:08:23.288Z</time></trkpt><trkpt lat="44.529008" lon="10.6876171"><ele>223.0</ele><time>2026-03-22T12:08:24.269Z</time></trkpt><trkpt lat="44.5290958" lon="10.6874832"><ele>223.0</ele><time>2026-03-22T12:08:25.288Z</time></trkpt><trkpt lat="44.5292108" lon="10.6873519"><ele>223.0</ele><time>2026-03-22T12:08:26.285Z</time></trkpt><trkpt lat="44.5293351" lon="10.6872288"><ele>223.0</ele><time>2026-03-22T12:08:27.293Z</time></trkpt><trkpt lat="44.5294544" lon="10.6870904"><ele>219.33333333333331</ele><time>2026-03-22T12:08:28.274Z</time></trkpt><trkpt lat="44.5295739" lon="10.6869588"><ele>215.66666666666669</ele><time>2026-03-22T12:08:29.28Z</time></trkpt><trkpt lat="44.5296807" lon="10.6867969"><ele>212.0</ele><time>2026-03-22T12:08:30.275Z</time></trkpt><trkpt lat="44.5297624" lon="10.6866236"><ele>211.0</ele><time>2026-03-22T12:08:31.288Z</time></trkpt><trkpt lat="44.5298536" lon="10.6864911"><ele>210.0</ele><time>2026-03-22T12:08:32.279Z</time></trkpt><trkpt lat="44.5299487" lon="10.6864007"><ele>209.0</ele><time>2026-03-22T12:08:33.291Z</time></trkpt><trkpt lat="44.5300679" lon="10.6863463"><ele>208.0</ele><time>2026-03-22T12:08:34.28Z</time></trkpt><trkpt lat="44.5302132" lon="10.6863315"><ele>208.0</ele><time>2026-03-22T12:08:35.288Z</time></trkpt><trkpt lat="44.530378" lon="10.6862898"><ele>208.0</ele><time>2026-03-22T12:08:36.279Z</time></trkpt><trkpt lat="44.5305619" lon="10.6862122"><ele>208.0</ele><time>2026-03-22T12:08:37.283Z</time></trkpt><trkpt lat="44.5307441" lon="10.6861179"><ele>202.0</ele><time>2026-03-22T12:08:38.283Z</time></trkpt><trkpt lat="44.5309127" lon="10.6860277"><ele>196.0</ele><time>2026-03-22T12:08:39.287Z</time></trkpt><trkpt lat="44.5310692" lon="10.6859312"><ele>190.0</ele><time>2026-03-22T12:08:40.28Z</time></trkpt><trkpt lat="44.5312006" lon="10.6858266"><ele>188.66666666666669</ele><time>2026-03-22T12:08:41.29Z</time></trkpt><trkpt lat="44.5313298" lon="10.6857014"><ele>187.33333333333334</ele><time>2026-03-22T12:08:42.277Z</time></trkpt><trkpt lat="44.5314029" lon="10.6854936"><ele>186.0</ele><time>2026-03-22T12:08:43.29Z</time></trkpt><trkpt lat="44.5314677" lon="10.6852803"><ele>186.25</ele><time>2026-03-22T12:08:44.277Z</time></trkpt><trkpt lat="44.5315355" lon="10.6850797"><ele>186.5</ele><time>2026-03-22T12:08:45.281Z</time></trkpt><trkpt lat="44.531641" lon="10.6849518"><ele>186.75</ele><time>2026-03-22T12:08:46.294Z</time></trkpt><trkpt lat="44.5317625" lon="10.6848775"><ele>187.0</ele><time>2026-03-22T12:08:47.291Z</time></trkpt><trkpt lat="44.5318906" lon="10.6848248"><ele>187.0</ele><time>2026-03-22T12:08:48.269Z</time></trkpt><trkpt lat="44.5320409" lon="10.6847854"><ele>187.0</ele><time>2026-03-22T12:08:49.29Z</time></trkpt><trkpt lat="44.5322" lon="10.6847374"><ele>187.0</ele><time>2026-03-22T12:08:50.298Z</time></trkpt><trkpt lat="44.5323518" lon="10.6846588"><ele>186.5</ele><time>2026-03-22T12:08:51.289Z</time></trkpt><trkpt lat="44.5324817" lon="10.6845614"><ele>186.0</ele><time>2026-03-22T12:08:52.292Z</time></trkpt><trkpt lat="44.5325978" lon="10.6844533"><ele>185.5</ele><time>2026-03-22T12:08:53.281Z</time></trkpt><trkpt lat="44.532698" lon="10.6843252"><ele>185.0</ele><time>2026-03-22T12:08:54.291Z</time></trkpt><trkpt lat="44.5328063" lon="10.6841942"><ele>186.66666666666666</ele><time>2026-03-22T12:08:55.294Z</time></trkpt><trkpt lat="44.5329222" lon="10.6840664"><ele>188.33333333333334</ele><time>2026-03-22T12:08:56.289Z</time></trkpt><trkpt lat="44.5330629" lon="10.683963"><ele>190.0</ele><time>2026-03-22T12:08:57.295Z</time></trkpt><trkpt lat="44.5332252" lon="10.6838716"><ele>190.0</ele><time>2026-03-22T12:08:58.288Z</time></trkpt><trkpt lat="44.5333936" lon="10.6837676"><ele>190.0</ele><time>2026-03-22T12:08:59.284Z</time></trkpt><trkpt lat="44.5335634" lon="10.6836593"><ele>190.0</ele><time>2026-03-22T12:09:00.283Z</time></trkpt><trkpt lat="44.5337329" lon="10.6835462"><ele>191.0</ele><time>2026-03-22T12:09:01.286Z</time></trkpt><trkpt lat="44.5338999" lon="10.6834307"><ele>192.0</ele><time>2026-03-22T12:09:02.286Z</time></trkpt><trkpt lat="44.5340625" lon="10.6833063"><ele>193.0</ele><time>2026-03-22T12:09:03.271Z</time></trkpt><trkpt lat="44.5342272" lon="10.6831769"><ele>193.0</ele><time>2026-03-22T12:09:04.288Z</time></trkpt><trkpt lat="44.5343982" lon="10.6830322"><ele>193.0</ele><time>2026-03-22T12:09:05.285Z</time></trkpt><trkpt lat="44.5345708" lon="10.6828803"><ele>193.0</ele><time>2026-03-22T12:09:06.29Z</time></trkpt><trkpt lat="44.5347385" lon="10.6827367"><ele>191.66666666666666</ele><time>2026-03-22T12:09:07.293Z</time></trkpt><trkpt lat="44.5348995" lon="10.6826089"><ele>190.33333333333331</ele><time>2026-03-22T12:09:08.273Z</time></trkpt><trkpt lat="44.5350636" lon="10.6825204"><ele>189.0</ele><time>2026-03-22T12:09:09.281Z</time></trkpt><trkpt lat="44.5352317" lon="10.68243"><ele>187.66666666666666</ele><time>2026-03-22T12:09:10.285Z</time></trkpt><trkpt lat="44.535388" lon="10.6823051"><ele>186.33333333333331</ele><time>2026-03-22T12:09:11.293Z</time></trkpt><trkpt lat="44.5355465" lon="10.6821475"><ele>185.0</ele><time>2026-03-22T12:09:12.276Z</time></trkpt><trkpt lat="44.5356869" lon="10.6819836"><ele>188.66666666666666</ele><time>2026-03-22T12:09:13.3Z</time></trkpt><trkpt lat="44.5358233" lon="10.6818465"><ele>192.33333333333331</ele><time>2026-03-22T12:09:14.284Z</time></trkpt><trkpt lat="44.5359589" lon="10.6817308"><ele>196.0</ele><time>2026-03-22T12:09:15.272Z</time></trkpt><trkpt lat="44.5360956" lon="10.6816215"><ele>193.0</ele><time>2026-03-22T12:09:16.291Z</time></trkpt><trkpt lat="44.5362478" lon="10.681539"><ele>190.0</ele><time>2026-03-22T12:09:17.276Z</time></trkpt><trkpt lat="44.5364106" lon="10.6814715"><ele>187.0</ele><time>2026-03-22T12:09:18.286Z</time></trkpt><trkpt lat="44.5365925" lon="10.6814103"><ele>187.0</ele><time>2026-03-22T12:09:19.27Z</time></trkpt><trkpt lat="44.5367896" lon="10.6812931"><ele>187.0</ele><time>2026-03-22T12:09:20.276Z</time></trkpt><trkpt lat="44.5369818" lon="10.6811598"><ele>187.0</ele><time>2026-03-22T12:09:21.286Z</time></trkpt><trkpt lat="44.537157" lon="10.6810417"><ele>189.0</ele><time>2026-03-22T12:09:22.279Z</time></trkpt><trkpt lat="44.5373187" lon="10.6809309"><ele>191.0</ele><time>2026-03-22T12:09:23.283Z</time></trkpt><trkpt lat="44.5374667" lon="10.6808315"><ele>193.0</ele><time>2026-03-22T12:09:24.29Z</time></trkpt><trkpt lat="44.537604" lon="10.6807339"><ele>193.0</ele><time>2026-03-22T12:09:25.288Z</time></trkpt><trkpt lat="44.5377218" lon="10.6806315"><ele>193.0</ele><time>2026-03-22T12:09:26.293Z</time></trkpt><trkpt lat="44.5378177" lon="10.6805161"><ele>193.0</ele><time>2026-03-22T12:09:27.276Z</time></trkpt><trkpt lat="44.537928" lon="10.6803859"><ele>193.0</ele><time>2026-03-22T12:09:28.296Z</time></trkpt><trkpt lat="44.5380544" lon="10.6802528"><ele>195.66666666666666</ele><time>2026-03-22T12:09:29.292Z</time></trkpt><trkpt lat="44.5381968" lon="10.6801314"><ele>198.33333333333331</ele><time>2026-03-22T12:09:30.293Z</time></trkpt><trkpt lat="44.5383339" lon="10.6800205"><ele>201.0</ele><time>2026-03-22T12:09:31.282Z</time></trkpt><trkpt lat="44.5384541" lon="10.6799153"><ele>201.0</ele><time>2026-03-22T12:09:32.286Z</time></trkpt><trkpt lat="44.5385524" lon="10.6798207"><ele>201.0</ele><time>2026-03-22T12:09:33.295Z</time></trkpt><trkpt lat="44.538629" lon="10.679693"><ele>201.0</ele><time>2026-03-22T12:09:34.274Z</time></trkpt><trkpt lat="44.5386629" lon="10.6795473"><ele>201.0</ele><time>2026-03-22T12:09:35.278Z</time></trkpt><trkpt lat="44.5386817" lon="10.6794312"><ele>201.0</ele><time>2026-03-22T12:09:36.274Z</time></trkpt><trkpt lat="44.5387341" lon="10.6793579"><ele>201.0</ele><time>2026-03-22T12:09:37.285Z</time></trkpt><trkpt lat="44.5387959" lon="10.6793229"><ele>201.0</ele><time>2026-03-22T12:09:38.275Z</time></trkpt><trkpt lat="44.5388889" lon="10.6793312"><ele>201.0</ele><time>2026-03-22T12:09:39.289Z</time></trkpt><trkpt lat="44.539018" lon="10.679377"><ele>201.0</ele><time>2026-03-22T12:09:40.29Z</time></trkpt><trkpt lat="44.5391757" lon="10.6794362"><ele>201.0</ele><time>2026-03-22T12:09:41.288Z</time></trkpt><trkpt lat="44.5393276" lon="10.6794926"><ele>201.0</ele><time>2026-03-22T12:09:42.29Z</time></trkpt><trkpt lat="44.5394817" lon="10.6795402"><ele>201.0</ele><time>2026-03-22T12:09:43.29Z</time></trkpt><trkpt lat="44.5396184" lon="10.6795964"><ele>200.0</ele><time>2026-03-22T12:09:44.288Z</time></trkpt><trkpt lat="44.5397516" lon="10.6796243"><ele>199.0</ele><time>2026-03-22T12:09:45.286Z</time></trkpt><trkpt lat="44.5398967" lon="10.6796842"><ele>198.0</ele><time>2026-03-22T12:09:46.289Z</time></trkpt><trkpt lat="44.5400563" lon="10.6797527"><ele>198.0</ele><time>2026-03-22T12:09:47.283Z</time></trkpt><trkpt lat="44.5402197" lon="10.6798098"><ele>198.0</ele><time>2026-03-22T12:09:48.282Z</time></trkpt><trkpt lat="44.5404049" lon="10.6798589"><ele>198.0</ele><time>2026-03-22T12:09:49.292Z</time></trkpt><trkpt lat="44.5405836" lon="10.6799047"><ele>197.0</ele><time>2026-03-22T12:09:50.291Z</time></trkpt><trkpt lat="44.5407461" lon="10.6799578"><ele>196.0</ele><time>2026-03-22T12:09:51.277Z</time></trkpt><trkpt lat="44.5408947" lon="10.6800166"><ele>195.0</ele><time>2026-03-22T12:09:52.287Z</time></trkpt><trkpt lat="44.5410272" lon="10.6800917"><ele>195.0</ele><time>2026-03-22T12:09:53.282Z</time></trkpt><trkpt lat="44.5411552" lon="10.6801969"><ele>195.0</ele><time>2026-03-22T12:09:54.298Z</time></trkpt><trkpt lat="44.5412701" lon="10.6803144"><ele>195.0</ele><time>2026-03-22T12:09:55.29Z</time></trkpt><trkpt lat="44.541377" lon="10.6804246"><ele>195.0</ele><time>2026-03-22T12:09:56.268Z</time></trkpt><trkpt lat="44.5414903" lon="10.680516"><ele>193.75</ele><time>2026-03-22T12:09:57.289Z</time></trkpt><trkpt lat="44.5416056" lon="10.6805662"><ele>192.5</ele><time>2026-03-22T12:09:58.289Z</time></trkpt><trkpt lat="44.5417356" lon="10.6805968"><ele>191.25</ele><time>2026-03-22T12:09:59.294Z</time></trkpt><trkpt lat="44.5418841" lon="10.6805903"><ele>190.0</ele><time>2026-03-22T12:10:00.281Z</time></trkpt><trkpt lat="44.5420398" lon="10.6805719"><ele>188.0</ele><time>2026-03-22T12:10:01.285Z</time></trkpt><trkpt lat="44.5422067" lon="10.6805615"><ele>186.0</ele><time>2026-03-22T12:10:02.292Z</time></trkpt><trkpt lat="44.5423882" lon="10.6805495"><ele>184.0</ele><time>2026-03-22T12:10:03.292Z</time></trkpt><trkpt lat="44.5425849" lon="10.6805117"><ele>184.0</ele><time>2026-03-22T12:10:04.287Z</time></trkpt><trkpt lat="44.5427828" lon="10.6804919"><ele>184.0</ele><time>2026-03-22T12:10:05.277Z</time></trkpt><trkpt lat="44.5429796" lon="10.6804484"><ele>184.0</ele><time>2026-03-22T12:10:06.292Z</time></trkpt><trkpt lat="44.5431681" lon="10.680391"><ele>181.66666666666669</ele><time>2026-03-22T12:10:07.286Z</time></trkpt><trkpt lat="44.543349" lon="10.6803267"><ele>179.33333333333334</ele><time>2026-03-22T12:10:08.287Z</time></trkpt><trkpt lat="44.5435179" lon="10.6802359"><ele>177.0</ele><time>2026-03-22T12:10:09.284Z</time></trkpt><trkpt lat="44.5436693" lon="10.6801103"><ele>174.66666666666666</ele><time>2026-03-22T12:10:10.28Z</time></trkpt><trkpt lat="44.5437981" lon="10.6799617"><ele>172.33333333333331</ele><time>2026-03-22T12:10:11.29Z</time></trkpt><trkpt lat="44.5439113" lon="10.6798148"><ele>170.0</ele><time>2026-03-22T12:10:12.286Z</time></trkpt><trkpt lat="44.5440172" lon="10.6796604"><ele>170.0</ele><time>2026-03-22T12:10:13.29Z</time></trkpt><trkpt lat="44.5441012" lon="10.6794951"><ele>170.0</ele><time>2026-03-22T12:10:14.292Z</time></trkpt><trkpt lat="44.5441588" lon="10.6792928"><ele>170.0</ele><time>2026-03-22T12:10:15.294Z</time></trkpt><trkpt lat="44.5441923" lon="10.679081"><ele>170.33333333333331</ele><time>2026-03-22T12:10:16.274Z</time></trkpt><trkpt lat="44.5442375" lon="10.6788693"><ele>170.66666666666666</ele><time>2026-03-22T12:10:17.285Z</time></trkpt><trkpt lat="44.5443145" lon="10.6786883"><ele>171.0</ele><time>2026-03-22T12:10:18.287Z</time></trkpt><trkpt lat="44.5444159" lon="10.6785359"><ele>171.0</ele><time>2026-03-22T12:10:19.288Z</time></trkpt><trkpt lat="44.5445317" lon="10.6784021"><ele>171.0</ele><time>2026-03-22T12:10:20.283Z</time></trkpt><trkpt lat="44.5446624" lon="10.6782789"><ele>171.0</ele><time>2026-03-22T12:10:21.292Z</time></trkpt><trkpt lat="44.5448234" lon="10.6781842"><ele>169.66666666666666</ele><time>2026-03-22T12:10:22.284Z</time></trkpt><trkpt lat="44.5449977" lon="10.6780961"><ele>168.33333333333331</ele><time>2026-03-22T12:10:23.278Z</time></trkpt><trkpt lat="44.5451805" lon="10.6780251"><ele>167.0</ele><time>2026-03-22T12:10:24.282Z</time></trkpt><trkpt lat="44.5453578" lon="10.677939"><ele>166.33333333333331</ele><time>2026-03-22T12:10:25.287Z</time></trkpt><trkpt lat="44.5455335" lon="10.677833"><ele>165.66666666666666</ele><time>2026-03-22T12:10:26.28Z</time></trkpt><trkpt lat="44.545713" lon="10.6777076"><ele>165.0</ele><time>2026-03-22T12:10:27.286Z</time></trkpt><trkpt lat="44.5458858" lon="10.6775722"><ele>165.0</ele><time>2026-03-22T12:10:28.287Z</time></trkpt><trkpt lat="44.5460511" lon="10.6774594"><ele>165.0</ele><time>2026-03-22T12:10:29.28Z</time></trkpt><trkpt lat="44.5462172" lon="10.6773635"><ele>165.0</ele><time>2026-03-22T12:10:30.279Z</time></trkpt><trkpt lat="44.5463848" lon="10.6772737"><ele>164.0</ele><time>2026-03-22T12:10:31.286Z</time></trkpt><trkpt lat="44.5465393" lon="10.6771327"><ele>163.0</ele><time>2026-03-22T12:10:32.275Z</time></trkpt><trkpt lat="44.5466819" lon="10.6769332"><ele>162.0</ele><time>2026-03-22T12:10:33.284Z</time></trkpt><trkpt lat="44.5468331" lon="10.6767098"><ele>161.0</ele><time>2026-03-22T12:10:34.283Z</time></trkpt><trkpt lat="44.5469896" lon="10.6764588"><ele>160.0</ele><time>2026-03-22T12:10:35.271Z</time></trkpt><trkpt lat="44.5471588" lon="10.6762007"><ele>157.0</ele><time>2026-03-22T12:10:36.285Z</time></trkpt><trkpt lat="44.5473361" lon="10.6759402"><ele>154.0</ele><time>2026-03-22T12:10:37.282Z</time></trkpt><trkpt lat="44.5475155" lon="10.6756657"><ele>154.0</ele><time>2026-03-22T12:10:38.285Z</time></trkpt><trkpt lat="44.5477009" lon="10.6753875"><ele>154.0</ele><time>2026-03-22T12:10:39.29Z</time></trkpt><trkpt lat="44.5478894" lon="10.6750967"><ele>155.0</ele><time>2026-03-22T12:10:40.279Z</time></trkpt><trkpt lat="44.5480784" lon="10.6748055"><ele>156.0</ele><time>2026-03-22T12:10:41.291Z</time></trkpt><trkpt lat="44.5482734" lon="10.6745173"><ele>155.5</ele><time>2026-03-22T12:10:42.284Z</time></trkpt><trkpt lat="44.5484732" lon="10.6742333"><ele>155.0</ele><time>2026-03-22T12:10:43.278Z</time></trkpt><trkpt lat="44.5486694" lon="10.6739396"><ele>155.0</ele><time>2026-03-22T12:10:44.283Z</time></trkpt><trkpt lat="44.5488661" lon="10.6736434"><ele>155.0</ele><time>2026-03-22T12:10:45.295Z</time></trkpt><trkpt lat="44.5490615" lon="10.6733482"><ele>155.0</ele><time>2026-03-22T12:10:46.292Z</time></trkpt><trkpt lat="44.5492508" lon="10.6730551"><ele>155.0</ele><time>2026-03-22T12:10:47.281Z</time></trkpt><trkpt lat="44.5494327" lon="10.6727714"><ele>157.0</ele><time>2026-03-22T12:10:48.284Z</time></trkpt><trkpt lat="44.5496025" lon="10.6724982"><ele>159.0</ele><time>2026-03-22T12:10:49.283Z</time></trkpt><trkpt lat="44.5497525" lon="10.6722199"><ele>158.0</ele><time>2026-03-22T12:10:50.286Z</time></trkpt><trkpt lat="44.5498879" lon="10.6719181"><ele>157.0</ele><time>2026-03-22T12:10:51.278Z</time></trkpt><trkpt lat="44.5500218" lon="10.6716078"><ele>157.0</ele><time>2026-03-22T12:10:52.284Z</time></trkpt><trkpt lat="44.5501606" lon="10.6712966"><ele>157.0</ele><time>2026-03-22T12:10:53.285Z</time></trkpt><trkpt lat="44.5503011" lon="10.6709814"><ele>157.0</ele><time>2026-03-22T12:10:54.295Z</time></trkpt><trkpt lat="44.5504446" lon="10.6706639"><ele>157.0</ele><time>2026-03-22T12:10:55.291Z</time></trkpt><trkpt lat="44.5505967" lon="10.6703496"><ele>157.0</ele><time>2026-03-22T12:10:56.29Z</time></trkpt><trkpt lat="44.5507396" lon="10.6700419"><ele>157.0</ele><time>2026-03-22T12:10:57.29Z</time></trkpt><trkpt lat="44.5508804" lon="10.669742"><ele>155.5</ele><time>2026-03-22T12:10:58.298Z</time></trkpt><trkpt lat="44.5510231" lon="10.6694377"><ele>154.0</ele><time>2026-03-22T12:10:59.291Z</time></trkpt><trkpt lat="44.5511694" lon="10.6691335"><ele>154.5</ele><time>2026-03-22T12:11:00.278Z</time></trkpt><trkpt lat="44.5513178" lon="10.6688236"><ele>155.0</ele><time>2026-03-22T12:11:01.294Z</time></trkpt><trkpt lat="44.5514632" lon="10.6685155"><ele>155.0</ele><time>2026-03-22T12:11:02.276Z</time></trkpt><trkpt lat="44.5516111" lon="10.6682086"><ele>155.0</ele><time>2026-03-22T12:11:03.29Z</time></trkpt><trkpt lat="44.5517576" lon="10.6679173"><ele>154.5</ele><time>2026-03-22T12:11:04.295Z</time></trkpt><trkpt lat="44.5518954" lon="10.6676374"><ele>154.0</ele><time>2026-03-22T12:11:05.282Z</time></trkpt><trkpt lat="44.5520249" lon="10.667369"><ele>154.0</ele><time>2026-03-22T12:11:06.284Z</time></trkpt><trkpt lat="44.5521545" lon="10.6670976"><ele>154.0</ele><time>2026-03-22T12:11:07.302Z</time></trkpt><trkpt lat="44.5522803" lon="10.6668453"><ele>153.66666666666669</ele><time>2026-03-22T12:11:08.281Z</time></trkpt><trkpt lat="44.552395" lon="10.6666013"><ele>153.33333333333334</ele><time>2026-03-22T12:11:09.274Z</time></trkpt><trkpt lat="44.5524908" lon="10.6663762"><ele>153.0</ele><time>2026-03-22T12:11:10.297Z</time></trkpt><trkpt lat="44.5525762" lon="10.6661398"><ele>152.33333333333334</ele><time>2026-03-22T12:11:11.271Z</time></trkpt><trkpt lat="44.5526278" lon="10.6659039"><ele>151.66666666666669</ele><time>2026-03-22T12:11:12.285Z</time></trkpt><trkpt lat="44.5526476" lon="10.6656618"><ele>151.0</ele><time>2026-03-22T12:11:13.288Z</time></trkpt><trkpt lat="44.5526419" lon="10.6654006"><ele>150.33333333333334</ele><time>2026-03-22T12:11:14.285Z</time></trkpt><trkpt lat="44.55262" lon="10.6651235"><ele>149.66666666666666</ele><time>2026-03-22T12:11:15.278Z</time></trkpt><trkpt lat="44.5525761" lon="10.6648319"><ele>149.0</ele><time>2026-03-22T12:11:16.285Z</time></trkpt><trkpt lat="44.5525329" lon="10.6645394"><ele>149.0</ele><time>2026-03-22T12:11:17.292Z</time></trkpt><trkpt lat="44.5524826" lon="10.6642581"><ele>149.0</ele><time>2026-03-22T12:11:18.288Z</time></trkpt><trkpt lat="44.5524158" lon="10.6639899"><ele>149.0</ele><time>2026-03-22T12:11:19.279Z</time></trkpt><trkpt lat="44.5523311" lon="10.6637432"><ele>148.66666666666666</ele><time>2026-03-22T12:11:20.288Z</time></trkpt><trkpt lat="44.5522314" lon="10.6635284"><ele>148.33333333333334</ele><time>2026-03-22T12:11:21.29Z</time></trkpt><trkpt lat="44.5521297" lon="10.663323"><ele>148.0</ele><time>2026-03-22T12:11:22.292Z</time></trkpt><trkpt lat="44.5520191" lon="10.6631258"><ele>148.0</ele><time>2026-03-22T12:11:23.291Z</time></trkpt><trkpt lat="44.5519041" lon="10.6629362"><ele>148.0</ele><time>2026-03-22T12:11:24.266Z</time></trkpt><trkpt lat="44.5517889" lon="10.6627625"><ele>148.0</ele><time>2026-03-22T12:11:25.298Z</time></trkpt><trkpt lat="44.5516866" lon="10.6625934"><ele>147.83333333333334</ele><time>2026-03-22T12:11:26.275Z</time></trkpt><trkpt lat="44.5516081" lon="10.6624474"><ele>147.66666666666669</ele><time>2026-03-22T12:11:27.276Z</time></trkpt><trkpt lat="44.5515436" lon="10.662332"><ele>147.5</ele><time>2026-03-22T12:11:28.285Z</time></trkpt><trkpt lat="44.5514761" lon="10.6622886"><ele>147.33333333333334</ele><time>2026-03-22T12:11:29.28Z</time></trkpt><trkpt lat="44.5514065" lon="10.6623052"><ele>147.16666666666666</ele><time>2026-03-22T12:11:30.286Z</time></trkpt><trkpt lat="44.5513485" lon="10.6623512"><ele>147.0</ele><time>2026-03-22T12:11:31.298Z</time></trkpt><trkpt lat="44.551328" lon="10.6624629"><ele>147.0</ele><time>2026-03-22T12:11:32.297Z</time></trkpt><trkpt lat="44.551358" lon="10.6625932"><ele>147.0</ele><time>2026-03-22T12:11:33.285Z</time></trkpt><trkpt lat="44.5513889" lon="10.6627199"><ele>147.0</ele><time>2026-03-22T12:11:34.277Z</time></trkpt><trkpt lat="44.5514181" lon="10.6628345"><ele>147.0</ele><time>2026-03-22T12:11:35.278Z</time></trkpt><trkpt lat="44.5513965" lon="10.6629596"><ele>147.0</ele><time>2026-03-22T12:11:36.289Z</time></trkpt><trkpt lat="44.5513503" lon="10.6630858"><ele>147.33333333333334</ele><time>2026-03-22T12:11:37.282Z</time></trkpt><trkpt lat="44.55126" lon="10.6632421"><ele>147.66666666666669</ele><time>2026-03-22T12:11:38.283Z</time></trkpt><trkpt lat="44.5511792" lon="10.6634332"><ele>148.0</ele><time>2026-03-22T12:11:39.289Z</time></trkpt><trkpt lat="44.551068" lon="10.6636383"><ele>148.33333333333334</ele><time>2026-03-22T12:11:40.281Z</time></trkpt><trkpt lat="44.5509497" lon="10.6638531"><ele>148.66666666666666</ele><time>2026-03-22T12:11:41.269Z</time></trkpt><trkpt lat="44.5508075" lon="10.664102"><ele>149.0</ele><time>2026-03-22T12:11:42.279Z</time></trkpt><trkpt lat="44.5506541" lon="10.6643696"><ele>149.5</ele><time>2026-03-22T12:11:43.275Z</time></trkpt><trkpt lat="44.5504886" lon="10.6646501"><ele>150.0</ele><time>2026-03-22T12:11:44.281Z</time></trkpt><trkpt lat="44.5503274" lon="10.6649478"><ele>150.5</ele><time>2026-03-22T12:11:45.278Z</time></trkpt><trkpt lat="44.5501695" lon="10.6652628"><ele>151.0</ele><time>2026-03-22T12:11:46.275Z</time></trkpt><trkpt lat="44.5500184" lon="10.6656045"><ele>151.0</ele><time>2026-03-22T12:11:47.279Z</time></trkpt><trkpt lat="44.5498551" lon="10.6659478"><ele>151.0</ele><time>2026-03-22T12:11:48.282Z</time></trkpt><trkpt lat="44.5496967" lon="10.6663089"><ele>150.0</ele><time>2026-03-22T12:11:49.278Z</time></trkpt><trkpt lat="44.5495326" lon="10.6666739"><ele>149.0</ele><time>2026-03-22T12:11:50.281Z</time></trkpt><trkpt lat="44.5493682" lon="10.667033"><ele>149.0</ele><time>2026-03-22T12:11:51.291Z</time></trkpt><trkpt lat="44.5492025" lon="10.6673924"><ele>149.0</ele><time>2026-03-22T12:11:52.296Z</time></trkpt><trkpt lat="44.5490375" lon="10.6677561"><ele>149.0</ele><time>2026-03-22T12:11:53.286Z</time></trkpt><trkpt lat="44.548876" lon="10.668113"><ele>149.0</ele><time>2026-03-22T12:11:54.291Z</time></trkpt><trkpt lat="44.5487247" lon="10.6684613"><ele>151.0</ele><time>2026-03-22T12:11:55.281Z</time></trkpt><trkpt lat="44.5485806" lon="10.66879"><ele>153.0</ele><time>2026-03-22T12:11:56.276Z</time></trkpt><trkpt lat="44.5484442" lon="10.6691052"><ele>153.0</ele><time>2026-03-22T12:11:57.28Z</time></trkpt><trkpt lat="44.5483113" lon="10.6693963"><ele>153.0</ele><time>2026-03-22T12:11:58.281Z</time></trkpt><trkpt lat="44.5481855" lon="10.6696676"><ele>153.33333333333334</ele><time>2026-03-22T12:11:59.283Z</time></trkpt><trkpt lat="44.5480664" lon="10.6699148"><ele>153.66666666666669</ele><time>2026-03-22T12:12:00.275Z</time></trkpt><trkpt lat="44.5479402" lon="10.670132"><ele>154.0</ele><time>2026-03-22T12:12:01.293Z</time></trkpt><trkpt lat="44.5477925" lon="10.6703255"><ele>154.0</ele><time>2026-03-22T12:12:02.285Z</time></trkpt><trkpt lat="44.5476216" lon="10.6704973"><ele>154.0</ele><time>2026-03-22T12:12:03.281Z</time></trkpt><trkpt lat="44.5474357" lon="10.6706636"><ele>154.0</ele><time>2026-03-22T12:12:04.28Z</time></trkpt><trkpt lat="44.5472455" lon="10.6708157"><ele>154.0</ele><time>2026-03-22T12:12:05.289Z</time></trkpt><trkpt lat="44.5470592" lon="10.6709683"><ele>154.0</ele><time>2026-03-22T12:12:06.295Z</time></trkpt><trkpt lat="44.5468737" lon="10.6711022"><ele>154.0</ele><time>2026-03-22T12:12:07.286Z</time></trkpt><trkpt lat="44.5466836" lon="10.6712041"><ele>154.0</ele><time>2026-03-22T12:12:08.291Z</time></trkpt><trkpt lat="44.5464768" lon="10.6712648"><ele>154.0</ele><time>2026-03-22T12:12:09.29Z</time></trkpt><trkpt lat="44.5462625" lon="10.6713117"><ele>154.0</ele><time>2026-03-22T12:12:10.275Z</time></trkpt><trkpt lat="44.5460395" lon="10.6713439"><ele>155.5</ele><time>2026-03-22T12:12:11.282Z</time></trkpt><trkpt lat="44.5458043" lon="10.6713784"><ele>157.0</ele><time>2026-03-22T12:12:12.289Z</time></trkpt><trkpt lat="44.5455567" lon="10.6714224"><ele>157.5</ele><time>2026-03-22T12:12:13.285Z</time></trkpt><trkpt lat="44.5452992" lon="10.6714678"><ele>158.0</ele><time>2026-03-22T12:12:14.283Z</time></trkpt><trkpt lat="44.5450373" lon="10.6715154"><ele>158.0</ele><time>2026-03-22T12:12:15.288Z</time></trkpt><trkpt lat="44.5447774" lon="10.6715666"><ele>158.0</ele><time>2026-03-22T12:12:16.295Z</time></trkpt><trkpt lat="44.5445113" lon="10.6716081"><ele>159.0</ele><time>2026-03-22T12:12:17.276Z</time></trkpt><trkpt lat="44.54426" lon="10.6716536"><ele>160.0</ele><time>2026-03-22T12:12:18.292Z</time></trkpt><trkpt lat="44.5440221" lon="10.6716902"><ele>160.0</ele><time>2026-03-22T12:12:19.291Z</time></trkpt><trkpt lat="44.5437986" lon="10.6717272"><ele>160.0</ele><time>2026-03-22T12:12:20.275Z</time></trkpt><trkpt lat="44.5435941" lon="10.6717492"><ele>160.0</ele><time>2026-03-22T12:12:21.281Z</time></trkpt><trkpt lat="44.5434215" lon="10.67175"><ele>161.0</ele><time>2026-03-22T12:12:22.289Z</time></trkpt><trkpt lat="44.54325" lon="10.671714"><ele>162.0</ele><time>2026-03-22T12:12:23.282Z</time></trkpt><trkpt lat="44.5430727" lon="10.6716243"><ele>163.0</ele><time>2026-03-22T12:12:24.29Z</time></trkpt><trkpt lat="44.5428976" lon="10.6715025"><ele>162.33333333333334</ele><time>2026-03-22T12:12:25.279Z</time></trkpt><trkpt lat="44.5427206" lon="10.6713537"><ele>161.66666666666666</ele><time>2026-03-22T12:12:26.274Z</time></trkpt><trkpt lat="44.5425352" lon="10.671198"><ele>161.0</ele><time>2026-03-22T12:12:27.288Z</time></trkpt><trkpt lat="44.5423372" lon="10.6710333"><ele>162.0</ele><time>2026-03-22T12:12:28.289Z</time></trkpt><trkpt lat="44.5421328" lon="10.6708695"><ele>163.0</ele><time>2026-03-22T12:12:29.29Z</time></trkpt><trkpt lat="44.5419318" lon="10.6707019"><ele>163.0</ele><time>2026-03-22T12:12:30.273Z</time></trkpt><trkpt lat="44.5417281" lon="10.6705386"><ele>163.0</ele><time>2026-03-22T12:12:31.288Z</time></trkpt><trkpt lat="44.5415255" lon="10.6703855"><ele>164.33333333333334</ele><time>2026-03-22T12:12:32.287Z</time></trkpt><trkpt lat="44.5413511" lon="10.6702402"><ele>165.66666666666666</ele><time>2026-03-22T12:12:33.272Z</time></trkpt><trkpt lat="44.5412048" lon="10.6701103"><ele>167.0</ele><time>2026-03-22T12:12:34.287Z</time></trkpt><trkpt lat="44.5410929" lon="10.6699701"><ele>167.0</ele><time>2026-03-22T12:12:35.291Z</time></trkpt><trkpt lat="44.541005" lon="10.6698002"><ele>167.0</ele><time>2026-03-22T12:12:36.285Z</time></trkpt><trkpt lat="44.5409334" lon="10.669602"><ele>167.0</ele><time>2026-03-22T12:12:37.29Z</time></trkpt><trkpt lat="44.5408705" lon="10.6693848"><ele>168.66666666666666</ele><time>2026-03-22T12:12:38.291Z</time></trkpt><trkpt lat="44.5408174" lon="10.6691487"><ele>170.33333333333334</ele><time>2026-03-22T12:12:39.279Z</time></trkpt><trkpt lat="44.5407704" lon="10.6688978"><ele>172.0</ele><time>2026-03-22T12:12:40.283Z</time></trkpt><trkpt lat="44.5407307" lon="10.6686342"><ele>172.33333333333334</ele><time>2026-03-22T12:12:41.284Z</time></trkpt><trkpt lat="44.540696" lon="10.6683535"><ele>172.66666666666666</ele><time>2026-03-22T12:12:42.289Z</time></trkpt><trkpt lat="44.540655" lon="10.6680657"><ele>173.0</ele><time>2026-03-22T12:12:43.275Z</time></trkpt><trkpt lat="44.5406085" lon="10.6677666"><ele>174.0</ele><time>2026-03-22T12:12:44.293Z</time></trkpt><trkpt lat="44.5405591" lon="10.6674596"><ele>175.0</ele><time>2026-03-22T12:12:45.272Z</time></trkpt><trkpt lat="44.5405105" lon="10.6671462"><ele>174.33333333333334</ele><time>2026-03-22T12:12:46.288Z</time></trkpt><trkpt lat="44.5404637" lon="10.6668309"><ele>173.66666666666666</ele><time>2026-03-22T12:12:47.286Z</time></trkpt><trkpt lat="44.5404199" lon="10.6665286"><ele>173.0</ele><time>2026-03-22T12:12:48.266Z</time></trkpt><trkpt lat="44.5403821" lon="10.6662373"><ele>174.0</ele><time>2026-03-22T12:12:49.276Z</time></trkpt><trkpt lat="44.5403482" lon="10.6659662"><ele>175.0</ele><time>2026-03-22T12:12:50.272Z</time></trkpt><trkpt lat="44.5403059" lon="10.6657103"><ele>176.0</ele><time>2026-03-22T12:12:51.276Z</time></trkpt><trkpt lat="44.5402528" lon="10.6654594"><ele>176.0</ele><time>2026-03-22T12:12:52.299Z</time></trkpt><trkpt lat="44.5401914" lon="10.665225"><ele>176.0</ele><time>2026-03-22T12:12:53.287Z</time></trkpt><trkpt lat="44.5401273" lon="10.6649869"><ele>176.0</ele><time>2026-03-22T12:12:54.288Z</time></trkpt><trkpt lat="44.5400584" lon="10.6647402"><ele>176.0</ele><time>2026-03-22T12:12:55.291Z</time></trkpt><trkpt lat="44.539977" lon="10.6644831"><ele>176.0</ele><time>2026-03-22T12:12:56.283Z</time></trkpt><trkpt lat="44.5398809" lon="10.6642326"><ele>176.0</ele><time>2026-03-22T12:12:57.292Z</time></trkpt><trkpt lat="44.539782" lon="10.6639868"><ele>176.66666666666666</ele><time>2026-03-22T12:12:58.281Z</time></trkpt><trkpt lat="44.5396868" lon="10.6637499"><ele>177.33333333333334</ele><time>2026-03-22T12:12:59.273Z</time></trkpt><trkpt lat="44.5396016" lon="10.6634977"><ele>178.0</ele><time>2026-03-22T12:13:00.292Z</time></trkpt><trkpt lat="44.5395314" lon="10.6632315"><ele>176.33333333333334</ele><time>2026-03-22T12:13:01.28Z</time></trkpt><trkpt lat="44.5394643" lon="10.6629647"><ele>174.66666666666666</ele><time>2026-03-22T12:13:02.289Z</time></trkpt><trkpt lat="44.5394084" lon="10.6626819"><ele>173.0</ele><time>2026-03-22T12:13:03.274Z</time></trkpt><trkpt lat="44.5393616" lon="10.6623872"><ele>173.0</ele><time>2026-03-22T12:13:04.295Z</time></trkpt><trkpt lat="44.5393345" lon="10.6620891"><ele>173.0</ele><time>2026-03-22T12:13:05.272Z</time></trkpt><trkpt lat="44.5393254" lon="10.6617791"><ele>173.0</ele><time>2026-03-22T12:13:06.291Z</time></trkpt><trkpt lat="44.5393211" lon="10.6614762"><ele>173.33333333333331</ele><time>2026-03-22T12:13:07.292Z</time></trkpt><trkpt lat="44.5393122" lon="10.6611853"><ele>173.66666666666666</ele><time>2026-03-22T12:13:08.297Z</time></trkpt><trkpt lat="44.53929" lon="10.6609149"><ele>174.0</ele><time>2026-03-22T12:13:09.282Z</time></trkpt><trkpt lat="44.5392557" lon="10.6606484"><ele>174.66666666666666</ele><time>2026-03-22T12:13:10.291Z</time></trkpt><trkpt lat="44.5392101" lon="10.6603976"><ele>175.33333333333331</ele><time>2026-03-22T12:13:11.283Z</time></trkpt><trkpt lat="44.5391718" lon="10.6601551"><ele>176.0</ele><time>2026-03-22T12:13:12.292Z</time></trkpt><trkpt lat="44.5391451" lon="10.6599247"><ele>176.33333333333331</ele><time>2026-03-22T12:13:13.289Z</time></trkpt><trkpt lat="44.539144" lon="10.6596985"><ele>176.66666666666666</ele><time>2026-03-22T12:13:14.294Z</time></trkpt><trkpt lat="44.5391707" lon="10.6594717"><ele>177.0</ele><time>2026-03-22T12:13:15.287Z</time></trkpt><trkpt lat="44.5392175" lon="10.6592548"><ele>177.25</ele><time>2026-03-22T12:13:16.288Z</time></trkpt><trkpt lat="44.5392623" lon="10.6590553"><ele>177.5</ele><time>2026-03-22T12:13:17.291Z</time></trkpt><trkpt lat="44.5393071" lon="10.6588818"><ele>177.75</ele><time>2026-03-22T12:13:18.294Z</time></trkpt><trkpt lat="44.5393592" lon="10.6587268"><ele>178.0</ele><time>2026-03-22T12:13:19.283Z</time></trkpt><trkpt lat="44.5394277" lon="10.6585677"><ele>178.75</ele><time>2026-03-22T12:13:20.282Z</time></trkpt><trkpt lat="44.5395068" lon="10.6584028"><ele>179.5</ele><time>2026-03-22T12:13:21.29Z</time></trkpt><trkpt lat="44.5395964" lon="10.6582346"><ele>180.25</ele><time>2026-03-22T12:13:22.289Z</time></trkpt><trkpt lat="44.5396957" lon="10.6580721"><ele>181.0</ele><time>2026-03-22T12:13:23.283Z</time></trkpt><trkpt lat="44.5398127" lon="10.6579166"><ele>182.0</ele><time>2026-03-22T12:13:24.286Z</time></trkpt><trkpt lat="44.5399386" lon="10.6577745"><ele>183.0</ele><time>2026-03-22T12:13:25.289Z</time></trkpt><trkpt lat="44.5400742" lon="10.6576418"><ele>184.0</ele><time>2026-03-22T12:13:26.277Z</time></trkpt><trkpt lat="44.5402205" lon="10.6575124"><ele>184.0</ele><time>2026-03-22T12:13:27.281Z</time></trkpt><trkpt lat="44.5403561" lon="10.6573532"><ele>184.0</ele><time>2026-03-22T12:13:28.293Z</time></trkpt><trkpt lat="44.5404713" lon="10.6571692"><ele>184.0</ele><time>2026-03-22T12:13:29.291Z</time></trkpt><trkpt lat="44.5405651" lon="10.6569517"><ele>186.0</ele><time>2026-03-22T12:13:30.279Z</time></trkpt><trkpt lat="44.5406362" lon="10.6567091"><ele>188.0</ele><time>2026-03-22T12:13:31.281Z</time></trkpt><trkpt lat="44.5406975" lon="10.6564521"><ele>190.0</ele><time>2026-03-22T12:13:32.276Z</time></trkpt><trkpt lat="44.5407581" lon="10.6561869"><ele>188.66666666666669</ele><time>2026-03-22T12:13:33.283Z</time></trkpt><trkpt lat="44.540822" lon="10.6559248"><ele>187.33333333333334</ele><time>2026-03-22T12:13:34.287Z</time></trkpt><trkpt lat="44.5408834" lon="10.6556729"><ele>186.0</ele><time>2026-03-22T12:13:35.269Z</time></trkpt><trkpt lat="44.5409453" lon="10.6554114"><ele>185.66666666666666</ele><time>2026-03-22T12:13:36.29Z</time></trkpt><trkpt lat="44.5410149" lon="10.6551492"><ele>185.33333333333331</ele><time>2026-03-22T12:13:37.268Z</time></trkpt><trkpt lat="44.5410966" lon="10.654881"><ele>185.0</ele><time>2026-03-22T12:13:38.291Z</time></trkpt><trkpt lat="44.5411853" lon="10.6546081"><ele>188.5</ele><time>2026-03-22T12:13:39.273Z</time></trkpt><trkpt lat="44.5412674" lon="10.6543117"><ele>192.0</ele><time>2026-03-22T12:13:40.3Z</time></trkpt><trkpt lat="44.5413332" lon="10.6540024"><ele>192.0</ele><time>2026-03-22T12:13:41.288Z</time></trkpt><trkpt lat="44.541381" lon="10.6536867"><ele>192.0</ele><time>2026-03-22T12:13:42.287Z</time></trkpt><trkpt lat="44.5414179" lon="10.653369"><ele>191.33333333333334</ele><time>2026-03-22T12:13:43.292Z</time></trkpt><trkpt lat="44.5414557" lon="10.6530624"><ele>190.66666666666669</ele><time>2026-03-22T12:13:44.277Z</time></trkpt><trkpt lat="44.541508" lon="10.6527623"><ele>190.0</ele><time>2026-03-22T12:13:45.286Z</time></trkpt><trkpt lat="44.5415752" lon="10.6524774"><ele>189.0</ele><time>2026-03-22T12:13:46.274Z</time></trkpt><trkpt lat="44.541638" lon="10.6521842"><ele>188.0</ele><time>2026-03-22T12:13:47.283Z</time></trkpt><trkpt lat="44.5416964" lon="10.6518993"><ele>187.0</ele><time>2026-03-22T12:13:48.279Z</time></trkpt><trkpt lat="44.5417545" lon="10.6516343"><ele>187.0</ele><time>2026-03-22T12:13:49.293Z</time></trkpt><trkpt lat="44.541814" lon="10.6513999"><ele>187.0</ele><time>2026-03-22T12:13:50.293Z</time></trkpt><trkpt lat="44.5418774" lon="10.6512073"><ele>187.0</ele><time>2026-03-22T12:13:51.291Z</time></trkpt><trkpt lat="44.5419425" lon="10.6510563"><ele>187.39999999999998</ele><time>2026-03-22T12:13:52.291Z</time></trkpt><trkpt lat="44.542019" lon="10.6509526"><ele>187.79999999999998</ele><time>2026-03-22T12:13:53.286Z</time></trkpt><trkpt lat="44.5421148" lon="10.6509013"><ele>188.2</ele><time>2026-03-22T12:13:54.279Z</time></trkpt><trkpt lat="44.5422228" lon="10.6508976"><ele>188.6</ele><time>2026-03-22T12:13:55.297Z</time></trkpt><trkpt lat="44.5423351" lon="10.6508946"><ele>189.0</ele><time>2026-03-22T12:13:56.3Z</time></trkpt><trkpt lat="44.5424482" lon="10.6508352"><ele>191.33333333333331</ele><time>2026-03-22T12:13:57.291Z</time></trkpt><trkpt lat="44.5425645" lon="10.6507107"><ele>193.66666666666666</ele><time>2026-03-22T12:13:58.294Z</time></trkpt><trkpt lat="44.5426774" lon="10.6505361"><ele>196.0</ele><time>2026-03-22T12:13:59.287Z</time></trkpt><trkpt lat="44.5427879" lon="10.6503438"><ele>197.0</ele><time>2026-03-22T12:14:00.277Z</time></trkpt><trkpt lat="44.5428986" lon="10.6501449"><ele>198.0</ele><time>2026-03-22T12:14:01.294Z</time></trkpt><trkpt lat="44.5430103" lon="10.6499462"><ele>199.0</ele><time>2026-03-22T12:14:02.289Z</time></trkpt><trkpt lat="44.5431214" lon="10.6497348"><ele>199.0</ele><time>2026-03-22T12:14:03.278Z</time></trkpt><trkpt lat="44.5432252" lon="10.6495025"><ele>199.0</ele><time>2026-03-22T12:14:04.281Z</time></trkpt><trkpt lat="44.5433201" lon="10.6492541"><ele>199.0</ele><time>2026-03-22T12:14:05.286Z</time></trkpt><trkpt lat="44.543405" lon="10.6490041"><ele>198.33333333333331</ele><time>2026-03-22T12:14:06.287Z</time></trkpt><trkpt lat="44.5434752" lon="10.6487665"><ele>197.66666666666669</ele><time>2026-03-22T12:14:07.285Z</time></trkpt><trkpt lat="44.5435325" lon="10.6485428"><ele>197.0</ele><time>2026-03-22T12:14:08.288Z</time></trkpt><trkpt lat="44.5435706" lon="10.6483464"><ele>197.0</ele><time>2026-03-22T12:14:09.279Z</time></trkpt><trkpt lat="44.5436018" lon="10.6481831"><ele>197.0</ele><time>2026-03-22T12:14:10.281Z</time></trkpt><trkpt lat="44.5436319" lon="10.6480497"><ele>197.0</ele><time>2026-03-22T12:14:11.272Z</time></trkpt><trkpt lat="44.5436642" lon="10.6479165"><ele>197.0</ele><time>2026-03-22T12:14:12.288Z</time></trkpt><trkpt lat="44.5436989" lon="10.6477638"><ele>197.0</ele><time>2026-03-22T12:14:13.287Z</time></trkpt><trkpt lat="44.5437481" lon="10.6475867"><ele>197.66666666666669</ele><time>2026-03-22T12:14:14.284Z</time></trkpt><trkpt lat="44.5438044" lon="10.6473831"><ele>198.33333333333331</ele><time>2026-03-22T12:14:15.289Z</time></trkpt><trkpt lat="44.5438669" lon="10.6471543"><ele>199.0</ele><time>2026-03-22T12:14:16.292Z</time></trkpt><trkpt lat="44.5439444" lon="10.6468995"><ele>199.0</ele><time>2026-03-22T12:14:17.283Z</time></trkpt><trkpt lat="44.5440381" lon="10.6466344"><ele>199.0</ele><time>2026-03-22T12:14:18.291Z</time></trkpt><trkpt lat="44.5441423" lon="10.6463701"><ele>199.0</ele><time>2026-03-22T12:14:19.281Z</time></trkpt><trkpt lat="44.5442453" lon="10.6460938"><ele>198.0</ele><time>2026-03-22T12:14:20.297Z</time></trkpt><trkpt lat="44.5443154" lon="10.6457876"><ele>197.0</ele><time>2026-03-22T12:14:21.28Z</time></trkpt><trkpt lat="44.5443773" lon="10.6454694"><ele>197.0</ele><time>2026-03-22T12:14:22.297Z</time></trkpt><trkpt lat="44.5444345" lon="10.6451597"><ele>197.0</ele><time>2026-03-22T12:14:23.277Z</time></trkpt><trkpt lat="44.5444887" lon="10.6448605"><ele>197.0</ele><time>2026-03-22T12:14:24.287Z</time></trkpt><trkpt lat="44.5445204" lon="10.6445701"><ele>197.0</ele><time>2026-03-22T12:14:25.293Z</time></trkpt><trkpt lat="44.544532" lon="10.6442865"><ele>197.0</ele><time>2026-03-22T12:14:26.297Z</time></trkpt><trkpt lat="44.5445366" lon="10.6440189"><ele>197.0</ele><time>2026-03-22T12:14:27.291Z</time></trkpt><trkpt lat="44.5445485" lon="10.6437879"><ele>199.0</ele><time>2026-03-22T12:14:28.289Z</time></trkpt><trkpt lat="44.5445805" lon="10.643584"><ele>201.0</ele><time>2026-03-22T12:14:29.289Z</time></trkpt><trkpt lat="44.544636" lon="10.6434111"><ele>203.0</ele><time>2026-03-22T12:14:30.281Z</time></trkpt><trkpt lat="44.5447242" lon="10.6432798"><ele>205.0</ele><time>2026-03-22T12:14:31.28Z</time></trkpt><trkpt lat="44.5448127" lon="10.643182"><ele>205.0</ele><time>2026-03-22T12:14:32.287Z</time></trkpt><trkpt lat="44.5448735" lon="10.643113"><ele>205.0</ele><time>2026-03-22T12:14:33.291Z</time></trkpt><trkpt lat="44.5449238" lon="10.6429669"><ele>205.0</ele><time>2026-03-22T12:14:35.287Z</time></trkpt><trkpt lat="44.5449167" lon="10.6428457"><ele>205.0</ele><time>2026-03-22T12:14:36.284Z</time></trkpt><trkpt lat="44.5448999" lon="10.6426849"><ele>205.0</ele><time>2026-03-22T12:14:37.279Z</time></trkpt><trkpt lat="44.5448799" lon="10.6424912"><ele>205.33333333333331</ele><time>2026-03-22T12:14:38.294Z</time></trkpt><trkpt lat="44.5448695" lon="10.6422793"><ele>205.66666666666669</ele><time>2026-03-22T12:14:39.289Z</time></trkpt><trkpt lat="44.5448621" lon="10.6420577"><ele>206.0</ele><time>2026-03-22T12:14:40.289Z</time></trkpt><trkpt lat="44.5448688" lon="10.6418229"><ele>206.0</ele><time>2026-03-22T12:14:41.287Z</time></trkpt><trkpt lat="44.544877" lon="10.641598"><ele>206.0</ele><time>2026-03-22T12:14:42.295Z</time></trkpt><trkpt lat="44.5448907" lon="10.6414122"><ele>206.0</ele><time>2026-03-22T12:14:43.285Z</time></trkpt><trkpt lat="44.5449086" lon="10.6412372"><ele>206.0</ele><time>2026-03-22T12:14:44.272Z</time></trkpt><trkpt lat="44.5449222" lon="10.6410584"><ele>206.25</ele><time>2026-03-22T12:14:45.282Z</time></trkpt><trkpt lat="44.5449379" lon="10.6408636"><ele>206.5</ele><time>2026-03-22T12:14:46.288Z</time></trkpt><trkpt lat="44.5449692" lon="10.6406609"><ele>206.75</ele><time>2026-03-22T12:14:47.282Z</time></trkpt><trkpt lat="44.5450208" lon="10.6404495"><ele>207.0</ele><time>2026-03-22T12:14:48.273Z</time></trkpt><trkpt lat="44.5450859" lon="10.6402311"><ele>207.33333333333331</ele><time>2026-03-22T12:14:49.294Z</time></trkpt><trkpt lat="44.5451507" lon="10.6400071"><ele>207.66666666666666</ele><time>2026-03-22T12:14:50.29Z</time></trkpt><trkpt lat="44.5452142" lon="10.6397952"><ele>208.0</ele><time>2026-03-22T12:14:51.285Z</time></trkpt><trkpt lat="44.5452651" lon="10.639599"><ele>207.25</ele><time>2026-03-22T12:14:52.286Z</time></trkpt><trkpt lat="44.5453134" lon="10.6394222"><ele>206.5</ele><time>2026-03-22T12:14:53.298Z</time></trkpt><trkpt lat="44.5453671" lon="10.6392746"><ele>205.75</ele><time>2026-03-22T12:14:54.274Z</time></trkpt><trkpt lat="44.5454285" lon="10.6391339"><ele>205.0</ele><time>2026-03-22T12:14:55.278Z</time></trkpt><trkpt lat="44.5455075" lon="10.6390033"><ele>209.0</ele><time>2026-03-22T12:14:56.295Z</time></trkpt><trkpt lat="44.5456234" lon="10.6389061"><ele>213.0</ele><time>2026-03-22T12:14:57.29Z</time></trkpt><trkpt lat="44.5457545" lon="10.6388022"><ele>217.0</ele><time>2026-03-22T12:14:58.282Z</time></trkpt><trkpt lat="44.5458969" lon="10.6386671"><ele>215.66666666666666</ele><time>2026-03-22T12:14:59.282Z</time></trkpt><trkpt lat="44.5460382" lon="10.6385123"><ele>214.33333333333331</ele><time>2026-03-22T12:15:00.28Z</time></trkpt><trkpt lat="44.546184" lon="10.6383686"><ele>213.0</ele><time>2026-03-22T12:15:01.284Z</time></trkpt><trkpt lat="44.5463233" lon="10.6382257"><ele>217.25</ele><time>2026-03-22T12:15:02.29Z</time></trkpt><trkpt lat="44.5464463" lon="10.6380923"><ele>221.5</ele><time>2026-03-22T12:15:03.295Z</time></trkpt><trkpt lat="44.546553" lon="10.637973"><ele>225.75</ele><time>2026-03-22T12:15:04.288Z</time></trkpt><trkpt lat="44.5466468" lon="10.6378769"><ele>230.0</ele><time>2026-03-22T12:15:05.29Z</time></trkpt><trkpt lat="44.5467262" lon="10.6378021"><ele>231.8</ele><time>2026-03-22T12:15:06.291Z</time></trkpt><trkpt lat="44.5467898" lon="10.6377677"><ele>233.6</ele><time>2026-03-22T12:15:07.286Z</time></trkpt><trkpt lat="44.5468528" lon="10.637725"><ele>235.39999999999998</ele><time>2026-03-22T12:15:09.294Z</time></trkpt><trkpt lat="44.5469512" lon="10.6375902"><ele>237.2</ele><time>2026-03-22T12:15:12.287Z</time></trkpt><trkpt lat="44.5470226" lon="10.6374783"><ele>239.0</ele><time>2026-03-22T12:15:13.275Z</time></trkpt><trkpt lat="44.5470743" lon="10.6373314"><ele>239.0</ele><time>2026-03-22T12:15:14.285Z</time></trkpt><trkpt lat="44.5471284" lon="10.6371772"><ele>239.0</ele><time>2026-03-22T12:15:15.278Z</time></trkpt><trkpt lat="44.5472035" lon="10.6370013"><ele>239.0</ele><time>2026-03-22T12:15:16.291Z</time></trkpt><trkpt lat="44.5472845" lon="10.6368124"><ele>239.0</ele><time>2026-03-22T12:15:17.291Z</time></trkpt><trkpt lat="44.5473649" lon="10.6366016"><ele>237.33333333333334</ele><time>2026-03-22T12:15:18.294Z</time></trkpt><trkpt lat="44.5474267" lon="10.6363791"><ele>235.66666666666669</ele><time>2026-03-22T12:15:19.29Z</time></trkpt><trkpt lat="44.5474617" lon="10.6361593"><ele>234.0</ele><time>2026-03-22T12:15:20.294Z</time></trkpt><trkpt lat="44.547466" lon="10.6359356"><ele>233.0</ele><time>2026-03-22T12:15:21.274Z</time></trkpt><trkpt lat="44.5474655" lon="10.6357072"><ele>232.0</ele><time>2026-03-22T12:15:22.283Z</time></trkpt><trkpt lat="44.547484" lon="10.6354983"><ele>231.0</ele><time>2026-03-22T12:15:23.27Z</time></trkpt><trkpt lat="44.5475101" lon="10.6353018"><ele>231.0</ele><time>2026-03-22T12:15:24.295Z</time></trkpt><trkpt lat="44.5475127" lon="10.6351049"><ele>231.0</ele><time>2026-03-22T12:15:25.296Z</time></trkpt><trkpt lat="44.5474793" lon="10.6349048"><ele>231.0</ele><time>2026-03-22T12:15:26.284Z</time></trkpt><trkpt lat="44.5474377" lon="10.6347106"><ele>231.0</ele><time>2026-03-22T12:15:27.279Z</time></trkpt><trkpt lat="44.547419" lon="10.6345088"><ele>230.33333333333331</ele><time>2026-03-22T12:15:28.285Z</time></trkpt><trkpt lat="44.5474351" lon="10.6343012"><ele>229.66666666666666</ele><time>2026-03-22T12:15:29.283Z</time></trkpt><trkpt lat="44.5474735" lon="10.6340829"><ele>229.0</ele><time>2026-03-22T12:15:30.275Z</time></trkpt><trkpt lat="44.5475624" lon="10.6338675"><ele>229.0</ele><time>2026-03-22T12:15:31.295Z</time></trkpt><trkpt lat="44.5476702" lon="10.6336672"><ele>229.0</ele><time>2026-03-22T12:15:32.288Z</time></trkpt><trkpt lat="44.547766" lon="10.6334586"><ele>229.0</ele><time>2026-03-22T12:15:33.282Z</time></trkpt><trkpt lat="44.5478337" lon="10.6332365"><ele>231.66666666666666</ele><time>2026-03-22T12:15:34.274Z</time></trkpt><trkpt lat="44.5478797" lon="10.6330087"><ele>234.33333333333331</ele><time>2026-03-22T12:15:35.293Z</time></trkpt><trkpt lat="44.5479133" lon="10.6327881"><ele>237.0</ele><time>2026-03-22T12:15:36.298Z</time></trkpt><trkpt lat="44.5479468" lon="10.6325773"><ele>237.0</ele><time>2026-03-22T12:15:37.283Z</time></trkpt><trkpt lat="44.5479738" lon="10.6323842"><ele>237.0</ele><time>2026-03-22T12:15:38.282Z</time></trkpt><trkpt lat="44.547999" lon="10.6322036"><ele>237.0</ele><time>2026-03-22T12:15:39.29Z</time></trkpt><trkpt lat="44.5480144" lon="10.6320265"><ele>237.0</ele><time>2026-03-22T12:15:40.293Z</time></trkpt><trkpt lat="44.5480156" lon="10.6318494"><ele>236.25</ele><time>2026-03-22T12:15:41.288Z</time></trkpt><trkpt lat="44.5480038" lon="10.6316703"><ele>235.5</ele><time>2026-03-22T12:15:42.29Z</time></trkpt><trkpt lat="44.547969" lon="10.6314916"><ele>234.75</ele><time>2026-03-22T12:15:43.274Z</time></trkpt><trkpt lat="44.5479155" lon="10.6313179"><ele>234.0</ele><time>2026-03-22T12:15:44.293Z</time></trkpt><trkpt lat="44.5478468" lon="10.6311583"><ele>231.25</ele><time>2026-03-22T12:15:45.29Z</time></trkpt><trkpt lat="44.5477793" lon="10.6310025"><ele>228.5</ele><time>2026-03-22T12:15:46.28Z</time></trkpt><trkpt lat="44.5477133" lon="10.6308422"><ele>225.75</ele><time>2026-03-22T12:15:47.288Z</time></trkpt><trkpt lat="44.5476542" lon="10.6306937"><ele>223.0</ele><time>2026-03-22T12:15:48.295Z</time></trkpt><trkpt lat="44.547597" lon="10.6305632"><ele>223.0</ele><time>2026-03-22T12:15:49.289Z</time></trkpt><trkpt lat="44.5475379" lon="10.6304364"><ele>223.0</ele><time>2026-03-22T12:15:50.28Z</time></trkpt><trkpt lat="44.5474789" lon="10.6303195"><ele>223.0</ele><time>2026-03-22T12:15:51.291Z</time></trkpt><trkpt lat="44.5474238" lon="10.6302114"><ele>223.0</ele><time>2026-03-22T12:15:52.286Z</time></trkpt><trkpt lat="44.5473796" lon="10.6301062"><ele>223.0</ele><time>2026-03-22T12:15:53.294Z</time></trkpt><trkpt lat="44.5473427" lon="10.6299991"><ele>224.0</ele><time>2026-03-22T12:15:54.289Z</time></trkpt><trkpt lat="44.547305" lon="10.6298892"><ele>225.0</ele><time>2026-03-22T12:15:55.292Z</time></trkpt><trkpt lat="44.547266" lon="10.6297832"><ele>226.0</ele><time>2026-03-22T12:15:56.288Z</time></trkpt><trkpt lat="44.5472369" lon="10.6296933"><ele>227.0</ele><time>2026-03-22T12:15:57.276Z</time></trkpt><trkpt lat="44.5472533" lon="10.6295577"><ele>228.0</ele><time>2026-03-22T12:15:59.29Z</time></trkpt><trkpt lat="44.5473528" lon="10.6294823"><ele>228.0</ele><time>2026-03-22T12:16:01.291Z</time></trkpt><trkpt lat="44.5474282" lon="10.6294732"><ele>228.0</ele><time>2026-03-22T12:16:02.275Z</time></trkpt><trkpt lat="44.5475251" lon="10.6294785"><ele>228.0</ele><time>2026-03-22T12:16:03.281Z</time></trkpt><trkpt lat="44.547644" lon="10.6294809"><ele>228.0</ele><time>2026-03-22T12:16:04.293Z</time></trkpt><trkpt lat="44.5477802" lon="10.6294665"><ele>228.0</ele><time>2026-03-22T12:16:05.269Z</time></trkpt><trkpt lat="44.5479297" lon="10.6294405"><ele>231.0</ele><time>2026-03-22T12:16:06.29Z</time></trkpt><trkpt lat="44.548088" lon="10.6294098"><ele>234.0</ele><time>2026-03-22T12:16:07.291Z</time></trkpt><trkpt lat="44.5482348" lon="10.629366"><ele>237.0</ele><time>2026-03-22T12:16:08.289Z</time></trkpt><trkpt lat="44.5483746" lon="10.629304"><ele>237.0</ele><time>2026-03-22T12:16:09.276Z</time></trkpt><trkpt lat="44.5485228" lon="10.6292307"><ele>237.0</ele><time>2026-03-22T12:16:10.291Z</time></trkpt><trkpt lat="44.548652" lon="10.6291602"><ele>237.0</ele><time>2026-03-22T12:16:11.278Z</time></trkpt><trkpt lat="44.5487827" lon="10.6291191"><ele>237.0</ele><time>2026-03-22T12:16:12.288Z</time></trkpt><trkpt lat="44.5489283" lon="10.6291113"><ele>241.75</ele><time>2026-03-22T12:16:13.283Z</time></trkpt><trkpt lat="44.5490744" lon="10.629146"><ele>246.5</ele><time>2026-03-22T12:16:14.275Z</time></trkpt><trkpt lat="44.5492184" lon="10.6291973"><ele>251.25</ele><time>2026-03-22T12:16:15.286Z</time></trkpt><trkpt lat="44.549355" lon="10.6292524"><ele>256.0</ele><time>2026-03-22T12:16:16.286Z</time></trkpt><trkpt lat="44.5494822" lon="10.6292992"><ele>256.66666666666663</ele><time>2026-03-22T12:16:17.287Z</time></trkpt><trkpt lat="44.5495927" lon="10.6293331"><ele>257.3333333333333</ele><time>2026-03-22T12:16:18.28Z</time></trkpt><trkpt lat="44.5496882" lon="10.6293568"><ele>258.0</ele><time>2026-03-22T12:16:19.279Z</time></trkpt><trkpt lat="44.5497638" lon="10.6293776"><ele>258.6666666666667</ele><time>2026-03-22T12:16:20.269Z</time></trkpt><trkpt lat="44.5498256" lon="10.6294115"><ele>259.33333333333337</ele><time>2026-03-22T12:16:21.28Z</time></trkpt><trkpt lat="44.5498865" lon="10.6294609"><ele>260.0</ele><time>2026-03-22T12:16:22.275Z</time></trkpt><trkpt lat="44.5499198" lon="10.6295458"><ele>261.0</ele><time>2026-03-22T12:16:23.275Z</time></trkpt><trkpt lat="44.5499423" lon="10.6296837"><ele>262.0</ele><time>2026-03-22T12:16:24.287Z</time></trkpt><trkpt lat="44.5499554" lon="10.6298138"><ele>263.0</ele><time>2026-03-22T12:16:25.289Z</time></trkpt><trkpt lat="44.5499923" lon="10.6299278"><ele>264.0</ele><time>2026-03-22T12:16:26.287Z</time></trkpt><trkpt lat="44.5500525" lon="10.630028"><ele>265.0</ele><time>2026-03-22T12:16:27.278Z</time></trkpt><trkpt lat="44.5501272" lon="10.6301205"><ele>265.0</ele><time>2026-03-22T12:16:28.272Z</time></trkpt><trkpt lat="44.5502033" lon="10.6302047"><ele>265.0</ele><time>2026-03-22T12:16:29.282Z</time></trkpt><trkpt lat="44.5502735" lon="10.6302852"><ele>265.0</ele><time>2026-03-22T12:16:30.282Z</time></trkpt><trkpt lat="44.5503317" lon="10.6303769"><ele>265.0</ele><time>2026-03-22T12:16:31.29Z</time></trkpt><trkpt lat="44.5503896" lon="10.6304937"><ele>265.0</ele><time>2026-03-22T12:16:32.294Z</time></trkpt><trkpt lat="44.5504314" lon="10.6306302"><ele>264.4</ele><time>2026-03-22T12:16:33.273Z</time></trkpt><trkpt lat="44.5504715" lon="10.6307819"><ele>263.8</ele><time>2026-03-22T12:16:34.289Z</time></trkpt><trkpt lat="44.5505166" lon="10.6309299"><ele>263.2</ele><time>2026-03-22T12:16:35.286Z</time></trkpt><trkpt lat="44.5505698" lon="10.6310621"><ele>262.6</ele><time>2026-03-22T12:16:36.283Z</time></trkpt><trkpt lat="44.5506402" lon="10.6311723"><ele>262.0</ele><time>2026-03-22T12:16:37.283Z</time></trkpt><trkpt lat="44.5507316" lon="10.6312743"><ele>264.6</ele><time>2026-03-22T12:16:38.282Z</time></trkpt><trkpt lat="44.5508172" lon="10.6313692"><ele>267.2</ele><time>2026-03-22T12:16:39.291Z</time></trkpt><trkpt lat="44.5508804" lon="10.6314588"><ele>269.8</ele><time>2026-03-22T12:16:40.279Z</time></trkpt><trkpt lat="44.5509199" lon="10.6315667"><ele>272.4</ele><time>2026-03-22T12:16:41.291Z</time></trkpt><trkpt lat="44.5509302" lon="10.6316874"><ele>275.0</ele><time>2026-03-22T12:16:42.291Z</time></trkpt><trkpt lat="44.5509306" lon="10.6318058"><ele>275.0</ele><time>2026-03-22T12:16:43.28Z</time></trkpt><trkpt lat="44.5509373" lon="10.6319135"><ele>275.0</ele><time>2026-03-22T12:16:44.279Z</time></trkpt><trkpt lat="44.5509404" lon="10.6320049"><ele>275.0</ele><time>2026-03-22T12:16:45.286Z</time></trkpt><trkpt lat="44.5509319" lon="10.6320984"><ele>275.0</ele><time>2026-03-22T12:16:46.285Z</time></trkpt><trkpt lat="44.5509016" lon="10.6322303"><ele>275.0</ele><time>2026-03-22T12:16:47.28Z</time></trkpt><trkpt lat="44.550861" lon="10.6323759"><ele>275.0</ele><time>2026-03-22T12:16:48.281Z</time></trkpt><trkpt lat="44.5508162" lon="10.632492"><ele>276.2</ele><time>2026-03-22T12:16:49.285Z</time></trkpt><trkpt lat="44.5507523" lon="10.6325883"><ele>277.4</ele><time>2026-03-22T12:16:50.29Z</time></trkpt><trkpt lat="44.5506661" lon="10.6326669"><ele>278.6</ele><time>2026-03-22T12:16:51.281Z</time></trkpt><trkpt lat="44.5505838" lon="10.6327512"><ele>279.8</ele><time>2026-03-22T12:16:52.28Z</time></trkpt><trkpt lat="44.5505086" lon="10.6328547"><ele>281.0</ele><time>2026-03-22T12:16:53.279Z</time></trkpt><trkpt lat="44.5504544" lon="10.6329667"><ele>281.6666666666667</ele><time>2026-03-22T12:16:54.273Z</time></trkpt><trkpt lat="44.5504173" lon="10.633083"><ele>282.33333333333337</ele><time>2026-03-22T12:16:55.287Z</time></trkpt><trkpt lat="44.5504165" lon="10.633206"><ele>283.0</ele><time>2026-03-22T12:16:56.287Z</time></trkpt><trkpt lat="44.5504434" lon="10.6333111"><ele>283.6666666666667</ele><time>2026-03-22T12:16:57.288Z</time></trkpt><trkpt lat="44.5504964" lon="10.633408"><ele>284.3333333333333</ele><time>2026-03-22T12:16:58.277Z</time></trkpt><trkpt lat="44.5505679" lon="10.6334866"><ele>285.0</ele><time>2026-03-22T12:16:59.274Z</time></trkpt><trkpt lat="44.5506215" lon="10.6335618"><ele>287.5</ele><time>2026-03-22T12:17:00.279Z</time></trkpt><trkpt lat="44.5506579" lon="10.6336422"><ele>290.0</ele><time>2026-03-22T12:17:01.294Z</time></trkpt><trkpt lat="44.5506886" lon="10.633744"><ele>292.5</ele><time>2026-03-22T12:17:02.272Z</time></trkpt><trkpt lat="44.5507211" lon="10.6338606"><ele>295.0</ele><time>2026-03-22T12:17:03.281Z</time></trkpt><trkpt lat="44.5507813" lon="10.6339702"><ele>297.5</ele><time>2026-03-22T12:17:04.282Z</time></trkpt><trkpt lat="44.5508555" lon="10.6340689"><ele>300.0</ele><time>2026-03-22T12:17:05.28Z</time></trkpt><trkpt lat="44.5509266" lon="10.6341588"><ele>300.0</ele><time>2026-03-22T12:17:06.284Z</time></trkpt><trkpt lat="44.5509959" lon="10.634245"><ele>300.0</ele><time>2026-03-22T12:17:07.272Z</time></trkpt><trkpt lat="44.5510592" lon="10.6343266"><ele>300.0</ele><time>2026-03-22T12:17:08.293Z</time></trkpt><trkpt lat="44.551118" lon="10.6344075"><ele>300.0</ele><time>2026-03-22T12:17:09.289Z</time></trkpt><trkpt lat="44.5511742" lon="10.6344924"><ele>300.0</ele><time>2026-03-22T12:17:10.295Z</time></trkpt><trkpt lat="44.5512126" lon="10.6345773"><ele>300.0</ele><time>2026-03-22T12:17:11.288Z</time></trkpt><trkpt lat="44.5512491" lon="10.6346703"><ele>299.2</ele><time>2026-03-22T12:17:12.277Z</time></trkpt><trkpt lat="44.5512853" lon="10.6347746"><ele>298.4</ele><time>2026-03-22T12:17:13.286Z</time></trkpt><trkpt lat="44.5513038" lon="10.6348919"><ele>297.6</ele><time>2026-03-22T12:17:14.281Z</time></trkpt><trkpt lat="44.5513031" lon="10.6350219"><ele>296.8</ele><time>2026-03-22T12:17:15.269Z</time></trkpt><trkpt lat="44.5513051" lon="10.6351586"><ele>296.0</ele><time>2026-03-22T12:17:16.276Z</time></trkpt><trkpt lat="44.5513133" lon="10.6353072"><ele>299.0</ele><time>2026-03-22T12:17:17.28Z</time></trkpt><trkpt lat="44.5513191" lon="10.6354671"><ele>302.0</ele><time>2026-03-22T12:17:18.28Z</time></trkpt><trkpt lat="44.5513231" lon="10.6356333"><ele>305.0</ele><time>2026-03-22T12:17:19.286Z</time></trkpt><trkpt lat="44.5513185" lon="10.6357811"><ele>308.0</ele><time>2026-03-22T12:17:20.278Z</time></trkpt><trkpt lat="44.551302" lon="10.6359055"><ele>311.0</ele><time>2026-03-22T12:17:21.289Z</time></trkpt><trkpt lat="44.551279" lon="10.6360228"><ele>311.0</ele><time>2026-03-22T12:17:22.294Z</time></trkpt><trkpt lat="44.5512369" lon="10.6361282"><ele>311.0</ele><time>2026-03-22T12:17:23.286Z</time></trkpt><trkpt lat="44.5511901" lon="10.6362417"><ele>311.0</ele><time>2026-03-22T12:17:24.281Z</time></trkpt><trkpt lat="44.5511133" lon="10.6363446"><ele>311.0</ele><time>2026-03-22T12:17:25.279Z</time></trkpt><trkpt lat="44.5510177" lon="10.6364264"><ele>311.0</ele><time>2026-03-22T12:17:26.276Z</time></trkpt><trkpt lat="44.5509204" lon="10.6365055"><ele>313.0</ele><time>2026-03-22T12:17:27.286Z</time></trkpt><trkpt lat="44.5508343" lon="10.6365885"><ele>315.0</ele><time>2026-03-22T12:17:28.288Z</time></trkpt><trkpt lat="44.5507536" lon="10.6366694"><ele>317.0</ele><time>2026-03-22T12:17:29.289Z</time></trkpt><trkpt lat="44.5506776" lon="10.636739"><ele>319.0</ele><time>2026-03-22T12:17:30.277Z</time></trkpt><trkpt lat="44.5506134" lon="10.6368056"><ele>321.0</ele><time>2026-03-22T12:17:31.292Z</time></trkpt><trkpt lat="44.5505694" lon="10.6368841"><ele>323.0</ele><time>2026-03-22T12:17:32.306Z</time></trkpt><trkpt lat="44.5504971" lon="10.6370283"><ele>324.0</ele><time>2026-03-22T12:17:34.296Z</time></trkpt><trkpt lat="44.5504733" lon="10.637205"><ele>325.0</ele><time>2026-03-22T12:17:36.284Z</time></trkpt><trkpt lat="44.5504828" lon="10.6373026"><ele>326.0</ele><time>2026-03-22T12:17:37.286Z</time></trkpt><trkpt lat="44.5504895" lon="10.6374209"><ele>327.0</ele><time>2026-03-22T12:17:38.285Z</time></trkpt><trkpt lat="44.5504942" lon="10.6375266"><ele>328.0</ele><time>2026-03-22T12:17:39.286Z</time></trkpt><trkpt lat="44.550488" lon="10.6376168"><ele>329.0</ele><time>2026-03-22T12:17:40.286Z</time></trkpt><trkpt lat="44.5504465" lon="10.6377789"><ele>328.33333333333337</ele><time>2026-03-22T12:17:42.29Z</time></trkpt><trkpt lat="44.5504184" lon="10.6378625"><ele>327.6666666666667</ele><time>2026-03-22T12:17:43.288Z</time></trkpt><trkpt lat="44.5503682" lon="10.6380057"><ele>327.0</ele><time>2026-03-22T12:17:45.285Z</time></trkpt><trkpt lat="44.5503301" lon="10.6381332"><ele>326.3333333333333</ele><time>2026-03-22T12:17:47.287Z</time></trkpt><trkpt lat="44.5503385" lon="10.6382565"><ele>325.66666666666663</ele><time>2026-03-22T12:17:50.275Z</time></trkpt><trkpt lat="44.5504109" lon="10.6382399"><ele>325.0</ele><time>2026-03-22T12:20:08.281Z</time></trkpt><trkpt lat="44.5503445" lon="10.6382177"><ele>325.0</ele><time>2026-03-22T12:20:15.287Z</time></trkpt><trkpt lat="44.550273" lon="10.6382107"><ele>325.0</ele><time>2026-03-22T12:20:19.288Z</time></trkpt><trkpt lat="44.5502193" lon="10.6382714"><ele>325.0</ele><time>2026-03-22T12:20:21.296Z</time></trkpt><trkpt lat="44.550174" lon="10.6383389"><ele>325.0</ele><time>2026-03-22T12:20:22.293Z</time></trkpt><trkpt lat="44.5501406" lon="10.6384192"><ele>325.0</ele><time>2026-03-22T12:20:23.281Z</time></trkpt><trkpt lat="44.550111" lon="10.6385007"><ele>325.0</ele><time>2026-03-22T12:20:24.295Z</time></trkpt><trkpt lat="44.5500577" lon="10.6386409"><ele>325.5</ele><time>2026-03-22T12:20:26.29Z</time></trkpt><trkpt lat="44.5500076" lon="10.6387654"><ele>326.0</ele><time>2026-03-22T12:20:28.27Z</time></trkpt><trkpt lat="44.5499542" lon="10.6388906"><ele>326.5</ele><time>2026-03-22T12:20:30.292Z</time></trkpt><trkpt lat="44.5499048" lon="10.639007"><ele>327.0</ele><time>2026-03-22T12:20:32.27Z</time></trkpt><trkpt lat="44.5498738" lon="10.6390973"><ele>327.5</ele><time>2026-03-22T12:20:34.288Z</time></trkpt><trkpt lat="44.5498724" lon="10.6391868"><ele>328.0</ele><time>2026-03-22T12:20:36.286Z</time></trkpt><trkpt lat="44.5498703" lon="10.6392771"><ele>327.99999999999994</ele><time>2026-03-22T12:20:38.282Z</time></trkpt><trkpt lat="44.5498481" lon="10.6393777"><ele>328.0</ele><time>2026-03-22T12:20:40.289Z</time></trkpt><trkpt lat="44.5498087" lon="10.6394468"><ele>328.0</ele><time>2026-03-22T12:20:42.288Z</time></trkpt><trkpt lat="44.5497573" lon="10.6395268"><ele>328.0</ele><time>2026-03-22T12:20:45.271Z</time></trkpt><trkpt lat="44.5496903" lon="10.6394963"><ele>328.0</ele><time>2026-03-22T12:20:50.298Z</time></trkpt><trkpt lat="44.5497513" lon="10.6394219"><ele>327.99999999999994</ele><time>2026-03-22T12:20:54.29Z</time></trkpt><trkpt lat="44.5497984" lon="10.6393579"><ele>328.0</ele><time>2026-03-22T12:20:58.292Z</time></trkpt><trkpt lat="44.5498688" lon="10.6393356"><ele>328.0</ele><time>2026-03-22T12:21:20.277Z</time></trkpt><trkpt lat="44.5498504" lon="10.6392291"><ele>328.0</ele><time>2026-03-22T12:22:14.274Z</time></trkpt><trkpt lat="44.5498541" lon="10.6391356"><ele>328.0</ele><time>2026-03-22T12:22:18.278Z</time></trkpt><trkpt lat="44.5498775" lon="10.6390444"><ele>328.0</ele><time>2026-03-22T12:22:23.266Z</time></trkpt><trkpt lat="44.5499093" lon="10.6389611"><ele>328.0</ele><time>2026-03-22T12:22:29.22Z</time></trkpt></trkseg></trk></gpx>